<?xml version="1.0" encoding="UTF-8"?>
<gpx version="1.1" creator="https://www.youtrack.es" xsi:schemaLocation="http://www.topografix.com/GPX/1/1 http://www.topografix.com/GPX/1/1/gpx.xsd http://www.garmin.com/xmlschemas/GpxExtensions/v3 http://www.garmin.com/xmlschemas/GpxExtensionsv3.xsd http://www.garmin.com/xmlschemas/TrackPointExtension/v1 http://www.garmin.com/xmlschemas/TrackPointExtensionv1.xsd" xmlns:gpxtpx="http://www.garmin.com/xmlschemas/TrackPointExtension/v1" xmlns:gpxx="http://www.garmin.com/xmlschemas/GpxExtensions/v3" xmlns:xsi="http://www.w3.org/2001/XMLSchema-instance">
  <metadata>
    <link href="https://www.youtrack.es">
      <text>YouTrack.es</text>
    </link>
    <time>2026-05-08T07:10:12Z</time>
  </metadata>
  <trk>
    <src>https://www.youtrack.es</src>
    <link href="https://www.youtrack.es/ruta/4664-cueva-de-ambrosio">
      <text>YouTrack.es</text>
    </link>
    <trkseg>
      <trkpt lat="37.728289039805532" lon="-1.892953002825379">
        <ele>523.10000000000002</ele>
        <time>2018-04-18T08:41:57Z</time>
      </trkpt>
      <trkpt lat="37.728283004835248" lon="-1.892994996160269">
        <ele>523.20000000000005</ele>
        <time>2018-04-18T08:42:09Z</time>
      </trkpt>
      <trkpt lat="37.728291973471642" lon="-1.893017962574959">
        <ele>523.60000000000002</ele>
        <time>2018-04-18T08:42:11Z</time>
      </trkpt>
      <trkpt lat="37.728247968479991" lon="-1.893524983897805">
        <ele>537</ele>
        <time>2018-04-18T09:02:41Z</time>
      </trkpt>
      <trkpt lat="37.728263977915049" lon="-1.893520960584283">
        <ele>538.5</ele>
        <time>2018-04-18T09:02:42Z</time>
      </trkpt>
      <trkpt lat="37.728336984291673" lon="-1.893730005249381">
        <ele>532.70000000000005</ele>
        <time>2018-04-18T09:02:52Z</time>
      </trkpt>
      <trkpt lat="37.728343019261956" lon="-1.893745008856058">
        <ele>533.70000000000005</ele>
        <time>2018-04-18T09:02:53Z</time>
      </trkpt>
      <trkpt lat="37.728350982069969" lon="-1.893758000805974">
        <ele>534.29999999999995</ele>
        <time>2018-04-18T09:02:54Z</time>
      </trkpt>
      <trkpt lat="37.728499006479979" lon="-1.894052037969232">
        <ele>527.89999999999998</ele>
        <time>2018-04-18T09:03:09Z</time>
      </trkpt>
      <trkpt lat="37.728597996756434" lon="-1.894195033237338">
        <ele>526</ele>
        <time>2018-04-18T09:03:18Z</time>
      </trkpt>
      <trkpt lat="37.728608977049589" lon="-1.894204001873732">
        <ele>526.60000000000002</ele>
        <time>2018-04-18T09:03:19Z</time>
      </trkpt>
      <trkpt lat="37.728650970384479" lon="-1.89424498938024">
        <ele>527.10000000000002</ele>
        <time>2018-04-18T09:03:24Z</time>
      </trkpt>
      <trkpt lat="37.728659017011523" lon="-1.894258987158537">
        <ele>527</ele>
        <time>2018-04-18T09:03:25Z</time>
      </trkpt>
      <trkpt lat="37.728666979819536" lon="-1.894274996593595">
        <ele>527.10000000000002</ele>
        <time>2018-04-18T09:03:26Z</time>
      </trkpt>
      <trkpt lat="37.72867301478982" lon="-1.894295029342175">
        <ele>526.5</ele>
        <time>2018-04-18T09:03:27Z</time>
      </trkpt>
      <trkpt lat="37.728678965941072" lon="-1.894314978271723">
        <ele>526.5</ele>
        <time>2018-04-18T09:03:28Z</time>
      </trkpt>
      <trkpt lat="37.728688018396497" lon="-1.894334005191922">
        <ele>526.5</ele>
        <time>2018-04-18T09:03:29Z</time>
      </trkpt>
      <trkpt lat="37.72871701978147" lon="-1.894383039325476">
        <ele>526.5</ele>
        <time>2018-04-18T09:03:32Z</time>
      </trkpt>
      <trkpt lat="37.728725988417864" lon="-1.894401982426643">
        <ele>526.60000000000002</ele>
        <time>2018-04-18T09:03:33Z</time>
      </trkpt>
      <trkpt lat="37.728737974539399" lon="-1.894421009346843">
        <ele>526.60000000000002</ele>
        <time>2018-04-18T09:03:34Z</time>
      </trkpt>
      <trkpt lat="37.728897985070944" lon="-1.894719991832972">
        <ele>527.60000000000002</ele>
        <time>2018-04-18T09:03:49Z</time>
      </trkpt>
      <trkpt lat="37.72903704084456" lon="-1.894978992640972">
        <ele>529.89999999999998</ele>
        <time>2018-04-18T09:04:03Z</time>
      </trkpt>
      <trkpt lat="37.729195961728692" lon="-1.895237993448973">
        <ele>533.39999999999998</ele>
        <time>2018-04-18T09:04:16Z</time>
      </trkpt>
      <trkpt lat="37.729367036372423" lon="-1.895533036440611">
        <ele>535.70000000000005</ele>
        <time>2018-04-18T09:04:32Z</time>
      </trkpt>
      <trkpt lat="37.729396959766746" lon="-1.895634038373828">
        <ele>536.29999999999995</ele>
        <time>2018-04-18T09:04:37Z</time>
      </trkpt>
      <trkpt lat="37.72940400056541" lon="-1.896055983379483">
        <ele>539.20000000000005</ele>
        <time>2018-04-18T09:04:54Z</time>
      </trkpt>
      <trkpt lat="37.729400983080268" lon="-1.896451022475958">
        <ele>539.60000000000002</ele>
        <time>2018-04-18T09:05:11Z</time>
      </trkpt>
      <trkpt lat="37.729368964210153" lon="-1.896769031882286">
        <ele>540.60000000000002</ele>
        <time>2018-04-18T09:05:25Z</time>
      </trkpt>
      <trkpt lat="37.729272991418839" lon="-1.897217966616154">
        <ele>543.10000000000002</ele>
        <time>2018-04-18T09:05:42Z</time>
      </trkpt>
      <trkpt lat="37.729204008355737" lon="-1.897627003490925">
        <ele>547</ele>
        <time>2018-04-18T09:05:58Z</time>
      </trkpt>
      <trkpt lat="37.729217000305653" lon="-1.897998992353678">
        <ele>550.29999999999995</ele>
        <time>2018-04-18T09:06:13Z</time>
      </trkpt>
      <trkpt lat="37.729220017790794" lon="-1.898163026198745">
        <ele>552.29999999999995</ele>
        <time>2018-04-18T09:06:20Z</time>
      </trkpt>
      <trkpt lat="37.729222029447556" lon="-1.898184986785054">
        <ele>552.29999999999995</ele>
        <time>2018-04-18T09:06:21Z</time>
      </trkpt>
      <trkpt lat="37.729222029447556" lon="-1.898210970684886">
        <ele>552.29999999999995</ele>
        <time>2018-04-18T09:06:22Z</time>
      </trkpt>
      <trkpt lat="37.729224041104317" lon="-1.89823703840375">
        <ele>552.20000000000005</ele>
        <time>2018-04-18T09:06:23Z</time>
      </trkpt>
      <trkpt lat="37.729224041104317" lon="-1.898264028131962">
        <ele>552.29999999999995</ele>
        <time>2018-04-18T09:06:24Z</time>
      </trkpt>
      <trkpt lat="37.729224041104317" lon="-1.898291017860174">
        <ele>552.79999999999995</ele>
        <time>2018-04-18T09:06:25Z</time>
      </trkpt>
      <trkpt lat="37.729225968942046" lon="-1.898315995931625">
        <ele>552.70000000000005</ele>
        <time>2018-04-18T09:06:26Z</time>
      </trkpt>
      <trkpt lat="37.729226974770427" lon="-1.898341979831457">
        <ele>553.20000000000005</ele>
        <time>2018-04-18T09:06:27Z</time>
      </trkpt>
      <trkpt lat="37.729224963113666" lon="-1.898367963731289">
        <ele>553.20000000000005</ele>
        <time>2018-04-18T09:06:28Z</time>
      </trkpt>
      <trkpt lat="37.729251030832529" lon="-1.898721009492874">
        <ele>557</ele>
        <time>2018-04-18T09:06:42Z</time>
      </trkpt>
      <trkpt lat="37.729302998632193" lon="-1.898970035836101">
        <ele>559</ele>
        <time>2018-04-18T09:06:53Z</time>
      </trkpt>
      <trkpt lat="37.72942403331399" lon="-1.899338001385331">
        <ele>560.89999999999998</ele>
        <time>2018-04-18T09:07:10Z</time>
      </trkpt>
      <trkpt lat="37.729502990841866" lon="-1.89955098554492">
        <ele>561.89999999999998</ele>
        <time>2018-04-18T09:07:20Z</time>
      </trkpt>
      <trkpt lat="37.729508019983768" lon="-1.899573029950261">
        <ele>561.79999999999995</ele>
        <time>2018-04-18T09:07:21Z</time>
      </trkpt>
      <trkpt lat="37.729511959478259" lon="-1.899597002193332">
        <ele>562.29999999999995</ele>
        <time>2018-04-18T09:07:22Z</time>
      </trkpt>
      <trkpt lat="37.729516988620162" lon="-1.899621980264783">
        <ele>562.89999999999998</ele>
        <time>2018-04-18T09:07:23Z</time>
      </trkpt>
      <trkpt lat="37.729520006105304" lon="-1.899646958336234">
        <ele>562.89999999999998</ele>
        <time>2018-04-18T09:07:24Z</time>
      </trkpt>
      <trkpt lat="37.729595024138689" lon="-1.899942001327872">
        <ele>564.70000000000005</ele>
        <time>2018-04-18T09:07:35Z</time>
      </trkpt>
      <trkpt lat="37.729606004431844" lon="-1.900060018524528">
        <ele>565.70000000000005</ele>
        <time>2018-04-18T09:07:40Z</time>
      </trkpt>
      <trkpt lat="37.729610027745366" lon="-1.900078961625695">
        <ele>565.70000000000005</ele>
        <time>2018-04-18T09:07:41Z</time>
      </trkpt>
      <trkpt lat="37.729614973068237" lon="-1.900097988545895">
        <ele>565.70000000000005</ele>
        <time>2018-04-18T09:07:42Z</time>
      </trkpt>
      <trkpt lat="37.729616984724998" lon="-1.900120032951236">
        <ele>566.29999999999995</ele>
        <time>2018-04-18T09:07:43Z</time>
      </trkpt>
      <trkpt lat="37.729616984724998" lon="-1.900144005194306">
        <ele>566.20000000000005</ele>
        <time>2018-04-18T09:07:44Z</time>
      </trkpt>
      <trkpt lat="37.729617990553379" lon="-1.900168983265758">
        <ele>566.20000000000005</ele>
        <time>2018-04-18T09:07:45Z</time>
      </trkpt>
      <trkpt lat="37.729617990553379" lon="-1.900193961337209">
        <ele>566.79999999999995</ele>
        <time>2018-04-18T09:07:46Z</time>
      </trkpt>
      <trkpt lat="37.729622013866901" lon="-1.900218017399311">
        <ele>566.79999999999995</ele>
        <time>2018-04-18T09:07:47Z</time>
      </trkpt>
      <trkpt lat="37.729627965018153" lon="-1.900240983814001">
        <ele>566.70000000000005</ele>
        <time>2018-04-18T09:07:48Z</time>
      </trkpt>
      <trkpt lat="37.729633999988437" lon="-1.900265039876103">
        <ele>567.20000000000005</ele>
        <time>2018-04-18T09:07:49Z</time>
      </trkpt>
      <trkpt lat="37.729744976386428" lon="-1.900720009580255">
        <ele>569.10000000000002</ele>
        <time>2018-04-18T09:08:06Z</time>
      </trkpt>
      <trkpt lat="37.729844972491264" lon="-1.901132985949516">
        <ele>570.10000000000002</ele>
        <time>2018-04-18T09:08:20Z</time>
      </trkpt>
      <trkpt lat="37.729966007173061" lon="-1.901636989787221">
        <ele>571.5</ele>
        <time>2018-04-18T09:08:36Z</time>
      </trkpt>
      <trkpt lat="37.730097016319633" lon="-1.902167983353138">
        <ele>573.39999999999998</ele>
        <time>2018-04-18T09:08:52Z</time>
      </trkpt>
      <trkpt lat="37.730269012972713" lon="-1.902821017429233">
        <ele>574.79999999999995</ele>
        <time>2018-04-18T09:09:11Z</time>
      </trkpt>
      <trkpt lat="37.730422988533974" lon="-1.903444966301322">
        <ele>575.89999999999998</ele>
        <time>2018-04-18T09:09:29Z</time>
      </trkpt>
      <trkpt lat="37.730592973530293" lon="-1.90417000092566">
        <ele>578.20000000000005</ele>
        <time>2018-04-18T09:09:50Z</time>
      </trkpt>
      <trkpt lat="37.730756001546979" lon="-1.904823035001755">
        <ele>579.70000000000005</ele>
        <time>2018-04-18T09:10:10Z</time>
      </trkpt>
      <trkpt lat="37.73088600486517" lon="-1.905301976948977">
        <ele>580.70000000000005</ele>
        <time>2018-04-18T09:10:25Z</time>
      </trkpt>
      <trkpt lat="37.731027994304895" lon="-1.905841017141938">
        <ele>581.60000000000002</ele>
        <time>2018-04-18T09:10:41Z</time>
      </trkpt>
      <trkpt lat="37.731163026764989" lon="-1.906438982114196">
        <ele>582.70000000000005</ele>
        <time>2018-04-18T09:10:57Z</time>
      </trkpt>
      <trkpt lat="37.731322031468153" lon="-1.907045999541879">
        <ele>583.70000000000005</ele>
        <time>2018-04-18T09:11:15Z</time>
      </trkpt>
      <trkpt lat="37.731475001201034" lon="-1.907676989212632">
        <ele>583.70000000000005</ele>
        <time>2018-04-18T09:11:32Z</time>
      </trkpt>
      <trkpt lat="37.731583965942264" lon="-1.908141011372209">
        <ele>583.60000000000002</ele>
        <time>2018-04-18T09:11:44Z</time>
      </trkpt>
      <trkpt lat="37.731627970933914" lon="-1.908822041004896">
        <ele>585.5</ele>
        <time>2018-04-18T09:12:02Z</time>
      </trkpt>
      <trkpt lat="37.73170399479568" lon="-1.909532994031906">
        <ele>586.89999999999998</ele>
        <time>2018-04-18T09:12:21Z</time>
      </trkpt>
      <trkpt lat="37.732037007808685" lon="-1.9100789912045">
        <ele>587.89999999999998</ele>
        <time>2018-04-18T09:12:40Z</time>
      </trkpt>
      <trkpt lat="37.732244962826371" lon="-1.9105280097574">
        <ele>591.39999999999998</ele>
        <time>2018-04-18T09:12:56Z</time>
      </trkpt>
      <trkpt lat="37.732440009713173" lon="-1.911123963072896">
        <ele>593.29999999999995</ele>
        <time>2018-04-18T09:13:13Z</time>
      </trkpt>
      <trkpt lat="37.732704039663076" lon="-1.911932984367013">
        <ele>594.20000000000005</ele>
        <time>2018-04-18T09:13:36Z</time>
      </trkpt>
      <trkpt lat="37.732895985245705" lon="-1.912500020116568">
        <ele>595.20000000000005</ele>
        <time>2018-04-18T09:13:52Z</time>
      </trkpt>
      <trkpt lat="37.733112992718816" lon="-1.913160011172295">
        <ele>596.60000000000002</ele>
        <time>2018-04-18T09:14:10Z</time>
      </trkpt>
      <trkpt lat="37.733408035710454" lon="-1.914024017751217">
        <ele>599</ele>
        <time>2018-04-18T09:14:34Z</time>
      </trkpt>
      <trkpt lat="37.733645997941494" lon="-1.914759026840329">
        <ele>601</ele>
        <time>2018-04-18T09:14:55Z</time>
      </trkpt>
      <trkpt lat="37.733849007636309" lon="-1.915347017347813">
        <ele>602.89999999999998</ele>
        <time>2018-04-18T09:15:12Z</time>
      </trkpt>
      <trkpt lat="37.734062997624278" lon="-1.915985969826579">
        <ele>604.79999999999995</ele>
        <time>2018-04-18T09:15:31Z</time>
      </trkpt>
      <trkpt lat="37.73426097817719" lon="-1.916542025282979">
        <ele>605.70000000000005</ele>
        <time>2018-04-18T09:15:48Z</time>
      </trkpt>
      <trkpt lat="37.734431969001889" lon="-1.917077964171767">
        <ele>607.10000000000002</ele>
        <time>2018-04-18T09:16:03Z</time>
      </trkpt>
      <trkpt lat="37.734748972579837" lon="-1.917536035180092">
        <ele>607.60000000000002</ele>
        <time>2018-04-18T09:16:18Z</time>
      </trkpt>
      <trkpt lat="37.73518399335444" lon="-1.918007014319301">
        <ele>607.70000000000005</ele>
        <time>2018-04-18T09:16:35Z</time>
      </trkpt>
      <trkpt lat="37.735540978610516" lon="-1.918573966249824">
        <ele>609.5</ele>
        <time>2018-04-18T09:16:54Z</time>
      </trkpt>
      <trkpt lat="37.735710041597486" lon="-1.919272011145949">
        <ele>612</ele>
        <time>2018-04-18T09:17:13Z</time>
      </trkpt>
      <trkpt lat="37.735858988016844" lon="-1.919900989159942">
        <ele>614.89999999999998</ele>
        <time>2018-04-18T09:17:31Z</time>
      </trkpt>
      <trkpt lat="37.736026039347053" lon="-1.920571960508823">
        <ele>615.39999999999998</ele>
        <time>2018-04-18T09:17:51Z</time>
      </trkpt>
      <trkpt lat="37.736200969666243" lon="-1.921104965731502">
        <ele>616.29999999999995</ele>
        <time>2018-04-18T09:18:07Z</time>
      </trkpt>
      <trkpt lat="37.736441027373075" lon="-1.921655992045999">
        <ele>617.79999999999995</ele>
        <time>2018-04-18T09:18:24Z</time>
      </trkpt>
      <trkpt lat="37.736649988219142" lon="-1.922167958691716">
        <ele>618.20000000000005</ele>
        <time>2018-04-18T09:18:40Z</time>
      </trkpt>
      <trkpt lat="37.736806981265545" lon="-1.9226039852947">
        <ele>619.79999999999995</ele>
        <time>2018-04-18T09:18:54Z</time>
      </trkpt>
      <trkpt lat="37.737014014273882" lon="-1.923073036596179">
        <ele>621.70000000000005</ele>
        <time>2018-04-18T09:19:09Z</time>
      </trkpt>
      <trkpt lat="37.737236972898245" lon="-1.923620039597154">
        <ele>623</ele>
        <time>2018-04-18T09:19:26Z</time>
      </trkpt>
      <trkpt lat="37.737466972321272" lon="-1.924157990142703">
        <ele>625.39999999999998</ele>
        <time>2018-04-18T09:19:43Z</time>
      </trkpt>
      <trkpt lat="37.73767501115799" lon="-1.924646990373731">
        <ele>627.29999999999995</ele>
        <time>2018-04-18T09:19:59Z</time>
      </trkpt>
      <trkpt lat="37.737806020304561" lon="-1.924969023093581">
        <ele>628.79999999999995</ele>
        <time>2018-04-18T09:20:10Z</time>
      </trkpt>
      <trkpt lat="37.737990003079176" lon="-1.925418041646481">
        <ele>630.70000000000005</ele>
        <time>2018-04-18T09:20:24Z</time>
      </trkpt>
      <trkpt lat="37.738196030259132" lon="-1.925910981371999">
        <ele>631.70000000000005</ele>
        <time>2018-04-18T09:20:40Z</time>
      </trkpt>
      <trkpt lat="37.738411026075482" lon="-1.926427977159619">
        <ele>632.70000000000005</ele>
        <time>2018-04-18T09:20:56Z</time>
      </trkpt>
      <trkpt lat="37.738624010235071" lon="-1.926927035674453">
        <ele>634.5</ele>
        <time>2018-04-18T09:21:14Z</time>
      </trkpt>
      <trkpt lat="37.738856021314859" lon="-1.927492981776595">
        <ele>637.39999999999998</ele>
        <time>2018-04-18T09:21:32Z</time>
      </trkpt>
      <trkpt lat="37.739118039608002" lon="-1.928110979497433">
        <ele>637.89999999999998</ele>
        <time>2018-04-18T09:21:52Z</time>
      </trkpt>
      <trkpt lat="37.739285007119179" lon="-1.928500989452004">
        <ele>638.39999999999998</ele>
        <time>2018-04-18T09:22:05Z</time>
      </trkpt>
      <trkpt lat="37.739521963521838" lon="-1.929087974131107">
        <ele>639.5</ele>
        <time>2018-04-18T09:22:24Z</time>
      </trkpt>
      <trkpt lat="37.739785993471742" lon="-1.929718963801861">
        <ele>642.29999999999995</ele>
        <time>2018-04-18T09:22:44Z</time>
      </trkpt>
      <trkpt lat="37.740053040906787" lon="-1.930324975401163">
        <ele>644.20000000000005</ele>
        <time>2018-04-18T09:23:03Z</time>
      </trkpt>
      <trkpt lat="37.740280022844672" lon="-1.930877007544041">
        <ele>645.70000000000005</ele>
        <time>2018-04-18T09:23:20Z</time>
      </trkpt>
      <trkpt lat="37.740527037531137" lon="-1.931472960859537">
        <ele>647.60000000000002</ele>
        <time>2018-04-18T09:23:39Z</time>
      </trkpt>
      <trkpt lat="37.740718983113766" lon="-1.931943017989397">
        <ele>649.5</ele>
        <time>2018-04-18T09:23:54Z</time>
      </trkpt>
      <trkpt lat="37.740939008072019" lon="-1.932502007111907">
        <ele>650.89999999999998</ele>
        <time>2018-04-18T09:24:12Z</time>
      </trkpt>
      <trkpt lat="37.741148974746466" lon="-1.933059990406036">
        <ele>653.29999999999995</ele>
        <time>2018-04-18T09:24:30Z</time>
      </trkpt>
      <trkpt lat="37.741337986662984" lon="-1.933644041419029">
        <ele>655.10000000000002</ele>
        <time>2018-04-18T09:24:47Z</time>
      </trkpt>
      <trkpt lat="37.741536973044276" lon="-1.934279976412654">
        <ele>657.60000000000002</ele>
        <time>2018-04-18T09:25:05Z</time>
      </trkpt>
      <trkpt lat="37.741756998002529" lon="-1.934924041852355">
        <ele>659</ele>
        <time>2018-04-18T09:25:24Z</time>
      </trkpt>
      <trkpt lat="37.741951961070299" lon="-1.935510020703077">
        <ele>660.39999999999998</ele>
        <time>2018-04-18T09:25:41Z</time>
      </trkpt>
      <trkpt lat="37.742138039320707" lon="-1.936103962361813">
        <ele>661.79999999999995</ele>
        <time>2018-04-18T09:25:58Z</time>
      </trkpt>
      <trkpt lat="37.742320010438561" lon="-1.936739981174469">
        <ele>664.10000000000002</ele>
        <time>2018-04-18T09:26:16Z</time>
      </trkpt>
      <trkpt lat="37.742508016526699" lon="-1.937295030802488">
        <ele>664.60000000000002</ele>
        <time>2018-04-18T09:26:33Z</time>
      </trkpt>
      <trkpt lat="37.742698034271598" lon="-1.93787899799645">
        <ele>666.60000000000002</ele>
        <time>2018-04-18T09:26:50Z</time>
      </trkpt>
      <trkpt lat="37.742894003167748" lon="-1.938496995717287">
        <ele>668.89999999999998</ele>
        <time>2018-04-18T09:27:09Z</time>
      </trkpt>
      <trkpt lat="37.743089972063899" lon="-1.939114993438125">
        <ele>671.29999999999995</ele>
        <time>2018-04-18T09:27:29Z</time>
      </trkpt>
      <trkpt lat="37.743274038657546" lon="-1.939694015309215">
        <ele>673.79999999999995</ele>
        <time>2018-04-18T09:27:47Z</time>
      </trkpt>
      <trkpt lat="37.743458021432161" lon="-1.940255016088486">
        <ele>675.70000000000005</ele>
        <time>2018-04-18T09:28:05Z</time>
      </trkpt>
      <trkpt lat="37.743623983114958" lon="-1.94080101326108">
        <ele>677</ele>
        <time>2018-04-18T09:28:23Z</time>
      </trkpt>
      <trkpt lat="37.743768990039825" lon="-1.941261012107134">
        <ele>679.39999999999998</ele>
        <time>2018-04-18T09:28:38Z</time>
      </trkpt>
      <trkpt lat="37.743954984471202" lon="-1.941829975694418">
        <ele>681.39999999999998</ele>
        <time>2018-04-18T09:28:56Z</time>
      </trkpt>
      <trkpt lat="37.744096973910928" lon="-1.942293997853994">
        <ele>683.20000000000005</ele>
        <time>2018-04-18T09:29:10Z</time>
      </trkpt>
      <trkpt lat="37.74431498721242" lon="-1.94290797226131">
        <ele>685.60000000000002</ele>
        <time>2018-04-18T09:29:29Z</time>
      </trkpt>
      <trkpt lat="37.744520008563995" lon="-1.943563017994165">
        <ele>686.60000000000002</ele>
        <time>2018-04-18T09:29:47Z</time>
      </trkpt>
      <trkpt lat="37.744744978845119" lon="-1.944249998778105">
        <ele>688</ele>
        <time>2018-04-18T09:30:05Z</time>
      </trkpt>
      <trkpt lat="37.744953017681837" lon="-1.944894986227155">
        <ele>690.5</ele>
        <time>2018-04-18T09:30:22Z</time>
      </trkpt>
      <trkpt lat="37.745129037648439" lon="-1.94537996314466">
        <ele>692.79999999999995</ele>
        <time>2018-04-18T09:30:37Z</time>
      </trkpt>
      <trkpt lat="37.745300028473139" lon="-1.945880027487874">
        <ele>695.20000000000005</ele>
        <time>2018-04-18T09:30:53Z</time>
      </trkpt>
      <trkpt lat="37.745421985164285" lon="-1.946356035768986">
        <ele>697.10000000000002</ele>
        <time>2018-04-18T09:31:06Z</time>
      </trkpt>
      <trkpt lat="37.745618037879467" lon="-1.946979984641075">
        <ele>698.5</ele>
        <time>2018-04-18T09:31:25Z</time>
      </trkpt>
      <trkpt lat="37.745783999562263" lon="-1.947540985420346">
        <ele>701</ele>
        <time>2018-04-18T09:31:42Z</time>
      </trkpt>
      <trkpt lat="37.745978962630033" lon="-1.948113972321153">
        <ele>703.89999999999998</ele>
        <time>2018-04-18T09:32:01Z</time>
      </trkpt>
      <trkpt lat="37.746127992868423" lon="-1.948571959510446">
        <ele>706.70000000000005</ele>
        <time>2018-04-18T09:32:17Z</time>
      </trkpt>
      <trkpt lat="37.746299989521503" lon="-1.949119968339801">
        <ele>709.20000000000005</ele>
        <time>2018-04-18T09:32:35Z</time>
      </trkpt>
      <trkpt lat="37.746580028906465" lon="-1.949548032134771">
        <ele>712.5</ele>
        <time>2018-04-18T09:32:51Z</time>
      </trkpt>
      <trkpt lat="37.746906001120806" lon="-1.949828993529081">
        <ele>713.5</ele>
        <time>2018-04-18T09:33:06Z</time>
      </trkpt>
      <trkpt lat="37.747249994426966" lon="-1.950133005157113">
        <ele>715.89999999999998</ele>
        <time>2018-04-18T09:33:22Z</time>
      </trkpt>
      <trkpt lat="37.747565992176533" lon="-1.950631979852915">
        <ele>717</ele>
        <time>2018-04-18T09:33:40Z</time>
      </trkpt>
      <trkpt lat="37.747681997716427" lon="-1.951165990903974">
        <ele>718.39999999999998</ele>
        <time>2018-04-18T09:33:54Z</time>
      </trkpt>
      <trkpt lat="37.747824992984533" lon="-1.951692039147019">
        <ele>720.29999999999995</ele>
        <time>2018-04-18T09:34:07Z</time>
      </trkpt>
      <trkpt lat="37.747987015172839" lon="-1.952363010495901">
        <ele>721.79999999999995</ele>
        <time>2018-04-18T09:34:24Z</time>
      </trkpt>
      <trkpt lat="37.748197987675667" lon="-1.952840024605393">
        <ele>724.60000000000002</ele>
        <time>2018-04-18T09:34:38Z</time>
      </trkpt>
      <trkpt lat="37.748399991542101" lon="-1.953226011246443">
        <ele>723.70000000000005</ele>
        <time>2018-04-18T09:34:51Z</time>
      </trkpt>
      <trkpt lat="37.748609036207199" lon="-1.953623984009028">
        <ele>724.60000000000002</ele>
        <time>2018-04-18T09:35:05Z</time>
      </trkpt>
      <trkpt lat="37.748860996216536" lon="-1.954140979796648">
        <ele>727.60000000000002</ele>
        <time>2018-04-18T09:35:22Z</time>
      </trkpt>
      <trkpt lat="37.749032992869616" lon="-1.954600978642702">
        <ele>730.89999999999998</ele>
        <time>2018-04-18T09:35:38Z</time>
      </trkpt>
      <trkpt lat="37.749032992869616" lon="-1.955057960003614">
        <ele>735.79999999999995</ele>
        <time>2018-04-18T09:35:53Z</time>
      </trkpt>
      <trkpt lat="37.749016983434558" lon="-1.95554100908339">
        <ele>739.5</ele>
        <time>2018-04-18T09:36:10Z</time>
      </trkpt>
      <trkpt lat="37.748883040621877" lon="-1.955945016816258">
        <ele>740.5</ele>
        <time>2018-04-18T09:36:26Z</time>
      </trkpt>
      <trkpt lat="37.748695034533739" lon="-1.956310970708728">
        <ele>741</ele>
        <time>2018-04-18T09:36:41Z</time>
      </trkpt>
      <trkpt lat="37.748470986261964" lon="-1.956723025068641">
        <ele>742.5</ele>
        <time>2018-04-18T09:36:58Z</time>
      </trkpt>
      <trkpt lat="37.748459000140429" lon="-1.957156034186482">
        <ele>745.39999999999998</ele>
        <time>2018-04-18T09:37:12Z</time>
      </trkpt>
      <trkpt lat="37.748700985684991" lon="-1.957488963380456">
        <ele>750.10000000000002</ele>
        <time>2018-04-18T09:37:27Z</time>
      </trkpt>
      <trkpt lat="37.748840963467956" lon="-1.957877967506647">
        <ele>753.10000000000002</ele>
        <time>2018-04-18T09:37:43Z</time>
      </trkpt>
      <trkpt lat="37.749018995091319" lon="-1.958338972181082">
        <ele>756.5</ele>
        <time>2018-04-18T09:38:00Z</time>
      </trkpt>
      <trkpt lat="37.749226028099656" lon="-1.95861398242414">
        <ele>760.20000000000005</ele>
        <time>2018-04-18T09:38:15Z</time>
      </trkpt>
      <trkpt lat="37.749265003949404" lon="-1.958872983232141">
        <ele>763.10000000000002</ele>
        <time>2018-04-18T09:38:27Z</time>
      </trkpt>
      <trkpt lat="37.749261986464262" lon="-1.958941966295242">
        <ele>764.10000000000002</ele>
        <time>2018-04-18T09:38:30Z</time>
      </trkpt>
      <trkpt lat="37.749274978414178" lon="-1.958963004872203">
        <ele>763.60000000000002</ele>
        <time>2018-04-18T09:38:31Z</time>
      </trkpt>
      <trkpt lat="37.749285958707333" lon="-1.958982031792402">
        <ele>763.60000000000002</ele>
        <time>2018-04-18T09:38:32Z</time>
      </trkpt>
      <trkpt lat="37.749291993677616" lon="-1.95899804122746">
        <ele>764.10000000000002</ele>
        <time>2018-04-18T09:38:33Z</time>
      </trkpt>
      <trkpt lat="37.749239020049572" lon="-1.959023019298911">
        <ele>764.70000000000005</ele>
        <time>2018-04-18T09:38:42Z</time>
      </trkpt>
      <trkpt lat="37.749222004786134" lon="-1.959028970450163">
        <ele>765.20000000000005</ele>
        <time>2018-04-18T09:38:43Z</time>
      </trkpt>
      <trkpt lat="37.749205995351076" lon="-1.959044979885221">
        <ele>765.20000000000005</ele>
        <time>2018-04-18T09:38:44Z</time>
      </trkpt>
      <trkpt lat="37.749195015057921" lon="-1.95906400680542">
        <ele>765.20000000000005</ele>
        <time>2018-04-18T09:38:45Z</time>
      </trkpt>
      <trkpt lat="37.749186968430877" lon="-1.959088984876871">
        <ele>765.10000000000002</ele>
        <time>2018-04-18T09:38:46Z</time>
      </trkpt>
      <trkpt lat="37.749177999794483" lon="-1.959113962948322">
        <ele>764.60000000000002</ele>
        <time>2018-04-18T09:38:47Z</time>
      </trkpt>
      <trkpt lat="37.749168025329709" lon="-1.959141036495566">
        <ele>764.70000000000005</ele>
        <time>2018-04-18T09:38:48Z</time>
      </trkpt>
      <trkpt lat="37.749030981212854" lon="-1.959530962631106">
        <ele>762.79999999999995</ele>
        <time>2018-04-18T09:39:01Z</time>
      </trkpt>
      <trkpt lat="37.748988987877965" lon="-1.959964977577329">
        <ele>763.79999999999995</ele>
        <time>2018-04-18T09:39:16Z</time>
      </trkpt>
      <trkpt lat="37.74910599924624" lon="-1.960355993360281">
        <ele>768</ele>
        <time>2018-04-18T09:39:31Z</time>
      </trkpt>
      <trkpt lat="37.749205995351076" lon="-1.960768969729543">
        <ele>770.39999999999998</ele>
        <time>2018-04-18T09:39:47Z</time>
      </trkpt>
      <trkpt lat="37.749333987012506" lon="-1.961140958592296">
        <ele>771.89999999999998</ele>
        <time>2018-04-18T09:40:02Z</time>
      </trkpt>
      <trkpt lat="37.749484023079276" lon="-1.961557036265731">
        <ele>775.29999999999995</ele>
        <time>2018-04-18T09:40:19Z</time>
      </trkpt>
      <trkpt lat="37.749517969787121" lon="-1.961989961564541">
        <ele>777.70000000000005</ele>
        <time>2018-04-18T09:40:35Z</time>
      </trkpt>
      <trkpt lat="37.74938402697444" lon="-1.962360022589564">
        <ele>780.70000000000005</ele>
        <time>2018-04-18T09:40:50Z</time>
      </trkpt>
      <trkpt lat="37.749213958159089" lon="-1.962635032832623">
        <ele>784.5</ele>
        <time>2018-04-18T09:41:03Z</time>
      </trkpt>
      <trkpt lat="37.749069035053253" lon="-1.962906019762158">
        <ele>787.89999999999998</ele>
        <time>2018-04-18T09:41:15Z</time>
      </trkpt>
      <trkpt lat="37.748921010643244" lon="-1.963283037766814">
        <ele>788.39999999999998</ele>
        <time>2018-04-18T09:41:31Z</time>
      </trkpt>
      <trkpt lat="37.748779021203518" lon="-1.963672963902354">
        <ele>791.20000000000005</ele>
        <time>2018-04-18T09:41:47Z</time>
      </trkpt>
      <trkpt lat="37.748641977086663" lon="-1.96400597691536">
        <ele>793.60000000000002</ele>
        <time>2018-04-18T09:42:01Z</time>
      </trkpt>
      <trkpt lat="37.748478027060628" lon="-1.964354999363422">
        <ele>797.10000000000002</ele>
        <time>2018-04-18T09:42:16Z</time>
      </trkpt>
      <trkpt lat="37.748348023742437" lon="-1.96460603736341">
        <ele>798</ele>
        <time>2018-04-18T09:42:28Z</time>
      </trkpt>
      <trkpt lat="37.748202010989189" lon="-1.96488699875772">
        <ele>799</ele>
        <time>2018-04-18T09:42:42Z</time>
      </trkpt>
      <trkpt lat="37.748066978529096" lon="-1.965188998728991">
        <ele>800</ele>
        <time>2018-04-18T09:42:57Z</time>
      </trkpt>
      <trkpt lat="37.747930018231273" lon="-1.965479012578726">
        <ele>802.39999999999998</ele>
        <time>2018-04-18T09:43:12Z</time>
      </trkpt>
      <trkpt lat="37.747819041833282" lon="-1.965784030035138">
        <ele>803.89999999999998</ele>
        <time>2018-04-18T09:43:29Z</time>
      </trkpt>
      <trkpt lat="37.747814012691379" lon="-1.965808002278209">
        <ele>803.89999999999998</ele>
        <time>2018-04-18T09:43:30Z</time>
      </trkpt>
      <trkpt lat="37.747807977721095" lon="-1.965826023370028">
        <ele>804.39999999999998</ele>
        <time>2018-04-18T09:43:31Z</time>
      </trkpt>
      <trkpt lat="37.747804038226604" lon="-1.965846978127956">
        <ele>804.29999999999995</ele>
        <time>2018-04-18T09:43:32Z</time>
      </trkpt>
      <trkpt lat="37.747801020741463" lon="-1.965870028361678">
        <ele>804.39999999999998</ele>
        <time>2018-04-18T09:43:33Z</time>
      </trkpt>
      <trkpt lat="37.74779699742794" lon="-1.965897018089891">
        <ele>804.89999999999998</ele>
        <time>2018-04-18T09:43:34Z</time>
      </trkpt>
      <trkpt lat="37.74779599159956" lon="-1.965924007818103">
        <ele>804.79999999999995</ele>
        <time>2018-04-18T09:43:35Z</time>
      </trkpt>
      <trkpt lat="37.74779699742794" lon="-1.965947980061173">
        <ele>804.89999999999998</ele>
        <time>2018-04-18T09:43:36Z</time>
      </trkpt>
      <trkpt lat="37.747798003256321" lon="-1.965973963961005">
        <ele>804.79999999999995</ele>
        <time>2018-04-18T09:43:37Z</time>
      </trkpt>
      <trkpt lat="37.747802026569843" lon="-1.965997014194727">
        <ele>805.29999999999995</ele>
        <time>2018-04-18T09:43:38Z</time>
      </trkpt>
      <trkpt lat="37.747977040708065" lon="-1.966274958103895">
        <ele>805.79999999999995</ele>
        <time>2018-04-18T09:43:51Z</time>
      </trkpt>
      <trkpt lat="37.748271999880672" lon="-1.966352993622422">
        <ele>807.29999999999995</ele>
        <time>2018-04-18T09:44:04Z</time>
      </trkpt>
      <trkpt lat="37.748610964044929" lon="-1.966269006952643">
        <ele>809.60000000000002</ele>
        <time>2018-04-18T09:44:19Z</time>
      </trkpt>
      <trkpt lat="37.748922016471624" lon="-1.966208992525935">
        <ele>812.60000000000002</ele>
        <time>2018-04-18T09:44:33Z</time>
      </trkpt>
      <trkpt lat="37.749170958995819" lon="-1.966244028881192">
        <ele>813.89999999999998</ele>
        <time>2018-04-18T09:44:47Z</time>
      </trkpt>
      <trkpt lat="37.749383021146059" lon="-1.966361040249467">
        <ele>816.79999999999995</ele>
        <time>2018-04-18T09:45:01Z</time>
      </trkpt>
      <trkpt lat="37.749656019732356" lon="-1.96656103245914">
        <ele>819.20000000000005</ele>
        <time>2018-04-18T09:45:17Z</time>
      </trkpt>
      <trkpt lat="37.749930024147034" lon="-1.966749960556626">
        <ele>821.20000000000005</ele>
        <time>2018-04-18T09:45:33Z</time>
      </trkpt>
      <trkpt lat="37.750089028850198" lon="-1.967079034075141">
        <ele>825.10000000000002</ele>
        <time>2018-04-18T09:45:50Z</time>
      </trkpt>
      <trkpt lat="37.749889036640525" lon="-1.967372987419367">
        <ele>826.89999999999998</ele>
        <time>2018-04-18T09:46:05Z</time>
      </trkpt>
      <trkpt lat="37.749682003632188" lon="-1.967626037076116">
        <ele>828</ele>
        <time>2018-04-18T09:46:19Z</time>
      </trkpt>
      <trkpt lat="37.749507995322347" lon="-1.967912027612329">
        <ele>829.79999999999995</ele>
        <time>2018-04-18T09:46:33Z</time>
      </trkpt>
      <trkpt lat="37.749327030032873" lon="-1.968224002048373">
        <ele>831.29999999999995</ele>
        <time>2018-04-18T09:46:49Z</time>
      </trkpt>
      <trkpt lat="37.749228039756417" lon="-1.968579981476069">
        <ele>833.20000000000005</ele>
        <time>2018-04-18T09:47:03Z</time>
      </trkpt>
      <trkpt lat="37.749186968430877" lon="-1.968961022794247">
        <ele>835.20000000000005</ele>
        <time>2018-04-18T09:47:18Z</time>
      </trkpt>
      <trkpt lat="37.749285958707333" lon="-1.969324965029955">
        <ele>838.5</ele>
        <time>2018-04-18T09:47:33Z</time>
      </trkpt>
      <trkpt lat="37.749447980895638" lon="-1.96969703771174">
        <ele>842</ele>
        <time>2018-04-18T09:47:50Z</time>
      </trkpt>
      <trkpt lat="37.749678986147046" lon="-1.969930976629257">
        <ele>842.89999999999998</ele>
        <time>2018-04-18T09:48:05Z</time>
      </trkpt>
      <trkpt lat="37.749961037188768" lon="-1.970203975215554">
        <ele>847.29999999999995</ele>
        <time>2018-04-18T09:48:23Z</time>
      </trkpt>
      <trkpt lat="37.750039994716644" lon="-1.970614017918706">
        <ele>851</ele>
        <time>2018-04-18T09:48:39Z</time>
      </trkpt>
      <trkpt lat="37.750153988599777" lon="-1.971025988459587">
        <ele>853.39999999999998</ele>
        <time>2018-04-18T09:48:56Z</time>
      </trkpt>
      <trkpt lat="37.750318022444844" lon="-1.971414992585778">
        <ele>855.79999999999995</ele>
        <time>2018-04-18T09:49:14Z</time>
      </trkpt>
      <trkpt lat="37.750369990244508" lon="-1.971688997000456">
        <ele>860.10000000000002</ele>
        <time>2018-04-18T09:49:25Z</time>
      </trkpt>
      <trkpt lat="37.750401003286242" lon="-1.97208303026855">
        <ele>863</ele>
        <time>2018-04-18T09:49:41Z</time>
      </trkpt>
      <trkpt lat="37.75048197247088" lon="-1.972544034942985">
        <ele>864.39999999999998</ele>
        <time>2018-04-18T09:49:59Z</time>
      </trkpt>
      <trkpt lat="37.750701997429132" lon="-1.972748972475529">
        <ele>865.79999999999995</ele>
        <time>2018-04-18T09:50:13Z</time>
      </trkpt>
      <trkpt lat="37.750928979367018" lon="-1.972843017429113">
        <ele>866.29999999999995</ele>
        <time>2018-04-18T09:50:25Z</time>
      </trkpt>
      <trkpt lat="37.751016989350319" lon="-1.97318097576499">
        <ele>869.79999999999995</ele>
        <time>2018-04-18T09:50:41Z</time>
      </trkpt>
      <trkpt lat="37.750958986580372" lon="-1.973531004041433">
        <ele>871.20000000000005</ele>
        <time>2018-04-18T09:50:55Z</time>
      </trkpt>
      <trkpt lat="37.750954041257501" lon="-1.973884971812367">
        <ele>872.5</ele>
        <time>2018-04-18T09:51:10Z</time>
      </trkpt>
      <trkpt lat="37.750852033495903" lon="-1.974227037280798">
        <ele>877.29999999999995</ele>
        <time>2018-04-18T09:51:27Z</time>
      </trkpt>
      <trkpt lat="37.7506950404495" lon="-1.9744479842484">
        <ele>879.79999999999995</ele>
        <time>2018-04-18T09:51:40Z</time>
      </trkpt>
      <trkpt lat="37.750685987994075" lon="-1.974519984796643">
        <ele>880.20000000000005</ele>
        <time>2018-04-18T09:51:43Z</time>
      </trkpt>
      <trkpt lat="37.750680958852172" lon="-1.974543035030365">
        <ele>880.29999999999995</ele>
        <time>2018-04-18T09:51:44Z</time>
      </trkpt>
      <trkpt lat="37.750680036842823" lon="-1.974572958424687">
        <ele>880.20000000000005</ele>
        <time>2018-04-18T09:51:45Z</time>
      </trkpt>
      <trkpt lat="37.750682970508933" lon="-1.974603971466422">
        <ele>880.70000000000005</ele>
        <time>2018-04-18T09:51:46Z</time>
      </trkpt>
      <trkpt lat="37.750684982165694" lon="-1.974630961194634">
        <ele>880.70000000000005</ele>
        <time>2018-04-18T09:51:47Z</time>
      </trkpt>
      <trkpt lat="37.750689005479217" lon="-1.974659962579608">
        <ele>880.70000000000005</ele>
        <time>2018-04-18T09:51:48Z</time>
      </trkpt>
      <trkpt lat="37.750698979943991" lon="-1.97468301281333">
        <ele>881.29999999999995</ele>
        <time>2018-04-18T09:51:49Z</time>
      </trkpt>
      <trkpt lat="37.750728987157345" lon="-1.974725006148219">
        <ele>880.79999999999995</ele>
        <time>2018-04-18T09:51:52Z</time>
      </trkpt>
      <trkpt lat="37.750744996592402" lon="-1.974733974784613">
        <ele>880.79999999999995</ele>
        <time>2018-04-18T09:51:53Z</time>
      </trkpt>
      <trkpt lat="37.750763017684221" lon="-1.974745038896799">
        <ele>880.79999999999995</ele>
        <time>2018-04-18T09:51:54Z</time>
      </trkpt>
      <trkpt lat="37.75078296661377" lon="-1.974753001704812">
        <ele>881.29999999999995</ele>
        <time>2018-04-18T09:51:55Z</time>
      </trkpt>
      <trkpt lat="37.75080299936235" lon="-1.974756019189954">
        <ele>881.29999999999995</ele>
        <time>2018-04-18T09:51:56Z</time>
      </trkpt>
      <trkpt lat="37.75082403793931" lon="-1.974758030846715">
        <ele>881.20000000000005</ele>
        <time>2018-04-18T09:51:57Z</time>
      </trkpt>
      <trkpt lat="37.750843986868858" lon="-1.974760964512825">
        <ele>880.79999999999995</ele>
        <time>2018-04-18T09:51:58Z</time>
      </trkpt>
      <trkpt lat="37.750862007960677" lon="-1.974762976169586">
        <ele>880.70000000000005</ele>
        <time>2018-04-18T09:51:59Z</time>
      </trkpt>
      <trkpt lat="37.751144981011748" lon="-1.974803041666746">
        <ele>883.10000000000002</ele>
        <time>2018-04-18T09:52:13Z</time>
      </trkpt>
      <trkpt lat="37.751377997919917" lon="-1.975009990856051">
        <ele>885</ele>
        <time>2018-04-18T09:52:28Z</time>
      </trkpt>
      <trkpt lat="37.751417979598045" lon="-1.975058019161224">
        <ele>886.10000000000002</ele>
        <time>2018-04-18T09:52:31Z</time>
      </trkpt>
      <trkpt lat="37.751434994861484" lon="-1.975074028596282">
        <ele>886</ele>
        <time>2018-04-18T09:52:32Z</time>
      </trkpt>
      <trkpt lat="37.751609003171325" lon="-1.975228004157543">
        <ele>887.89999999999998</ele>
        <time>2018-04-18T09:52:44Z</time>
      </trkpt>
      <trkpt lat="37.751623000949621" lon="-1.975231021642685">
        <ele>887.89999999999998</ele>
        <time>2018-04-18T09:52:45Z</time>
      </trkpt>
      <trkpt lat="37.751858029514551" lon="-1.97530503384769">
        <ele>889.5</ele>
        <time>2018-04-18T09:52:59Z</time>
      </trkpt>
      <trkpt lat="37.752133961766958" lon="-1.975254993885756">
        <ele>891.29999999999995</ele>
        <time>2018-04-18T09:53:11Z</time>
      </trkpt>
      <trkpt lat="37.752583986148238" lon="-1.975079979747534">
        <ele>892.70000000000005</ele>
        <time>2018-04-18T09:53:25Z</time>
      </trkpt>
      <trkpt lat="37.752941977232695" lon="-1.974866995587945">
        <ele>892.29999999999995</ele>
        <time>2018-04-18T09:53:36Z</time>
      </trkpt>
      <trkpt lat="37.753438018262386" lon="-1.974763981997967">
        <ele>894.10000000000002</ele>
        <time>2018-04-18T09:53:51Z</time>
      </trkpt>
      <trkpt lat="37.753690984100103" lon="-1.97507000528276">
        <ele>893.60000000000002</ele>
        <time>2018-04-18T09:54:02Z</time>
      </trkpt>
      <trkpt lat="37.754022991284728" lon="-1.975613990798593">
        <ele>890.70000000000005</ele>
        <time>2018-04-18T09:54:17Z</time>
      </trkpt>
      <trkpt lat="37.754381988197565" lon="-1.9761230237782">
        <ele>890.20000000000005</ele>
        <time>2018-04-18T09:54:32Z</time>
      </trkpt>
      <trkpt lat="37.75467099621892" lon="-1.976772034540772">
        <ele>889.29999999999995</ele>
        <time>2018-04-18T09:54:48Z</time>
      </trkpt>
      <trkpt lat="37.754888003692031" lon="-1.977324988692999">
        <ele>891.20000000000005</ele>
        <time>2018-04-18T09:55:03Z</time>
      </trkpt>
      <trkpt lat="37.755112973973155" lon="-1.977896969765425">
        <ele>894.60000000000002</ele>
        <time>2018-04-18T09:55:19Z</time>
      </trkpt>
      <trkpt lat="37.755325958132744" lon="-1.978443972766399">
        <ele>898.89999999999998</ele>
        <time>2018-04-18T09:55:37Z</time>
      </trkpt>
      <trkpt lat="37.755687972530723" lon="-1.978671038523316">
        <ele>900.79999999999995</ele>
        <time>2018-04-18T09:55:52Z</time>
      </trkpt>
      <trkpt lat="37.755898023024201" lon="-1.978382030501962">
        <ele>901.29999999999995</ele>
        <time>2018-04-18T09:56:02Z</time>
      </trkpt>
      <trkpt lat="37.755911014974117" lon="-1.977962013334036">
        <ele>902.70000000000005</ele>
        <time>2018-04-18T09:56:14Z</time>
      </trkpt>
      <trkpt lat="37.755956025794148" lon="-1.977618020027876">
        <ele>906</ele>
        <time>2018-04-18T09:56:28Z</time>
      </trkpt>
      <trkpt lat="37.756096003577113" lon="-1.977506037801504">
        <ele>905.60000000000002</ele>
        <time>2018-04-18T09:56:36Z</time>
      </trkpt>
      <trkpt lat="37.756107989698648" lon="-1.977495979517698">
        <ele>905.60000000000002</ele>
        <time>2018-04-18T09:56:37Z</time>
      </trkpt>
      <trkpt lat="37.756122993305326" lon="-1.977488016709685">
        <ele>905.5</ele>
        <time>2018-04-18T09:56:38Z</time>
      </trkpt>
      <trkpt lat="37.756374031305313" lon="-1.977314008399844">
        <ele>907.89999999999998</ele>
        <time>2018-04-18T09:56:50Z</time>
      </trkpt>
      <trkpt lat="37.756457012146711" lon="-1.976958028972149">
        <ele>910.79999999999995</ele>
        <time>2018-04-18T09:57:04Z</time>
      </trkpt>
      <trkpt lat="37.756513003259897" lon="-1.976543962955475">
        <ele>912.70000000000005</ele>
        <time>2018-04-18T09:57:20Z</time>
      </trkpt>
      <trkpt lat="37.756672007963061" lon="-1.976247997954488">
        <ele>915.60000000000002</ele>
        <time>2018-04-18T09:57:34Z</time>
      </trkpt>
      <trkpt lat="37.756780972704291" lon="-1.975982040166855">
        <ele>917.5</ele>
        <time>2018-04-18T09:57:47Z</time>
      </trkpt>
      <trkpt lat="37.756836041808128" lon="-1.975675011053681">
        <ele>919</ele>
        <time>2018-04-18T09:58:01Z</time>
      </trkpt>
      <trkpt lat="37.75692799128592" lon="-1.975320037454367">
        <ele>922.29999999999995</ele>
        <time>2018-04-18T09:58:17Z</time>
      </trkpt>
      <trkpt lat="37.757019018754363" lon="-1.974992975592613">
        <ele>925.79999999999995</ele>
        <time>2018-04-18T09:58:32Z</time>
      </trkpt>
      <trkpt lat="37.757113985717297" lon="-1.97474998421967">
        <ele>928.20000000000005</ele>
        <time>2018-04-18T09:58:45Z</time>
      </trkpt>
      <trkpt lat="37.757128989323974" lon="-1.974743027240038">
        <ele>928.10000000000002</ele>
        <time>2018-04-18T09:58:46Z</time>
      </trkpt>
      <trkpt lat="37.757157990708947" lon="-1.974731963127852">
        <ele>927.60000000000002</ele>
        <time>2018-04-18T09:58:48Z</time>
      </trkpt>
      <trkpt lat="37.757172994315624" lon="-1.974735986441374">
        <ele>927.60000000000002</ele>
        <time>2018-04-18T09:58:49Z</time>
      </trkpt>
      <trkpt lat="37.757189003750682" lon="-1.974744033068419">
        <ele>927.60000000000002</ele>
        <time>2018-04-18T09:58:50Z</time>
      </trkpt>
      <trkpt lat="37.757207024842501" lon="-1.974753001704812">
        <ele>928.20000000000005</ele>
        <time>2018-04-18T09:58:51Z</time>
      </trkpt>
      <trkpt lat="37.757221022620797" lon="-1.974764987826347">
        <ele>928.60000000000002</ele>
        <time>2018-04-18T09:58:52Z</time>
      </trkpt>
      <trkpt lat="37.757229991257191" lon="-1.974778985604644">
        <ele>928.60000000000002</ele>
        <time>2018-04-18T09:58:53Z</time>
      </trkpt>
      <trkpt lat="37.757235020399094" lon="-1.974796000868082">
        <ele>929.10000000000002</ele>
        <time>2018-04-18T09:58:54Z</time>
      </trkpt>
      <trkpt lat="37.757238959893584" lon="-1.97481301613152">
        <ele>929.20000000000005</ele>
        <time>2018-04-18T09:58:55Z</time>
      </trkpt>
      <trkpt lat="37.757171988487244" lon="-1.97515700943768">
        <ele>928.20000000000005</ele>
        <time>2018-04-18T09:59:11Z</time>
      </trkpt>
      <trkpt lat="37.757135024294257" lon="-1.975343003869057">
        <ele>928.20000000000005</ele>
        <time>2018-04-18T09:59:19Z</time>
      </trkpt>
      <trkpt lat="37.757128989323974" lon="-1.975365970283747">
        <ele>927.70000000000005</ele>
        <time>2018-04-18T09:59:20Z</time>
      </trkpt>
      <trkpt lat="37.757124966010451" lon="-1.975390026345849">
        <ele>927.70000000000005</ele>
        <time>2018-04-18T09:59:21Z</time>
      </trkpt>
      <trkpt lat="37.757124966010451" lon="-1.97541399858892">
        <ele>927.10000000000002</ele>
        <time>2018-04-18T09:59:22Z</time>
      </trkpt>
      <trkpt lat="37.757124966010451" lon="-1.97543696500361">
        <ele>927.10000000000002</ele>
        <time>2018-04-18T09:59:23Z</time>
      </trkpt>
      <trkpt lat="37.757179029285908" lon="-1.975823035463691">
        <ele>930.5</ele>
        <time>2018-04-18T09:59:39Z</time>
      </trkpt>
      <trkpt lat="37.757361000403762" lon="-1.976159987971187">
        <ele>934.39999999999998</ele>
        <time>2018-04-18T09:59:55Z</time>
      </trkpt>
      <trkpt lat="37.757612960413098" lon="-1.976356040686369">
        <ele>938.20000000000005</ele>
        <time>2018-04-18T10:00:11Z</time>
      </trkpt>
      <trkpt lat="37.757812030613422" lon="-1.976601965725422">
        <ele>941.10000000000002</ele>
        <time>2018-04-18T10:00:27Z</time>
      </trkpt>
      <trkpt lat="37.758006993681192" lon="-1.976929027587175">
        <ele>943</ele>
        <time>2018-04-18T10:00:45Z</time>
      </trkpt>
      <trkpt lat="37.758132973685861" lon="-1.977253993973136">
        <ele>944.79999999999995</ele>
        <time>2018-04-18T10:01:00Z</time>
      </trkpt>
      <trkpt lat="37.758284015581012" lon="-1.977693038061261">
        <ele>951.60000000000002</ele>
        <time>2018-04-18T10:01:19Z</time>
      </trkpt>
      <trkpt lat="37.758319973945618" lon="-1.978136021643877">
        <ele>956.39999999999998</ele>
        <time>2018-04-18T10:01:37Z</time>
      </trkpt>
      <trkpt lat="37.758311005309224" lon="-1.978570036590099">
        <ele>960.60000000000002</ele>
        <time>2018-04-18T10:01:54Z</time>
      </trkpt>
      <trkpt lat="37.758327014744282" lon="-1.979033974930644">
        <ele>963.60000000000002</ele>
        <time>2018-04-18T10:02:13Z</time>
      </trkpt>
      <trkpt lat="37.758504962548614" lon="-1.979228015989065">
        <ele>961.70000000000005</ele>
        <time>2018-04-18T10:02:26Z</time>
      </trkpt>
      <trkpt lat="37.758778966963291" lon="-1.979276966303587">
        <ele>962.10000000000002</ele>
        <time>2018-04-18T10:02:40Z</time>
      </trkpt>
      <trkpt lat="37.759055988863111" lon="-1.979246037080884">
        <ele>965</ele>
        <time>2018-04-18T10:02:55Z</time>
      </trkpt>
      <trkpt lat="37.759344996884465" lon="-1.979232039302588">
        <ele>967</ele>
        <time>2018-04-18T10:03:10Z</time>
      </trkpt>
      <trkpt lat="37.759582959115505" lon="-1.97928199544549">
        <ele>968.79999999999995</ele>
        <time>2018-04-18T10:03:24Z</time>
      </trkpt>
      <trkpt lat="37.759801978245378" lon="-1.979415016248822">
        <ele>971.20000000000005</ele>
        <time>2018-04-18T10:03:38Z</time>
      </trkpt>
      <trkpt lat="37.760024014860392" lon="-1.979464972391725">
        <ele>973.20000000000005</ele>
        <time>2018-04-18T10:03:50Z</time>
      </trkpt>
      <trkpt lat="37.760234987363219" lon="-1.979287024587393">
        <ele>977</ele>
        <time>2018-04-18T10:04:03Z</time>
      </trkpt>
      <trkpt lat="37.760330960154533" lon="-1.979190967977047">
        <ele>978.39999999999998</ele>
        <time>2018-04-18T10:04:11Z</time>
      </trkpt>
      <trkpt lat="37.760344035923481" lon="-1.979176970198751">
        <ele>979</ele>
        <time>2018-04-18T10:04:12Z</time>
      </trkpt>
      <trkpt lat="37.760503962635994" lon="-1.979055013507605">
        <ele>980</ele>
        <time>2018-04-18T10:04:24Z</time>
      </trkpt>
      <trkpt lat="37.760744020342827" lon="-1.978910006582737">
        <ele>981.89999999999998</ele>
        <time>2018-04-18T10:04:38Z</time>
      </trkpt>
      <trkpt lat="37.761002015322447" lon="-1.978901037946343">
        <ele>984.79999999999995</ele>
        <time>2018-04-18T10:04:52Z</time>
      </trkpt>
      <trkpt lat="37.761275013908744" lon="-1.978927021846175">
        <ele>986.60000000000002</ele>
        <time>2018-04-18T10:05:06Z</time>
      </trkpt>
      <trkpt lat="37.761495960876346" lon="-1.979117961600423">
        <ele>988.5</ele>
        <time>2018-04-18T10:05:20Z</time>
      </trkpt>
      <trkpt lat="37.761768959462643" lon="-1.979456003755331">
        <ele>992.79999999999995</ele>
        <time>2018-04-18T10:05:41Z</time>
      </trkpt>
      <trkpt lat="37.762013040482998" lon="-1.979744005948305">
        <ele>994.70000000000005</ele>
        <time>2018-04-18T10:05:59Z</time>
      </trkpt>
      <trkpt lat="37.762251002714038" lon="-1.980064027011395">
        <ele>997.60000000000002</ele>
        <time>2018-04-18T10:06:18Z</time>
      </trkpt>
      <trkpt lat="37.762361979112029" lon="-1.980497958138585">
        <ele>1000</ele>
        <time>2018-04-18T10:06:37Z</time>
      </trkpt>
      <trkpt lat="37.762414030730724" lon="-1.980952005833387">
        <ele>1005.4</ele>
        <time>2018-04-18T10:06:55Z</time>
      </trkpt>
      <trkpt lat="37.762545039877295" lon="-1.981360036879778">
        <ele>1008.7</ele>
        <time>2018-04-18T10:07:13Z</time>
      </trkpt>
      <trkpt lat="37.762790964916348" lon="-1.981621971353889">
        <ele>1009.2</ele>
        <time>2018-04-18T10:07:29Z</time>
      </trkpt>
      <trkpt lat="37.763030016794801" lon="-1.981909973546863">
        <ele>1008.8</ele>
        <time>2018-04-18T10:07:44Z</time>
      </trkpt>
      <trkpt lat="37.763312989845872" lon="-1.982026984915137">
        <ele>1007.7</ele>
        <time>2018-04-18T10:07:56Z</time>
      </trkpt>
      <trkpt lat="37.763485992327332" lon="-1.982047017663717">
        <ele>1006.4</ele>
        <time>2018-04-18T10:08:07Z</time>
      </trkpt>
      <trkpt lat="37.763593029230833" lon="-1.982071995735169">
        <ele>1006.8</ele>
        <time>2018-04-18T10:08:17Z</time>
      </trkpt>
      <trkpt lat="37.763609038665891" lon="-1.982068978250027">
        <ele>1006.8</ele>
        <time>2018-04-18T10:08:18Z</time>
      </trkpt>
      <trkpt lat="37.763949008658528" lon="-1.982086999341846">
        <ele>1005.9</ele>
        <time>2018-04-18T10:08:30Z</time>
      </trkpt>
      <trkpt lat="37.76414598338306" lon="-1.982111977413297">
        <ele>1005.4</ele>
        <time>2018-04-18T10:08:35Z</time>
      </trkpt>
      <trkpt lat="37.764188982546329" lon="-1.982124969363213">
        <ele>1005.4</ele>
        <time>2018-04-18T10:08:36Z</time>
      </trkpt>
      <trkpt lat="37.764360979199409" lon="-1.982208034023643">
        <ele>1003.9</ele>
        <time>2018-04-18T10:08:40Z</time>
      </trkpt>
      <trkpt lat="37.764965984970331" lon="-1.982631990686059">
        <ele>999.60000000000002</ele>
        <time>2018-04-18T10:08:51Z</time>
      </trkpt>
      <trkpt lat="37.765769977122545" lon="-1.982907000929117">
        <ele>995.20000000000005</ele>
        <time>2018-04-18T10:09:02Z</time>
      </trkpt>
      <trkpt lat="37.766111958771944" lon="-1.983013032004237">
        <ele>993.89999999999998</ele>
        <time>2018-04-18T10:09:06Z</time>
      </trkpt>
      <trkpt lat="37.766191000118852" lon="-1.98306298814714">
        <ele>993.39999999999998</ele>
        <time>2018-04-18T10:09:07Z</time>
      </trkpt>
      <trkpt lat="37.766264006495476" lon="-1.983129037544131">
        <ele>993.29999999999995</ele>
        <time>2018-04-18T10:09:08Z</time>
      </trkpt>
      <trkpt lat="37.766328966245055" lon="-1.983204977586865">
        <ele>992.89999999999998</ele>
        <time>2018-04-18T10:09:09Z</time>
      </trkpt>
      <trkpt lat="37.766390992328525" lon="-1.983287958428264">
        <ele>992.79999999999995</ele>
        <time>2018-04-18T10:09:10Z</time>
      </trkpt>
      <trkpt lat="37.766995998099446" lon="-1.984389005228877">
        <ele>988</ele>
        <time>2018-04-18T10:09:22Z</time>
      </trkpt>
      <trkpt lat="37.767056012526155" lon="-1.984435021877289">
        <ele>988</ele>
        <time>2018-04-18T10:09:23Z</time>
      </trkpt>
      <trkpt lat="37.767119966447353" lon="-1.984463017433882">
        <ele>988.10000000000002</ele>
        <time>2018-04-18T10:09:24Z</time>
      </trkpt>
      <trkpt lat="37.767190039157867" lon="-1.984467962756753">
        <ele>987.5</ele>
        <time>2018-04-18T10:09:25Z</time>
      </trkpt>
      <trkpt lat="37.76726296171546" lon="-1.984463017433882">
        <ele>987.5</ele>
        <time>2018-04-18T10:09:26Z</time>
      </trkpt>
      <trkpt lat="37.767707034945488" lon="-1.984407026320696">
        <ele>986.10000000000002</ele>
        <time>2018-04-18T10:09:32Z</time>
      </trkpt>
      <trkpt lat="37.767781969159842" lon="-1.984413983300328">
        <ele>985.70000000000005</ele>
        <time>2018-04-18T10:09:33Z</time>
      </trkpt>
      <trkpt lat="37.767857993021607" lon="-1.984433010220528">
        <ele>985.20000000000005</ele>
        <time>2018-04-18T10:09:34Z</time>
      </trkpt>
      <trkpt lat="37.767932005226612" lon="-1.984467040747404">
        <ele>985.20000000000005</ele>
        <time>2018-04-18T10:09:35Z</time>
      </trkpt>
      <trkpt lat="37.767995037138462" lon="-1.984516996890307">
        <ele>984.60000000000002</ele>
        <time>2018-04-18T10:09:36Z</time>
      </trkpt>
      <trkpt lat="37.768059996888041" lon="-1.984570976346731">
        <ele>983.70000000000005</ele>
        <time>2018-04-18T10:09:37Z</time>
      </trkpt>
      <trkpt lat="37.768128979951143" lon="-1.984620010480285">
        <ele>983.60000000000002</ele>
        <time>2018-04-18T10:09:38Z</time>
      </trkpt>
      <trkpt lat="37.768200980499387" lon="-1.984659992158413">
        <ele>982.60000000000002</ele>
        <time>2018-04-18T10:09:39Z</time>
      </trkpt>
      <trkpt lat="37.768277004361153" lon="-1.984692011028528">
        <ele>982.20000000000005</ele>
        <time>2018-04-18T10:09:40Z</time>
      </trkpt>
      <trkpt lat="37.769198007881641" lon="-1.985131977126002">
        <ele>977.29999999999995</ele>
        <time>2018-04-18T10:09:52Z</time>
      </trkpt>
      <trkpt lat="37.76926196180284" lon="-1.985185034573078">
        <ele>976.79999999999995</ele>
        <time>2018-04-18T10:09:53Z</time>
      </trkpt>
      <trkpt lat="37.769303033128381" lon="-1.985256029292941">
        <ele>976.29999999999995</ele>
        <time>2018-04-18T10:09:54Z</time>
      </trkpt>
      <trkpt lat="37.76932398788631" lon="-1.985341021791101">
        <ele>975.89999999999998</ele>
        <time>2018-04-18T10:09:55Z</time>
      </trkpt>
      <trkpt lat="37.769321976229548" lon="-1.985430037602782">
        <ele>975.29999999999995</ele>
        <time>2018-04-18T10:09:56Z</time>
      </trkpt>
      <trkpt lat="37.769307978451252" lon="-1.985517041757703">
        <ele>974.79999999999995</ele>
        <time>2018-04-18T10:09:57Z</time>
      </trkpt>
      <trkpt lat="37.769287023693323" lon="-1.98559801094234">
        <ele>974.39999999999998</ele>
        <time>2018-04-18T10:09:58Z</time>
      </trkpt>
      <trkpt lat="37.769267996773124" lon="-1.985677974298596">
        <ele>973.89999999999998</ele>
        <time>2018-04-18T10:09:59Z</time>
      </trkpt>
      <trkpt lat="37.76926196180284" lon="-1.985761960968375">
        <ele>973.79999999999995</ele>
        <time>2018-04-18T10:10:00Z</time>
      </trkpt>
      <trkpt lat="37.769273025915027" lon="-1.985846031457186">
        <ele>973.79999999999995</ele>
        <time>2018-04-18T10:10:01Z</time>
      </trkpt>
      <trkpt lat="37.76930102147162" lon="-1.985923983156681">
        <ele>973.29999999999995</ele>
        <time>2018-04-18T10:10:02Z</time>
      </trkpt>
      <trkpt lat="37.769339997321367" lon="-1.985991038382053">
        <ele>973.29999999999995</ele>
        <time>2018-04-18T10:10:03Z</time>
      </trkpt>
      <trkpt lat="37.76938802562654" lon="-1.986045017838478">
        <ele>972.79999999999995</ele>
        <time>2018-04-18T10:10:04Z</time>
      </trkpt>
      <trkpt lat="37.769442005082965" lon="-1.986088017001748">
        <ele>972.39999999999998</ele>
        <time>2018-04-18T10:10:05Z</time>
      </trkpt>
      <trkpt lat="37.769500007852912" lon="-1.986122969537973">
        <ele>972.29999999999995</ele>
        <time>2018-04-18T10:10:06Z</time>
      </trkpt>
      <trkpt lat="37.769564967602491" lon="-1.986149959266186">
        <ele>971.89999999999998</ele>
        <time>2018-04-18T10:10:07Z</time>
      </trkpt>
      <trkpt lat="37.769632022827864" lon="-1.986162029206753">
        <ele>971.89999999999998</ele>
        <time>2018-04-18T10:10:08Z</time>
      </trkpt>
      <trkpt lat="37.769700000062585" lon="-1.986163035035133">
        <ele>971.29999999999995</ele>
        <time>2018-04-18T10:10:09Z</time>
      </trkpt>
      <trkpt lat="37.769769988954067" lon="-1.98615800589323">
        <ele>970.79999999999995</ele>
        <time>2018-04-18T10:10:10Z</time>
      </trkpt>
      <trkpt lat="37.76984098367393" lon="-1.986146019771695">
        <ele>970.29999999999995</ele>
        <time>2018-04-18T10:10:11Z</time>
      </trkpt>
      <trkpt lat="37.770255971699953" lon="-1.986030014231801">
        <ele>968.39999999999998</ele>
        <time>2018-04-18T10:10:17Z</time>
      </trkpt>
      <trkpt lat="37.770311962813139" lon="-1.985981985926628">
        <ele>967.89999999999998</ele>
        <time>2018-04-18T10:10:18Z</time>
      </trkpt>
      <trkpt lat="37.77035697363317" lon="-1.985913002863526">
        <ele>967.39999999999998</ele>
        <time>2018-04-18T10:10:19Z</time>
      </trkpt>
      <trkpt lat="37.770394021645188" lon="-1.985831027850509">
        <ele>966.89999999999998</ele>
        <time>2018-04-18T10:10:20Z</time>
      </trkpt>
      <trkpt lat="37.770424028858542" lon="-1.985740000382066">
        <ele>966.5</ele>
        <time>2018-04-18T10:10:21Z</time>
      </trkpt>
      <trkpt lat="37.77044196613133" lon="-1.985647967085242">
        <ele>965.89999999999998</ele>
        <time>2018-04-18T10:10:22Z</time>
      </trkpt>
      <trkpt lat="37.770470967516303" lon="-1.985562974587083">
        <ele>965.5</ele>
        <time>2018-04-18T10:10:23Z</time>
      </trkpt>
      <trkpt lat="37.770512038841844" lon="-1.98549197986722">
        <ele>965.39999999999998</ele>
        <time>2018-04-18T10:10:24Z</time>
      </trkpt>
      <trkpt lat="37.770570041611791" lon="-1.985433977097273">
        <ele>965</ele>
        <time>2018-04-18T10:10:25Z</time>
      </trkpt>
      <trkpt lat="37.77063500136137" lon="-1.985382009297609">
        <ele>964.5</ele>
        <time>2018-04-18T10:10:26Z</time>
      </trkpt>
      <trkpt lat="37.770703984424472" lon="-1.985330963507295">
        <ele>964.5</ele>
        <time>2018-04-18T10:10:27Z</time>
      </trkpt>
      <trkpt lat="37.771065998822451" lon="-1.985043967142701">
        <ele>961.60000000000002</ele>
        <time>2018-04-18T10:10:32Z</time>
      </trkpt>
      <trkpt lat="37.771129030734301" lon="-1.984967021271586">
        <ele>961.10000000000002</ele>
        <time>2018-04-18T10:10:33Z</time>
      </trkpt>
      <trkpt lat="37.771184016019106" lon="-1.984886974096298">
        <ele>960.5</ele>
        <time>2018-04-18T10:10:34Z</time>
      </trkpt>
      <trkpt lat="37.771231960505247" lon="-1.984801981598139">
        <ele>960</ele>
        <time>2018-04-18T10:10:35Z</time>
      </trkpt>
      <trkpt lat="37.771272026002407" lon="-1.984713971614838">
        <ele>959.60000000000002</ele>
        <time>2018-04-18T10:10:36Z</time>
      </trkpt>
      <trkpt lat="37.771307984367013" lon="-1.984621016308665">
        <ele>959</ele>
        <time>2018-04-18T10:10:37Z</time>
      </trkpt>
      <trkpt lat="37.771509988233447" lon="-1.984161017462611">
        <ele>957.60000000000002</ele>
        <time>2018-04-18T10:10:42Z</time>
      </trkpt>
      <trkpt lat="37.771572014316916" lon="-1.98409496806562">
        <ele>957.10000000000002</ele>
        <time>2018-04-18T10:10:43Z</time>
      </trkpt>
      <trkpt lat="37.771647032350302" lon="-1.984060015529394">
        <ele>956.70000000000005</ele>
        <time>2018-04-18T10:10:44Z</time>
      </trkpt>
      <trkpt lat="37.771728001534939" lon="-1.984061021357775">
        <ele>956.70000000000005</ele>
        <time>2018-04-18T10:10:45Z</time>
      </trkpt>
      <trkpt lat="37.771807964891195" lon="-1.984089016914368">
        <ele>955.70000000000005</ele>
        <time>2018-04-18T10:10:46Z</time>
      </trkpt>
      <trkpt lat="37.7718819770962" lon="-1.984135033562779">
        <ele>955.10000000000002</ele>
        <time>2018-04-18T10:10:47Z</time>
      </trkpt>
      <trkpt lat="37.771951965987682" lon="-1.984185995534062">
        <ele>954.70000000000005</ele>
        <time>2018-04-18T10:10:48Z</time>
      </trkpt>
      <trkpt lat="37.772814966738224" lon="-1.98484699241817">
        <ele>950.79999999999995</ele>
        <time>2018-04-18T10:11:01Z</time>
      </trkpt>
      <trkpt lat="37.772968020290136" lon="-1.984916981309652">
        <ele>949.70000000000005</ele>
        <time>2018-04-18T10:11:03Z</time>
      </trkpt>
      <trkpt lat="37.773046977818012" lon="-1.984970038756728">
        <ele>948.70000000000005</ele>
        <time>2018-04-18T10:11:04Z</time>
      </trkpt>
      <trkpt lat="37.773123001679778" lon="-1.985030975192785">
        <ele>948.79999999999995</ele>
        <time>2018-04-18T10:11:05Z</time>
      </trkpt>
      <trkpt lat="37.773184021934867" lon="-1.985102975741029">
        <ele>948.70000000000005</ele>
        <time>2018-04-18T10:11:06Z</time>
      </trkpt>
      <trkpt lat="37.773241018876433" lon="-1.985176987946034">
        <ele>948.29999999999995</ele>
        <time>2018-04-18T10:11:07Z</time>
      </trkpt>
      <trkpt lat="37.773811994120479" lon="-1.985865980386734">
        <ele>945.29999999999995</ele>
        <time>2018-04-18T10:11:17Z</time>
      </trkpt>
      <trkpt lat="37.774188006296754" lon="-1.986191030591726">
        <ele>943.89999999999998</ele>
        <time>2018-04-18T10:11:23Z</time>
      </trkpt>
      <trkpt lat="37.774235028773546" lon="-1.98626697063446">
        <ele>943.5</ele>
        <time>2018-04-18T10:11:24Z</time>
      </trkpt>
      <trkpt lat="37.774274004623294" lon="-1.98634902946651">
        <ele>943.5</ele>
        <time>2018-04-18T10:11:25Z</time>
      </trkpt>
      <trkpt lat="37.774314992129803" lon="-1.986433016136289">
        <ele>943</ele>
        <time>2018-04-18T10:11:26Z</time>
      </trkpt>
      <trkpt lat="37.774367965757847" lon="-1.986504010856152">
        <ele>942.39999999999998</ele>
        <time>2018-04-18T10:11:27Z</time>
      </trkpt>
      <trkpt lat="37.774434015154839" lon="-1.986554972827435">
        <ele>942.39999999999998</ele>
        <time>2018-04-18T10:11:28Z</time>
      </trkpt>
      <trkpt lat="37.774505009874701" lon="-1.986585985869169">
        <ele>941.89999999999998</ele>
        <time>2018-04-18T10:11:29Z</time>
      </trkpt>
      <trkpt lat="37.774579022079706" lon="-1.986605012789369">
        <ele>941.89999999999998</ele>
        <time>2018-04-18T10:11:30Z</time>
      </trkpt>
      <trkpt lat="37.77465102262795" lon="-1.98661096394062">
        <ele>941.89999999999998</ele>
        <time>2018-04-18T10:11:31Z</time>
      </trkpt>
      <trkpt lat="37.775307996198535" lon="-1.986623033881187">
        <ele>938.5</ele>
        <time>2018-04-18T10:11:40Z</time>
      </trkpt>
      <trkpt lat="37.775373961776495" lon="-1.986642982810736">
        <ele>938.5</ele>
        <time>2018-04-18T10:11:41Z</time>
      </trkpt>
      <trkpt lat="37.775435987859964" lon="-1.98667299002409">
        <ele>938.5</ele>
        <time>2018-04-18T10:11:42Z</time>
      </trkpt>
      <trkpt lat="37.775494996458292" lon="-1.986711965873838">
        <ele>938</ele>
        <time>2018-04-18T10:11:43Z</time>
      </trkpt>
      <trkpt lat="37.775552999228239" lon="-1.986753959208727">
        <ele>938</ele>
        <time>2018-04-18T10:11:44Z</time>
      </trkpt>
      <trkpt lat="37.77572700753808" lon="-1.986875999718905">
        <ele>938.10000000000002</ele>
        <time>2018-04-18T10:11:47Z</time>
      </trkpt>
      <trkpt lat="37.77578903362155" lon="-1.986902989447117">
        <ele>938</ele>
        <time>2018-04-18T10:11:48Z</time>
      </trkpt>
      <trkpt lat="37.775852987542748" lon="-1.986913969740272">
        <ele>938.10000000000002</ele>
        <time>2018-04-18T10:11:49Z</time>
      </trkpt>
      <trkpt lat="37.77591903693974" lon="-1.986913969740272">
        <ele>937.60000000000002</ele>
        <time>2018-04-18T10:11:50Z</time>
      </trkpt>
      <trkpt lat="37.775986008346081" lon="-1.98690801858902">
        <ele>937.5</ele>
        <time>2018-04-18T10:11:51Z</time>
      </trkpt>
      <trkpt lat="37.776051973924041" lon="-1.986898966133595">
        <ele>937.5</ele>
        <time>2018-04-18T10:11:52Z</time>
      </trkpt>
      <trkpt lat="37.776309968903661" lon="-1.986854961141944">
        <ele>938</ele>
        <time>2018-04-18T10:11:56Z</time>
      </trkpt>
      <trkpt lat="37.776367971673608" lon="-1.986830988898873">
        <ele>938.5</ele>
        <time>2018-04-18T10:11:57Z</time>
      </trkpt>
      <trkpt lat="37.776655973866582" lon="-1.986638037487865">
        <ele>938</ele>
        <time>2018-04-18T10:12:05Z</time>
      </trkpt>
      <trkpt lat="37.776667037978768" lon="-1.986621022224426">
        <ele>938.60000000000002</ele>
        <time>2018-04-18T10:12:06Z</time>
      </trkpt>
      <trkpt lat="37.776709031313658" lon="-1.98654399253428">
        <ele>939.10000000000002</ele>
        <time>2018-04-18T10:12:14Z</time>
      </trkpt>
      <trkpt lat="37.776709031313658" lon="-1.986529994755983">
        <ele>938.5</ele>
        <time>2018-04-18T10:12:15Z</time>
      </trkpt>
      <trkpt lat="37.776727974414825" lon="-1.986508034169674">
        <ele>938.10000000000002</ele>
        <time>2018-04-18T10:12:17Z</time>
      </trkpt>
      <trkpt lat="37.776747001335025" lon="-1.986493030562997">
        <ele>938</ele>
        <time>2018-04-18T10:12:18Z</time>
      </trkpt>
      <trkpt lat="37.776768961921334" lon="-1.986471991986036">
        <ele>937.60000000000002</ele>
        <time>2018-04-18T10:12:19Z</time>
      </trkpt>
      <trkpt lat="37.776792012155056" lon="-1.986445002257824">
        <ele>937.60000000000002</ele>
        <time>2018-04-18T10:12:20Z</time>
      </trkpt>
      <trkpt lat="37.776816990226507" lon="-1.986411977559328">
        <ele>937.5</ele>
        <time>2018-04-18T10:12:21Z</time>
      </trkpt>
      <trkpt lat="37.776953028514981" lon="-1.986245010048151">
        <ele>936.5</ele>
        <time>2018-04-18T10:12:25Z</time>
      </trkpt>
      <trkpt lat="37.777050007134676" lon="-1.986165968701243">
        <ele>936</ele>
        <time>2018-04-18T10:12:27Z</time>
      </trkpt>
      <trkpt lat="37.777216974645853" lon="-1.986076030880213">
        <ele>936.10000000000002</ele>
        <time>2018-04-18T10:12:30Z</time>
      </trkpt>
      <trkpt lat="37.777279000729322" lon="-1.986063038930297">
        <ele>936.10000000000002</ele>
        <time>2018-04-18T10:12:31Z</time>
      </trkpt>
      <trkpt lat="37.778082992881536" lon="-1.98598500341177">
        <ele>931.20000000000005</ele>
        <time>2018-04-18T10:12:43Z</time>
      </trkpt>
      <trkpt lat="37.778492029756308" lon="-1.985938986763358">
        <ele>928.39999999999998</ele>
        <time>2018-04-18T10:12:48Z</time>
      </trkpt>
      <trkpt lat="37.778577022254467" lon="-1.985904034227133">
        <ele>927.29999999999995</ele>
        <time>2018-04-18T10:12:49Z</time>
      </trkpt>
      <trkpt lat="37.778656985610723" lon="-1.985855000093579">
        <ele>926.89999999999998</ele>
        <time>2018-04-18T10:12:50Z</time>
      </trkpt>
      <trkpt lat="37.778728986158967" lon="-1.985794985666871">
        <ele>925.89999999999998</ele>
        <time>2018-04-18T10:12:51Z</time>
      </trkpt>
      <trkpt lat="37.778796041384339" lon="-1.985732037574053">
        <ele>925.39999999999998</ele>
        <time>2018-04-18T10:12:52Z</time>
      </trkpt>
      <trkpt lat="37.778935013338923" lon="-1.985601028427482">
        <ele>923.89999999999998</ele>
        <time>2018-04-18T10:12:54Z</time>
      </trkpt>
      <trkpt lat="37.779010031372309" lon="-1.985537996515632">
        <ele>922.89999999999998</ele>
        <time>2018-04-18T10:12:55Z</time>
      </trkpt>
      <trkpt lat="37.779281018301845" lon="-1.985303973779082">
        <ele>920</ele>
        <time>2018-04-18T10:12:59Z</time>
      </trkpt>
      <trkpt lat="37.779356958344579" lon="-1.985257035121322">
        <ele>919.60000000000002</ele>
        <time>2018-04-18T10:13:00Z</time>
      </trkpt>
      <trkpt lat="37.779435999691486" lon="-1.985217975452542">
        <ele>919</ele>
        <time>2018-04-18T10:13:01Z</time>
      </trkpt>
      <trkpt lat="37.780433027073741" lon="-1.984841963276267">
        <ele>912.39999999999998</ele>
        <time>2018-04-18T10:13:13Z</time>
      </trkpt>
      <trkpt lat="37.781381020322442" lon="-1.984481960535049">
        <ele>904.70000000000005</ele>
        <time>2018-04-18T10:13:24Z</time>
      </trkpt>
      <trkpt lat="37.781458972021937" lon="-1.984426975250244">
        <ele>904.20000000000005</ele>
        <time>2018-04-18T10:13:25Z</time>
      </trkpt>
      <trkpt lat="37.781528038904071" lon="-1.984357992187142">
        <ele>903.20000000000005</ele>
        <time>2018-04-18T10:13:26Z</time>
      </trkpt>
      <trkpt lat="37.781585035845637" lon="-1.984279034659267">
        <ele>902.70000000000005</ele>
        <time>2018-04-18T10:13:27Z</time>
      </trkpt>
      <trkpt lat="37.781631974503398" lon="-1.984196975827217">
        <ele>902.20000000000005</ele>
        <time>2018-04-18T10:13:28Z</time>
      </trkpt>
      <trkpt lat="37.781668016687036" lon="-1.984108965843916">
        <ele>902.20000000000005</ele>
        <time>2018-04-18T10:13:29Z</time>
      </trkpt>
      <trkpt lat="37.78184998780489" lon="-1.983704958111048">
        <ele>901.10000000000002</ele>
        <time>2018-04-18T10:13:34Z</time>
      </trkpt>
      <trkpt lat="37.782205967232585" lon="-1.983121996745467">
        <ele>904</ele>
        <time>2018-04-18T10:13:46Z</time>
      </trkpt>
      <trkpt lat="37.782420963048935" lon="-1.982776997610927">
        <ele>904.5</ele>
        <time>2018-04-18T10:13:56Z</time>
      </trkpt>
      <trkpt lat="37.782681975513697" lon="-1.982369972392917">
        <ele>905.5</ele>
        <time>2018-04-18T10:14:06Z</time>
      </trkpt>
      <trkpt lat="37.78271097689867" lon="-1.982323033735156">
        <ele>905.60000000000002</ele>
        <time>2018-04-18T10:14:07Z</time>
      </trkpt>
      <trkpt lat="37.782740984112024" lon="-1.982277017086744">
        <ele>906.10000000000002</ele>
        <time>2018-04-18T10:14:08Z</time>
      </trkpt>
      <trkpt lat="37.783000990748405" lon="-1.981878960505128">
        <ele>906.60000000000002</ele>
        <time>2018-04-18T10:14:17Z</time>
      </trkpt>
      <trkpt lat="37.783361999318004" lon="-1.981320977210999">
        <ele>907</ele>
        <time>2018-04-18T10:14:30Z</time>
      </trkpt>
      <trkpt lat="37.783608008176088" lon="-1.980943037196994">
        <ele>909.5</ele>
        <time>2018-04-18T10:14:41Z</time>
      </trkpt>
      <trkpt lat="37.783878995105624" lon="-1.980544980615377">
        <ele>911.79999999999995</ele>
        <time>2018-04-18T10:14:53Z</time>
      </trkpt>
      <trkpt lat="37.784238997846842" lon="-1.980223031714559">
        <ele>914.70000000000005</ele>
        <time>2018-04-18T10:15:06Z</time>
      </trkpt>
      <trkpt lat="37.784618027508259" lon="-1.979965958744288">
        <ele>915.29999999999995</ele>
        <time>2018-04-18T10:15:19Z</time>
      </trkpt>
      <trkpt lat="37.784840986132622" lon="-1.979802008718252">
        <ele>914.70000000000005</ele>
        <time>2018-04-18T10:15:26Z</time>
      </trkpt>
      <trkpt lat="37.784950034692883" lon="-1.979762027040124">
        <ele>914.70000000000005</ele>
        <time>2018-04-18T10:15:29Z</time>
      </trkpt>
      <trkpt lat="37.784994961693883" lon="-1.979758003726602">
        <ele>914.70000000000005</ele>
        <time>2018-04-18T10:15:30Z</time>
      </trkpt>
      <trkpt lat="37.785040978342295" lon="-1.979760015383363">
        <ele>914.70000000000005</ele>
        <time>2018-04-18T10:15:31Z</time>
      </trkpt>
      <trkpt lat="37.785084983333945" lon="-1.979765966534615">
        <ele>914.79999999999995</ele>
        <time>2018-04-18T10:15:32Z</time>
      </trkpt>
      <trkpt lat="37.785129994153976" lon="-1.97977895848453">
        <ele>914.79999999999995</ele>
        <time>2018-04-18T10:15:33Z</time>
      </trkpt>
      <trkpt lat="37.785166036337614" lon="-1.979795973747969">
        <ele>914.79999999999995</ele>
        <time>2018-04-18T10:15:34Z</time>
      </trkpt>
      <trkpt lat="37.785200988873839" lon="-1.979822963476181">
        <ele>914.79999999999995</ele>
        <time>2018-04-18T10:15:35Z</time>
      </trkpt>
      <trkpt lat="37.785235019400716" lon="-1.979853976517916">
        <ele>914.70000000000005</ele>
        <time>2018-04-18T10:15:36Z</time>
      </trkpt>
      <trkpt lat="37.785264020785689" lon="-1.979887001216412">
        <ele>914.29999999999995</ele>
        <time>2018-04-18T10:15:37Z</time>
      </trkpt>
      <trkpt lat="37.785564009100199" lon="-1.980068972334266">
        <ele>913.79999999999995</ele>
        <time>2018-04-18T10:15:44Z</time>
      </trkpt>
      <trkpt lat="37.785923006013036" lon="-1.980062015354633">
        <ele>912.29999999999995</ele>
        <time>2018-04-18T10:15:51Z</time>
      </trkpt>
      <trkpt lat="37.786299018189311" lon="-1.97999102063477">
        <ele>911.29999999999995</ele>
        <time>2018-04-18T10:16:00Z</time>
      </trkpt>
      <trkpt lat="37.786847027018666" lon="-1.98005598038435">
        <ele>910.79999999999995</ele>
        <time>2018-04-18T10:16:12Z</time>
      </trkpt>
      <trkpt lat="37.787122959271073" lon="-1.980041982606053">
        <ele>909.79999999999995</ele>
        <time>2018-04-18T10:16:17Z</time>
      </trkpt>
      <trkpt lat="37.787485979497433" lon="-1.979911979287863">
        <ele>907.5</ele>
        <time>2018-04-18T10:16:23Z</time>
      </trkpt>
      <trkpt lat="37.787674991413951" lon="-1.979770995676518">
        <ele>906</ele>
        <time>2018-04-18T10:16:26Z</time>
      </trkpt>
      <trkpt lat="37.787729976698756" lon="-1.979705030098558">
        <ele>905.60000000000002</ele>
        <time>2018-04-18T10:16:27Z</time>
      </trkpt>
      <trkpt lat="37.787778005003929" lon="-1.979630012065172">
        <ele>905</ele>
        <time>2018-04-18T10:16:28Z</time>
      </trkpt>
      <trkpt lat="37.787816980853677" lon="-1.979548037052155">
        <ele>904.5</ele>
        <time>2018-04-18T10:16:29Z</time>
      </trkpt>
      <trkpt lat="37.787853023037314" lon="-1.979460027068853">
        <ele>904.10000000000002</ele>
        <time>2018-04-18T10:16:30Z</time>
      </trkpt>
      <trkpt lat="37.788090985268354" lon="-1.978873964399099">
        <ele>899.70000000000005</ele>
        <time>2018-04-18T10:16:36Z</time>
      </trkpt>
      <trkpt lat="37.788154017180204" lon="-1.97878897190094">
        <ele>899.20000000000005</ele>
        <time>2018-04-18T10:16:37Z</time>
      </trkpt>
      <trkpt lat="37.788227023556828" lon="-1.978711020201445">
        <ele>898.70000000000005</ele>
        <time>2018-04-18T10:16:38Z</time>
      </trkpt>
      <trkpt lat="37.788307992741466" lon="-1.978645976632834">
        <ele>897.79999999999995</ele>
        <time>2018-04-18T10:16:39Z</time>
      </trkpt>
      <trkpt lat="37.788398014381528" lon="-1.978599959984422">
        <ele>897.20000000000005</ele>
        <time>2018-04-18T10:16:40Z</time>
      </trkpt>
      <trkpt lat="37.788501027971506" lon="-1.978585962206125">
        <ele>896.20000000000005</ele>
        <time>2018-04-18T10:16:41Z</time>
      </trkpt>
      <trkpt lat="37.788605969399214" lon="-1.978583028540015">
        <ele>895.79999999999995</ele>
        <time>2018-04-18T10:16:42Z</time>
      </trkpt>
      <trkpt lat="37.788710994645953" lon="-1.978579005226493">
        <ele>894.79999999999995</ele>
        <time>2018-04-18T10:16:43Z</time>
      </trkpt>
      <trkpt lat="37.790000969544053" lon="-1.978524019941688">
        <ele>885.20000000000005</ele>
        <time>2018-04-18T10:16:55Z</time>
      </trkpt>
      <trkpt lat="37.790871011093259" lon="-1.978801963850856">
        <ele>878</ele>
        <time>2018-04-18T10:17:04Z</time>
      </trkpt>
      <trkpt lat="37.79095902107656" lon="-1.978861978277564">
        <ele>877</ele>
        <time>2018-04-18T10:17:05Z</time>
      </trkpt>
      <trkpt lat="37.791824033483863" lon="-1.979566980153322">
        <ele>868.79999999999995</ele>
        <time>2018-04-18T10:17:17Z</time>
      </trkpt>
      <trkpt lat="37.791876001283526" lon="-1.979619031772018">
        <ele>867.29999999999995</ele>
        <time>2018-04-18T10:17:19Z</time>
      </trkpt>
      <trkpt lat="37.791882958263159" lon="-1.979648033156991">
        <ele>867.39999999999998</ele>
        <time>2018-04-18T10:17:20Z</time>
      </trkpt>
      <trkpt lat="37.791887987405062" lon="-1.979678962379694">
        <ele>866.89999999999998</ele>
        <time>2018-04-18T10:17:21Z</time>
      </trkpt>
      <trkpt lat="37.791897039860487" lon="-1.979703018441796">
        <ele>866.89999999999998</ele>
        <time>2018-04-18T10:17:22Z</time>
      </trkpt>
      <trkpt lat="37.791912965476513" lon="-1.979707963764668">
        <ele>866.29999999999995</ele>
        <time>2018-04-18T10:17:23Z</time>
      </trkpt>
      <trkpt lat="37.791926963254809" lon="-1.979694971814752">
        <ele>866.29999999999995</ele>
        <time>2018-04-18T10:17:24Z</time>
      </trkpt>
      <trkpt lat="37.791935009881854" lon="-1.979672005400062">
        <ele>866.39999999999998</ele>
        <time>2018-04-18T10:17:25Z</time>
      </trkpt>
      <trkpt lat="37.791926041245461" lon="-1.97964702732861">
        <ele>866.39999999999998</ele>
        <time>2018-04-18T10:17:26Z</time>
      </trkpt>
      <trkpt lat="37.791906008496881" lon="-1.979631017893553">
        <ele>866.29999999999995</ele>
        <time>2018-04-18T10:17:27Z</time>
      </trkpt>
      <trkpt lat="37.791876001283526" lon="-1.97962699458003">
        <ele>865.89999999999998</ele>
        <time>2018-04-18T10:17:28Z</time>
      </trkpt>
      <trkpt lat="37.791843982413411" lon="-1.979634035378695">
        <ele>865.79999999999995</ele>
        <time>2018-04-18T10:17:29Z</time>
      </trkpt>
      <trkpt lat="37.791811041533947" lon="-1.97964602150023">
        <ele>865.29999999999995</ele>
        <time>2018-04-18T10:17:30Z</time>
      </trkpt>
      <trkpt lat="37.791256997734308" lon="-1.97969002649188">
        <ele>861.39999999999998</ele>
        <time>2018-04-18T10:17:43Z</time>
      </trkpt>
      <trkpt lat="37.790931025519967" lon="-1.979762027040124">
        <ele>860.39999999999998</ele>
        <time>2018-04-18T10:17:51Z</time>
      </trkpt>
      <trkpt lat="37.790816025808454" lon="-1.979824975132942">
        <ele>859.5</ele>
        <time>2018-04-18T10:17:54Z</time>
      </trkpt>
      <trkpt lat="37.790783001109958" lon="-1.979859005659819">
        <ele>859.39999999999998</ele>
        <time>2018-04-18T10:17:55Z</time>
      </trkpt>
      <trkpt lat="37.790757017210126" lon="-1.979900998994708">
        <ele>858.89999999999998</ele>
        <time>2018-04-18T10:17:56Z</time>
      </trkpt>
      <trkpt lat="37.790737990289927" lon="-1.979949027299881">
        <ele>858.89999999999998</ele>
        <time>2018-04-18T10:17:57Z</time>
      </trkpt>
      <trkpt lat="37.790721980854869" lon="-1.979997977614403">
        <ele>859</ele>
        <time>2018-04-18T10:17:58Z</time>
      </trkpt>
      <trkpt lat="37.790675964206457" lon="-1.980148013681173">
        <ele>859</ele>
        <time>2018-04-18T10:18:01Z</time>
      </trkpt>
      <trkpt lat="37.790661966428161" lon="-1.980197969824076">
        <ele>859</ele>
        <time>2018-04-18T10:18:02Z</time>
      </trkpt>
      <trkpt lat="37.790616033598781" lon="-1.980362003669143">
        <ele>859.5</ele>
        <time>2018-04-18T10:18:05Z</time>
      </trkpt>
      <trkpt lat="37.790547972545028" lon="-1.980525031685829">
        <ele>858.89999999999998</ele>
        <time>2018-04-18T10:18:08Z</time>
      </trkpt>
      <trkpt lat="37.790425010025501" lon="-1.980725023895502">
        <ele>859.5</ele>
        <time>2018-04-18T10:18:12Z</time>
      </trkpt>
      <trkpt lat="37.790387962013483" lon="-1.980773974210024">
        <ele>858.89999999999998</ele>
        <time>2018-04-18T10:18:13Z</time>
      </trkpt>
      <trkpt lat="37.790252007544041" lon="-1.980987964197993">
        <ele>858</ele>
        <time>2018-04-18T10:18:17Z</time>
      </trkpt>
      <trkpt lat="37.790224011987448" lon="-1.981048984453082">
        <ele>857.89999999999998</ele>
        <time>2018-04-18T10:18:18Z</time>
      </trkpt>
      <trkpt lat="37.790200039744377" lon="-1.981113022193313">
        <ele>857.39999999999998</ele>
        <time>2018-04-18T10:18:19Z</time>
      </trkpt>
      <trkpt lat="37.790181012824178" lon="-1.981180999428034">
        <ele>856.89999999999998</ele>
        <time>2018-04-18T10:18:20Z</time>
      </trkpt>
      <trkpt lat="37.790162991732359" lon="-1.981249982491136">
        <ele>856.89999999999998</ele>
        <time>2018-04-18T10:18:21Z</time>
      </trkpt>
      <trkpt lat="37.790127033367753" lon="-1.981373028829694">
        <ele>856.89999999999998</ele>
        <time>2018-04-18T10:18:23Z</time>
      </trkpt>
      <trkpt lat="37.790103983134031" lon="-1.981434971094132">
        <ele>856.89999999999998</ele>
        <time>2018-04-18T10:18:24Z</time>
      </trkpt>
      <trkpt lat="37.79001597315073" lon="-1.981607973575592">
        <ele>856.89999999999998</ele>
        <time>2018-04-18T10:18:27Z</time>
      </trkpt>
      <trkpt lat="37.789981020614505" lon="-1.981661031022668">
        <ele>857</ele>
        <time>2018-04-18T10:18:28Z</time>
      </trkpt>
      <trkpt lat="37.789947995916009" lon="-1.981719033792615">
        <ele>857</ele>
        <time>2018-04-18T10:18:29Z</time>
      </trkpt>
      <trkpt lat="37.789917988702655" lon="-1.981781981885433">
        <ele>856.89999999999998</ele>
        <time>2018-04-18T10:18:30Z</time>
      </trkpt>
      <trkpt lat="37.789893010631204" lon="-1.981847025454044">
        <ele>856.89999999999998</ele>
        <time>2018-04-18T10:18:31Z</time>
      </trkpt>
      <trkpt lat="37.789870966225863" lon="-1.981910979375243">
        <ele>856.89999999999998</ele>
        <time>2018-04-18T10:18:32Z</time>
      </trkpt>
      <trkpt lat="37.789799971506" lon="-1.98209404014051">
        <ele>856.5</ele>
        <time>2018-04-18T10:18:35Z</time>
      </trkpt>
      <trkpt lat="37.789770970121026" lon="-1.982142990455031">
        <ele>855.89999999999998</ele>
        <time>2018-04-18T10:18:36Z</time>
      </trkpt>
      <trkpt lat="37.789731994271278" lon="-1.982191018760204">
        <ele>855.39999999999998</ele>
        <time>2018-04-18T10:18:37Z</time>
      </trkpt>
      <trkpt lat="37.789684971794486" lon="-1.982227982953191">
        <ele>854.89999999999998</ele>
        <time>2018-04-18T10:18:38Z</time>
      </trkpt>
      <trkpt lat="37.789631998166442" lon="-1.982251033186913">
        <ele>854.39999999999998</ele>
        <time>2018-04-18T10:18:39Z</time>
      </trkpt>
      <trkpt lat="37.789577012881637" lon="-1.982262013480067">
        <ele>854.39999999999998</ele>
        <time>2018-04-18T10:18:40Z</time>
      </trkpt>
      <trkpt lat="37.789522027596831" lon="-1.982264025136828">
        <ele>854</ele>
        <time>2018-04-18T10:18:41Z</time>
      </trkpt>
      <trkpt lat="37.789466958492994" lon="-1.982257990166545">
        <ele>853.39999999999998</ele>
        <time>2018-04-18T10:18:42Z</time>
      </trkpt>
      <trkpt lat="37.78941297903657" lon="-1.982252039015293">
        <ele>853.5</ele>
        <time>2018-04-18T10:18:43Z</time>
      </trkpt>
      <trkpt lat="37.789099998772144" lon="-1.982263019308448">
        <ele>851.10000000000002</ele>
        <time>2018-04-18T10:18:49Z</time>
      </trkpt>
      <trkpt lat="37.78900302015245" lon="-1.982296966016293">
        <ele>850.60000000000002</ele>
        <time>2018-04-18T10:18:51Z</time>
      </trkpt>
      <trkpt lat="37.788953986018896" lon="-1.982323033735156">
        <ele>850.5</ele>
        <time>2018-04-18T10:18:52Z</time>
      </trkpt>
      <trkpt lat="37.788908975198865" lon="-1.98235496878624">
        <ele>850.10000000000002</ele>
        <time>2018-04-18T10:18:53Z</time>
      </trkpt>
      <trkpt lat="37.788866981863976" lon="-1.982392016798258">
        <ele>850</ele>
        <time>2018-04-18T10:18:54Z</time>
      </trkpt>
      <trkpt lat="37.78883496299386" lon="-1.982437027618289">
        <ele>849.5</ele>
        <time>2018-04-18T10:18:55Z</time>
      </trkpt>
      <trkpt lat="37.788807973265648" lon="-1.982487989589572">
        <ele>849</ele>
        <time>2018-04-18T10:18:56Z</time>
      </trkpt>
      <trkpt lat="37.788786012679338" lon="-1.982542974874377">
        <ele>849.10000000000002</ele>
        <time>2018-04-18T10:18:57Z</time>
      </trkpt>
      <trkpt lat="37.78876799158752" lon="-1.982602989301086">
        <ele>849</ele>
        <time>2018-04-18T10:18:58Z</time>
      </trkpt>
      <trkpt lat="37.788752987980843" lon="-1.982664009556174">
        <ele>849.5</ele>
        <time>2018-04-18T10:18:59Z</time>
      </trkpt>
      <trkpt lat="37.788489041849971" lon="-1.983592975884676">
        <ele>850</ele>
        <time>2018-04-18T10:19:14Z</time>
      </trkpt>
      <trkpt lat="37.788324002176523" lon="-1.984040988609195">
        <ele>850.10000000000002</ele>
        <time>2018-04-18T10:19:21Z</time>
      </trkpt>
      <trkpt lat="37.788267005234957" lon="-1.984319016337395">
        <ele>850.10000000000002</ele>
        <time>2018-04-18T10:19:25Z</time>
      </trkpt>
      <trkpt lat="37.788257030770183" lon="-1.984381964430213">
        <ele>850.60000000000002</ele>
        <time>2018-04-18T10:19:26Z</time>
      </trkpt>
      <trkpt lat="37.788026025518775" lon="-1.985109010711312">
        <ele>852.89999999999998</ele>
        <time>2018-04-18T10:19:38Z</time>
      </trkpt>
      <trkpt lat="37.788005992770195" lon="-1.985162990167737">
        <ele>852.89999999999998</ele>
        <time>2018-04-18T10:19:39Z</time>
      </trkpt>
      <trkpt lat="37.78793097473681" lon="-1.985367005690932">
        <ele>853.39999999999998</ele>
        <time>2018-04-18T10:19:43Z</time>
      </trkpt>
      <trkpt lat="37.787831984460354" lon="-1.985544031485915">
        <ele>854.39999999999998</ele>
        <time>2018-04-18T10:19:47Z</time>
      </trkpt>
      <trkpt lat="37.787424037232995" lon="-1.98600503616035">
        <ele>854.89999999999998</ele>
        <time>2018-04-18T10:20:03Z</time>
      </trkpt>
      <trkpt lat="37.787015000358224" lon="-1.986045017838478">
        <ele>853.10000000000002</ele>
        <time>2018-04-18T10:20:14Z</time>
      </trkpt>
      <trkpt lat="37.78696596622467" lon="-1.986053986474872">
        <ele>853.10000000000002</ele>
        <time>2018-04-18T10:20:15Z</time>
      </trkpt>
      <trkpt lat="37.78691902756691" lon="-1.986069995909929">
        <ele>852.5</ele>
        <time>2018-04-18T10:20:16Z</time>
      </trkpt>
      <trkpt lat="37.786873010918498" lon="-1.98609103448689">
        <ele>852.5</ele>
        <time>2018-04-18T10:20:17Z</time>
      </trkpt>
      <trkpt lat="37.786826994270086" lon="-1.986116012558341">
        <ele>852.60000000000002</ele>
        <time>2018-04-18T10:20:18Z</time>
      </trkpt>
      <trkpt lat="37.786253001540899" lon="-1.986594032496214">
        <ele>849.60000000000002</ele>
        <time>2018-04-18T10:20:31Z</time>
      </trkpt>
      <trkpt lat="37.786203967407346" lon="-1.986622028052807">
        <ele>849.60000000000002</ele>
        <time>2018-04-18T10:20:32Z</time>
      </trkpt>
      <trkpt lat="37.786154011264443" lon="-1.986638959497213">
        <ele>849.10000000000002</ele>
        <time>2018-04-18T10:20:33Z</time>
      </trkpt>
      <trkpt lat="37.786101037636399" lon="-1.986642982810736">
        <ele>849.10000000000002</ele>
        <time>2018-04-18T10:20:34Z</time>
      </trkpt>
      <trkpt lat="37.786044040694833" lon="-1.986635020002723">
        <ele>848.60000000000002</ele>
        <time>2018-04-18T10:20:35Z</time>
      </trkpt>
      <trkpt lat="37.785984026268125" lon="-1.986620016396046">
        <ele>848.60000000000002</ele>
        <time>2018-04-18T10:20:36Z</time>
      </trkpt>
      <trkpt lat="37.785784034058452" lon="-1.986573999747634">
        <ele>847.60000000000002</ele>
        <time>2018-04-18T10:20:39Z</time>
      </trkpt>
      <trkpt lat="37.785716978833079" lon="-1.986571988090873">
        <ele>847.60000000000002</ele>
        <time>2018-04-18T10:20:40Z</time>
      </trkpt>
      <trkpt lat="37.78565302491188" lon="-1.986585985869169">
        <ele>847.20000000000005</ele>
        <time>2018-04-18T10:20:41Z</time>
      </trkpt>
      <trkpt lat="37.785593010485172" lon="-1.986620016396046">
        <ele>846.70000000000005</ele>
        <time>2018-04-18T10:20:42Z</time>
      </trkpt>
      <trkpt lat="37.785538025200367" lon="-1.986664021387696">
        <ele>846.70000000000005</ele>
        <time>2018-04-18T10:20:43Z</time>
      </trkpt>
      <trkpt lat="37.785486979410052" lon="-1.986711965873838">
        <ele>846.10000000000002</ele>
        <time>2018-04-18T10:20:44Z</time>
      </trkpt>
      <trkpt lat="37.785298973321915" lon="-1.986906006932259">
        <ele>845.10000000000002</ele>
        <time>2018-04-18T10:20:48Z</time>
      </trkpt>
      <trkpt lat="37.785245999693871" lon="-1.986945988610387">
        <ele>845.10000000000002</ele>
        <time>2018-04-18T10:20:49Z</time>
      </trkpt>
      <trkpt lat="37.785190008580685" lon="-1.986978007480502">
        <ele>844.60000000000002</ele>
        <time>2018-04-18T10:20:50Z</time>
      </trkpt>
      <trkpt lat="37.785132005810738" lon="-1.987000973895192">
        <ele>844.20000000000005</ele>
        <time>2018-04-18T10:20:51Z</time>
      </trkpt>
      <trkpt lat="37.78507299721241" lon="-1.98701698333025">
        <ele>843.60000000000002</ele>
        <time>2018-04-18T10:20:52Z</time>
      </trkpt>
      <trkpt lat="37.78500996530056" lon="-1.987027041614056">
        <ele>843.60000000000002</ele>
        <time>2018-04-18T10:20:53Z</time>
      </trkpt>
      <trkpt lat="37.784947017207742" lon="-1.987033998593688">
        <ele>843.10000000000002</ele>
        <time>2018-04-18T10:20:54Z</time>
      </trkpt>
      <trkpt lat="37.784829000011086" lon="-1.987055037170649">
        <ele>842.60000000000002</ele>
        <time>2018-04-18T10:20:56Z</time>
      </trkpt>
      <trkpt lat="37.784778038039804" lon="-1.9870800152421">
        <ele>842.10000000000002</ele>
        <time>2018-04-18T10:20:57Z</time>
      </trkpt>
      <trkpt lat="37.784736966714263" lon="-1.987122008576989">
        <ele>842.10000000000002</ele>
        <time>2018-04-18T10:20:58Z</time>
      </trkpt>
      <trkpt lat="37.78470603749156" lon="-1.987176993861795">
        <ele>841.60000000000002</ele>
        <time>2018-04-18T10:20:59Z</time>
      </trkpt>
      <trkpt lat="37.78468600474298" lon="-1.987239019945264">
        <ele>841.20000000000005</ele>
        <time>2018-04-18T10:21:00Z</time>
      </trkpt>
      <trkpt lat="37.784671001136303" lon="-1.987305991351605">
        <ele>841.20000000000005</ele>
        <time>2018-04-18T10:21:01Z</time>
      </trkpt>
      <trkpt lat="37.784661026671529" lon="-1.987374974414706">
        <ele>841.10000000000002</ele>
        <time>2018-04-18T10:21:02Z</time>
      </trkpt>
      <trkpt lat="37.784655997529626" lon="-1.987442029640079">
        <ele>840.70000000000005</ele>
        <time>2018-04-18T10:21:03Z</time>
      </trkpt>
      <trkpt lat="37.784649040549994" lon="-1.98751101270318">
        <ele>840.60000000000002</ele>
        <time>2018-04-18T10:21:04Z</time>
      </trkpt>
      <trkpt lat="37.784638982266188" lon="-1.987582007423043">
        <ele>840.60000000000002</ele>
        <time>2018-04-18T10:21:05Z</time>
      </trkpt>
      <trkpt lat="37.784606963396072" lon="-1.987729026004672">
        <ele>840.60000000000002</ele>
        <time>2018-04-18T10:21:07Z</time>
      </trkpt>
      <trkpt lat="37.784580979496241" lon="-1.987800020724535">
        <ele>840.60000000000002</ele>
        <time>2018-04-18T10:21:08Z</time>
      </trkpt>
      <trkpt lat="37.784075969830155" lon="-1.988668972626329">
        <ele>839.20000000000005</ele>
        <time>2018-04-18T10:21:20Z</time>
      </trkpt>
      <trkpt lat="37.783985026180744" lon="-1.988806016743183">
        <ele>839.29999999999995</ele>
        <time>2018-04-18T10:21:22Z</time>
      </trkpt>
      <trkpt lat="37.783954013139009" lon="-1.988884974271059">
        <ele>839.29999999999995</ele>
        <time>2018-04-18T10:21:23Z</time>
      </trkpt>
      <trkpt lat="37.783935992047191" lon="-1.988966027274728">
        <ele>839.20000000000005</ele>
        <time>2018-04-18T10:21:24Z</time>
      </trkpt>
      <trkpt lat="37.783930040895939" lon="-1.989046996459365">
        <ele>839.20000000000005</ele>
        <time>2018-04-18T10:21:25Z</time>
      </trkpt>
      <trkpt lat="37.783930962905288" lon="-1.989126037806273">
        <ele>839.20000000000005</ele>
        <time>2018-04-18T10:21:26Z</time>
      </trkpt>
      <trkpt lat="37.78393498621881" lon="-1.989204995334148">
        <ele>839.70000000000005</ele>
        <time>2018-04-18T10:21:27Z</time>
      </trkpt>
      <trkpt lat="37.784078987315297" lon="-1.990143014118075">
        <ele>844</ele>
        <time>2018-04-18T10:21:40Z</time>
      </trkpt>
      <trkpt lat="37.784073958173394" lon="-1.990204034373164">
        <ele>844.5</ele>
        <time>2018-04-18T10:21:41Z</time>
      </trkpt>
      <trkpt lat="37.784059038385749" lon="-1.990265976637602">
        <ele>844.60000000000002</ele>
        <time>2018-04-18T10:21:42Z</time>
      </trkpt>
      <trkpt lat="37.784035988152027" lon="-1.990328002721071">
        <ele>845</ele>
        <time>2018-04-18T10:21:43Z</time>
      </trkpt>
      <trkpt lat="37.784005980938673" lon="-1.99038902297616">
        <ele>845.5</ele>
        <time>2018-04-18T10:21:44Z</time>
      </trkpt>
      <trkpt lat="37.783973040059209" lon="-1.990449959412217">
        <ele>845.60000000000002</ele>
        <time>2018-04-18T10:21:45Z</time>
      </trkpt>
      <trkpt lat="37.783732982352376" lon="-1.990783978253603">
        <ele>845.60000000000002</ele>
        <time>2018-04-18T10:21:51Z</time>
      </trkpt>
      <trkpt lat="37.78367699123919" lon="-1.990814991295338">
        <ele>846.10000000000002</ele>
        <time>2018-04-18T10:21:52Z</time>
      </trkpt>
      <trkpt lat="37.783614965155721" lon="-1.990835024043918">
        <ele>846.10000000000002</ele>
        <time>2018-04-18T10:21:53Z</time>
      </trkpt>
      <trkpt lat="37.782818013802171" lon="-1.990956980735064">
        <ele>843.20000000000005</ele>
        <time>2018-04-18T10:22:05Z</time>
      </trkpt>
      <trkpt lat="37.782765962183475" lon="-1.990981036797166">
        <ele>843.20000000000005</ele>
        <time>2018-04-18T10:22:06Z</time>
      </trkpt>
      <trkpt lat="37.78273000381887" lon="-1.991016995161772">
        <ele>842.70000000000005</ele>
        <time>2018-04-18T10:22:07Z</time>
      </trkpt>
      <trkpt lat="37.78270997107029" lon="-1.991065023466945">
        <ele>842.60000000000002</ele>
        <time>2018-04-18T10:22:08Z</time>
      </trkpt>
      <trkpt lat="37.78270703740418" lon="-1.991123026236892">
        <ele>842.60000000000002</ele>
        <time>2018-04-18T10:22:09Z</time>
      </trkpt>
      <trkpt lat="37.78271097689867" lon="-1.9911830406636">
        <ele>842.20000000000005</ele>
        <time>2018-04-18T10:22:10Z</time>
      </trkpt>
      <trkpt lat="37.782721035182476" lon="-1.991242971271277">
        <ele>842.10000000000002</ele>
        <time>2018-04-18T10:22:11Z</time>
      </trkpt>
      <trkpt lat="37.782739978283644" lon="-1.991302985697985">
        <ele>842.10000000000002</ele>
        <time>2018-04-18T10:22:12Z</time>
      </trkpt>
      <trkpt lat="37.782760011032224" lon="-1.991366017609835">
        <ele>841.60000000000002</ele>
        <time>2018-04-18T10:22:13Z</time>
      </trkpt>
      <trkpt lat="37.782863024622202" lon="-1.991662988439202">
        <ele>840.60000000000002</ele>
        <time>2018-04-18T10:22:17Z</time>
      </trkpt>
      <trkpt lat="37.78288196772337" lon="-1.991745969280601">
        <ele>840.60000000000002</ele>
        <time>2018-04-18T10:22:18Z</time>
      </trkpt>
      <trkpt lat="37.78290200047195" lon="-1.991913020610809">
        <ele>839.70000000000005</ele>
        <time>2018-04-18T10:22:20Z</time>
      </trkpt>
      <trkpt lat="37.782890014350414" lon="-1.993084978312254">
        <ele>835.39999999999998</ele>
        <time>2018-04-18T10:22:31Z</time>
      </trkpt>
      <trkpt lat="37.782937958836555" lon="-1.994000030681491">
        <ele>833.5</ele>
        <time>2018-04-18T10:22:39Z</time>
      </trkpt>
      <trkpt lat="37.78292203322053" lon="-1.994103966280818">
        <ele>832.89999999999998</ele>
        <time>2018-04-18T10:22:40Z</time>
      </trkpt>
      <trkpt lat="37.782894959673285" lon="-1.994200022891164">
        <ele>833</ele>
        <time>2018-04-18T10:22:41Z</time>
      </trkpt>
      <trkpt lat="37.782861012965441" lon="-1.994283003732562">
        <ele>833</ele>
        <time>2018-04-18T10:22:42Z</time>
      </trkpt>
      <trkpt lat="37.782818013802171" lon="-1.994351986795664">
        <ele>833</ele>
        <time>2018-04-18T10:22:43Z</time>
      </trkpt>
      <trkpt lat="37.782765962183475" lon="-1.994404960423708">
        <ele>832.89999999999998</ele>
        <time>2018-04-18T10:22:44Z</time>
      </trkpt>
      <trkpt lat="37.782705025747418" lon="-1.994443014264107">
        <ele>832.89999999999998</ele>
        <time>2018-04-18T10:22:45Z</time>
      </trkpt>
      <trkpt lat="37.782638976350427" lon="-1.9944710098207">
        <ele>832.89999999999998</ele>
        <time>2018-04-18T10:22:46Z</time>
      </trkpt>
      <trkpt lat="37.782569993287325" lon="-1.994485007598996">
        <ele>832.89999999999998</ele>
        <time>2018-04-18T10:22:47Z</time>
      </trkpt>
      <trkpt lat="37.782504027709365" lon="-1.994487019255757">
        <ele>832.5</ele>
        <time>2018-04-18T10:22:48Z</time>
      </trkpt>
      <trkpt lat="37.782314009964466" lon="-1.994500011205673">
        <ele>831.5</ele>
        <time>2018-04-18T10:22:51Z</time>
      </trkpt>
      <trkpt lat="37.782260030508041" lon="-1.994521971791983">
        <ele>831.5</ele>
        <time>2018-04-18T10:22:52Z</time>
      </trkpt>
      <trkpt lat="37.782218037173152" lon="-1.994561031460762">
        <ele>830.89999999999998</ele>
        <time>2018-04-18T10:22:53Z</time>
      </trkpt>
      <trkpt lat="37.782190041616559" lon="-1.994611993432045">
        <ele>831</ele>
        <time>2018-04-18T10:22:54Z</time>
      </trkpt>
      <trkpt lat="37.782178977504373" lon="-1.994675025343895">
        <ele>830.5</ele>
        <time>2018-04-18T10:22:55Z</time>
      </trkpt>
      <trkpt lat="37.782185012474656" lon="-1.994741996750236">
        <ele>830.5</ele>
        <time>2018-04-18T10:22:56Z</time>
      </trkpt>
      <trkpt lat="37.782200016081333" lon="-1.994808968156576">
        <ele>830.39999999999998</ele>
        <time>2018-04-18T10:22:57Z</time>
      </trkpt>
      <trkpt lat="37.782216025516391" lon="-1.994872000068426">
        <ele>829.89999999999998</ele>
        <time>2018-04-18T10:22:58Z</time>
      </trkpt>
      <trkpt lat="37.782234968617558" lon="-1.994927991181612">
        <ele>829.39999999999998</ele>
        <time>2018-04-18T10:22:59Z</time>
      </trkpt>
      <trkpt lat="37.782309986650944" lon="-1.995075009763241">
        <ele>830</ele>
        <time>2018-04-18T10:23:02Z</time>
      </trkpt>
      <trkpt lat="37.782411994412541" lon="-1.995241977274418">
        <ele>829.89999999999998</ele>
        <time>2018-04-18T10:23:06Z</time>
      </trkpt>
      <trkpt lat="37.782439989969134" lon="-1.995281958952546">
        <ele>829.89999999999998</ele>
        <time>2018-04-18T10:23:07Z</time>
      </trkpt>
      <trkpt lat="37.78249497525394" lon="-1.995364017784596">
        <ele>830.39999999999998</ele>
        <time>2018-04-18T10:23:09Z</time>
      </trkpt>
      <trkpt lat="37.782520959153771" lon="-1.995408022776246">
        <ele>830</ele>
        <time>2018-04-18T10:23:10Z</time>
      </trkpt>
      <trkpt lat="37.782574016600847" lon="-1.995489997789264">
        <ele>829.89999999999998</ele>
        <time>2018-04-18T10:23:12Z</time>
      </trkpt>
      <trkpt lat="37.78294499963522" lon="-1.996130961924791">
        <ele>829.89999999999998</ele>
        <time>2018-04-18T10:23:27Z</time>
      </trkpt>
      <trkpt lat="37.78305497020483" lon="-1.996308993548155">
        <ele>830</ele>
        <time>2018-04-18T10:23:31Z</time>
      </trkpt>
      <trkpt lat="37.783081959933043" lon="-1.996357021853328">
        <ele>829.89999999999998</ele>
        <time>2018-04-18T10:23:32Z</time>
      </trkpt>
      <trkpt lat="37.783108027651906" lon="-1.996404966339469">
        <ele>829.89999999999998</ele>
        <time>2018-04-18T10:23:33Z</time>
      </trkpt>
      <trkpt lat="37.783437017351389" lon="-1.997069986537099">
        <ele>827</ele>
        <time>2018-04-18T10:23:44Z</time>
      </trkpt>
      <trkpt lat="37.783459983766079" lon="-1.997154979035258">
        <ele>826</ele>
        <time>2018-04-18T10:23:45Z</time>
      </trkpt>
      <trkpt lat="37.783671962097287" lon="-1.998273963108659">
        <ele>825.60000000000002</ele>
        <time>2018-04-18T10:23:57Z</time>
      </trkpt>
      <trkpt lat="37.783743040636182" lon="-1.998493988066912">
        <ele>825.5</ele>
        <time>2018-04-18T10:24:00Z</time>
      </trkpt>
      <trkpt lat="37.783788973465562" lon="-1.998542016372085">
        <ele>825.60000000000002</ele>
        <time>2018-04-18T10:24:01Z</time>
      </trkpt>
      <trkpt lat="37.783840019255877" lon="-1.998571017757058">
        <ele>824.60000000000002</ele>
        <time>2018-04-18T10:24:02Z</time>
      </trkpt>
      <trkpt lat="37.784473020583391" lon="-1.998905958607793">
        <ele>819.20000000000005</ele>
        <time>2018-04-18T10:24:15Z</time>
      </trkpt>
      <trkpt lat="37.78517902828753" lon="-1.99917702935636">
        <ele>814.39999999999998</ele>
        <time>2018-04-18T10:24:27Z</time>
      </trkpt>
      <trkpt lat="37.78618804179132" lon="-1.999910026788712">
        <ele>810.60000000000002</ele>
        <time>2018-04-18T10:24:41Z</time>
      </trkpt>
      <trkpt lat="37.786786006763577" lon="-2.000593990087509">
        <ele>810</ele>
        <time>2018-04-18T10:24:51Z</time>
      </trkpt>
      <trkpt lat="37.78683696873486" lon="-2.000669008120894">
        <ele>810</ele>
        <time>2018-04-18T10:24:52Z</time>
      </trkpt>
      <trkpt lat="37.786878040060401" lon="-2.000746037811041">
        <ele>810.10000000000002</ele>
        <time>2018-04-18T10:24:53Z</time>
      </trkpt>
      <trkpt lat="37.786905029788613" lon="-2.000822983682156">
        <ele>810</ele>
        <time>2018-04-18T10:24:54Z</time>
      </trkpt>
      <trkpt lat="37.786908969283104" lon="-2.000899007543922">
        <ele>809.5</ele>
        <time>2018-04-18T10:24:55Z</time>
      </trkpt>
      <trkpt lat="37.786897988989949" lon="-2.000973019748926">
        <ele>809.5</ele>
        <time>2018-04-18T10:24:56Z</time>
      </trkpt>
      <trkpt lat="37.78687896206975" lon="-2.001047031953931">
        <ele>809.60000000000002</ele>
        <time>2018-04-18T10:24:57Z</time>
      </trkpt>
      <trkpt lat="37.786863036453724" lon="-2.001231014728546">
        <ele>809.10000000000002</ele>
        <time>2018-04-18T10:25:00Z</time>
      </trkpt>
      <trkpt lat="37.786864964291453" lon="-2.001284994184971">
        <ele>809</ele>
        <time>2018-04-18T10:25:01Z</time>
      </trkpt>
      <trkpt lat="37.786908969283104" lon="-2.001790003851056">
        <ele>807.70000000000005</ele>
        <time>2018-04-18T10:25:11Z</time>
      </trkpt>
      <trkpt lat="37.786961020901799" lon="-2.002111030742526">
        <ele>807.20000000000005</ele>
        <time>2018-04-18T10:25:17Z</time>
      </trkpt>
      <trkpt lat="37.786978036165237" lon="-2.002165010198951">
        <ele>807.10000000000002</ele>
        <time>2018-04-18T10:25:18Z</time>
      </trkpt>
      <trkpt lat="37.787036960944533" lon="-2.002327032387257">
        <ele>806.70000000000005</ele>
        <time>2018-04-18T10:25:21Z</time>
      </trkpt>
      <trkpt lat="37.787083983421326" lon="-2.002416970208287">
        <ele>806.20000000000005</ele>
        <time>2018-04-18T10:25:23Z</time>
      </trkpt>
      <trkpt lat="37.787240976467729" lon="-2.002617968246341">
        <ele>806.70000000000005</ele>
        <time>2018-04-18T10:25:28Z</time>
      </trkpt>
      <trkpt lat="37.787401992827654" lon="-2.00280899181962">
        <ele>806.10000000000002</ele>
        <time>2018-04-18T10:25:33Z</time>
      </trkpt>
      <trkpt lat="37.787428982555866" lon="-2.002852996811271">
        <ele>806.10000000000002</ele>
        <time>2018-04-18T10:25:34Z</time>
      </trkpt>
      <trkpt lat="37.787454966455698" lon="-2.002902030944824">
        <ele>806.10000000000002</ele>
        <time>2018-04-18T10:25:35Z</time>
      </trkpt>
      <trkpt lat="37.787476005032659" lon="-2.002950981259346">
        <ele>806.20000000000005</ele>
        <time>2018-04-18T10:25:36Z</time>
      </trkpt>
      <trkpt lat="37.787494026124477" lon="-2.002999009564519">
        <ele>805.60000000000002</ele>
        <time>2018-04-18T10:25:37Z</time>
      </trkpt>
      <trkpt lat="37.787542976438999" lon="-2.003104034811258">
        <ele>805.10000000000002</ele>
        <time>2018-04-18T10:25:39Z</time>
      </trkpt>
      <trkpt lat="37.787635009735823" lon="-2.003276031464338">
        <ele>804.20000000000005</ele>
        <time>2018-04-18T10:25:42Z</time>
      </trkpt>
      <trkpt lat="37.787709021940827" lon="-2.003451967611909">
        <ele>803.20000000000005</ele>
        <time>2018-04-18T10:25:45Z</time>
      </trkpt>
      <trkpt lat="37.787882024422288" lon="-2.003755979239941">
        <ele>802.20000000000005</ele>
        <time>2018-04-18T10:25:50Z</time>
      </trkpt>
      <trkpt lat="37.788133984431624" lon="-2.004016991704702">
        <ele>801.60000000000002</ele>
        <time>2018-04-18T10:25:56Z</time>
      </trkpt>
      <trkpt lat="37.788169020786881" lon="-2.004048004746437">
        <ele>802.20000000000005</ele>
        <time>2018-04-18T10:25:57Z</time>
      </trkpt>
      <trkpt lat="37.788202967494726" lon="-2.004080023616552">
        <ele>802.20000000000005</ele>
        <time>2018-04-18T10:25:58Z</time>
      </trkpt>
      <trkpt lat="37.788641005754471" lon="-2.004362996667624">
        <ele>804.5</ele>
        <time>2018-04-18T10:26:11Z</time>
      </trkpt>
      <trkpt lat="37.7889399882406" lon="-2.004666002467275">
        <ele>802.10000000000002</ele>
        <time>2018-04-18T10:26:23Z</time>
      </trkpt>
      <trkpt lat="37.789121959358454" lon="-2.005044026300311">
        <ele>802.10000000000002</ele>
        <time>2018-04-18T10:26:37Z</time>
      </trkpt>
      <trkpt lat="37.789158001542091" lon="-2.005603015422821">
        <ele>805</ele>
        <time>2018-04-18T10:26:51Z</time>
      </trkpt>
      <trkpt lat="37.789150960743427" lon="-2.00622595846653">
        <ele>804.60000000000002</ele>
        <time>2018-04-18T10:27:04Z</time>
      </trkpt>
      <trkpt lat="37.789187002927065" lon="-2.006846973672509">
        <ele>805.10000000000002</ele>
        <time>2018-04-18T10:27:18Z</time>
      </trkpt>
      <trkpt lat="37.789267972111702" lon="-2.00753403827548">
        <ele>809.39999999999998</ele>
        <time>2018-04-18T10:27:33Z</time>
      </trkpt>
      <trkpt lat="37.789292028173804" lon="-2.008387986570597">
        <ele>808.79999999999995</ele>
        <time>2018-04-18T10:27:48Z</time>
      </trkpt>
      <trkpt lat="37.789309965446591" lon="-2.009581988677383">
        <ele>809.39999999999998</ele>
        <time>2018-04-18T10:28:05Z</time>
      </trkpt>
      <trkpt lat="37.789257997646928" lon="-2.010602988302708">
        <ele>809.39999999999998</ele>
        <time>2018-04-18T10:28:20Z</time>
      </trkpt>
      <trkpt lat="37.789339972659945" lon="-2.011495996266604">
        <ele>809.39999999999998</ele>
        <time>2018-04-18T10:28:34Z</time>
      </trkpt>
      <trkpt lat="37.789352964609861" lon="-2.011624993756414">
        <ele>809.89999999999998</ele>
        <time>2018-04-18T10:28:36Z</time>
      </trkpt>
      <trkpt lat="37.789352964609861" lon="-2.011690037325025">
        <ele>810.29999999999995</ele>
        <time>2018-04-18T10:28:37Z</time>
      </trkpt>
      <trkpt lat="37.78926202096045" lon="-2.012654040008783">
        <ele>810.79999999999995</ele>
        <time>2018-04-18T10:28:50Z</time>
      </trkpt>
      <trkpt lat="37.789158001542091" lon="-2.013882994651794">
        <ele>810.29999999999995</ele>
        <time>2018-04-18T10:29:08Z</time>
      </trkpt>
      <trkpt lat="37.789076026529074" lon="-2.014418011531234">
        <ele>810.39999999999998</ele>
        <time>2018-04-18T10:29:17Z</time>
      </trkpt>
      <trkpt lat="37.789054987952113" lon="-2.014472996816039">
        <ele>810.79999999999995</ele>
        <time>2018-04-18T10:29:18Z</time>
      </trkpt>
      <trkpt lat="37.789030009880662" lon="-2.014523958787322">
        <ele>810.39999999999998</ele>
        <time>2018-04-18T10:29:19Z</time>
      </trkpt>
      <trkpt lat="37.788483006879687" lon="-2.015294004231691">
        <ele>810.29999999999995</ele>
        <time>2018-04-18T10:29:35Z</time>
      </trkpt>
      <trkpt lat="37.78844797052443" lon="-2.015343038365245">
        <ele>810.39999999999998</ele>
        <time>2018-04-18T10:29:36Z</time>
      </trkpt>
      <trkpt lat="37.788417963311076" lon="-2.015394000336528">
        <ele>810.39999999999998</ele>
        <time>2018-04-18T10:29:37Z</time>
      </trkpt>
      <trkpt lat="37.788390973582864" lon="-2.015450997278094">
        <ele>810.29999999999995</ele>
        <time>2018-04-18T10:29:38Z</time>
      </trkpt>
      <trkpt lat="37.788373036310077" lon="-2.015512017533183">
        <ele>810.39999999999998</ele>
        <time>2018-04-18T10:29:39Z</time>
      </trkpt>
      <trkpt lat="37.788364989683032" lon="-2.015572031959891">
        <ele>810.39999999999998</ele>
        <time>2018-04-18T10:29:40Z</time>
      </trkpt>
      <trkpt lat="37.788369012996554" lon="-2.015631962567568">
        <ele>809.79999999999995</ele>
        <time>2018-04-18T10:29:41Z</time>
      </trkpt>
      <trkpt lat="37.78838099911809" lon="-2.015693988651037">
        <ele>809.79999999999995</ele>
        <time>2018-04-18T10:29:42Z</time>
      </trkpt>
      <trkpt lat="37.788400026038289" lon="-2.015749979764223">
        <ele>809.89999999999998</ele>
        <time>2018-04-18T10:29:43Z</time>
      </trkpt>
      <trkpt lat="37.788428021594882" lon="-2.015799013897777">
        <ele>809.89999999999998</ele>
        <time>2018-04-18T10:29:44Z</time>
      </trkpt>
      <trkpt lat="37.788458028808236" lon="-2.015846036374569">
        <ele>809.89999999999998</ele>
        <time>2018-04-18T10:29:45Z</time>
      </trkpt>
      <trkpt lat="37.788486024364829" lon="-2.015894986689091">
        <ele>809.79999999999995</ele>
        <time>2018-04-18T10:29:46Z</time>
      </trkpt>
      <trkpt lat="37.78851100243628" lon="-2.015947960317135">
        <ele>809.89999999999998</ele>
        <time>2018-04-18T10:29:47Z</time>
      </trkpt>
      <trkpt lat="37.788520976901054" lon="-2.016005963087082">
        <ele>809.29999999999995</ele>
        <time>2018-04-18T10:29:48Z</time>
      </trkpt>
      <trkpt lat="37.788517959415913" lon="-2.016063965857029">
        <ele>808.89999999999998</ele>
        <time>2018-04-18T10:29:49Z</time>
      </trkpt>
      <trkpt lat="37.7885099966079" lon="-2.016124986112118">
        <ele>808.89999999999998</ele>
        <time>2018-04-18T10:29:50Z</time>
      </trkpt>
      <trkpt lat="37.788499016314745" lon="-2.016187012195587">
        <ele>808.89999999999998</ele>
        <time>2018-04-18T10:29:51Z</time>
      </trkpt>
      <trkpt lat="37.788340011611581" lon="-2.017028974369168">
        <ele>805.39999999999998</ele>
        <time>2018-04-18T10:30:03Z</time>
      </trkpt>
      <trkpt lat="37.788344034925103" lon="-2.017106004059315">
        <ele>804.89999999999998</ele>
        <time>2018-04-18T10:30:04Z</time>
      </trkpt>
      <trkpt lat="37.788364989683032" lon="-2.0171810220927">
        <ele>804.39999999999998</ele>
        <time>2018-04-18T10:30:05Z</time>
      </trkpt>
      <trkpt lat="37.78840103186667" lon="-2.017248999327421">
        <ele>803.89999999999998</ele>
        <time>2018-04-18T10:30:06Z</time>
      </trkpt>
      <trkpt lat="37.78844503685832" lon="-2.017299961298704">
        <ele>803.39999999999998</ele>
        <time>2018-04-18T10:30:07Z</time>
      </trkpt>
      <trkpt lat="37.788493987172842" lon="-2.0173329859972">
        <ele>803</ele>
        <time>2018-04-18T10:30:08Z</time>
      </trkpt>
      <trkpt lat="37.788545032963157" lon="-2.017359975725412">
        <ele>802</ele>
        <time>2018-04-18T10:30:09Z</time>
      </trkpt>
      <trkpt lat="37.788592977449298" lon="-2.017386965453625">
        <ele>801.39999999999998</ele>
        <time>2018-04-18T10:30:10Z</time>
      </trkpt>
      <trkpt lat="37.789060017094016" lon="-2.017702041193843">
        <ele>802.89999999999998</ele>
        <time>2018-04-18T10:30:23Z</time>
      </trkpt>
      <trkpt lat="37.789160013198853" lon="-2.018144018948078">
        <ele>803.39999999999998</ele>
        <time>2018-04-18T10:30:33Z</time>
      </trkpt>
      <trkpt lat="37.788887014612556" lon="-2.018782971426845">
        <ele>803.89999999999998</ele>
        <time>2018-04-18T10:30:46Z</time>
      </trkpt>
      <trkpt lat="37.788747036829591" lon="-2.019141968339682">
        <ele>802.89999999999998</ele>
        <time>2018-04-18T10:30:53Z</time>
      </trkpt>
      <trkpt lat="37.78863899409771" lon="-2.019733982160687">
        <ele>801.79999999999995</ele>
        <time>2018-04-18T10:31:03Z</time>
      </trkpt>
      <trkpt lat="37.7885099966079" lon="-2.020580973476172">
        <ele>801.29999999999995</ele>
        <time>2018-04-18T10:31:17Z</time>
      </trkpt>
      <trkpt lat="37.788445958867669" lon="-2.021102998405695">
        <ele>801.29999999999995</ele>
        <time>2018-04-18T10:31:25Z</time>
      </trkpt>
      <trkpt lat="37.78844696469605" lon="-2.021164018660784">
        <ele>801.29999999999995</ele>
        <time>2018-04-18T10:31:26Z</time>
      </trkpt>
      <trkpt lat="37.78844696469605" lon="-2.021224033087492">
        <ele>801.79999999999995</ele>
        <time>2018-04-18T10:31:27Z</time>
      </trkpt>
      <trkpt lat="37.788458028808236" lon="-2.021656036376953">
        <ele>802.89999999999998</ele>
        <time>2018-04-18T10:31:34Z</time>
      </trkpt>
      <trkpt lat="37.788457022979856" lon="-2.021724013611674">
        <ele>802.79999999999995</ele>
        <time>2018-04-18T10:31:35Z</time>
      </trkpt>
      <trkpt lat="37.788485018536448" lon="-2.022173032164574">
        <ele>801.5</ele>
        <time>2018-04-18T10:31:42Z</time>
      </trkpt>
      <trkpt lat="37.788508990779519" lon="-2.022220976650715">
        <ele>800.89999999999998</ele>
        <time>2018-04-18T10:31:43Z</time>
      </trkpt>
      <trkpt lat="37.788544027134776" lon="-2.022263975813985">
        <ele>800.39999999999998</ele>
        <time>2018-04-18T10:31:44Z</time>
      </trkpt>
      <trkpt lat="37.788589037954807" lon="-2.022290965542197">
        <ele>799.10000000000002</ele>
        <time>2018-04-18T10:31:45Z</time>
      </trkpt>
      <trkpt lat="37.788636982440948" lon="-2.022314015775919">
        <ele>798.60000000000002</ele>
        <time>2018-04-18T10:31:46Z</time>
      </trkpt>
      <trkpt lat="37.788679981604218" lon="-2.022328013554215">
        <ele>798.60000000000002</ele>
        <time>2018-04-18T10:31:47Z</time>
      </trkpt>
      <trkpt lat="37.788717029616237" lon="-2.022329019382596">
        <ele>798.5</ele>
        <time>2018-04-18T10:31:48Z</time>
      </trkpt>
      <trkpt lat="37.78874795883894" lon="-2.022324996069074">
        <ele>798</ele>
        <time>2018-04-18T10:31:49Z</time>
      </trkpt>
      <trkpt lat="37.788776038214564" lon="-2.022317033261061">
        <ele>798.60000000000002</ele>
        <time>2018-04-18T10:31:50Z</time>
      </trkpt>
      <trkpt lat="37.788802022114396" lon="-2.0223150216043">
        <ele>799</ele>
        <time>2018-04-18T10:31:51Z</time>
      </trkpt>
      <trkpt lat="37.788827000185847" lon="-2.022314015775919">
        <ele>799</ele>
        <time>2018-04-18T10:31:52Z</time>
      </trkpt>
      <trkpt lat="37.788990028202534" lon="-2.022291971370578">
        <ele>802.89999999999998</ele>
        <time>2018-04-18T10:31:59Z</time>
      </trkpt>
      <trkpt lat="37.789011988788843" lon="-2.022287026047707">
        <ele>803.29999999999995</ele>
        <time>2018-04-18T10:32:00Z</time>
      </trkpt>
      <trkpt lat="37.789035961031914" lon="-2.022275039926171">
        <ele>803.39999999999998</ele>
        <time>2018-04-18T10:32:01Z</time>
      </trkpt>
      <trkpt lat="37.789056999608874" lon="-2.022260036319494">
        <ele>803.39999999999998</ele>
        <time>2018-04-18T10:32:02Z</time>
      </trkpt>
      <trkpt lat="37.789077032357454" lon="-2.022246960550547">
        <ele>803.29999999999995</ele>
        <time>2018-04-18T10:32:03Z</time>
      </trkpt>
      <trkpt lat="37.789095975458622" lon="-2.02223002910614">
        <ele>803.39999999999998</ele>
        <time>2018-04-18T10:32:04Z</time>
      </trkpt>
      <trkpt lat="37.78911299072206" lon="-2.022207984700799">
        <ele>803.89999999999998</ele>
        <time>2018-04-18T10:32:05Z</time>
      </trkpt>
      <trkpt lat="37.78943301178515" lon="-2.021814035251737">
        <ele>806.70000000000005</ele>
        <time>2018-04-18T10:32:20Z</time>
      </trkpt>
      <trkpt lat="37.789797959849238" lon="-2.021451015025377">
        <ele>809.60000000000002</ele>
        <time>2018-04-18T10:32:36Z</time>
      </trkpt>
      <trkpt lat="37.789917988702655" lon="-2.02145897783339">
        <ele>810.70000000000005</ele>
        <time>2018-04-18T10:32:41Z</time>
      </trkpt>
      <trkpt lat="37.789940033107996" lon="-2.02147901058197">
        <ele>810.60000000000002</ele>
        <time>2018-04-18T10:32:42Z</time>
      </trkpt>
      <trkpt lat="37.789961993694305" lon="-2.021496025845408">
        <ele>810.10000000000002</ele>
        <time>2018-04-18T10:32:43Z</time>
      </trkpt>
      <trkpt lat="37.789983032271266" lon="-2.021513963118196">
        <ele>810.20000000000005</ele>
        <time>2018-04-18T10:32:44Z</time>
      </trkpt>
      <trkpt lat="37.790000969544053" lon="-2.021539025008678">
        <ele>810.20000000000005</ele>
        <time>2018-04-18T10:32:45Z</time>
      </trkpt>
      <trkpt lat="37.79001496732235" lon="-2.021566014736891">
        <ele>810.10000000000002</ele>
        <time>2018-04-18T10:32:46Z</time>
      </trkpt>
      <trkpt lat="37.790028965100646" lon="-2.021596021950245">
        <ele>810.20000000000005</ele>
        <time>2018-04-18T10:32:47Z</time>
      </trkpt>
      <trkpt lat="37.790042962878942" lon="-2.021628962829709">
        <ele>810.10000000000002</ele>
        <time>2018-04-18T10:32:48Z</time>
      </trkpt>
      <trkpt lat="37.790267011150718" lon="-2.02214696444571">
        <ele>811.20000000000005</ele>
        <time>2018-04-18T10:33:04Z</time>
      </trkpt>
      <trkpt lat="37.790611004456878" lon="-2.022267999127507">
        <ele>810.10000000000002</ele>
        <time>2018-04-18T10:33:15Z</time>
      </trkpt>
      <trkpt lat="37.790822982788086" lon="-2.021946972236037">
        <ele>810.60000000000002</ele>
        <time>2018-04-18T10:33:25Z</time>
      </trkpt>
      <trkpt lat="37.790886014699936" lon="-2.02154103666544">
        <ele>813.5</ele>
        <time>2018-04-18T10:33:37Z</time>
      </trkpt>
      <trkpt lat="37.79106798581779" lon="-2.02107097953558">
        <ele>815.5</ele>
        <time>2018-04-18T10:33:52Z</time>
      </trkpt>
      <trkpt lat="37.791312988847494" lon="-2.020506039261818">
        <ele>818.39999999999998</ele>
        <time>2018-04-18T10:34:11Z</time>
      </trkpt>
      <trkpt lat="37.791589004918933" lon="-2.020530011504889">
        <ele>820.29999999999995</ele>
        <time>2018-04-18T10:34:22Z</time>
      </trkpt>
      <trkpt lat="37.791682966053486" lon="-2.020569993183017">
        <ele>820.70000000000005</ele>
        <time>2018-04-18T10:34:26Z</time>
      </trkpt>
      <trkpt lat="37.791706016287208" lon="-2.020588014274836">
        <ele>821.29999999999995</ele>
        <time>2018-04-18T10:34:27Z</time>
      </trkpt>
      <trkpt lat="37.791726971045136" lon="-2.020605029538274">
        <ele>821.29999999999995</ele>
        <time>2018-04-18T10:34:28Z</time>
      </trkpt>
      <trkpt lat="37.791917994618416" lon="-2.020971989259124">
        <ele>821.79999999999995</ele>
        <time>2018-04-18T10:34:43Z</time>
      </trkpt>
      <trkpt lat="37.792138019576669" lon="-2.021317994222045">
        <ele>823.20000000000005</ele>
        <time>2018-04-18T10:34:58Z</time>
      </trkpt>
      <trkpt lat="37.792496010661125" lon="-2.021503988653421">
        <ele>825.60000000000002</ele>
        <time>2018-04-18T10:35:14Z</time>
      </trkpt>
      <trkpt lat="37.792845033109188" lon="-2.021668022498488">
        <ele>827</ele>
        <time>2018-04-18T10:35:30Z</time>
      </trkpt>
      <trkpt lat="37.793088024482131" lon="-2.02158403582871">
        <ele>827.5</ele>
        <time>2018-04-18T10:35:41Z</time>
      </trkpt>
      <trkpt lat="37.793401004746556" lon="-2.021766006946564">
        <ele>829.39999999999998</ele>
        <time>2018-04-18T10:35:54Z</time>
      </trkpt>
      <trkpt lat="37.793770981952548" lon="-2.02197102829814">
        <ele>830.89999999999998</ele>
        <time>2018-04-18T10:36:09Z</time>
      </trkpt>
      <trkpt lat="37.794135008007288" lon="-2.021897016093135">
        <ele>832.29999999999995</ele>
        <time>2018-04-18T10:36:23Z</time>
      </trkpt>
      <trkpt lat="37.794535998255014" lon="-2.021791990846396">
        <ele>834.60000000000002</ele>
        <time>2018-04-18T10:36:37Z</time>
      </trkpt>
      <trkpt lat="37.794945035129786" lon="-2.021746980026364">
        <ele>836</ele>
        <time>2018-04-18T10:36:51Z</time>
      </trkpt>
      <trkpt lat="37.79521401040256" lon="-2.022002963349223">
        <ele>835.5</ele>
        <time>2018-04-18T10:37:02Z</time>
      </trkpt>
      <trkpt lat="37.795531013980508" lon="-2.022083010524511">
        <ele>837</ele>
        <time>2018-04-18T10:37:14Z</time>
      </trkpt>
      <trkpt lat="37.79572899453342" lon="-2.021732982248068">
        <ele>837.89999999999998</ele>
        <time>2018-04-18T10:37:26Z</time>
      </trkpt>
      <trkpt lat="37.795992018654943" lon="-2.021445985883474">
        <ele>840.79999999999995</ele>
        <time>2018-04-18T10:37:40Z</time>
      </trkpt>
      <trkpt lat="37.796342968940735" lon="-2.021467024460435">
        <ele>843.20000000000005</ele>
        <time>2018-04-18T10:37:54Z</time>
      </trkpt>
      <trkpt lat="37.796643041074276" lon="-2.021593004465103">
        <ele>844.29999999999995</ele>
        <time>2018-04-18T10:38:07Z</time>
      </trkpt>
      <trkpt lat="37.796947974711657" lon="-2.02175703831017">
        <ele>846.10000000000002</ele>
        <time>2018-04-18T10:38:21Z</time>
      </trkpt>
      <trkpt lat="37.79712600633502" lon="-2.022163979709148">
        <ele>848</ele>
        <time>2018-04-18T10:38:36Z</time>
      </trkpt>
      <trkpt lat="37.797218961641192" lon="-2.022576034069061">
        <ele>851</ele>
        <time>2018-04-18T10:38:50Z</time>
      </trkpt>
      <trkpt lat="37.797256009653211" lon="-2.022997979074717">
        <ele>852.39999999999998</ele>
        <time>2018-04-18T10:39:04Z</time>
      </trkpt>
      <trkpt lat="37.797296997159719" lon="-2.023427970707417">
        <ele>851.39999999999998</ele>
        <time>2018-04-18T10:39:18Z</time>
      </trkpt>
      <trkpt lat="37.797360029071569" lon="-2.023899033665657">
        <ele>851.79999999999995</ele>
        <time>2018-04-18T10:39:32Z</time>
      </trkpt>
      <trkpt lat="37.797493971884251" lon="-2.024372024461627">
        <ele>854.29999999999995</ele>
        <time>2018-04-18T10:39:47Z</time>
      </trkpt>
      <trkpt lat="37.797558009624481" lon="-2.024735966697335">
        <ele>854.79999999999995</ele>
        <time>2018-04-18T10:40:00Z</time>
      </trkpt>
      <trkpt lat="37.797531019896269" lon="-2.025125976651907">
        <ele>854.29999999999995</ele>
        <time>2018-04-18T10:40:13Z</time>
      </trkpt>
      <trkpt lat="37.797502018511295" lon="-2.025884035974741">
        <ele>855.29999999999995</ele>
        <time>2018-04-18T10:40:27Z</time>
      </trkpt>
      <trkpt lat="37.797465976327658" lon="-2.026904029771686">
        <ele>854.20000000000005</ele>
        <time>2018-04-18T10:40:42Z</time>
      </trkpt>
      <trkpt lat="37.797506963834167" lon="-2.02788001857698">
        <ele>852.89999999999998</ele>
        <time>2018-04-18T10:40:56Z</time>
      </trkpt>
      <trkpt lat="37.797719025984406" lon="-2.028962960466743">
        <ele>850.39999999999998</ele>
        <time>2018-04-18T10:41:10Z</time>
      </trkpt>
      <trkpt lat="37.798187993466854" lon="-2.030164003372192">
        <ele>845.60000000000002</ele>
        <time>2018-04-18T10:41:23Z</time>
      </trkpt>
      <trkpt lat="37.798578003421426" lon="-2.030922984704375">
        <ele>841.89999999999998</ele>
        <time>2018-04-18T10:41:31Z</time>
      </trkpt>
      <trkpt lat="37.798636006191373" lon="-2.031117025762796">
        <ele>840.89999999999998</ele>
        <time>2018-04-18T10:41:33Z</time>
      </trkpt>
      <trkpt lat="37.798680011183023" lon="-2.031200006604195">
        <ele>840.29999999999995</ele>
        <time>2018-04-18T10:41:34Z</time>
      </trkpt>
      <trkpt lat="37.798833986744285" lon="-2.031441992148757">
        <ele>839.89999999999998</ele>
        <time>2018-04-18T10:41:37Z</time>
      </trkpt>
      <trkpt lat="37.798872962594032" lon="-2.031536037102342">
        <ele>839.89999999999998</ele>
        <time>2018-04-18T10:41:38Z</time>
      </trkpt>
      <trkpt lat="37.798903975635767" lon="-2.031637039035559">
        <ele>839.89999999999998</ele>
        <time>2018-04-18T10:41:39Z</time>
      </trkpt>
      <trkpt lat="37.798927025869489" lon="-2.031740974634886">
        <ele>839.79999999999995</ele>
        <time>2018-04-18T10:41:40Z</time>
      </trkpt>
      <trkpt lat="37.798946974799037" lon="-2.031843988224864">
        <ele>839.89999999999998</ele>
        <time>2018-04-18T10:41:41Z</time>
      </trkpt>
      <trkpt lat="37.799071026965976" lon="-2.032725010067225">
        <ele>839.89999999999998</ele>
        <time>2018-04-18T10:41:50Z</time>
      </trkpt>
      <trkpt lat="37.799098016694188" lon="-2.032816959545016">
        <ele>839.89999999999998</ele>
        <time>2018-04-18T10:41:51Z</time>
      </trkpt>
      <trkpt lat="37.799131963402033" lon="-2.032903963699937">
        <ele>839.29999999999995</ele>
        <time>2018-04-18T10:41:52Z</time>
      </trkpt>
      <trkpt lat="37.799172028899193" lon="-2.032984010875225">
        <ele>839.29999999999995</ele>
        <time>2018-04-18T10:41:53Z</time>
      </trkpt>
      <trkpt lat="37.799212010577321" lon="-2.03305902890861">
        <ele>839.39999999999998</ele>
        <time>2018-04-18T10:41:54Z</time>
      </trkpt>
      <trkpt lat="37.799462964758277" lon="-2.033669985830784">
        <ele>838.89999999999998</ele>
        <time>2018-04-18T10:42:02Z</time>
      </trkpt>
      <trkpt lat="37.799573019146919" lon="-2.034468026831746">
        <ele>837.39999999999998</ele>
        <time>2018-04-18T10:42:12Z</time>
      </trkpt>
      <trkpt lat="37.799572013318539" lon="-2.03454396687448">
        <ele>837</ele>
        <time>2018-04-18T10:42:13Z</time>
      </trkpt>
      <trkpt lat="37.799566984176636" lon="-2.034622002393007">
        <ele>836.5</ele>
        <time>2018-04-18T10:42:14Z</time>
      </trkpt>
      <trkpt lat="37.7995549980551" lon="-2.034699032083154">
        <ele>835.89999999999998</ele>
        <time>2018-04-18T10:42:15Z</time>
      </trkpt>
      <trkpt lat="37.79953395947814" lon="-2.034774972125888">
        <ele>836</ele>
        <time>2018-04-18T10:42:16Z</time>
      </trkpt>
      <trkpt lat="37.799508981406689" lon="-2.034852001816034">
        <ele>835.5</ele>
        <time>2018-04-18T10:42:17Z</time>
      </trkpt>
      <trkpt lat="37.799463970586658" lon="-2.035017963498831">
        <ele>835.5</ele>
        <time>2018-04-18T10:42:19Z</time>
      </trkpt>
      <trkpt lat="37.799449972808361" lon="-2.035109996795654">
        <ele>835</ele>
        <time>2018-04-18T10:42:20Z</time>
      </trkpt>
      <trkpt lat="37.799456007778645" lon="-2.035201024264097">
        <ele>834.89999999999998</ele>
        <time>2018-04-18T10:42:21Z</time>
      </trkpt>
      <trkpt lat="37.799476962536573" lon="-2.035291967913508">
        <ele>834.89999999999998</ele>
        <time>2018-04-18T10:42:22Z</time>
      </trkpt>
      <trkpt lat="37.79951199889183" lon="-2.035378972068429">
        <ele>834.5</ele>
        <time>2018-04-18T10:42:23Z</time>
      </trkpt>
      <trkpt lat="37.799557009711862" lon="-2.035457007586956">
        <ele>834.5</ele>
        <time>2018-04-18T10:42:24Z</time>
      </trkpt>
      <trkpt lat="37.799603026360273" lon="-2.035534037277103">
        <ele>834</ele>
        <time>2018-04-18T10:42:25Z</time>
      </trkpt>
      <trkpt lat="37.799680978059769" lon="-2.03570201061666">
        <ele>833.39999999999998</ele>
        <time>2018-04-18T10:42:27Z</time>
      </trkpt>
      <trkpt lat="37.799705034121871" lon="-2.035797983407974">
        <ele>833</ele>
        <time>2018-04-18T10:42:28Z</time>
      </trkpt>
      <trkpt lat="37.799719031900167" lon="-2.035899991169572">
        <ele>832.5</ele>
        <time>2018-04-18T10:42:29Z</time>
      </trkpt>
      <trkpt lat="37.799723977223039" lon="-2.036004010587931">
        <ele>831.89999999999998</ele>
        <time>2018-04-18T10:42:30Z</time>
      </trkpt>
      <trkpt lat="37.799723977223039" lon="-2.03610803000629">
        <ele>831.39999999999998</ele>
        <time>2018-04-18T10:42:31Z</time>
      </trkpt>
      <trkpt lat="37.799739986658096" lon="-2.03641002997756">
        <ele>830.89999999999998</ele>
        <time>2018-04-18T10:42:34Z</time>
      </trkpt>
      <trkpt lat="37.799763958901167" lon="-2.036506002768874">
        <ele>830.5</ele>
        <time>2018-04-18T10:42:35Z</time>
      </trkpt>
      <trkpt lat="37.7998330257833" lon="-2.03669099137187">
        <ele>829.89999999999998</ele>
        <time>2018-04-18T10:42:37Z</time>
      </trkpt>
      <trkpt lat="37.800335017964244" lon="-2.037532031536102">
        <ele>828.5</ele>
        <time>2018-04-18T10:42:48Z</time>
      </trkpt>
      <trkpt lat="37.800368964672089" lon="-2.037590034306049">
        <ele>828.60000000000002</ele>
        <time>2018-04-18T10:42:49Z</time>
      </trkpt>
      <trkpt lat="37.800747994333506" lon="-2.038240972906351">
        <ele>828</ele>
        <time>2018-04-18T10:43:03Z</time>
      </trkpt>
      <trkpt lat="37.801006995141506" lon="-2.038789987564087">
        <ele>827.5</ele>
        <time>2018-04-18T10:43:16Z</time>
      </trkpt>
      <trkpt lat="37.801018981263041" lon="-2.039500018581748">
        <ele>827.10000000000002</ele>
        <time>2018-04-18T10:43:30Z</time>
      </trkpt>
      <trkpt lat="37.800988974049687" lon="-2.039688024669886">
        <ele>828</ele>
        <time>2018-04-18T10:43:34Z</time>
      </trkpt>
      <trkpt lat="37.80097003094852" lon="-2.039736974984407">
        <ele>827.5</ele>
        <time>2018-04-18T10:43:35Z</time>
      </trkpt>
      <trkpt lat="37.800946980714798" lon="-2.039782991632819">
        <ele>827.5</ele>
        <time>2018-04-18T10:43:36Z</time>
      </trkpt>
      <trkpt lat="37.800919990986586" lon="-2.03982699662447">
        <ele>827.60000000000002</ele>
        <time>2018-04-18T10:43:37Z</time>
      </trkpt>
      <trkpt lat="37.800894007086754" lon="-2.039868989959359">
        <ele>827</ele>
        <time>2018-04-18T10:43:38Z</time>
      </trkpt>
      <trkpt lat="37.800839021801949" lon="-2.039954988285899">
        <ele>826.60000000000002</ele>
        <time>2018-04-18T10:43:40Z</time>
      </trkpt>
      <trkpt lat="37.800813037902117" lon="-2.040006034076214">
        <ele>826.5</ele>
        <time>2018-04-18T10:43:41Z</time>
      </trkpt>
      <trkpt lat="37.800795016810298" lon="-2.04006303101778">
        <ele>826</ele>
        <time>2018-04-18T10:43:42Z</time>
      </trkpt>
      <trkpt lat="37.800786970183253" lon="-2.040124973282218">
        <ele>826</ele>
        <time>2018-04-18T10:43:43Z</time>
      </trkpt>
      <trkpt lat="37.800789987668395" lon="-2.04019102267921">
        <ele>826.10000000000002</ele>
        <time>2018-04-18T10:43:44Z</time>
      </trkpt>
      <trkpt lat="37.800802979618311" lon="-2.040255982428789">
        <ele>825.5</ele>
        <time>2018-04-18T10:43:45Z</time>
      </trkpt>
      <trkpt lat="37.800819994881749" lon="-2.040322031825781">
        <ele>825.60000000000002</ele>
        <time>2018-04-18T10:43:46Z</time>
      </trkpt>
      <trkpt lat="37.80084203928709" lon="-2.04038699157536">
        <ele>825</ele>
        <time>2018-04-18T10:43:47Z</time>
      </trkpt>
      <trkpt lat="37.800873974338174" lon="-2.04045002348721">
        <ele>824.60000000000002</ele>
        <time>2018-04-18T10:43:48Z</time>
      </trkpt>
      <trkpt lat="37.800911022350192" lon="-2.040510959923267">
        <ele>824.60000000000002</ele>
        <time>2018-04-18T10:43:49Z</time>
      </trkpt>
      <trkpt lat="37.800952009856701" lon="-2.040568962693214">
        <ele>824.10000000000002</ele>
        <time>2018-04-18T10:43:50Z</time>
      </trkpt>
      <trkpt lat="37.800995009019971" lon="-2.04062101431191">
        <ele>823.5</ele>
        <time>2018-04-18T10:43:51Z</time>
      </trkpt>
      <trkpt lat="37.801033984869719" lon="-2.040678011253476">
        <ele>823.10000000000002</ele>
        <time>2018-04-18T10:43:52Z</time>
      </trkpt>
      <trkpt lat="37.801062986254692" lon="-2.040749005973339">
        <ele>822.5</ele>
        <time>2018-04-18T10:43:53Z</time>
      </trkpt>
      <trkpt lat="37.801077989861369" lon="-2.040828969329596">
        <ele>822</ele>
        <time>2018-04-18T10:43:54Z</time>
      </trkpt>
      <trkpt lat="37.801072960719466" lon="-2.040907004848123">
        <ele>821.60000000000002</ele>
        <time>2018-04-18T10:43:55Z</time>
      </trkpt>
      <trkpt lat="37.801061980426311" lon="-2.040982022881508">
        <ele>821.10000000000002</ele>
        <time>2018-04-18T10:43:56Z</time>
      </trkpt>
      <trkpt lat="37.80105602927506" lon="-2.041058968752623">
        <ele>820.60000000000002</ele>
        <time>2018-04-18T10:43:57Z</time>
      </trkpt>
      <trkpt lat="37.80105996876955" lon="-2.041142033413053">
        <ele>820.10000000000002</ele>
        <time>2018-04-18T10:43:58Z</time>
      </trkpt>
      <trkpt lat="37.801072038710117" lon="-2.041221996769309">
        <ele>819.5</ele>
        <time>2018-04-18T10:43:59Z</time>
      </trkpt>
      <trkpt lat="37.801116965711117" lon="-2.04137597233057">
        <ele>818.5</ele>
        <time>2018-04-18T10:44:01Z</time>
      </trkpt>
      <trkpt lat="37.801225008442998" lon="-2.041659029200673">
        <ele>817.10000000000002</ele>
        <time>2018-04-18T10:44:05Z</time>
      </trkpt>
      <trkpt lat="37.801261972635984" lon="-2.041721977293491">
        <ele>817.20000000000005</ele>
        <time>2018-04-18T10:44:06Z</time>
      </trkpt>
      <trkpt lat="37.801307989284396" lon="-2.041777968406677">
        <ele>816.60000000000002</ele>
        <time>2018-04-18T10:44:07Z</time>
      </trkpt>
      <trkpt lat="37.80136096291244" lon="-2.041828008368611">
        <ele>816.70000000000005</ele>
        <time>2018-04-18T10:44:08Z</time>
      </trkpt>
      <trkpt lat="37.801415026187897" lon="-2.041872013360262">
        <ele>816.10000000000002</ele>
        <time>2018-04-18T10:44:09Z</time>
      </trkpt>
      <trkpt lat="37.801580987870693" lon="-2.042020037770271">
        <ele>814.20000000000005</ele>
        <time>2018-04-18T10:44:12Z</time>
      </trkpt>
      <trkpt lat="37.801629016175866" lon="-2.042089020833373">
        <ele>813.29999999999995</ele>
        <time>2018-04-18T10:44:13Z</time>
      </trkpt>
      <trkpt lat="37.801672015339136" lon="-2.042163033038378">
        <ele>812.20000000000005</ele>
        <time>2018-04-18T10:44:14Z</time>
      </trkpt>
      <trkpt lat="37.8018310200423" lon="-2.042480958625674">
        <ele>809.79999999999995</ele>
        <time>2018-04-18T10:44:18Z</time>
      </trkpt>
      <trkpt lat="37.801882987841964" lon="-2.042552959173918">
        <ele>809.39999999999998</ele>
        <time>2018-04-18T10:44:19Z</time>
      </trkpt>
      <trkpt lat="37.801940990611911" lon="-2.042613979429007">
        <ele>808.79999999999995</ele>
        <time>2018-04-18T10:44:20Z</time>
      </trkpt>
      <trkpt lat="37.802124973386526" lon="-2.042799973860383">
        <ele>806.39999999999998</ele>
        <time>2018-04-18T10:44:23Z</time>
      </trkpt>
      <trkpt lat="37.802179958671331" lon="-2.042882032692432">
        <ele>805.89999999999998</ele>
        <time>2018-04-18T10:44:24Z</time>
      </trkpt>
      <trkpt lat="37.802227986976504" lon="-2.042969958856702">
        <ele>805.39999999999998</ele>
        <time>2018-04-18T10:44:25Z</time>
      </trkpt>
      <trkpt lat="37.802370982244611" lon="-2.043232982978225">
        <ele>803.5</ele>
        <time>2018-04-18T10:44:28Z</time>
      </trkpt>
      <trkpt lat="37.802426973357797" lon="-2.043312024325132">
        <ele>803</ele>
        <time>2018-04-18T10:44:29Z</time>
      </trkpt>
      <trkpt lat="37.802488999441266" lon="-2.043386958539486">
        <ele>802.5</ele>
        <time>2018-04-18T10:44:30Z</time>
      </trkpt>
      <trkpt lat="37.802836010232568" lon="-2.043755007907748">
        <ele>797.70000000000005</ele>
        <time>2018-04-18T10:44:36Z</time>
      </trkpt>
      <trkpt lat="37.802857970818877" lon="-2.043806975707412">
        <ele>797.20000000000005</ele>
        <time>2018-04-18T10:44:37Z</time>
      </trkpt>
      <trkpt lat="37.802858976647258" lon="-2.043870007619262">
        <ele>796.79999999999995</ele>
        <time>2018-04-18T10:44:38Z</time>
      </trkpt>
      <trkpt lat="37.8028429672122" lon="-2.043936979025602">
        <ele>795.79999999999995</ele>
        <time>2018-04-18T10:44:39Z</time>
      </trkpt>
      <trkpt lat="37.802812037989497" lon="-2.043999005109072">
        <ele>795.29999999999995</ele>
        <time>2018-04-18T10:44:40Z</time>
      </trkpt>
      <trkpt lat="37.802774989977479" lon="-2.044057007879019">
        <ele>794.79999999999995</ele>
        <time>2018-04-18T10:44:41Z</time>
      </trkpt>
      <trkpt lat="37.802730984985828" lon="-2.044106964021921">
        <ele>794.20000000000005</ele>
        <time>2018-04-18T10:44:42Z</time>
      </trkpt>
      <trkpt lat="37.802683962509036" lon="-2.044158009812236">
        <ele>794.29999999999995</ele>
        <time>2018-04-18T10:44:43Z</time>
      </trkpt>
      <trkpt lat="37.802419010549784" lon="-2.044441988691688">
        <ele>793.79999999999995</ele>
        <time>2018-04-18T10:44:48Z</time>
      </trkpt>
      <trkpt lat="37.802355978637934" lon="-2.044484987854958">
        <ele>793.79999999999995</ele>
        <time>2018-04-18T10:44:49Z</time>
      </trkpt>
      <trkpt lat="37.802286995574832" lon="-2.044512983411551">
        <ele>793.79999999999995</ele>
        <time>2018-04-18T10:44:50Z</time>
      </trkpt>
      <trkpt lat="37.802216000854969" lon="-2.044524969533086">
        <ele>793.70000000000005</ele>
        <time>2018-04-18T10:44:51Z</time>
      </trkpt>
      <trkpt lat="37.802140982821584" lon="-2.044521030038595">
        <ele>793.70000000000005</ele>
        <time>2018-04-18T10:44:52Z</time>
      </trkpt>
      <trkpt lat="37.802064036950469" lon="-2.044504014775157">
        <ele>793.79999999999995</ele>
        <time>2018-04-18T10:44:53Z</time>
      </trkpt>
      <trkpt lat="37.801989018917084" lon="-2.044479036703706">
        <ele>793.79999999999995</ele>
        <time>2018-04-18T10:44:54Z</time>
      </trkpt>
      <trkpt lat="37.80191701836884" lon="-2.044444000348449">
        <ele>793.70000000000005</ele>
        <time>2018-04-18T10:44:55Z</time>
      </trkpt>
      <trkpt lat="37.801851974800229" lon="-2.044390020892024">
        <ele>793.79999999999995</ele>
        <time>2018-04-18T10:44:56Z</time>
      </trkpt>
      <trkpt lat="37.801791960373521" lon="-2.044331012293696">
        <ele>794.20000000000005</ele>
        <time>2018-04-18T10:44:57Z</time>
      </trkpt>
      <trkpt lat="37.801725994795561" lon="-2.044292036443949">
        <ele>794.29999999999995</ele>
        <time>2018-04-18T10:44:58Z</time>
      </trkpt>
      <trkpt lat="37.801656005904078" lon="-2.044279966503382">
        <ele>794.29999999999995</ele>
        <time>2018-04-18T10:44:59Z</time>
      </trkpt>
      <trkpt lat="37.801591968163848" lon="-2.044304022565484">
        <ele>794.29999999999995</ele>
        <time>2018-04-18T10:45:00Z</time>
      </trkpt>
      <trkpt lat="37.801540000364184" lon="-2.044352972880006">
        <ele>794.20000000000005</ele>
        <time>2018-04-18T10:45:01Z</time>
      </trkpt>
      <trkpt lat="37.801498007029295" lon="-2.044417010620236">
        <ele>794.29999999999995</ele>
        <time>2018-04-18T10:45:02Z</time>
      </trkpt>
      <trkpt lat="37.80146598815918" lon="-2.044484987854958">
        <ele>794.20000000000005</ele>
        <time>2018-04-18T10:45:03Z</time>
      </trkpt>
      <trkpt lat="37.801440004259348" lon="-2.044552965089679">
        <ele>794.20000000000005</ele>
        <time>2018-04-18T10:45:04Z</time>
      </trkpt>
      <trkpt lat="37.801420977339149" lon="-2.044622031971812">
        <ele>794.70000000000005</ele>
        <time>2018-04-18T10:45:05Z</time>
      </trkpt>
      <trkpt lat="37.801407985389233" lon="-2.044682968407869">
        <ele>794.70000000000005</ele>
        <time>2018-04-18T10:45:06Z</time>
      </trkpt>
      <trkpt lat="37.801302038133144" lon="-2.045463994145393">
        <ele>795.70000000000005</ele>
        <time>2018-04-18T10:45:20Z</time>
      </trkpt>
      <trkpt lat="37.801298014819622" lon="-2.045537000522018">
        <ele>795.79999999999995</ele>
        <time>2018-04-18T10:45:21Z</time>
      </trkpt>
      <trkpt lat="37.801276976242661" lon="-2.04569298774004">
        <ele>795.79999999999995</ele>
        <time>2018-04-18T10:45:23Z</time>
      </trkpt>
      <trkpt lat="37.801258033141494" lon="-2.045773034915328">
        <ele>795.79999999999995</ele>
        <time>2018-04-18T10:45:24Z</time>
      </trkpt>
      <trkpt lat="37.80123196542263" lon="-2.045850986614823">
        <ele>796.29999999999995</ele>
        <time>2018-04-18T10:45:25Z</time>
      </trkpt>
      <trkpt lat="37.801201958209276" lon="-2.045922987163067">
        <ele>796.29999999999995</ele>
        <time>2018-04-18T10:45:26Z</time>
      </trkpt>
      <trkpt lat="37.801167005673051" lon="-2.045989036560059">
        <ele>796.29999999999995</ele>
        <time>2018-04-18T10:45:27Z</time>
      </trkpt>
      <trkpt lat="37.801086958497763" lon="-2.046106969937682">
        <ele>796.29999999999995</ele>
        <time>2018-04-18T10:45:29Z</time>
      </trkpt>
      <trkpt lat="37.801043037325144" lon="-2.046153992414475">
        <ele>796.70000000000005</ele>
        <time>2018-04-18T10:45:30Z</time>
      </trkpt>
      <trkpt lat="37.80099400319159" lon="-2.046193974092603">
        <ele>796.70000000000005</ele>
        <time>2018-04-18T10:45:31Z</time>
      </trkpt>
      <trkpt lat="37.800767021253705" lon="-2.046368988230825">
        <ele>796.79999999999995</ele>
        <time>2018-04-18T10:45:36Z</time>
      </trkpt>
      <trkpt lat="37.800310039892793" lon="-2.046778025105596">
        <ele>796.70000000000005</ele>
        <time>2018-04-18T10:45:49Z</time>
      </trkpt>
      <trkpt lat="37.80030501075089" lon="-2.047135010361671">
        <ele>797.29999999999995</ele>
        <time>2018-04-18T10:45:58Z</time>
      </trkpt>
      <trkpt lat="37.80043501406908" lon="-2.047705985605717">
        <ele>793.39999999999998</ele>
        <time>2018-04-18T10:46:14Z</time>
      </trkpt>
      <trkpt lat="37.80047700740397" lon="-2.048172019422054">
        <ele>792.39999999999998</ele>
        <time>2018-04-18T10:46:27Z</time>
      </trkpt>
      <trkpt lat="37.800443982705474" lon="-2.048520036041737">
        <ele>792.89999999999998</ele>
        <time>2018-04-18T10:46:36Z</time>
      </trkpt>
      <trkpt lat="37.800338035449386" lon="-2.048731008544564">
        <ele>793.89999999999998</ele>
        <time>2018-04-18T10:46:40Z</time>
      </trkpt>
      <trkpt lat="37.800320014357567" lon="-2.048800997436047">
        <ele>794</ele>
        <time>2018-04-18T10:46:41Z</time>
      </trkpt>
      <trkpt lat="37.800322026014328" lon="-2.04887299798429">
        <ele>793.89999999999998</ele>
        <time>2018-04-18T10:46:42Z</time>
      </trkpt>
      <trkpt lat="37.800339963287115" lon="-2.04893896356225">
        <ele>794.39999999999998</ele>
        <time>2018-04-18T10:46:43Z</time>
      </trkpt>
      <trkpt lat="37.800362007692456" lon="-2.048996966332197">
        <ele>794.39999999999998</ele>
        <time>2018-04-18T10:46:44Z</time>
      </trkpt>
      <trkpt lat="37.800390003249049" lon="-2.049059998244047">
        <ele>794.39999999999998</ele>
        <time>2018-04-18T10:46:45Z</time>
      </trkpt>
      <trkpt lat="37.800415987148881" lon="-2.049125963822007">
        <ele>794</ele>
        <time>2018-04-18T10:46:46Z</time>
      </trkpt>
      <trkpt lat="37.800439037382603" lon="-2.049192013218999">
        <ele>794</ele>
        <time>2018-04-18T10:46:47Z</time>
      </trkpt>
      <trkpt lat="37.800589995458722" lon="-2.049570037052035">
        <ele>792.89999999999998</ele>
        <time>2018-04-18T10:46:52Z</time>
      </trkpt>
      <trkpt lat="37.800600975751877" lon="-2.049650000408292">
        <ele>792.39999999999998</ele>
        <time>2018-04-18T10:46:53Z</time>
      </trkpt>
      <trkpt lat="37.800604999065399" lon="-2.049726024270058">
        <ele>791.89999999999998</ele>
        <time>2018-04-18T10:46:54Z</time>
      </trkpt>
      <trkpt lat="37.800598964095116" lon="-2.050087032839656">
        <ele>792</ele>
        <time>2018-04-18T10:46:59Z</time>
      </trkpt>
      <trkpt lat="37.800602987408638" lon="-2.050147969275713">
        <ele>791.89999999999998</ele>
        <time>2018-04-18T10:47:00Z</time>
      </trkpt>
      <trkpt lat="37.800612039864063" lon="-2.050198009237647">
        <ele>792</ele>
        <time>2018-04-18T10:47:01Z</time>
      </trkpt>
      <trkpt lat="37.800620002672076" lon="-2.050247965380549">
        <ele>791.89999999999998</ele>
        <time>2018-04-18T10:47:02Z</time>
      </trkpt>
      <trkpt lat="37.800625031813979" lon="-2.050303034484386">
        <ele>791.39999999999998</ele>
        <time>2018-04-18T10:47:03Z</time>
      </trkpt>
      <trkpt lat="37.800651015713811" lon="-2.050761021673679">
        <ele>790</ele>
        <time>2018-04-18T10:47:11Z</time>
      </trkpt>
      <trkpt lat="37.800645986571908" lon="-2.050822963938117">
        <ele>790</ele>
        <time>2018-04-18T10:47:12Z</time>
      </trkpt>
      <trkpt lat="37.800561999902129" lon="-2.051369966939092">
        <ele>790.10000000000002</ele>
        <time>2018-04-18T10:47:21Z</time>
      </trkpt>
      <trkpt lat="37.800555964931846" lon="-2.051500976085663">
        <ele>790</ele>
        <time>2018-04-18T10:47:23Z</time>
      </trkpt>
      <trkpt lat="37.800558982416987" lon="-2.051627961918712">
        <ele>790</ele>
        <time>2018-04-18T10:47:25Z</time>
      </trkpt>
      <trkpt lat="37.800624025985599" lon="-2.052284013479948">
        <ele>789</ele>
        <time>2018-04-18T10:47:38Z</time>
      </trkpt>
      <trkpt lat="37.800694014877081" lon="-2.053091023117304">
        <ele>789.5</ele>
        <time>2018-04-18T10:47:55Z</time>
      </trkpt>
      <trkpt lat="37.800784036517143" lon="-2.053800970315933">
        <ele>790</ele>
        <time>2018-04-18T10:48:09Z</time>
      </trkpt>
      <trkpt lat="37.800766015425324" lon="-2.054196009412408">
        <ele>787.20000000000005</ele>
        <time>2018-04-18T10:48:18Z</time>
      </trkpt>
      <trkpt lat="37.800613967701793" lon="-2.054645027965307">
        <ele>787.70000000000005</ele>
        <time>2018-04-18T10:48:25Z</time>
      </trkpt>
      <trkpt lat="37.800588989630342" lon="-2.054711999371648">
        <ele>787.70000000000005</ele>
        <time>2018-04-18T10:48:26Z</time>
      </trkpt>
      <trkpt lat="37.800548002123833" lon="-2.054834961891174">
        <ele>787.60000000000002</ele>
        <time>2018-04-18T10:48:28Z</time>
      </trkpt>
      <trkpt lat="37.800529981032014" lon="-2.054891036823392">
        <ele>787.60000000000002</ele>
        <time>2018-04-18T10:48:29Z</time>
      </trkpt>
      <trkpt lat="37.800430990755558" lon="-2.055240981280804">
        <ele>788.10000000000002</ele>
        <time>2018-04-18T10:48:35Z</time>
      </trkpt>
      <trkpt lat="37.8004149813205" lon="-2.055300995707512">
        <ele>788.10000000000002</ele>
        <time>2018-04-18T10:48:36Z</time>
      </trkpt>
      <trkpt lat="37.800157992169261" lon="-2.056109011173248">
        <ele>789.10000000000002</ele>
        <time>2018-04-18T10:48:50Z</time>
      </trkpt>
      <trkpt lat="37.800142988562584" lon="-2.056163996458054">
        <ele>789.20000000000005</ele>
        <time>2018-04-18T10:48:51Z</time>
      </trkpt>
      <trkpt lat="37.800099989399314" lon="-2.056320989504457">
        <ele>789.60000000000002</ele>
        <time>2018-04-18T10:48:54Z</time>
      </trkpt>
      <trkpt lat="37.800083979964256" lon="-2.05637002363801">
        <ele>789.60000000000002</ele>
        <time>2018-04-18T10:48:55Z</time>
      </trkpt>
      <trkpt lat="37.799858003854752" lon="-2.057003024965525">
        <ele>790.10000000000002</ele>
        <time>2018-04-18T10:49:08Z</time>
      </trkpt>
      <trkpt lat="37.799581987783313" lon="-2.057704003527761">
        <ele>791.60000000000002</ele>
        <time>2018-04-18T10:49:23Z</time>
      </trkpt>
      <trkpt lat="37.799420971423388" lon="-2.058267015963793">
        <ele>795.29999999999995</ele>
        <time>2018-04-18T10:49:36Z</time>
      </trkpt>
      <trkpt lat="37.799218967556953" lon="-2.058661971241236">
        <ele>795.39999999999998</ele>
        <time>2018-04-18T10:49:47Z</time>
      </trkpt>
      <trkpt lat="37.798840021714568" lon="-2.058859029784799">
        <ele>796.29999999999995</ele>
        <time>2018-04-18T10:49:59Z</time>
      </trkpt>
      <trkpt lat="37.798736002296209" lon="-2.059306958690286">
        <ele>797.70000000000005</ele>
        <time>2018-04-18T10:50:11Z</time>
      </trkpt>
      <trkpt lat="37.798633994534612" lon="-2.059994023293257">
        <ele>802.5</ele>
        <time>2018-04-18T10:50:28Z</time>
      </trkpt>
      <trkpt lat="37.798456968739629" lon="-2.060513030737639">
        <ele>803.89999999999998</ele>
        <time>2018-04-18T10:50:41Z</time>
      </trkpt>
      <trkpt lat="37.798386979848146" lon="-2.061118958517909">
        <ele>806.89999999999998</ele>
        <time>2018-04-18T10:50:55Z</time>
      </trkpt>
      <trkpt lat="37.798445988446474" lon="-2.061768975108862">
        <ele>809.20000000000005</ele>
        <time>2018-04-18T10:51:10Z</time>
      </trkpt>
      <trkpt lat="37.798499967902899" lon="-2.062588976696134">
        <ele>810.29999999999995</ele>
        <time>2018-04-18T10:51:29Z</time>
      </trkpt>
      <trkpt lat="37.798435008153319" lon="-2.063193982467055">
        <ele>811.70000000000005</ele>
        <time>2018-04-18T10:51:43Z</time>
      </trkpt>
      <trkpt lat="37.798055978491902" lon="-2.063429011031985">
        <ele>809.89999999999998</ele>
        <time>2018-04-18T10:51:53Z</time>
      </trkpt>
      <trkpt lat="37.798010967671871" lon="-2.063453989103437">
        <ele>809.39999999999998</ele>
        <time>2018-04-18T10:51:54Z</time>
      </trkpt>
      <trkpt lat="37.797968974336982" lon="-2.063485002145171">
        <ele>809.29999999999995</ele>
        <time>2018-04-18T10:51:55Z</time>
      </trkpt>
      <trkpt lat="37.797933015972376" lon="-2.063530012965202">
        <ele>808.89999999999998</ele>
        <time>2018-04-18T10:51:56Z</time>
      </trkpt>
      <trkpt lat="37.797908037900925" lon="-2.063591033220291">
        <ele>808.89999999999998</ele>
        <time>2018-04-18T10:51:57Z</time>
      </trkpt>
      <trkpt lat="37.79789999127388" lon="-2.063660016283393">
        <ele>808.79999999999995</ele>
        <time>2018-04-18T10:51:58Z</time>
      </trkpt>
      <trkpt lat="37.797904014587402" lon="-2.063724976032972">
        <ele>808.79999999999995</ele>
        <time>2018-04-18T10:51:59Z</time>
      </trkpt>
      <trkpt lat="37.797909965738654" lon="-2.063787002116442">
        <ele>808.79999999999995</ele>
        <time>2018-04-18T10:52:00Z</time>
      </trkpt>
      <trkpt lat="37.797884987667203" lon="-2.064317995682359">
        <ele>809.89999999999998</ele>
        <time>2018-04-18T10:52:13Z</time>
      </trkpt>
      <trkpt lat="37.797737969085574" lon="-2.064736001193523">
        <ele>810.89999999999998</ele>
        <time>2018-04-18T10:52:28Z</time>
      </trkpt>
      <trkpt lat="37.797586005181074" lon="-2.065111007541418">
        <ele>812.79999999999995</ele>
        <time>2018-04-18T10:52:42Z</time>
      </trkpt>
      <trkpt lat="37.797330021858215" lon="-2.065367996692658">
        <ele>816.5</ele>
        <time>2018-04-18T10:52:57Z</time>
      </trkpt>
      <trkpt lat="37.796945963054895" lon="-2.06550101749599">
        <ele>818.89999999999998</ele>
        <time>2018-04-18T10:53:15Z</time>
      </trkpt>
      <trkpt lat="37.796614961698651" lon="-2.065603025257587">
        <ele>817.10000000000002</ele>
        <time>2018-04-18T10:53:30Z</time>
      </trkpt>
      <trkpt lat="37.796389991417527" lon="-2.065749038010836">
        <ele>815.70000000000005</ele>
        <time>2018-04-18T10:53:35Z</time>
      </trkpt>
      <trkpt lat="37.796289995312691" lon="-2.065838975831866">
        <ele>814.20000000000005</ele>
        <time>2018-04-18T10:53:37Z</time>
      </trkpt>
      <trkpt lat="37.79624599032104" lon="-2.065891027450562">
        <ele>813.79999999999995</ele>
        <time>2018-04-18T10:53:38Z</time>
      </trkpt>
      <trkpt lat="37.796207014471292" lon="-2.065951963886619">
        <ele>813.70000000000005</ele>
        <time>2018-04-18T10:53:39Z</time>
      </trkpt>
      <trkpt lat="37.796173989772797" lon="-2.06601801328361">
        <ele>813.20000000000005</ele>
        <time>2018-04-18T10:53:40Z</time>
      </trkpt>
      <trkpt lat="37.796150017529726" lon="-2.066089008003473">
        <ele>813.29999999999995</ele>
        <time>2018-04-18T10:53:41Z</time>
      </trkpt>
      <trkpt lat="37.796130990609527" lon="-2.066170983016491">
        <ele>812.79999999999995</ele>
        <time>2018-04-18T10:53:42Z</time>
      </trkpt>
      <trkpt lat="37.796117998659611" lon="-2.066258992999792">
        <ele>812.70000000000005</ele>
        <time>2018-04-18T10:53:43Z</time>
      </trkpt>
      <trkpt lat="37.796113975346088" lon="-2.066344991326332">
        <ele>812.29999999999995</ele>
        <time>2018-04-18T10:53:44Z</time>
      </trkpt>
      <trkpt lat="37.796113975346088" lon="-2.06661899574101">
        <ele>810.70000000000005</ele>
        <time>2018-04-18T10:53:47Z</time>
      </trkpt>
      <trkpt lat="37.796091008931398" lon="-2.06681395880878">
        <ele>809.29999999999995</ele>
        <time>2018-04-18T10:53:49Z</time>
      </trkpt>
      <trkpt lat="37.796069970354438" lon="-2.066914038732648">
        <ele>808.79999999999995</ele>
        <time>2018-04-18T10:53:50Z</time>
      </trkpt>
      <trkpt lat="37.796040968969464" lon="-2.067010011523962">
        <ele>808.29999999999995</ele>
        <time>2018-04-18T10:53:51Z</time>
      </trkpt>
      <trkpt lat="37.795971985906363" lon="-2.067190976813436">
        <ele>807.89999999999998</ele>
        <time>2018-04-18T10:53:53Z</time>
      </trkpt>
      <trkpt lat="37.795929992571473" lon="-2.067273035645485">
        <ele>807.89999999999998</ele>
        <time>2018-04-18T10:53:54Z</time>
      </trkpt>
      <trkpt lat="37.7958819642663" lon="-2.067347969859839">
        <ele>807.29999999999995</ele>
        <time>2018-04-18T10:53:55Z</time>
      </trkpt>
      <trkpt lat="37.795823961496353" lon="-2.06741301342845">
        <ele>807.29999999999995</ele>
        <time>2018-04-18T10:53:56Z</time>
      </trkpt>
      <trkpt lat="37.795756990090013" lon="-2.067465987056494">
        <ele>806.79999999999995</ele>
        <time>2018-04-18T10:53:57Z</time>
      </trkpt>
      <trkpt lat="37.795683983713388" lon="-2.067512003704906">
        <ele>806.39999999999998</ele>
        <time>2018-04-18T10:53:58Z</time>
      </trkpt>
      <trkpt lat="37.795295985415578" lon="-2.067750971764326">
        <ele>805.79999999999995</ele>
        <time>2018-04-18T10:54:03Z</time>
      </trkpt>
      <trkpt lat="37.795229014009237" lon="-2.067807968705893">
        <ele>805.89999999999998</ele>
        <time>2018-04-18T10:54:04Z</time>
      </trkpt>
      <trkpt lat="37.795177968218923" lon="-2.067873012274504">
        <ele>805.79999999999995</ele>
        <time>2018-04-18T10:54:05Z</time>
      </trkpt>
      <trkpt lat="37.795139998197556" lon="-2.067943001165986">
        <ele>805.89999999999998</ele>
        <time>2018-04-18T10:54:06Z</time>
      </trkpt>
      <trkpt lat="37.795114014297724" lon="-2.068018019199371">
        <ele>806.29999999999995</ele>
        <time>2018-04-18T10:54:07Z</time>
      </trkpt>
      <trkpt lat="37.795094987377524" lon="-2.068090019747615">
        <ele>806.79999999999995</ele>
        <time>2018-04-18T10:54:08Z</time>
      </trkpt>
      <trkpt lat="37.795083001255989" lon="-2.06827400252223">
        <ele>807.29999999999995</ele>
        <time>2018-04-18T10:54:12Z</time>
      </trkpt>
      <trkpt lat="37.795093981549144" lon="-2.068290011957288">
        <ele>807.29999999999995</ele>
        <time>2018-04-18T10:54:13Z</time>
      </trkpt>
      <trkpt lat="37.795101022347808" lon="-2.0683170016855">
        <ele>808.70000000000005</ele>
        <time>2018-04-18T10:54:23Z</time>
      </trkpt>
      <trkpt lat="37.795055005699396" lon="-2.068351032212377">
        <ele>817.29999999999995</ele>
        <time>2018-04-18T10:54:44Z</time>
      </trkpt>
      <trkpt lat="37.79502097517252" lon="-2.068391013890505">
        <ele>828.5</ele>
        <time>2018-04-18T10:55:09Z</time>
      </trkpt>
      <trkpt lat="37.795091969892383" lon="-2.068362012505531">
        <ele>821.70000000000005</ele>
        <time>2018-04-18T10:55:26Z</time>
      </trkpt>
      <trkpt lat="37.795143015682697" lon="-2.068370981141925">
        <ele>817.5</ele>
        <time>2018-04-18T10:55:44Z</time>
      </trkpt>
      <trkpt lat="37.795165982097387" lon="-2.068367963656783">
        <ele>818</ele>
        <time>2018-04-18T10:56:05Z</time>
      </trkpt>
      <trkpt lat="37.795195989310741" lon="-2.068377016112208">
        <ele>815.5</ele>
        <time>2018-04-18T10:56:14Z</time>
      </trkpt>
      <trkpt lat="37.79521401040256" lon="-2.06837902776897">
        <ele>814.60000000000002</ele>
        <time>2018-04-18T10:56:15Z</time>
      </trkpt>
      <trkpt lat="37.79557703062892" lon="-2.068367963656783">
        <ele>805</ele>
        <time>2018-04-18T10:56:24Z</time>
      </trkpt>
      <trkpt lat="37.79564400203526" lon="-2.068357989192009">
        <ele>804.39999999999998</ele>
        <time>2018-04-18T10:56:25Z</time>
      </trkpt>
      <trkpt lat="37.79570703394711" lon="-2.068335022777319">
        <ele>803.89999999999998</ele>
        <time>2018-04-18T10:56:26Z</time>
      </trkpt>
      <trkpt lat="37.795765036717057" lon="-2.068304009735584">
        <ele>803.39999999999998</ele>
        <time>2018-04-18T10:56:27Z</time>
      </trkpt>
      <trkpt lat="37.796028982847929" lon="-2.068150034174323">
        <ele>801</ele>
        <time>2018-04-18T10:56:32Z</time>
      </trkpt>
      <trkpt lat="37.796082962304354" lon="-2.068137964233756">
        <ele>800</ele>
        <time>2018-04-18T10:56:33Z</time>
      </trkpt>
      <trkpt lat="37.796135013923049" lon="-2.068137964233756">
        <ele>799.5</ele>
        <time>2018-04-18T10:56:34Z</time>
      </trkpt>
      <trkpt lat="37.79618002474308" lon="-2.068142993375659">
        <ele>799.10000000000002</ele>
        <time>2018-04-18T10:56:35Z</time>
      </trkpt>
      <trkpt lat="37.796221012249589" lon="-2.068151962012053">
        <ele>798.5</ele>
        <time>2018-04-18T10:56:36Z</time>
      </trkpt>
      <trkpt lat="37.796255964785814" lon="-2.06816403195262">
        <ele>798.60000000000002</ele>
        <time>2018-04-18T10:56:37Z</time>
      </trkpt>
      <trkpt lat="37.796450005844235" lon="-2.068204013630748">
        <ele>797.10000000000002</ele>
        <time>2018-04-18T10:56:45Z</time>
      </trkpt>
      <trkpt lat="37.796454029157758" lon="-2.068208958953619">
        <ele>795.79999999999995</ele>
        <time>2018-04-18T10:56:55Z</time>
      </trkpt>
      <trkpt lat="37.796445982530713" lon="-2.068209964782">
        <ele>794.70000000000005</ele>
        <time>2018-04-18T10:57:26Z</time>
      </trkpt>
      <trkpt lat="37.796464003622532" lon="-2.06820803694427">
        <ele>796.60000000000002</ele>
        <time>2018-04-18T10:57:56Z</time>
      </trkpt>
      <trkpt lat="37.796471966430545" lon="-2.068213988095522">
        <ele>797.60000000000002</ele>
        <time>2018-04-18T10:58:22Z</time>
      </trkpt>
      <trkpt lat="37.796507002785802" lon="-2.068218011409044">
        <ele>798.20000000000005</ele>
        <time>2018-04-18T10:58:37Z</time>
      </trkpt>
      <trkpt lat="37.796517983078957" lon="-2.068217005580664">
        <ele>798.10000000000002</ele>
        <time>2018-04-18T10:58:38Z</time>
      </trkpt>
      <trkpt lat="37.796573974192142" lon="-2.068235026672483">
        <ele>798.10000000000002</ele>
        <time>2018-04-18T10:58:48Z</time>
      </trkpt>
      <trkpt lat="37.796673970296979" lon="-2.068234020844102">
        <ele>798.70000000000005</ele>
        <time>2018-04-18T10:58:53Z</time>
      </trkpt>
      <trkpt lat="37.79693297110498" lon="-2.068027993664146">
        <ele>800</ele>
        <time>2018-04-18T10:59:06Z</time>
      </trkpt>
      <trkpt lat="37.797063980251551" lon="-2.067960016429424">
        <ele>800.60000000000002</ele>
        <time>2018-04-18T10:59:14Z</time>
      </trkpt>
      <trkpt lat="37.797112008556724" lon="-2.068007038906217">
        <ele>800.60000000000002</ele>
        <time>2018-04-18T10:59:23Z</time>
      </trkpt>
      <trkpt lat="37.797122988849878" lon="-2.068019025027752">
        <ele>800.60000000000002</ele>
        <time>2018-04-18T10:59:24Z</time>
      </trkpt>
      <trkpt lat="37.797132041305304" lon="-2.068026987835765">
        <ele>800.60000000000002</ele>
        <time>2018-04-18T10:59:25Z</time>
      </trkpt>
      <trkpt lat="37.797137992456555" lon="-2.068036962300539">
        <ele>801</ele>
        <time>2018-04-18T10:59:26Z</time>
      </trkpt>
      <trkpt lat="37.797143021598458" lon="-2.068047020584345">
        <ele>801.10000000000002</ele>
        <time>2018-04-18T10:59:27Z</time>
      </trkpt>
      <trkpt lat="37.797145033255219" lon="-2.068060012534261">
        <ele>801</ele>
        <time>2018-04-18T10:59:28Z</time>
      </trkpt>
      <trkpt lat="37.797137992456555" lon="-2.06807803362608">
        <ele>801</ele>
        <time>2018-04-18T10:59:29Z</time>
      </trkpt>
      <trkpt lat="37.797135980799794" lon="-2.068097982555628">
        <ele>801</ele>
        <time>2018-04-18T10:59:30Z</time>
      </trkpt>
      <trkpt lat="37.797136986628175" lon="-2.068119021132588">
        <ele>801</ele>
        <time>2018-04-18T10:59:31Z</time>
      </trkpt>
      <trkpt lat="37.797138998284936" lon="-2.068141987547278">
        <ele>801</ele>
        <time>2018-04-18T10:59:32Z</time>
      </trkpt>
      <trkpt lat="37.797142015770078" lon="-2.06816403195262">
        <ele>801</ele>
        <time>2018-04-18T10:59:33Z</time>
      </trkpt>
      <trkpt lat="37.797141009941697" lon="-2.06818800419569">
        <ele>800.60000000000002</ele>
        <time>2018-04-18T10:59:34Z</time>
      </trkpt>
      <trkpt lat="37.797141009941697" lon="-2.068214993923903">
        <ele>800.60000000000002</ele>
        <time>2018-04-18T10:59:35Z</time>
      </trkpt>
      <trkpt lat="37.797171017155051" lon="-2.068597041070461">
        <ele>797.70000000000005</ele>
        <time>2018-04-18T10:59:51Z</time>
      </trkpt>
      <trkpt lat="37.797185014933348" lon="-2.069059973582625">
        <ele>799.60000000000002</ele>
        <time>2018-04-18T11:00:08Z</time>
      </trkpt>
      <trkpt lat="37.797292973846197" lon="-2.069523995742202">
        <ele>802.5</ele>
        <time>2018-04-18T11:00:23Z</time>
      </trkpt>
      <trkpt lat="37.797496989369392" lon="-2.070035962387919">
        <ele>799.5</ele>
        <time>2018-04-18T11:00:39Z</time>
      </trkpt>
      <trkpt lat="37.797827990725636" lon="-2.070379033684731">
        <ele>798.5</ele>
        <time>2018-04-18T11:00:51Z</time>
      </trkpt>
      <trkpt lat="37.798313973471522" lon="-2.070713974535465">
        <ele>801.39999999999998</ele>
        <time>2018-04-18T11:01:05Z</time>
      </trkpt>
      <trkpt lat="37.798702977597713" lon="-2.071028966456652">
        <ele>801.39999999999998</ele>
        <time>2018-04-18T11:01:18Z</time>
      </trkpt>
      <trkpt lat="37.798729967325926" lon="-2.071278998628259">
        <ele>804.29999999999995</ele>
        <time>2018-04-18T11:01:29Z</time>
      </trkpt>
      <trkpt lat="37.798653021454811" lon="-2.071578986942768">
        <ele>804.79999999999995</ele>
        <time>2018-04-18T11:01:41Z</time>
      </trkpt>
      <trkpt lat="37.798675987869501" lon="-2.071648975834251">
        <ele>805.39999999999998</ele>
        <time>2018-04-18T11:01:44Z</time>
      </trkpt>
      <trkpt lat="37.798698032274842" lon="-2.071666996926069">
        <ele>805.29999999999995</ele>
        <time>2018-04-18T11:01:45Z</time>
      </trkpt>
      <trkpt lat="37.798723010346293" lon="-2.071679988875985">
        <ele>805.39999999999998</ele>
        <time>2018-04-18T11:01:46Z</time>
      </trkpt>
      <trkpt lat="37.798745976760983" lon="-2.071684012189508">
        <ele>805.39999999999998</ele>
        <time>2018-04-18T11:01:47Z</time>
      </trkpt>
      <trkpt lat="37.798767015337944" lon="-2.071685018017888">
        <ele>805.79999999999995</ele>
        <time>2018-04-18T11:01:48Z</time>
      </trkpt>
      <trkpt lat="37.798859970644116" lon="-2.071629026904702">
        <ele>806.79999999999995</ele>
        <time>2018-04-18T11:01:53Z</time>
      </trkpt>
      <trkpt lat="37.79886701144278" lon="-2.071607988327742">
        <ele>807.39999999999998</ele>
        <time>2018-04-18T11:01:54Z</time>
      </trkpt>
      <trkpt lat="37.798874974250793" lon="-2.071585021913052">
        <ele>807.89999999999998</ele>
        <time>2018-04-18T11:01:55Z</time>
      </trkpt>
      <trkpt lat="37.79888897202909" lon="-2.071565994992852">
        <ele>807.89999999999998</ele>
        <time>2018-04-18T11:01:56Z</time>
      </trkpt>
      <trkpt lat="37.798902969807386" lon="-2.071548979729414">
        <ele>808.29999999999995</ele>
        <time>2018-04-18T11:01:57Z</time>
      </trkpt>
      <trkpt lat="37.79918703250587" lon="-2.071270029991865">
        <ele>813.60000000000002</ele>
        <time>2018-04-18T11:02:15Z</time>
      </trkpt>
      <trkpt lat="37.799472017213702" lon="-2.071076994761825">
        <ele>816.10000000000002</ele>
        <time>2018-04-18T11:02:32Z</time>
      </trkpt>
      <trkpt lat="37.799749039113522" lon="-2.070939028635621">
        <ele>819</ele>
        <time>2018-04-18T11:02:47Z</time>
      </trkpt>
      <trkpt lat="37.800037041306496" lon="-2.070983033627272">
        <ele>822.29999999999995</ele>
        <time>2018-04-18T11:03:02Z</time>
      </trkpt>
      <trkpt lat="37.800259999930859" lon="-2.071128962561488">
        <ele>823.79999999999995</ele>
        <time>2018-04-18T11:03:16Z</time>
      </trkpt>
      <trkpt lat="37.800497962161899" lon="-2.071353010833263">
        <ele>826.20000000000005</ele>
        <time>2018-04-18T11:03:30Z</time>
      </trkpt>
      <trkpt lat="37.800651015713811" lon="-2.071573035791516">
        <ele>828.60000000000002</ele>
        <time>2018-04-18T11:03:43Z</time>
      </trkpt>
      <trkpt lat="37.80047700740397" lon="-2.071637995541096">
        <ele>828.5</ele>
        <time>2018-04-18T11:03:53Z</time>
      </trkpt>
      <trkpt lat="37.800334012135863" lon="-2.071548979729414">
        <ele>829.10000000000002</ele>
        <time>2018-04-18T11:04:03Z</time>
      </trkpt>
      <trkpt lat="37.800315991044044" lon="-2.071541016921401">
        <ele>828.60000000000002</ele>
        <time>2018-04-18T11:04:04Z</time>
      </trkpt>
      <trkpt lat="37.800296964123845" lon="-2.071530958637595">
        <ele>829.10000000000002</ele>
        <time>2018-04-18T11:04:05Z</time>
      </trkpt>
      <trkpt lat="37.800277015194297" lon="-2.07151897251606">
        <ele>829.5</ele>
        <time>2018-04-18T11:04:06Z</time>
      </trkpt>
      <trkpt lat="37.800257988274097" lon="-2.071506986394525">
        <ele>830</ele>
        <time>2018-04-18T11:04:07Z</time>
      </trkpt>
      <trkpt lat="37.800238961353898" lon="-2.071499023586512">
        <ele>830</ele>
        <time>2018-04-18T11:04:08Z</time>
      </trkpt>
      <trkpt lat="37.799970991909504" lon="-2.071526013314724">
        <ele>833.89999999999998</ele>
        <time>2018-04-18T11:04:23Z</time>
      </trkpt>
      <trkpt lat="37.799741998314857" lon="-2.071834970265627">
        <ele>837.79999999999995</ele>
        <time>2018-04-18T11:04:41Z</time>
      </trkpt>
      <trkpt lat="37.799673015251756" lon="-2.072230009362102">
        <ele>839.20000000000005</ele>
        <time>2018-04-18T11:04:59Z</time>
      </trkpt>
      <trkpt lat="37.799852974712849" lon="-2.072451040148735">
        <ele>841.10000000000002</ele>
        <time>2018-04-18T11:05:12Z</time>
      </trkpt>
      <trkpt lat="37.800040980800986" lon="-2.072691014036536">
        <ele>843.89999999999998</ele>
        <time>2018-04-18T11:05:26Z</time>
      </trkpt>
      <trkpt lat="37.800221024081111" lon="-2.072837026789784">
        <ele>848.20000000000005</ele>
        <time>2018-04-18T11:05:41Z</time>
      </trkpt>
      <trkpt lat="37.800337029621005" lon="-2.072620019316673">
        <ele>851.10000000000002</ele>
        <time>2018-04-18T11:05:52Z</time>
      </trkpt>
      <trkpt lat="37.800353961065412" lon="-2.072605015709996">
        <ele>850.60000000000002</ele>
        <time>2018-04-18T11:05:53Z</time>
      </trkpt>
      <trkpt lat="37.800661996006966" lon="-2.072623036801815">
        <ele>852.60000000000002</ele>
        <time>2018-04-18T11:06:09Z</time>
      </trkpt>
      <trkpt lat="37.800998026505113" lon="-2.072553969919682">
        <ele>855.89999999999998</ele>
        <time>2018-04-18T11:06:26Z</time>
      </trkpt>
      <trkpt lat="37.801259038969874" lon="-2.07267701625824">
        <ele>856.89999999999998</ele>
        <time>2018-04-18T11:06:42Z</time>
      </trkpt>
      <trkpt lat="37.801321987062693" lon="-2.073053028434515">
        <ele>857.5</ele>
        <time>2018-04-18T11:06:55Z</time>
      </trkpt>
      <trkpt lat="37.801445033401251" lon="-2.073691980913281">
        <ele>854.60000000000002</ele>
        <time>2018-04-18T11:07:10Z</time>
      </trkpt>
      <trkpt lat="37.801481997594237" lon="-2.073776973411441">
        <ele>854.5</ele>
        <time>2018-04-18T11:07:12Z</time>
      </trkpt>
      <trkpt lat="37.801512004807591" lon="-2.073817038908601">
        <ele>854.60000000000002</ele>
        <time>2018-04-18T11:07:13Z</time>
      </trkpt>
      <trkpt lat="37.801543017849326" lon="-2.073851991444826">
        <ele>854</ele>
        <time>2018-04-18T11:07:14Z</time>
      </trkpt>
      <trkpt lat="37.801578976213932" lon="-2.07388199865818">
        <ele>854.60000000000002</ele>
        <time>2018-04-18T11:07:15Z</time>
      </trkpt>
      <trkpt lat="37.80161602422595" lon="-2.07390395924449">
        <ele>854.60000000000002</ele>
        <time>2018-04-18T11:07:16Z</time>
      </trkpt>
      <trkpt lat="37.801653994247317" lon="-2.073920974507928">
        <ele>854.60000000000002</ele>
        <time>2018-04-18T11:07:17Z</time>
      </trkpt>
      <trkpt lat="37.801892040297389" lon="-2.074156003072858">
        <ele>857.39999999999998</ele>
        <time>2018-04-18T11:07:28Z</time>
      </trkpt>
      <trkpt lat="37.801829008385539" lon="-2.074608039110899">
        <ele>861.79999999999995</ele>
        <time>2018-04-18T11:07:43Z</time>
      </trkpt>
      <trkpt lat="37.80180998146534" lon="-2.075188988819718">
        <ele>865.10000000000002</ele>
        <time>2018-04-18T11:08:02Z</time>
      </trkpt>
      <trkpt lat="37.801694981753826" lon="-2.075605988502502">
        <ele>867.5</ele>
        <time>2018-04-18T11:08:15Z</time>
      </trkpt>
      <trkpt lat="37.801547963172197" lon="-2.07617998123169">
        <ele>868.5</ele>
        <time>2018-04-18T11:08:29Z</time>
      </trkpt>
      <trkpt lat="37.801565984264016" lon="-2.076617013663054">
        <ele>868.60000000000002</ele>
        <time>2018-04-18T11:08:39Z</time>
      </trkpt>
      <trkpt lat="37.801593979820609" lon="-2.076617013663054">
        <ele>870</ele>
        <time>2018-04-18T11:08:54Z</time>
      </trkpt>
      <trkpt lat="37.801590962335467" lon="-2.076650038361549">
        <ele>870.60000000000002</ele>
        <time>2018-04-18T11:09:04Z</time>
      </trkpt>
      <trkpt lat="37.801578976213932" lon="-2.076665963977575">
        <ele>870.60000000000002</ele>
        <time>2018-04-18T11:09:05Z</time>
      </trkpt>
      <trkpt lat="37.801557015627623" lon="-2.076675016433001">
        <ele>870.5</ele>
        <time>2018-04-18T11:09:06Z</time>
      </trkpt>
      <trkpt lat="37.801537988707423" lon="-2.076691025868058">
        <ele>869.60000000000002</ele>
        <time>2018-04-18T11:09:17Z</time>
      </trkpt>
      <trkpt lat="37.801537988707423" lon="-2.076709968969226">
        <ele>869.60000000000002</ele>
        <time>2018-04-18T11:09:30Z</time>
      </trkpt>
      <trkpt lat="37.801560033112764" lon="-2.076712986454368">
        <ele>869.10000000000002</ele>
        <time>2018-04-18T11:09:31Z</time>
      </trkpt>
      <trkpt lat="37.801585011184216" lon="-2.076713992282748">
        <ele>868</ele>
        <time>2018-04-18T11:09:32Z</time>
      </trkpt>
      <trkpt lat="37.80161501839757" lon="-2.076712986454368">
        <ele>867.5</ele>
        <time>2018-04-18T11:09:33Z</time>
      </trkpt>
      <trkpt lat="37.801716020330787" lon="-2.076691025868058">
        <ele>865.5</ele>
        <time>2018-04-18T11:09:36Z</time>
      </trkpt>
      <trkpt lat="37.801750972867012" lon="-2.076691025868058">
        <ele>865.10000000000002</ele>
        <time>2018-04-18T11:09:37Z</time>
      </trkpt>
      <trkpt lat="37.801785003393888" lon="-2.076692031696439">
        <ele>864.60000000000002</ele>
        <time>2018-04-18T11:09:38Z</time>
      </trkpt>
      <trkpt lat="37.801818028092384" lon="-2.076693959534168">
        <ele>864.5</ele>
        <time>2018-04-18T11:09:39Z</time>
      </trkpt>
      <trkpt lat="37.802378023043275" lon="-2.076584994792938">
        <ele>862.10000000000002</ele>
        <time>2018-04-18T11:09:52Z</time>
      </trkpt>
      <trkpt lat="37.802533004432917" lon="-2.076527997851372">
        <ele>860.79999999999995</ele>
        <time>2018-04-18T11:09:55Z</time>
      </trkpt>
      <trkpt lat="37.802813965827227" lon="-2.076608967036009">
        <ele>859.70000000000005</ele>
        <time>2018-04-18T11:10:00Z</time>
      </trkpt>
      <trkpt lat="37.8028619941324" lon="-2.076655989512801">
        <ele>859.20000000000005</ele>
        <time>2018-04-18T11:10:01Z</time>
      </trkpt>
      <trkpt lat="37.802903987467289" lon="-2.076712986454368">
        <ele>859.79999999999995</ele>
        <time>2018-04-18T11:10:02Z</time>
      </trkpt>
      <trkpt lat="37.802941035479307" lon="-2.076771995052695">
        <ele>859.79999999999995</ele>
        <time>2018-04-18T11:10:03Z</time>
      </trkpt>
      <trkpt lat="37.802974982187152" lon="-2.076833015307784">
        <ele>859.20000000000005</ele>
        <time>2018-04-18T11:10:04Z</time>
      </trkpt>
      <trkpt lat="37.803005995228887" lon="-2.076895041391254">
        <ele>859.20000000000005</ele>
        <time>2018-04-18T11:10:05Z</time>
      </trkpt>
      <trkpt lat="37.80303399078548" lon="-2.076958995312452">
        <ele>859.29999999999995</ele>
        <time>2018-04-18T11:10:06Z</time>
      </trkpt>
      <trkpt lat="37.803242029622197" lon="-2.077466016635299">
        <ele>860.20000000000005</ele>
        <time>2018-04-18T11:10:15Z</time>
      </trkpt>
      <trkpt lat="37.803515028208494" lon="-2.078144028782845">
        <ele>864.10000000000002</ele>
        <time>2018-04-18T11:10:32Z</time>
      </trkpt>
      <trkpt lat="37.803806969895959" lon="-2.078708969056606">
        <ele>867.5</ele>
        <time>2018-04-18T11:10:49Z</time>
      </trkpt>
      <trkpt lat="37.804175019264221" lon="-2.07929503172636">
        <ele>868.89999999999998</ele>
        <time>2018-04-18T11:11:09Z</time>
      </trkpt>
      <trkpt lat="37.804395966231823" lon="-2.079584039747715">
        <ele>869.39999999999998</ele>
        <time>2018-04-18T11:11:21Z</time>
      </trkpt>
      <trkpt lat="37.804889995604753" lon="-2.079755030572414">
        <ele>869.89999999999998</ele>
        <time>2018-04-18T11:11:38Z</time>
      </trkpt>
      <trkpt lat="37.805939996615052" lon="-2.080272026360035">
        <ele>870.89999999999998</ele>
        <time>2018-04-18T11:12:10Z</time>
      </trkpt>
      <trkpt lat="37.806480964645743" lon="-2.080723978579044">
        <ele>872</ele>
        <time>2018-04-18T11:12:28Z</time>
      </trkpt>
      <trkpt lat="37.806893019005656" lon="-2.081076018512249">
        <ele>873.89999999999998</ele>
        <time>2018-04-18T11:12:43Z</time>
      </trkpt>
      <trkpt lat="37.807350000366569" lon="-2.081439038738608">
        <ele>875.29999999999995</ele>
        <time>2018-04-18T11:13:01Z</time>
      </trkpt>
      <trkpt lat="37.807799018919468" lon="-2.081773979589343">
        <ele>877.10000000000002</ele>
        <time>2018-04-18T11:13:19Z</time>
      </trkpt>
      <trkpt lat="37.808174025267363" lon="-2.081886967644095">
        <ele>878.20000000000005</ele>
        <time>2018-04-18T11:13:32Z</time>
      </trkpt>
      <trkpt lat="37.808670988306403" lon="-2.08198101259768">
        <ele>880</ele>
        <time>2018-04-18T11:13:49Z</time>
      </trkpt>
      <trkpt lat="37.809192007407546" lon="-2.082029962912202">
        <ele>881.39999999999998</ele>
        <time>2018-04-18T11:14:08Z</time>
      </trkpt>
      <trkpt lat="37.809686958789825" lon="-2.082020994275808">
        <ele>884.29999999999995</ele>
        <time>2018-04-18T11:14:26Z</time>
      </trkpt>
      <trkpt lat="37.810194985941052" lon="-2.081996016204357">
        <ele>886.70000000000005</ele>
        <time>2018-04-18T11:14:44Z</time>
      </trkpt>
      <trkpt lat="37.810679962858558" lon="-2.081984030082822">
        <ele>888.60000000000002</ele>
        <time>2018-04-18T11:15:01Z</time>
      </trkpt>
      <trkpt lat="37.811230989173055" lon="-2.082070028409362">
        <ele>891.10000000000002</ele>
        <time>2018-04-18T11:15:20Z</time>
      </trkpt>
      <trkpt lat="37.811728036031127" lon="-2.082051001489162">
        <ele>891.10000000000002</ele>
        <time>2018-04-18T11:15:39Z</time>
      </trkpt>
      <trkpt lat="37.812136989086866" lon="-2.081786971539259">
        <ele>895</ele>
        <time>2018-04-18T11:15:57Z</time>
      </trkpt>
      <trkpt lat="37.812543008476496" lon="-2.081699967384338">
        <ele>895.5</ele>
        <time>2018-04-18T11:16:13Z</time>
      </trkpt>
      <trkpt lat="37.81306997872889" lon="-2.081562001258135">
        <ele>897.79999999999995</ele>
        <time>2018-04-18T11:16:33Z</time>
      </trkpt>
      <trkpt lat="37.813463006168604" lon="-2.081695022061467">
        <ele>898.29999999999995</ele>
        <time>2018-04-18T11:16:48Z</time>
      </trkpt>
      <trkpt lat="37.813701974228024" lon="-2.082017976790667">
        <ele>899.39999999999998</ele>
        <time>2018-04-18T11:17:01Z</time>
      </trkpt>
      <trkpt lat="37.813955023884773" lon="-2.082351995632052">
        <ele>901.70000000000005</ele>
        <time>2018-04-18T11:17:15Z</time>
      </trkpt>
      <trkpt lat="37.814190974459052" lon="-2.082653995603323">
        <ele>903.10000000000002</ele>
        <time>2018-04-18T11:17:28Z</time>
      </trkpt>
      <trkpt lat="37.814203966408968" lon="-2.082678973674774">
        <ele>903.20000000000005</ele>
        <time>2018-04-18T11:17:29Z</time>
      </trkpt>
      <trkpt lat="37.814218970015645" lon="-2.082705963402987">
        <ele>903.10000000000002</ele>
        <time>2018-04-18T11:17:30Z</time>
      </trkpt>
      <trkpt lat="37.814236991107464" lon="-2.082730019465089">
        <ele>903.10000000000002</ele>
        <time>2018-04-18T11:17:31Z</time>
      </trkpt>
      <trkpt lat="37.814256018027663" lon="-2.082749968394637">
        <ele>903.20000000000005</ele>
        <time>2018-04-18T11:17:32Z</time>
      </trkpt>
      <trkpt lat="37.814274039119482" lon="-2.082771006971598">
        <ele>903.20000000000005</ele>
        <time>2018-04-18T11:17:33Z</time>
      </trkpt>
      <trkpt lat="37.814536979421973" lon="-2.083130003884435">
        <ele>905.60000000000002</ele>
        <time>2018-04-18T11:17:49Z</time>
      </trkpt>
      <trkpt lat="37.81467704102397" lon="-2.083443989977241">
        <ele>906.60000000000002</ele>
        <time>2018-04-18T11:18:02Z</time>
      </trkpt>
      <trkpt lat="37.81483001075685" lon="-2.083880016580224">
        <ele>907.5</ele>
        <time>2018-04-18T11:18:17Z</time>
      </trkpt>
      <trkpt lat="37.815050035715103" lon="-2.084336997941136">
        <ele>911.39999999999998</ele>
        <time>2018-04-18T11:18:35Z</time>
      </trkpt>
      <trkpt lat="37.815271988511086" lon="-2.084686020389199">
        <ele>914.79999999999995</ele>
        <time>2018-04-18T11:18:52Z</time>
      </trkpt>
      <trkpt lat="37.8154940251261" lon="-2.085005035623908">
        <ele>918.20000000000005</ele>
        <time>2018-04-18T11:19:09Z</time>
      </trkpt>
      <trkpt lat="37.815694017335773" lon="-2.085308041423559">
        <ele>921</ele>
        <time>2018-04-18T11:19:25Z</time>
      </trkpt>
      <trkpt lat="37.815928040072322" lon="-2.085625967010856">
        <ele>923.89999999999998</ele>
        <time>2018-04-18T11:19:43Z</time>
      </trkpt>
      <trkpt lat="37.816107999533415" lon="-2.085872981697321">
        <ele>926.29999999999995</ele>
        <time>2018-04-18T11:19:58Z</time>
      </trkpt>
      <trkpt lat="37.816273039206862" lon="-2.086142040789127">
        <ele>928.70000000000005</ele>
        <time>2018-04-18T11:20:13Z</time>
      </trkpt>
      <trkpt lat="37.816408993676305" lon="-2.086464995518327">
        <ele>930.60000000000002</ele>
        <time>2018-04-18T11:20:30Z</time>
      </trkpt>
      <trkpt lat="37.816579984501004" lon="-2.086818963289261">
        <ele>932.60000000000002</ele>
        <time>2018-04-18T11:20:47Z</time>
      </trkpt>
      <trkpt lat="37.816739995032549" lon="-2.087118029594421">
        <ele>935.5</ele>
        <time>2018-04-18T11:21:02Z</time>
      </trkpt>
      <trkpt lat="37.816898999735713" lon="-2.087442995980382">
        <ele>937.29999999999995</ele>
        <time>2018-04-18T11:21:18Z</time>
      </trkpt>
      <trkpt lat="37.817094968631864" lon="-2.087844992056489">
        <ele>939.70000000000005</ele>
        <time>2018-04-18T11:21:37Z</time>
      </trkpt>
      <trkpt lat="37.817350029945374" lon="-2.08808396011591">
        <ele>942.10000000000002</ele>
        <time>2018-04-18T11:21:52Z</time>
      </trkpt>
      <trkpt lat="37.81757902354002" lon="-2.088278001174331">
        <ele>944</ele>
        <time>2018-04-18T11:22:05Z</time>
      </trkpt>
      <trkpt lat="37.817860990762711" lon="-2.088519986718893">
        <ele>948.39999999999998</ele>
        <time>2018-04-18T11:22:22Z</time>
      </trkpt>
      <trkpt lat="37.818159973248839" lon="-2.088787034153938">
        <ele>950.29999999999995</ele>
        <time>2018-04-18T11:22:40Z</time>
      </trkpt>
      <trkpt lat="37.81837304122746" lon="-2.088947966694832">
        <ele>952.20000000000005</ele>
        <time>2018-04-18T11:22:53Z</time>
      </trkpt>
      <trkpt lat="37.818925995379686" lon="-2.089161034673452">
        <ele>955.89999999999998</ele>
        <time>2018-04-18T11:23:21Z</time>
      </trkpt>
      <trkpt lat="37.819272000342607" lon="-2.089304029941559">
        <ele>957.39999999999998</ele>
        <time>2018-04-18T11:23:38Z</time>
      </trkpt>
      <trkpt lat="37.819561008363962" lon="-2.08943503908813">
        <ele>958.79999999999995</ele>
        <time>2018-04-18T11:23:52Z</time>
      </trkpt>
      <trkpt lat="37.820096025243402" lon="-2.089854972437024">
        <ele>962.10000000000002</ele>
        <time>2018-04-18T11:24:22Z</time>
      </trkpt>
      <trkpt lat="37.820259975269437" lon="-2.090113973245025">
        <ele>965.10000000000002</ele>
        <time>2018-04-18T11:24:36Z</time>
      </trkpt>
      <trkpt lat="37.820457033813" lon="-2.090382026508451">
        <ele>967</ele>
        <time>2018-04-18T11:24:51Z</time>
      </trkpt>
      <trkpt lat="37.82073900103569" lon="-2.090465007349849">
        <ele>967.39999999999998</ele>
        <time>2018-04-18T11:25:06Z</time>
      </trkpt>
      <trkpt lat="37.821386000141501" lon="-2.090581012889743">
        <ele>973.20000000000005</ele>
        <time>2018-04-18T11:25:37Z</time>
      </trkpt>
      <trkpt lat="37.821666039526463" lon="-2.090773964300752">
        <ele>975.10000000000002</ele>
        <time>2018-04-18T11:25:52Z</time>
      </trkpt>
      <trkpt lat="37.821939960122108" lon="-2.090959036722779">
        <ele>976.5</ele>
        <time>2018-04-18T11:26:06Z</time>
      </trkpt>
      <trkpt lat="37.822265010327101" lon="-2.091187024489045">
        <ele>976.5</ele>
        <time>2018-04-18T11:26:20Z</time>
      </trkpt>
      <trkpt lat="37.822640016674995" lon="-2.091491958126426">
        <ele>974.60000000000002</ele>
        <time>2018-04-18T11:26:34Z</time>
      </trkpt>
      <trkpt lat="37.823133962228894" lon="-2.091913986951113">
        <ele>970.79999999999995</ele>
        <time>2018-04-18T11:26:45Z</time>
      </trkpt>
      <trkpt lat="37.823305036872625" lon="-2.091981964185834">
        <ele>968.89999999999998</ele>
        <time>2018-04-18T11:26:48Z</time>
      </trkpt>
      <trkpt lat="37.823839969933033" lon="-2.092020018026233">
        <ele>964.39999999999998</ele>
        <time>2018-04-18T11:26:56Z</time>
      </trkpt>
      <trkpt lat="37.824227968230844" lon="-2.09210199303925">
        <ele>961.70000000000005</ele>
        <time>2018-04-18T11:27:02Z</time>
      </trkpt>
      <trkpt lat="37.824266022071242" lon="-2.092097969725728">
        <ele>961.60000000000002</ele>
        <time>2018-04-18T11:27:03Z</time>
      </trkpt>
      <trkpt lat="37.824299968779087" lon="-2.092090006917715">
        <ele>961.70000000000005</ele>
        <time>2018-04-18T11:27:04Z</time>
      </trkpt>
      <trkpt lat="37.824335005134344" lon="-2.092080032452941">
        <ele>961.60000000000002</ele>
        <time>2018-04-18T11:27:05Z</time>
      </trkpt>
      <trkpt lat="37.824372975155711" lon="-2.092065028846264">
        <ele>961.60000000000002</ele>
        <time>2018-04-18T11:27:06Z</time>
      </trkpt>
      <trkpt lat="37.824412034824491" lon="-2.092044996097684">
        <ele>961.20000000000005</ele>
        <time>2018-04-18T11:27:07Z</time>
      </trkpt>
      <trkpt lat="37.824450004845858" lon="-2.092021023854613">
        <ele>960.60000000000002</ele>
        <time>2018-04-18T11:27:08Z</time>
      </trkpt>
      <trkpt lat="37.824645973742008" lon="-2.091884985566139">
        <ele>958.70000000000005</ele>
        <time>2018-04-18T11:27:13Z</time>
      </trkpt>
      <trkpt lat="37.82469199039042" lon="-2.091867970302701">
        <ele>958.79999999999995</ele>
        <time>2018-04-18T11:27:14Z</time>
      </trkpt>
      <trkpt lat="37.824743958190084" lon="-2.091861013323069">
        <ele>958.20000000000005</ele>
        <time>2018-04-18T11:27:15Z</time>
      </trkpt>
      <trkpt lat="37.824857030063868" lon="-2.091862019151449">
        <ele>958.20000000000005</ele>
        <time>2018-04-18T11:27:17Z</time>
      </trkpt>
      <trkpt lat="37.824916038662195" lon="-2.091878028586507">
        <ele>957.20000000000005</ele>
        <time>2018-04-18T11:27:18Z</time>
      </trkpt>
      <trkpt lat="37.824975969269872" lon="-2.091904012486339">
        <ele>956.79999999999995</ele>
        <time>2018-04-18T11:27:19Z</time>
      </trkpt>
      <trkpt lat="37.825758000835776" lon="-2.092277007177472">
        <ele>956.79999999999995</ele>
        <time>2018-04-18T11:27:33Z</time>
      </trkpt>
      <trkpt lat="37.826039968058467" lon="-2.092235013842583">
        <ele>959.60000000000002</ele>
        <time>2018-04-18T11:27:45Z</time>
      </trkpt>
      <trkpt lat="37.826150022447109" lon="-2.092228978872299">
        <ele>961.5</ele>
        <time>2018-04-18T11:27:51Z</time>
      </trkpt>
      <trkpt lat="37.826331993564963" lon="-2.092412039637566">
        <ele>963.39999999999998</ele>
        <time>2018-04-18T11:28:04Z</time>
      </trkpt>
      <trkpt lat="37.826357977464795" lon="-2.09250801242888">
        <ele>964.89999999999998</ele>
        <time>2018-04-18T11:28:17Z</time>
      </trkpt>
      <trkpt lat="37.82636702992022" lon="-2.09253097884357">
        <ele>964.39999999999998</ele>
        <time>2018-04-18T11:28:29Z</time>
      </trkpt>
      <trkpt lat="37.82636702992022" lon="-2.092546988278627">
        <ele>964.89999999999998</ele>
        <time>2018-04-18T11:28:30Z</time>
      </trkpt>
      <trkpt lat="37.826371975243092" lon="-2.092562997713685">
        <ele>965.29999999999995</ele>
        <time>2018-04-18T11:28:31Z</time>
      </trkpt>
      <trkpt lat="37.826377004384995" lon="-2.092578001320362">
        <ele>965.89999999999998</ele>
        <time>2018-04-18T11:28:32Z</time>
      </trkpt>
      <trkpt lat="37.826379016041756" lon="-2.092593004927039">
        <ele>965.89999999999998</ele>
        <time>2018-04-18T11:28:33Z</time>
      </trkpt>
      <trkpt lat="37.826378010213375" lon="-2.092610020190477">
        <ele>965.79999999999995</ele>
        <time>2018-04-18T11:28:34Z</time>
      </trkpt>
      <trkpt lat="37.826371975243092" lon="-2.092628963291645">
        <ele>966.29999999999995</ele>
        <time>2018-04-18T11:28:35Z</time>
      </trkpt>
      <trkpt lat="37.826370969414711" lon="-2.092647990211844">
        <ele>966.29999999999995</ele>
        <time>2018-04-18T11:28:36Z</time>
      </trkpt>
      <trkpt lat="37.826371975243092" lon="-2.092666011303663">
        <ele>966.89999999999998</ele>
        <time>2018-04-18T11:28:37Z</time>
      </trkpt>
      <trkpt lat="37.826370969414711" lon="-2.092685960233212">
        <ele>966.89999999999998</ele>
        <time>2018-04-18T11:28:38Z</time>
      </trkpt>
      <trkpt lat="37.826370969414711" lon="-2.09270398132503">
        <ele>966.79999999999995</ele>
        <time>2018-04-18T11:28:39Z</time>
      </trkpt>
      <trkpt lat="37.826371975243092" lon="-2.092722002416849">
        <ele>967.39999999999998</ele>
        <time>2018-04-18T11:28:40Z</time>
      </trkpt>
      <trkpt lat="37.826387984678149" lon="-2.092785034328699">
        <ele>967.79999999999995</ele>
        <time>2018-04-18T11:28:44Z</time>
      </trkpt>
      <trkpt lat="37.826396031305194" lon="-2.092798026278615">
        <ele>967.79999999999995</ele>
        <time>2018-04-18T11:28:45Z</time>
      </trkpt>
      <trkpt lat="37.826403994113207" lon="-2.092808000743389">
        <ele>968.39999999999998</ele>
        <time>2018-04-18T11:28:46Z</time>
      </trkpt>
      <trkpt lat="37.826406005769968" lon="-2.092823004350066">
        <ele>968.29999999999995</ele>
        <time>2018-04-18T11:28:47Z</time>
      </trkpt>
      <trkpt lat="37.826438024640083" lon="-2.092854017391801">
        <ele>968.29999999999995</ele>
        <time>2018-04-18T11:30:27Z</time>
      </trkpt>
      <trkpt lat="37.826456967741251" lon="-2.092884024605155">
        <ele>967.89999999999998</ele>
        <time>2018-04-18T11:30:28Z</time>
      </trkpt>
      <trkpt lat="37.826641034334898" lon="-2.093188036233187">
        <ele>968.79999999999995</ele>
        <time>2018-04-18T11:30:39Z</time>
      </trkpt>
      <trkpt lat="37.826745975762606" lon="-2.093680975958705">
        <ele>972.20000000000005</ele>
        <time>2018-04-18T11:30:54Z</time>
      </trkpt>
      <trkpt lat="37.826967006549239" lon="-2.094053970649838">
        <ele>975.60000000000002</ele>
        <time>2018-04-18T11:31:09Z</time>
      </trkpt>
      <trkpt lat="37.827259032055736" lon="-2.094520004466176">
        <ele>979.89999999999998</ele>
        <time>2018-04-18T11:31:29Z</time>
      </trkpt>
      <trkpt lat="37.827523984014988" lon="-2.094882018864155">
        <ele>982.89999999999998</ele>
        <time>2018-04-18T11:31:46Z</time>
      </trkpt>
      <trkpt lat="37.828091019764543" lon="-2.095357021316886">
        <ele>988.10000000000002</ele>
        <time>2018-04-18T11:32:16Z</time>
      </trkpt>
      <trkpt lat="37.828350020572543" lon="-2.09560202434659">
        <ele>992.89999999999998</ele>
        <time>2018-04-18T11:32:33Z</time>
      </trkpt>
      <trkpt lat="37.828625030815601" lon="-2.095522982999682">
        <ele>994</ele>
        <time>2018-04-18T11:32:46Z</time>
      </trkpt>
      <trkpt lat="37.828743970021605" lon="-2.095416029915214">
        <ele>993</ele>
        <time>2018-04-18T11:32:49Z</time>
      </trkpt>
      <trkpt lat="37.828762996941805" lon="-2.095362972468138">
        <ele>993</ele>
        <time>2018-04-18T11:32:50Z</time>
      </trkpt>
      <trkpt lat="37.82894304022193" lon="-2.09508603438735">
        <ele>994.79999999999995</ele>
        <time>2018-04-18T11:33:01Z</time>
      </trkpt>
      <trkpt lat="37.829278986901045" lon="-2.095157029107213">
        <ele>997.70000000000005</ele>
        <time>2018-04-18T11:33:14Z</time>
      </trkpt>
      <trkpt lat="37.829901007935405" lon="-2.095358027145267">
        <ele>1000.7</ele>
        <time>2018-04-18T11:33:42Z</time>
      </trkpt>
      <trkpt lat="37.829921040683985" lon="-2.095355009660125">
        <ele>1000.6</ele>
        <time>2018-04-18T11:33:43Z</time>
      </trkpt>
      <trkpt lat="37.829940989613533" lon="-2.095355009660125">
        <ele>1000.7</ele>
        <time>2018-04-18T11:33:44Z</time>
      </trkpt>
      <trkpt lat="37.829961022362113" lon="-2.095356015488505">
        <ele>1000.7</ele>
        <time>2018-04-18T11:33:45Z</time>
      </trkpt>
      <trkpt lat="37.829979965463281" lon="-2.095357021316886">
        <ele>1000.6</ele>
        <time>2018-04-18T11:33:46Z</time>
      </trkpt>
      <trkpt lat="37.830673987045884" lon="-2.095598001033068">
        <ele>1002.6</ele>
        <time>2018-04-18T11:34:24Z</time>
      </trkpt>
      <trkpt lat="37.830993002280593" lon="-2.095907041803002">
        <ele>1003.9</ele>
        <time>2018-04-18T11:34:52Z</time>
      </trkpt>
      <trkpt lat="37.831002976745367" lon="-2.095919027924538">
        <ele>1004.5</ele>
        <time>2018-04-18T11:34:53Z</time>
      </trkpt>
      <trkpt lat="37.831014962866902" lon="-2.095931014046073">
        <ele>1004.5</ele>
        <time>2018-04-18T11:34:54Z</time>
      </trkpt>
      <trkpt lat="37.831027032807469" lon="-2.095940988510847">
        <ele>1005</ele>
        <time>2018-04-18T11:34:55Z</time>
      </trkpt>
      <trkpt lat="37.831038013100624" lon="-2.095950040966272">
        <ele>1005.5</ele>
        <time>2018-04-18T11:34:56Z</time>
      </trkpt>
      <trkpt lat="37.831049999222159" lon="-2.095958003774285">
        <ele>1005.4</ele>
        <time>2018-04-18T11:34:57Z</time>
      </trkpt>
      <trkpt lat="37.831061985343695" lon="-2.095964960753918">
        <ele>1005.9</ele>
        <time>2018-04-18T11:34:58Z</time>
      </trkpt>
      <trkpt lat="37.831183020025492" lon="-2.096050037071109">
        <ele>1010.3</ele>
        <time>2018-04-18T11:35:10Z</time>
      </trkpt>
      <trkpt lat="37.831189977005124" lon="-2.096062023192644">
        <ele>1011.3</ele>
        <time>2018-04-18T11:35:11Z</time>
      </trkpt>
      <trkpt lat="37.831199029460549" lon="-2.09607501514256">
        <ele>1011.3</ele>
        <time>2018-04-18T11:35:12Z</time>
      </trkpt>
      <trkpt lat="37.831206992268562" lon="-2.096084989607334">
        <ele>1011.7</ele>
        <time>2018-04-18T11:35:13Z</time>
      </trkpt>
      <trkpt lat="37.831215960904956" lon="-2.096094964072108">
        <ele>1011.7</ele>
        <time>2018-04-18T11:35:14Z</time>
      </trkpt>
      <trkpt lat="37.831226019188762" lon="-2.096106028184295">
        <ele>1012.3</ele>
        <time>2018-04-18T11:35:15Z</time>
      </trkpt>
      <trkpt lat="37.831276981160045" lon="-2.096209041774273">
        <ele>1015.2</ele>
        <time>2018-04-18T11:35:22Z</time>
      </trkpt>
      <trkpt lat="37.831403966993093" lon="-2.0964390411973">
        <ele>1017</ele>
        <time>2018-04-18T11:35:37Z</time>
      </trkpt>
      <trkpt lat="37.831663973629475" lon="-2.096627969294787">
        <ele>1017.1</ele>
        <time>2018-04-18T11:35:48Z</time>
      </trkpt>
      <trkpt lat="37.831857008859515" lon="-2.096728971228004">
        <ele>1018.1</ele>
        <time>2018-04-18T11:35:56Z</time>
      </trkpt>
      <trkpt lat="37.83186899498105" lon="-2.09674003534019">
        <ele>1018</ele>
        <time>2018-04-18T11:35:57Z</time>
      </trkpt>
      <trkpt lat="37.831901013851166" lon="-2.096788985654712">
        <ele>1018.6</ele>
        <time>2018-04-18T11:36:07Z</time>
      </trkpt>
      <trkpt lat="37.831914005801082" lon="-2.096812035888434">
        <ele>1017.6</ele>
        <time>2018-04-18T11:36:23Z</time>
      </trkpt>
      <trkpt lat="37.831908976659179" lon="-2.09682896733284">
        <ele>1022.8</ele>
        <time>2018-04-18T11:36:43Z</time>
      </trkpt>
      <trkpt lat="37.831882992759347" lon="-2.096880013123155">
        <ele>1033.4000000000001</ele>
        <time>2018-04-18T11:37:08Z</time>
      </trkpt>
      <trkpt lat="37.831891961395741" lon="-2.096925023943186">
        <ele>1042.5</ele>
        <time>2018-04-18T11:37:31Z</time>
      </trkpt>
      <trkpt lat="37.831899002194405" lon="-2.096952013671398">
        <ele>1044.4000000000001</ele>
        <time>2018-04-18T11:37:54Z</time>
      </trkpt>
      <trkpt lat="37.83188802190125" lon="-2.096960982307792">
        <ele>1046.3</ele>
        <time>2018-04-18T11:38:13Z</time>
      </trkpt>
      <trkpt lat="37.831880981102586" lon="-2.096965005621314">
        <ele>1050.7</ele>
        <time>2018-04-18T11:38:34Z</time>
      </trkpt>
      <trkpt lat="37.831873018294573" lon="-2.096980009227991">
        <ele>1057.3</ele>
        <time>2018-04-18T11:38:59Z</time>
      </trkpt>
      <trkpt lat="37.831862038001418" lon="-2.097028037533164">
        <ele>1061.7</ele>
        <time>2018-04-18T11:39:24Z</time>
      </trkpt>
      <trkpt lat="37.831813003867865" lon="-2.097028959542513">
        <ele>1067.9000000000001</ele>
        <time>2018-04-18T11:39:50Z</time>
      </trkpt>
      <trkpt lat="37.831815015524626" lon="-2.097046980634332">
        <ele>1066</ele>
        <time>2018-04-18T11:40:18Z</time>
      </trkpt>
      <trkpt lat="37.831828007474542" lon="-2.097006998956204">
        <ele>1062.5999999999999</ele>
        <time>2018-04-18T11:40:41Z</time>
      </trkpt>
      <trkpt lat="37.831848962232471" lon="-2.096956958994269">
        <ele>1060.2</ele>
        <time>2018-04-18T11:41:02Z</time>
      </trkpt>
      <trkpt lat="37.831882992759347" lon="-2.09699803031981">
        <ele>1059.3</ele>
        <time>2018-04-18T11:41:33Z</time>
      </trkpt>
      <trkpt lat="37.83188902772963" lon="-2.097036000341177">
        <ele>1062.0999999999999</ele>
        <time>2018-04-18T11:42:05Z</time>
      </trkpt>
      <trkpt lat="37.831857008859515" lon="-2.097070030868053">
        <ele>1068.4000000000001</ele>
        <time>2018-04-18T11:42:27Z</time>
      </trkpt>
      <trkpt lat="37.831856003031135" lon="-2.09708696231246">
        <ele>1070.3</ele>
        <time>2018-04-18T11:42:50Z</time>
      </trkpt>
      <trkpt lat="37.831851979717612" lon="-2.097133984789252">
        <ele>1074.7</ele>
        <time>2018-04-18T11:43:17Z</time>
      </trkpt>
      <trkpt lat="37.831815015524626" lon="-2.097137002274394">
        <ele>1077</ele>
        <time>2018-04-18T11:43:45Z</time>
      </trkpt>
      <trkpt lat="37.831794982776046" lon="-2.097158040851355">
        <ele>1084.2</ele>
        <time>2018-04-18T11:44:19Z</time>
      </trkpt>
      <trkpt lat="37.831780984997749" lon="-2.097188970074058">
        <ele>1086.0999999999999</ele>
        <time>2018-04-18T11:44:46Z</time>
      </trkpt>
      <trkpt lat="37.831772016361356" lon="-2.097154017537832">
        <ele>1092</ele>
        <time>2018-04-18T11:45:17Z</time>
      </trkpt>
      <trkpt lat="37.831755001097918" lon="-2.097196010872722">
        <ele>1093.9000000000001</ele>
        <time>2018-04-18T11:45:48Z</time>
      </trkpt>
      <trkpt lat="37.831800011917949" lon="-2.097261976450682">
        <ele>1097.2</ele>
        <time>2018-04-18T11:46:18Z</time>
      </trkpt>
      <trkpt lat="37.831790037453175" lon="-2.097260970622301">
        <ele>1103.5</ele>
        <time>2018-04-18T11:46:44Z</time>
      </trkpt>
      <trkpt lat="37.831784002482891" lon="-2.097262982279062">
        <ele>1100.0999999999999</ele>
        <time>2018-04-18T11:47:12Z</time>
      </trkpt>
      <trkpt lat="37.831750977784395" lon="-2.097277985885739">
        <ele>1104.9000000000001</ele>
        <time>2018-04-18T11:47:42Z</time>
      </trkpt>
      <trkpt lat="37.831737985834479" lon="-2.097198022529483">
        <ele>1091.9000000000001</ele>
        <time>2018-04-18T11:48:24Z</time>
      </trkpt>
      <trkpt lat="37.831736980006099" lon="-2.097190981730819">
        <ele>1090.5</ele>
        <time>2018-04-18T11:48:50Z</time>
      </trkpt>
      <trkpt lat="37.831755001097918" lon="-2.097189975902438">
        <ele>1094.8</ele>
        <time>2018-04-18T11:49:22Z</time>
      </trkpt>
      <trkpt lat="37.831745026633143" lon="-2.097243033349514">
        <ele>1100.2</ele>
        <time>2018-04-18T11:49:46Z</time>
      </trkpt>
      <trkpt lat="37.831752989441156" lon="-2.097279997542501">
        <ele>1106.5</ele>
        <time>2018-04-18T11:50:18Z</time>
      </trkpt>
      <trkpt lat="37.831755001097918" lon="-2.097283015027642">
        <ele>1106</ele>
        <time>2018-04-18T11:50:39Z</time>
      </trkpt>
      <trkpt lat="37.831762963905931" lon="-2.097231969237328">
        <ele>1100.7</ele>
        <time>2018-04-18T11:51:05Z</time>
      </trkpt>
      <trkpt lat="37.83180202357471" lon="-2.097185030579567">
        <ele>1094</ele>
        <time>2018-04-18T11:51:30Z</time>
      </trkpt>
      <trkpt lat="37.83178199082613" lon="-2.097183018922806">
        <ele>1091.5999999999999</ele>
        <time>2018-04-18T11:51:56Z</time>
      </trkpt>
      <trkpt lat="37.831747038289905" lon="-2.097109006717801">
        <ele>1088.2</ele>
        <time>2018-04-18T11:52:33Z</time>
      </trkpt>
      <trkpt lat="37.831773022189736" lon="-2.097121998667717">
        <ele>1089.7</ele>
        <time>2018-04-18T11:53:11Z</time>
      </trkpt>
      <trkpt lat="37.831764975562692" lon="-2.097057960927486">
        <ele>1084.4000000000001</ele>
        <time>2018-04-18T11:53:45Z</time>
      </trkpt>
      <trkpt lat="37.831774028018117" lon="-2.097068019211292">
        <ele>1081.4000000000001</ele>
        <time>2018-04-18T11:54:16Z</time>
      </trkpt>
      <trkpt lat="37.831776039674878" lon="-2.097053015604615">
        <ele>1080.4000000000001</ele>
        <time>2018-04-18T11:54:45Z</time>
      </trkpt>
      <trkpt lat="37.831784002482891" lon="-2.097010016441345">
        <ele>1073.3</ele>
        <time>2018-04-18T11:55:23Z</time>
      </trkpt>
      <trkpt lat="37.831778973340988" lon="-2.097022002562881">
        <ele>1071.3</ele>
        <time>2018-04-18T11:55:57Z</time>
      </trkpt>
      <trkpt lat="37.831787019968033" lon="-2.097032982856035">
        <ele>1074.7</ele>
        <time>2018-04-18T11:56:28Z</time>
      </trkpt>
      <trkpt lat="37.831779979169369" lon="-2.097077993676066">
        <ele>1075.7</ele>
        <time>2018-04-18T11:57:05Z</time>
      </trkpt>
      <trkpt lat="37.831791965290904" lon="-2.097098026424646">
        <ele>1073.3</ele>
        <time>2018-04-18T11:57:39Z</time>
      </trkpt>
      <trkpt lat="37.831785008311272" lon="-2.097062990069389">
        <ele>1073.3</ele>
        <time>2018-04-18T11:58:14Z</time>
      </trkpt>
      <trkpt lat="37.831774028018117" lon="-2.097045974805951">
        <ele>1075.3</ele>
        <time>2018-04-18T11:58:43Z</time>
      </trkpt>
      <trkpt lat="37.83180202357471" lon="-2.097027031704783">
        <ele>1071</ele>
        <time>2018-04-18T11:59:07Z</time>
      </trkpt>
      <trkpt lat="37.831833958625793" lon="-2.096692007035017">
        <ele>1032.5</ele>
        <time>2018-04-18T11:59:25Z</time>
      </trkpt>
      <trkpt lat="37.831856003031135" lon="-2.096645990386605">
        <ele>1030.5999999999999</ele>
        <time>2018-04-18T11:59:44Z</time>
      </trkpt>
      <trkpt lat="37.831851979717612" lon="-2.096612965688109">
        <ele>1030</ele>
        <time>2018-04-18T12:00:08Z</time>
      </trkpt>
      <trkpt lat="37.831833958625793" lon="-2.096617994830012">
        <ele>1033.9000000000001</ele>
        <time>2018-04-18T12:00:34Z</time>
      </trkpt>
      <trkpt lat="37.831777967512608" lon="-2.096621012315154">
        <ele>1034.4000000000001</ele>
        <time>2018-04-18T12:00:50Z</time>
      </trkpt>
      <trkpt lat="37.831763969734311" lon="-2.096609026193619">
        <ele>1030.0999999999999</ele>
        <time>2018-04-18T12:01:06Z</time>
      </trkpt>
      <trkpt lat="37.831780984997749" lon="-2.096611959859729">
        <ele>1029.7</ele>
        <time>2018-04-18T12:01:25Z</time>
      </trkpt>
      <trkpt lat="37.83176003023982" lon="-2.096650013700128">
        <ele>1026.7</ele>
        <time>2018-04-18T12:01:40Z</time>
      </trkpt>
      <trkpt lat="37.831608988344669" lon="-2.096592010930181">
        <ele>1024.9000000000001</ele>
        <time>2018-04-18T12:01:50Z</time>
      </trkpt>
      <trkpt lat="37.831428023055196" lon="-2.096508024260402">
        <ele>1025.3</ele>
        <time>2018-04-18T12:02:02Z</time>
      </trkpt>
      <trkpt lat="37.831246973946691" lon="-2.096213987097144">
        <ele>1021.9</ele>
        <time>2018-04-18T12:02:15Z</time>
      </trkpt>
      <trkpt lat="37.831246973946691" lon="-2.096213987097144">
        <ele>1021.9</ele>
        <time>2018-04-18T12:02:15Z</time>
      </trkpt>
      <trkpt lat="37.831428023055196" lon="-2.096508024260402">
        <ele>1025.3</ele>
        <time>2018-04-18T12:02:02Z</time>
      </trkpt>
      <trkpt lat="37.831608988344669" lon="-2.096592010930181">
        <ele>1024.9000000000001</ele>
        <time>2018-04-18T12:01:50Z</time>
      </trkpt>
      <trkpt lat="37.83176003023982" lon="-2.096650013700128">
        <ele>1026.7</ele>
        <time>2018-04-18T12:01:40Z</time>
      </trkpt>
      <trkpt lat="37.831780984997749" lon="-2.096611959859729">
        <ele>1029.7</ele>
        <time>2018-04-18T12:01:25Z</time>
      </trkpt>
      <trkpt lat="37.831763969734311" lon="-2.096609026193619">
        <ele>1030.0999999999999</ele>
        <time>2018-04-18T12:01:06Z</time>
      </trkpt>
      <trkpt lat="37.831777967512608" lon="-2.096621012315154">
        <ele>1034.4000000000001</ele>
        <time>2018-04-18T12:00:50Z</time>
      </trkpt>
      <trkpt lat="37.831833958625793" lon="-2.096617994830012">
        <ele>1033.9000000000001</ele>
        <time>2018-04-18T12:00:34Z</time>
      </trkpt>
      <trkpt lat="37.831851979717612" lon="-2.096612965688109">
        <ele>1030</ele>
        <time>2018-04-18T12:00:08Z</time>
      </trkpt>
      <trkpt lat="37.831856003031135" lon="-2.096645990386605">
        <ele>1030.5999999999999</ele>
        <time>2018-04-18T11:59:44Z</time>
      </trkpt>
      <trkpt lat="37.831833958625793" lon="-2.096692007035017">
        <ele>1032.5</ele>
        <time>2018-04-18T11:59:25Z</time>
      </trkpt>
      <trkpt lat="37.83180202357471" lon="-2.097027031704783">
        <ele>1071</ele>
        <time>2018-04-18T11:59:07Z</time>
      </trkpt>
      <trkpt lat="37.831774028018117" lon="-2.097045974805951">
        <ele>1075.3</ele>
        <time>2018-04-18T11:58:43Z</time>
      </trkpt>
      <trkpt lat="37.831785008311272" lon="-2.097062990069389">
        <ele>1073.3</ele>
        <time>2018-04-18T11:58:14Z</time>
      </trkpt>
      <trkpt lat="37.831791965290904" lon="-2.097098026424646">
        <ele>1073.3</ele>
        <time>2018-04-18T11:57:39Z</time>
      </trkpt>
      <trkpt lat="37.831779979169369" lon="-2.097077993676066">
        <ele>1075.7</ele>
        <time>2018-04-18T11:57:05Z</time>
      </trkpt>
      <trkpt lat="37.831787019968033" lon="-2.097032982856035">
        <ele>1074.7</ele>
        <time>2018-04-18T11:56:28Z</time>
      </trkpt>
      <trkpt lat="37.831778973340988" lon="-2.097022002562881">
        <ele>1071.3</ele>
        <time>2018-04-18T11:55:57Z</time>
      </trkpt>
      <trkpt lat="37.831784002482891" lon="-2.097010016441345">
        <ele>1073.3</ele>
        <time>2018-04-18T11:55:23Z</time>
      </trkpt>
      <trkpt lat="37.831776039674878" lon="-2.097053015604615">
        <ele>1080.4000000000001</ele>
        <time>2018-04-18T11:54:45Z</time>
      </trkpt>
      <trkpt lat="37.831774028018117" lon="-2.097068019211292">
        <ele>1081.4000000000001</ele>
        <time>2018-04-18T11:54:16Z</time>
      </trkpt>
      <trkpt lat="37.831764975562692" lon="-2.097057960927486">
        <ele>1084.4000000000001</ele>
        <time>2018-04-18T11:53:45Z</time>
      </trkpt>
      <trkpt lat="37.831773022189736" lon="-2.097121998667717">
        <ele>1089.7</ele>
        <time>2018-04-18T11:53:11Z</time>
      </trkpt>
      <trkpt lat="37.831747038289905" lon="-2.097109006717801">
        <ele>1088.2</ele>
        <time>2018-04-18T11:52:33Z</time>
      </trkpt>
      <trkpt lat="37.83178199082613" lon="-2.097183018922806">
        <ele>1091.5999999999999</ele>
        <time>2018-04-18T11:51:56Z</time>
      </trkpt>
      <trkpt lat="37.83180202357471" lon="-2.097185030579567">
        <ele>1094</ele>
        <time>2018-04-18T11:51:30Z</time>
      </trkpt>
      <trkpt lat="37.831762963905931" lon="-2.097231969237328">
        <ele>1100.7</ele>
        <time>2018-04-18T11:51:05Z</time>
      </trkpt>
      <trkpt lat="37.831755001097918" lon="-2.097283015027642">
        <ele>1106</ele>
        <time>2018-04-18T11:50:39Z</time>
      </trkpt>
      <trkpt lat="37.831752989441156" lon="-2.097279997542501">
        <ele>1106.5</ele>
        <time>2018-04-18T11:50:18Z</time>
      </trkpt>
      <trkpt lat="37.831745026633143" lon="-2.097243033349514">
        <ele>1100.2</ele>
        <time>2018-04-18T11:49:46Z</time>
      </trkpt>
      <trkpt lat="37.831755001097918" lon="-2.097189975902438">
        <ele>1094.8</ele>
        <time>2018-04-18T11:49:22Z</time>
      </trkpt>
      <trkpt lat="37.831736980006099" lon="-2.097190981730819">
        <ele>1090.5</ele>
        <time>2018-04-18T11:48:50Z</time>
      </trkpt>
      <trkpt lat="37.831737985834479" lon="-2.097198022529483">
        <ele>1091.9000000000001</ele>
        <time>2018-04-18T11:48:24Z</time>
      </trkpt>
      <trkpt lat="37.831750977784395" lon="-2.097277985885739">
        <ele>1104.9000000000001</ele>
        <time>2018-04-18T11:47:42Z</time>
      </trkpt>
      <trkpt lat="37.831784002482891" lon="-2.097262982279062">
        <ele>1100.0999999999999</ele>
        <time>2018-04-18T11:47:12Z</time>
      </trkpt>
      <trkpt lat="37.831790037453175" lon="-2.097260970622301">
        <ele>1103.5</ele>
        <time>2018-04-18T11:46:44Z</time>
      </trkpt>
      <trkpt lat="37.831800011917949" lon="-2.097261976450682">
        <ele>1097.2</ele>
        <time>2018-04-18T11:46:18Z</time>
      </trkpt>
      <trkpt lat="37.831755001097918" lon="-2.097196010872722">
        <ele>1093.9000000000001</ele>
        <time>2018-04-18T11:45:48Z</time>
      </trkpt>
      <trkpt lat="37.831772016361356" lon="-2.097154017537832">
        <ele>1092</ele>
        <time>2018-04-18T11:45:17Z</time>
      </trkpt>
      <trkpt lat="37.831780984997749" lon="-2.097188970074058">
        <ele>1086.0999999999999</ele>
        <time>2018-04-18T11:44:46Z</time>
      </trkpt>
      <trkpt lat="37.831794982776046" lon="-2.097158040851355">
        <ele>1084.2</ele>
        <time>2018-04-18T11:44:19Z</time>
      </trkpt>
      <trkpt lat="37.831815015524626" lon="-2.097137002274394">
        <ele>1077</ele>
        <time>2018-04-18T11:43:45Z</time>
      </trkpt>
      <trkpt lat="37.831851979717612" lon="-2.097133984789252">
        <ele>1074.7</ele>
        <time>2018-04-18T11:43:17Z</time>
      </trkpt>
      <trkpt lat="37.831856003031135" lon="-2.09708696231246">
        <ele>1070.3</ele>
        <time>2018-04-18T11:42:50Z</time>
      </trkpt>
      <trkpt lat="37.831857008859515" lon="-2.097070030868053">
        <ele>1068.4000000000001</ele>
        <time>2018-04-18T11:42:27Z</time>
      </trkpt>
      <trkpt lat="37.83188902772963" lon="-2.097036000341177">
        <ele>1062.0999999999999</ele>
        <time>2018-04-18T11:42:05Z</time>
      </trkpt>
      <trkpt lat="37.831882992759347" lon="-2.09699803031981">
        <ele>1059.3</ele>
        <time>2018-04-18T11:41:33Z</time>
      </trkpt>
      <trkpt lat="37.831848962232471" lon="-2.096956958994269">
        <ele>1060.2</ele>
        <time>2018-04-18T11:41:02Z</time>
      </trkpt>
      <trkpt lat="37.831828007474542" lon="-2.097006998956204">
        <ele>1062.5999999999999</ele>
        <time>2018-04-18T11:40:41Z</time>
      </trkpt>
      <trkpt lat="37.831815015524626" lon="-2.097046980634332">
        <ele>1066</ele>
        <time>2018-04-18T11:40:18Z</time>
      </trkpt>
      <trkpt lat="37.831813003867865" lon="-2.097028959542513">
        <ele>1067.9000000000001</ele>
        <time>2018-04-18T11:39:50Z</time>
      </trkpt>
      <trkpt lat="37.831862038001418" lon="-2.097028037533164">
        <ele>1061.7</ele>
        <time>2018-04-18T11:39:24Z</time>
      </trkpt>
      <trkpt lat="37.831873018294573" lon="-2.096980009227991">
        <ele>1057.3</ele>
        <time>2018-04-18T11:38:59Z</time>
      </trkpt>
      <trkpt lat="37.831880981102586" lon="-2.096965005621314">
        <ele>1050.7</ele>
        <time>2018-04-18T11:38:34Z</time>
      </trkpt>
      <trkpt lat="37.83188802190125" lon="-2.096960982307792">
        <ele>1046.3</ele>
        <time>2018-04-18T11:38:13Z</time>
      </trkpt>
      <trkpt lat="37.831899002194405" lon="-2.096952013671398">
        <ele>1044.4000000000001</ele>
        <time>2018-04-18T11:37:54Z</time>
      </trkpt>
      <trkpt lat="37.831891961395741" lon="-2.096925023943186">
        <ele>1042.5</ele>
        <time>2018-04-18T11:37:31Z</time>
      </trkpt>
      <trkpt lat="37.831882992759347" lon="-2.096880013123155">
        <ele>1033.4000000000001</ele>
        <time>2018-04-18T11:37:08Z</time>
      </trkpt>
      <trkpt lat="37.831908976659179" lon="-2.09682896733284">
        <ele>1022.8</ele>
        <time>2018-04-18T11:36:43Z</time>
      </trkpt>
      <trkpt lat="37.831914005801082" lon="-2.096812035888434">
        <ele>1017.6</ele>
        <time>2018-04-18T11:36:23Z</time>
      </trkpt>
      <trkpt lat="37.831901013851166" lon="-2.096788985654712">
        <ele>1018.6</ele>
        <time>2018-04-18T11:36:07Z</time>
      </trkpt>
      <trkpt lat="37.83186899498105" lon="-2.09674003534019">
        <ele>1018</ele>
        <time>2018-04-18T11:35:57Z</time>
      </trkpt>
      <trkpt lat="37.831857008859515" lon="-2.096728971228004">
        <ele>1018.1</ele>
        <time>2018-04-18T11:35:56Z</time>
      </trkpt>
      <trkpt lat="37.831663973629475" lon="-2.096627969294787">
        <ele>1017.1</ele>
        <time>2018-04-18T11:35:48Z</time>
      </trkpt>
      <trkpt lat="37.831403966993093" lon="-2.0964390411973">
        <ele>1017</ele>
        <time>2018-04-18T11:35:37Z</time>
      </trkpt>
      <trkpt lat="37.831276981160045" lon="-2.096209041774273">
        <ele>1015.2</ele>
        <time>2018-04-18T11:35:22Z</time>
      </trkpt>
      <trkpt lat="37.831226019188762" lon="-2.096106028184295">
        <ele>1012.3</ele>
        <time>2018-04-18T11:35:15Z</time>
      </trkpt>
      <trkpt lat="37.831215960904956" lon="-2.096094964072108">
        <ele>1011.7</ele>
        <time>2018-04-18T11:35:14Z</time>
      </trkpt>
      <trkpt lat="37.831206992268562" lon="-2.096084989607334">
        <ele>1011.7</ele>
        <time>2018-04-18T11:35:13Z</time>
      </trkpt>
      <trkpt lat="37.831199029460549" lon="-2.09607501514256">
        <ele>1011.3</ele>
        <time>2018-04-18T11:35:12Z</time>
      </trkpt>
      <trkpt lat="37.831189977005124" lon="-2.096062023192644">
        <ele>1011.3</ele>
        <time>2018-04-18T11:35:11Z</time>
      </trkpt>
      <trkpt lat="37.831183020025492" lon="-2.096050037071109">
        <ele>1010.3</ele>
        <time>2018-04-18T11:35:10Z</time>
      </trkpt>
      <trkpt lat="37.831061985343695" lon="-2.095964960753918">
        <ele>1005.9</ele>
        <time>2018-04-18T11:34:58Z</time>
      </trkpt>
      <trkpt lat="37.831049999222159" lon="-2.095958003774285">
        <ele>1005.4</ele>
        <time>2018-04-18T11:34:57Z</time>
      </trkpt>
      <trkpt lat="37.831038013100624" lon="-2.095950040966272">
        <ele>1005.5</ele>
        <time>2018-04-18T11:34:56Z</time>
      </trkpt>
      <trkpt lat="37.831027032807469" lon="-2.095940988510847">
        <ele>1005</ele>
        <time>2018-04-18T11:34:55Z</time>
      </trkpt>
      <trkpt lat="37.831014962866902" lon="-2.095931014046073">
        <ele>1004.5</ele>
        <time>2018-04-18T11:34:54Z</time>
      </trkpt>
      <trkpt lat="37.831002976745367" lon="-2.095919027924538">
        <ele>1004.5</ele>
        <time>2018-04-18T11:34:53Z</time>
      </trkpt>
      <trkpt lat="37.830993002280593" lon="-2.095907041803002">
        <ele>1003.9</ele>
        <time>2018-04-18T11:34:52Z</time>
      </trkpt>
      <trkpt lat="37.830673987045884" lon="-2.095598001033068">
        <ele>1002.6</ele>
        <time>2018-04-18T11:34:24Z</time>
      </trkpt>
      <trkpt lat="37.829979965463281" lon="-2.095357021316886">
        <ele>1000.6</ele>
        <time>2018-04-18T11:33:46Z</time>
      </trkpt>
      <trkpt lat="37.829961022362113" lon="-2.095356015488505">
        <ele>1000.7</ele>
        <time>2018-04-18T11:33:45Z</time>
      </trkpt>
      <trkpt lat="37.829940989613533" lon="-2.095355009660125">
        <ele>1000.7</ele>
        <time>2018-04-18T11:33:44Z</time>
      </trkpt>
      <trkpt lat="37.829921040683985" lon="-2.095355009660125">
        <ele>1000.6</ele>
        <time>2018-04-18T11:33:43Z</time>
      </trkpt>
      <trkpt lat="37.829901007935405" lon="-2.095358027145267">
        <ele>1000.7</ele>
        <time>2018-04-18T11:33:42Z</time>
      </trkpt>
      <trkpt lat="37.829278986901045" lon="-2.095157029107213">
        <ele>997.70000000000005</ele>
        <time>2018-04-18T11:33:14Z</time>
      </trkpt>
      <trkpt lat="37.82894304022193" lon="-2.09508603438735">
        <ele>994.79999999999995</ele>
        <time>2018-04-18T11:33:01Z</time>
      </trkpt>
      <trkpt lat="37.828762996941805" lon="-2.095362972468138">
        <ele>993</ele>
        <time>2018-04-18T11:32:50Z</time>
      </trkpt>
      <trkpt lat="37.828743970021605" lon="-2.095416029915214">
        <ele>993</ele>
        <time>2018-04-18T11:32:49Z</time>
      </trkpt>
      <trkpt lat="37.828625030815601" lon="-2.095522982999682">
        <ele>994</ele>
        <time>2018-04-18T11:32:46Z</time>
      </trkpt>
      <trkpt lat="37.828350020572543" lon="-2.09560202434659">
        <ele>992.89999999999998</ele>
        <time>2018-04-18T11:32:33Z</time>
      </trkpt>
      <trkpt lat="37.828091019764543" lon="-2.095357021316886">
        <ele>988.10000000000002</ele>
        <time>2018-04-18T11:32:16Z</time>
      </trkpt>
      <trkpt lat="37.827523984014988" lon="-2.094882018864155">
        <ele>982.89999999999998</ele>
        <time>2018-04-18T11:31:46Z</time>
      </trkpt>
      <trkpt lat="37.827259032055736" lon="-2.094520004466176">
        <ele>979.89999999999998</ele>
        <time>2018-04-18T11:31:29Z</time>
      </trkpt>
      <trkpt lat="37.826967006549239" lon="-2.094053970649838">
        <ele>975.60000000000002</ele>
        <time>2018-04-18T11:31:09Z</time>
      </trkpt>
      <trkpt lat="37.826745975762606" lon="-2.093680975958705">
        <ele>972.20000000000005</ele>
        <time>2018-04-18T11:30:54Z</time>
      </trkpt>
      <trkpt lat="37.826641034334898" lon="-2.093188036233187">
        <ele>968.79999999999995</ele>
        <time>2018-04-18T11:30:39Z</time>
      </trkpt>
      <trkpt lat="37.826456967741251" lon="-2.092884024605155">
        <ele>967.89999999999998</ele>
        <time>2018-04-18T11:30:28Z</time>
      </trkpt>
      <trkpt lat="37.826438024640083" lon="-2.092854017391801">
        <ele>968.29999999999995</ele>
        <time>2018-04-18T11:30:27Z</time>
      </trkpt>
      <trkpt lat="37.826406005769968" lon="-2.092823004350066">
        <ele>968.29999999999995</ele>
        <time>2018-04-18T11:28:47Z</time>
      </trkpt>
      <trkpt lat="37.826403994113207" lon="-2.092808000743389">
        <ele>968.39999999999998</ele>
        <time>2018-04-18T11:28:46Z</time>
      </trkpt>
      <trkpt lat="37.826396031305194" lon="-2.092798026278615">
        <ele>967.79999999999995</ele>
        <time>2018-04-18T11:28:45Z</time>
      </trkpt>
      <trkpt lat="37.826387984678149" lon="-2.092785034328699">
        <ele>967.79999999999995</ele>
        <time>2018-04-18T11:28:44Z</time>
      </trkpt>
      <trkpt lat="37.826371975243092" lon="-2.092722002416849">
        <ele>967.39999999999998</ele>
        <time>2018-04-18T11:28:40Z</time>
      </trkpt>
      <trkpt lat="37.826370969414711" lon="-2.09270398132503">
        <ele>966.79999999999995</ele>
        <time>2018-04-18T11:28:39Z</time>
      </trkpt>
      <trkpt lat="37.826370969414711" lon="-2.092685960233212">
        <ele>966.89999999999998</ele>
        <time>2018-04-18T11:28:38Z</time>
      </trkpt>
      <trkpt lat="37.826371975243092" lon="-2.092666011303663">
        <ele>966.89999999999998</ele>
        <time>2018-04-18T11:28:37Z</time>
      </trkpt>
      <trkpt lat="37.826370969414711" lon="-2.092647990211844">
        <ele>966.29999999999995</ele>
        <time>2018-04-18T11:28:36Z</time>
      </trkpt>
      <trkpt lat="37.826371975243092" lon="-2.092628963291645">
        <ele>966.29999999999995</ele>
        <time>2018-04-18T11:28:35Z</time>
      </trkpt>
      <trkpt lat="37.826378010213375" lon="-2.092610020190477">
        <ele>965.79999999999995</ele>
        <time>2018-04-18T11:28:34Z</time>
      </trkpt>
      <trkpt lat="37.826379016041756" lon="-2.092593004927039">
        <ele>965.89999999999998</ele>
        <time>2018-04-18T11:28:33Z</time>
      </trkpt>
      <trkpt lat="37.826377004384995" lon="-2.092578001320362">
        <ele>965.89999999999998</ele>
        <time>2018-04-18T11:28:32Z</time>
      </trkpt>
      <trkpt lat="37.826371975243092" lon="-2.092562997713685">
        <ele>965.29999999999995</ele>
        <time>2018-04-18T11:28:31Z</time>
      </trkpt>
      <trkpt lat="37.82636702992022" lon="-2.092546988278627">
        <ele>964.89999999999998</ele>
        <time>2018-04-18T11:28:30Z</time>
      </trkpt>
      <trkpt lat="37.82636702992022" lon="-2.09253097884357">
        <ele>964.39999999999998</ele>
        <time>2018-04-18T11:28:29Z</time>
      </trkpt>
      <trkpt lat="37.826357977464795" lon="-2.09250801242888">
        <ele>964.89999999999998</ele>
        <time>2018-04-18T11:28:17Z</time>
      </trkpt>
      <trkpt lat="37.826331993564963" lon="-2.092412039637566">
        <ele>963.39999999999998</ele>
        <time>2018-04-18T11:28:04Z</time>
      </trkpt>
      <trkpt lat="37.826150022447109" lon="-2.092228978872299">
        <ele>961.5</ele>
        <time>2018-04-18T11:27:51Z</time>
      </trkpt>
      <trkpt lat="37.826039968058467" lon="-2.092235013842583">
        <ele>959.60000000000002</ele>
        <time>2018-04-18T11:27:45Z</time>
      </trkpt>
      <trkpt lat="37.825758000835776" lon="-2.092277007177472">
        <ele>956.79999999999995</ele>
        <time>2018-04-18T11:27:33Z</time>
      </trkpt>
      <trkpt lat="37.824975969269872" lon="-2.091904012486339">
        <ele>956.79999999999995</ele>
        <time>2018-04-18T11:27:19Z</time>
      </trkpt>
      <trkpt lat="37.824916038662195" lon="-2.091878028586507">
        <ele>957.20000000000005</ele>
        <time>2018-04-18T11:27:18Z</time>
      </trkpt>
      <trkpt lat="37.824857030063868" lon="-2.091862019151449">
        <ele>958.20000000000005</ele>
        <time>2018-04-18T11:27:17Z</time>
      </trkpt>
      <trkpt lat="37.824743958190084" lon="-2.091861013323069">
        <ele>958.20000000000005</ele>
        <time>2018-04-18T11:27:15Z</time>
      </trkpt>
      <trkpt lat="37.82469199039042" lon="-2.091867970302701">
        <ele>958.79999999999995</ele>
        <time>2018-04-18T11:27:14Z</time>
      </trkpt>
      <trkpt lat="37.824645973742008" lon="-2.091884985566139">
        <ele>958.70000000000005</ele>
        <time>2018-04-18T11:27:13Z</time>
      </trkpt>
      <trkpt lat="37.824450004845858" lon="-2.092021023854613">
        <ele>960.60000000000002</ele>
        <time>2018-04-18T11:27:08Z</time>
      </trkpt>
      <trkpt lat="37.824412034824491" lon="-2.092044996097684">
        <ele>961.20000000000005</ele>
        <time>2018-04-18T11:27:07Z</time>
      </trkpt>
      <trkpt lat="37.824372975155711" lon="-2.092065028846264">
        <ele>961.60000000000002</ele>
        <time>2018-04-18T11:27:06Z</time>
      </trkpt>
      <trkpt lat="37.824335005134344" lon="-2.092080032452941">
        <ele>961.60000000000002</ele>
        <time>2018-04-18T11:27:05Z</time>
      </trkpt>
      <trkpt lat="37.824299968779087" lon="-2.092090006917715">
        <ele>961.70000000000005</ele>
        <time>2018-04-18T11:27:04Z</time>
      </trkpt>
      <trkpt lat="37.824266022071242" lon="-2.092097969725728">
        <ele>961.60000000000002</ele>
        <time>2018-04-18T11:27:03Z</time>
      </trkpt>
      <trkpt lat="37.824227968230844" lon="-2.09210199303925">
        <ele>961.70000000000005</ele>
        <time>2018-04-18T11:27:02Z</time>
      </trkpt>
      <trkpt lat="37.823839969933033" lon="-2.092020018026233">
        <ele>964.39999999999998</ele>
        <time>2018-04-18T11:26:56Z</time>
      </trkpt>
      <trkpt lat="37.823305036872625" lon="-2.091981964185834">
        <ele>968.89999999999998</ele>
        <time>2018-04-18T11:26:48Z</time>
      </trkpt>
      <trkpt lat="37.823133962228894" lon="-2.091913986951113">
        <ele>970.79999999999995</ele>
        <time>2018-04-18T11:26:45Z</time>
      </trkpt>
      <trkpt lat="37.822640016674995" lon="-2.091491958126426">
        <ele>974.60000000000002</ele>
        <time>2018-04-18T11:26:34Z</time>
      </trkpt>
      <trkpt lat="37.822265010327101" lon="-2.091187024489045">
        <ele>976.5</ele>
        <time>2018-04-18T11:26:20Z</time>
      </trkpt>
      <trkpt lat="37.821939960122108" lon="-2.090959036722779">
        <ele>976.5</ele>
        <time>2018-04-18T11:26:06Z</time>
      </trkpt>
      <trkpt lat="37.821666039526463" lon="-2.090773964300752">
        <ele>975.10000000000002</ele>
        <time>2018-04-18T11:25:52Z</time>
      </trkpt>
      <trkpt lat="37.821386000141501" lon="-2.090581012889743">
        <ele>973.20000000000005</ele>
        <time>2018-04-18T11:25:37Z</time>
      </trkpt>
      <trkpt lat="37.82073900103569" lon="-2.090465007349849">
        <ele>967.39999999999998</ele>
        <time>2018-04-18T11:25:06Z</time>
      </trkpt>
      <trkpt lat="37.820457033813" lon="-2.090382026508451">
        <ele>967</ele>
        <time>2018-04-18T11:24:51Z</time>
      </trkpt>
      <trkpt lat="37.820259975269437" lon="-2.090113973245025">
        <ele>965.10000000000002</ele>
        <time>2018-04-18T11:24:36Z</time>
      </trkpt>
      <trkpt lat="37.820096025243402" lon="-2.089854972437024">
        <ele>962.10000000000002</ele>
        <time>2018-04-18T11:24:22Z</time>
      </trkpt>
      <trkpt lat="37.819561008363962" lon="-2.08943503908813">
        <ele>958.79999999999995</ele>
        <time>2018-04-18T11:23:52Z</time>
      </trkpt>
      <trkpt lat="37.819272000342607" lon="-2.089304029941559">
        <ele>957.39999999999998</ele>
        <time>2018-04-18T11:23:38Z</time>
      </trkpt>
      <trkpt lat="37.818925995379686" lon="-2.089161034673452">
        <ele>955.89999999999998</ele>
        <time>2018-04-18T11:23:21Z</time>
      </trkpt>
      <trkpt lat="37.81837304122746" lon="-2.088947966694832">
        <ele>952.20000000000005</ele>
        <time>2018-04-18T11:22:53Z</time>
      </trkpt>
      <trkpt lat="37.818159973248839" lon="-2.088787034153938">
        <ele>950.29999999999995</ele>
        <time>2018-04-18T11:22:40Z</time>
      </trkpt>
      <trkpt lat="37.817860990762711" lon="-2.088519986718893">
        <ele>948.39999999999998</ele>
        <time>2018-04-18T11:22:22Z</time>
      </trkpt>
      <trkpt lat="37.81757902354002" lon="-2.088278001174331">
        <ele>944</ele>
        <time>2018-04-18T11:22:05Z</time>
      </trkpt>
      <trkpt lat="37.817350029945374" lon="-2.08808396011591">
        <ele>942.10000000000002</ele>
        <time>2018-04-18T11:21:52Z</time>
      </trkpt>
      <trkpt lat="37.817094968631864" lon="-2.087844992056489">
        <ele>939.70000000000005</ele>
        <time>2018-04-18T11:21:37Z</time>
      </trkpt>
      <trkpt lat="37.816898999735713" lon="-2.087442995980382">
        <ele>937.29999999999995</ele>
        <time>2018-04-18T11:21:18Z</time>
      </trkpt>
      <trkpt lat="37.816739995032549" lon="-2.087118029594421">
        <ele>935.5</ele>
        <time>2018-04-18T11:21:02Z</time>
      </trkpt>
      <trkpt lat="37.816579984501004" lon="-2.086818963289261">
        <ele>932.60000000000002</ele>
        <time>2018-04-18T11:20:47Z</time>
      </trkpt>
      <trkpt lat="37.816408993676305" lon="-2.086464995518327">
        <ele>930.60000000000002</ele>
        <time>2018-04-18T11:20:30Z</time>
      </trkpt>
      <trkpt lat="37.816273039206862" lon="-2.086142040789127">
        <ele>928.70000000000005</ele>
        <time>2018-04-18T11:20:13Z</time>
      </trkpt>
      <trkpt lat="37.816107999533415" lon="-2.085872981697321">
        <ele>926.29999999999995</ele>
        <time>2018-04-18T11:19:58Z</time>
      </trkpt>
      <trkpt lat="37.815928040072322" lon="-2.085625967010856">
        <ele>923.89999999999998</ele>
        <time>2018-04-18T11:19:43Z</time>
      </trkpt>
      <trkpt lat="37.815694017335773" lon="-2.085308041423559">
        <ele>921</ele>
        <time>2018-04-18T11:19:25Z</time>
      </trkpt>
      <trkpt lat="37.8154940251261" lon="-2.085005035623908">
        <ele>918.20000000000005</ele>
        <time>2018-04-18T11:19:09Z</time>
      </trkpt>
      <trkpt lat="37.815271988511086" lon="-2.084686020389199">
        <ele>914.79999999999995</ele>
        <time>2018-04-18T11:18:52Z</time>
      </trkpt>
      <trkpt lat="37.815050035715103" lon="-2.084336997941136">
        <ele>911.39999999999998</ele>
        <time>2018-04-18T11:18:35Z</time>
      </trkpt>
      <trkpt lat="37.81483001075685" lon="-2.083880016580224">
        <ele>907.5</ele>
        <time>2018-04-18T11:18:17Z</time>
      </trkpt>
      <trkpt lat="37.81467704102397" lon="-2.083443989977241">
        <ele>906.60000000000002</ele>
        <time>2018-04-18T11:18:02Z</time>
      </trkpt>
      <trkpt lat="37.814536979421973" lon="-2.083130003884435">
        <ele>905.60000000000002</ele>
        <time>2018-04-18T11:17:49Z</time>
      </trkpt>
      <trkpt lat="37.814274039119482" lon="-2.082771006971598">
        <ele>903.20000000000005</ele>
        <time>2018-04-18T11:17:33Z</time>
      </trkpt>
      <trkpt lat="37.814256018027663" lon="-2.082749968394637">
        <ele>903.20000000000005</ele>
        <time>2018-04-18T11:17:32Z</time>
      </trkpt>
      <trkpt lat="37.814236991107464" lon="-2.082730019465089">
        <ele>903.10000000000002</ele>
        <time>2018-04-18T11:17:31Z</time>
      </trkpt>
      <trkpt lat="37.814218970015645" lon="-2.082705963402987">
        <ele>903.10000000000002</ele>
        <time>2018-04-18T11:17:30Z</time>
      </trkpt>
      <trkpt lat="37.814203966408968" lon="-2.082678973674774">
        <ele>903.20000000000005</ele>
        <time>2018-04-18T11:17:29Z</time>
      </trkpt>
      <trkpt lat="37.814190974459052" lon="-2.082653995603323">
        <ele>903.10000000000002</ele>
        <time>2018-04-18T11:17:28Z</time>
      </trkpt>
      <trkpt lat="37.813955023884773" lon="-2.082351995632052">
        <ele>901.70000000000005</ele>
        <time>2018-04-18T11:17:15Z</time>
      </trkpt>
      <trkpt lat="37.813701974228024" lon="-2.082017976790667">
        <ele>899.39999999999998</ele>
        <time>2018-04-18T11:17:01Z</time>
      </trkpt>
      <trkpt lat="37.813463006168604" lon="-2.081695022061467">
        <ele>898.29999999999995</ele>
        <time>2018-04-18T11:16:48Z</time>
      </trkpt>
      <trkpt lat="37.81306997872889" lon="-2.081562001258135">
        <ele>897.79999999999995</ele>
        <time>2018-04-18T11:16:33Z</time>
      </trkpt>
      <trkpt lat="37.812543008476496" lon="-2.081699967384338">
        <ele>895.5</ele>
        <time>2018-04-18T11:16:13Z</time>
      </trkpt>
      <trkpt lat="37.812136989086866" lon="-2.081786971539259">
        <ele>895</ele>
        <time>2018-04-18T11:15:57Z</time>
      </trkpt>
      <trkpt lat="37.811728036031127" lon="-2.082051001489162">
        <ele>891.10000000000002</ele>
        <time>2018-04-18T11:15:39Z</time>
      </trkpt>
      <trkpt lat="37.811230989173055" lon="-2.082070028409362">
        <ele>891.10000000000002</ele>
        <time>2018-04-18T11:15:20Z</time>
      </trkpt>
      <trkpt lat="37.810679962858558" lon="-2.081984030082822">
        <ele>888.60000000000002</ele>
        <time>2018-04-18T11:15:01Z</time>
      </trkpt>
      <trkpt lat="37.810194985941052" lon="-2.081996016204357">
        <ele>886.70000000000005</ele>
        <time>2018-04-18T11:14:44Z</time>
      </trkpt>
      <trkpt lat="37.809686958789825" lon="-2.082020994275808">
        <ele>884.29999999999995</ele>
        <time>2018-04-18T11:14:26Z</time>
      </trkpt>
      <trkpt lat="37.809192007407546" lon="-2.082029962912202">
        <ele>881.39999999999998</ele>
        <time>2018-04-18T11:14:08Z</time>
      </trkpt>
      <trkpt lat="37.808670988306403" lon="-2.08198101259768">
        <ele>880</ele>
        <time>2018-04-18T11:13:49Z</time>
      </trkpt>
      <trkpt lat="37.808174025267363" lon="-2.081886967644095">
        <ele>878.20000000000005</ele>
        <time>2018-04-18T11:13:32Z</time>
      </trkpt>
      <trkpt lat="37.807799018919468" lon="-2.081773979589343">
        <ele>877.10000000000002</ele>
        <time>2018-04-18T11:13:19Z</time>
      </trkpt>
      <trkpt lat="37.807350000366569" lon="-2.081439038738608">
        <ele>875.29999999999995</ele>
        <time>2018-04-18T11:13:01Z</time>
      </trkpt>
      <trkpt lat="37.806893019005656" lon="-2.081076018512249">
        <ele>873.89999999999998</ele>
        <time>2018-04-18T11:12:43Z</time>
      </trkpt>
      <trkpt lat="37.806480964645743" lon="-2.080723978579044">
        <ele>872</ele>
        <time>2018-04-18T11:12:28Z</time>
      </trkpt>
      <trkpt lat="37.805939996615052" lon="-2.080272026360035">
        <ele>870.89999999999998</ele>
        <time>2018-04-18T11:12:10Z</time>
      </trkpt>
      <trkpt lat="37.804889995604753" lon="-2.079755030572414">
        <ele>869.89999999999998</ele>
        <time>2018-04-18T11:11:38Z</time>
      </trkpt>
      <trkpt lat="37.804395966231823" lon="-2.079584039747715">
        <ele>869.39999999999998</ele>
        <time>2018-04-18T11:11:21Z</time>
      </trkpt>
      <trkpt lat="37.804175019264221" lon="-2.07929503172636">
        <ele>868.89999999999998</ele>
        <time>2018-04-18T11:11:09Z</time>
      </trkpt>
      <trkpt lat="37.803806969895959" lon="-2.078708969056606">
        <ele>867.5</ele>
        <time>2018-04-18T11:10:49Z</time>
      </trkpt>
      <trkpt lat="37.803515028208494" lon="-2.078144028782845">
        <ele>864.10000000000002</ele>
        <time>2018-04-18T11:10:32Z</time>
      </trkpt>
      <trkpt lat="37.803242029622197" lon="-2.077466016635299">
        <ele>860.20000000000005</ele>
        <time>2018-04-18T11:10:15Z</time>
      </trkpt>
      <trkpt lat="37.80303399078548" lon="-2.076958995312452">
        <ele>859.29999999999995</ele>
        <time>2018-04-18T11:10:06Z</time>
      </trkpt>
      <trkpt lat="37.803005995228887" lon="-2.076895041391254">
        <ele>859.20000000000005</ele>
        <time>2018-04-18T11:10:05Z</time>
      </trkpt>
      <trkpt lat="37.802974982187152" lon="-2.076833015307784">
        <ele>859.20000000000005</ele>
        <time>2018-04-18T11:10:04Z</time>
      </trkpt>
      <trkpt lat="37.802941035479307" lon="-2.076771995052695">
        <ele>859.79999999999995</ele>
        <time>2018-04-18T11:10:03Z</time>
      </trkpt>
      <trkpt lat="37.802903987467289" lon="-2.076712986454368">
        <ele>859.79999999999995</ele>
        <time>2018-04-18T11:10:02Z</time>
      </trkpt>
      <trkpt lat="37.8028619941324" lon="-2.076655989512801">
        <ele>859.20000000000005</ele>
        <time>2018-04-18T11:10:01Z</time>
      </trkpt>
      <trkpt lat="37.802813965827227" lon="-2.076608967036009">
        <ele>859.70000000000005</ele>
        <time>2018-04-18T11:10:00Z</time>
      </trkpt>
      <trkpt lat="37.802533004432917" lon="-2.076527997851372">
        <ele>860.79999999999995</ele>
        <time>2018-04-18T11:09:55Z</time>
      </trkpt>
      <trkpt lat="37.802378023043275" lon="-2.076584994792938">
        <ele>862.10000000000002</ele>
        <time>2018-04-18T11:09:52Z</time>
      </trkpt>
      <trkpt lat="37.801818028092384" lon="-2.076693959534168">
        <ele>864.5</ele>
        <time>2018-04-18T11:09:39Z</time>
      </trkpt>
      <trkpt lat="37.801785003393888" lon="-2.076692031696439">
        <ele>864.60000000000002</ele>
        <time>2018-04-18T11:09:38Z</time>
      </trkpt>
      <trkpt lat="37.801750972867012" lon="-2.076691025868058">
        <ele>865.10000000000002</ele>
        <time>2018-04-18T11:09:37Z</time>
      </trkpt>
      <trkpt lat="37.801716020330787" lon="-2.076691025868058">
        <ele>865.5</ele>
        <time>2018-04-18T11:09:36Z</time>
      </trkpt>
      <trkpt lat="37.80161501839757" lon="-2.076712986454368">
        <ele>867.5</ele>
        <time>2018-04-18T11:09:33Z</time>
      </trkpt>
      <trkpt lat="37.801585011184216" lon="-2.076713992282748">
        <ele>868</ele>
        <time>2018-04-18T11:09:32Z</time>
      </trkpt>
      <trkpt lat="37.801560033112764" lon="-2.076712986454368">
        <ele>869.10000000000002</ele>
        <time>2018-04-18T11:09:31Z</time>
      </trkpt>
      <trkpt lat="37.801537988707423" lon="-2.076709968969226">
        <ele>869.60000000000002</ele>
        <time>2018-04-18T11:09:30Z</time>
      </trkpt>
      <trkpt lat="37.801537988707423" lon="-2.076691025868058">
        <ele>869.60000000000002</ele>
        <time>2018-04-18T11:09:17Z</time>
      </trkpt>
      <trkpt lat="37.801557015627623" lon="-2.076675016433001">
        <ele>870.5</ele>
        <time>2018-04-18T11:09:06Z</time>
      </trkpt>
      <trkpt lat="37.801578976213932" lon="-2.076665963977575">
        <ele>870.60000000000002</ele>
        <time>2018-04-18T11:09:05Z</time>
      </trkpt>
      <trkpt lat="37.801590962335467" lon="-2.076650038361549">
        <ele>870.60000000000002</ele>
        <time>2018-04-18T11:09:04Z</time>
      </trkpt>
      <trkpt lat="37.801593979820609" lon="-2.076617013663054">
        <ele>870</ele>
        <time>2018-04-18T11:08:54Z</time>
      </trkpt>
      <trkpt lat="37.801565984264016" lon="-2.076617013663054">
        <ele>868.60000000000002</ele>
        <time>2018-04-18T11:08:39Z</time>
      </trkpt>
      <trkpt lat="37.801547963172197" lon="-2.07617998123169">
        <ele>868.5</ele>
        <time>2018-04-18T11:08:29Z</time>
      </trkpt>
      <trkpt lat="37.801694981753826" lon="-2.075605988502502">
        <ele>867.5</ele>
        <time>2018-04-18T11:08:15Z</time>
      </trkpt>
      <trkpt lat="37.80180998146534" lon="-2.075188988819718">
        <ele>865.10000000000002</ele>
        <time>2018-04-18T11:08:02Z</time>
      </trkpt>
      <trkpt lat="37.801829008385539" lon="-2.074608039110899">
        <ele>861.79999999999995</ele>
        <time>2018-04-18T11:07:43Z</time>
      </trkpt>
      <trkpt lat="37.801892040297389" lon="-2.074156003072858">
        <ele>857.39999999999998</ele>
        <time>2018-04-18T11:07:28Z</time>
      </trkpt>
      <trkpt lat="37.801653994247317" lon="-2.073920974507928">
        <ele>854.60000000000002</ele>
        <time>2018-04-18T11:07:17Z</time>
      </trkpt>
      <trkpt lat="37.80161602422595" lon="-2.07390395924449">
        <ele>854.60000000000002</ele>
        <time>2018-04-18T11:07:16Z</time>
      </trkpt>
      <trkpt lat="37.801578976213932" lon="-2.07388199865818">
        <ele>854.60000000000002</ele>
        <time>2018-04-18T11:07:15Z</time>
      </trkpt>
      <trkpt lat="37.801543017849326" lon="-2.073851991444826">
        <ele>854</ele>
        <time>2018-04-18T11:07:14Z</time>
      </trkpt>
      <trkpt lat="37.801512004807591" lon="-2.073817038908601">
        <ele>854.60000000000002</ele>
        <time>2018-04-18T11:07:13Z</time>
      </trkpt>
      <trkpt lat="37.801481997594237" lon="-2.073776973411441">
        <ele>854.5</ele>
        <time>2018-04-18T11:07:12Z</time>
      </trkpt>
      <trkpt lat="37.801445033401251" lon="-2.073691980913281">
        <ele>854.60000000000002</ele>
        <time>2018-04-18T11:07:10Z</time>
      </trkpt>
      <trkpt lat="37.801321987062693" lon="-2.073053028434515">
        <ele>857.5</ele>
        <time>2018-04-18T11:06:55Z</time>
      </trkpt>
      <trkpt lat="37.801259038969874" lon="-2.07267701625824">
        <ele>856.89999999999998</ele>
        <time>2018-04-18T11:06:42Z</time>
      </trkpt>
      <trkpt lat="37.800998026505113" lon="-2.072553969919682">
        <ele>855.89999999999998</ele>
        <time>2018-04-18T11:06:26Z</time>
      </trkpt>
      <trkpt lat="37.800661996006966" lon="-2.072623036801815">
        <ele>852.60000000000002</ele>
        <time>2018-04-18T11:06:09Z</time>
      </trkpt>
      <trkpt lat="37.800353961065412" lon="-2.072605015709996">
        <ele>850.60000000000002</ele>
        <time>2018-04-18T11:05:53Z</time>
      </trkpt>
      <trkpt lat="37.800337029621005" lon="-2.072620019316673">
        <ele>851.10000000000002</ele>
        <time>2018-04-18T11:05:52Z</time>
      </trkpt>
      <trkpt lat="37.800221024081111" lon="-2.072837026789784">
        <ele>848.20000000000005</ele>
        <time>2018-04-18T11:05:41Z</time>
      </trkpt>
      <trkpt lat="37.800040980800986" lon="-2.072691014036536">
        <ele>843.89999999999998</ele>
        <time>2018-04-18T11:05:26Z</time>
      </trkpt>
      <trkpt lat="37.799852974712849" lon="-2.072451040148735">
        <ele>841.10000000000002</ele>
        <time>2018-04-18T11:05:12Z</time>
      </trkpt>
      <trkpt lat="37.799673015251756" lon="-2.072230009362102">
        <ele>839.20000000000005</ele>
        <time>2018-04-18T11:04:59Z</time>
      </trkpt>
      <trkpt lat="37.799741998314857" lon="-2.071834970265627">
        <ele>837.79999999999995</ele>
        <time>2018-04-18T11:04:41Z</time>
      </trkpt>
      <trkpt lat="37.799970991909504" lon="-2.071526013314724">
        <ele>833.89999999999998</ele>
        <time>2018-04-18T11:04:23Z</time>
      </trkpt>
      <trkpt lat="37.800238961353898" lon="-2.071499023586512">
        <ele>830</ele>
        <time>2018-04-18T11:04:08Z</time>
      </trkpt>
      <trkpt lat="37.800257988274097" lon="-2.071506986394525">
        <ele>830</ele>
        <time>2018-04-18T11:04:07Z</time>
      </trkpt>
      <trkpt lat="37.800277015194297" lon="-2.07151897251606">
        <ele>829.5</ele>
        <time>2018-04-18T11:04:06Z</time>
      </trkpt>
      <trkpt lat="37.800296964123845" lon="-2.071530958637595">
        <ele>829.10000000000002</ele>
        <time>2018-04-18T11:04:05Z</time>
      </trkpt>
      <trkpt lat="37.800315991044044" lon="-2.071541016921401">
        <ele>828.60000000000002</ele>
        <time>2018-04-18T11:04:04Z</time>
      </trkpt>
      <trkpt lat="37.800334012135863" lon="-2.071548979729414">
        <ele>829.10000000000002</ele>
        <time>2018-04-18T11:04:03Z</time>
      </trkpt>
      <trkpt lat="37.80047700740397" lon="-2.071637995541096">
        <ele>828.5</ele>
        <time>2018-04-18T11:03:53Z</time>
      </trkpt>
      <trkpt lat="37.800651015713811" lon="-2.071573035791516">
        <ele>828.60000000000002</ele>
        <time>2018-04-18T11:03:43Z</time>
      </trkpt>
      <trkpt lat="37.800497962161899" lon="-2.071353010833263">
        <ele>826.20000000000005</ele>
        <time>2018-04-18T11:03:30Z</time>
      </trkpt>
      <trkpt lat="37.800259999930859" lon="-2.071128962561488">
        <ele>823.79999999999995</ele>
        <time>2018-04-18T11:03:16Z</time>
      </trkpt>
      <trkpt lat="37.800037041306496" lon="-2.070983033627272">
        <ele>822.29999999999995</ele>
        <time>2018-04-18T11:03:02Z</time>
      </trkpt>
      <trkpt lat="37.799749039113522" lon="-2.070939028635621">
        <ele>819</ele>
        <time>2018-04-18T11:02:47Z</time>
      </trkpt>
      <trkpt lat="37.799472017213702" lon="-2.071076994761825">
        <ele>816.10000000000002</ele>
        <time>2018-04-18T11:02:32Z</time>
      </trkpt>
      <trkpt lat="37.79918703250587" lon="-2.071270029991865">
        <ele>813.60000000000002</ele>
        <time>2018-04-18T11:02:15Z</time>
      </trkpt>
      <trkpt lat="37.798902969807386" lon="-2.071548979729414">
        <ele>808.29999999999995</ele>
        <time>2018-04-18T11:01:57Z</time>
      </trkpt>
      <trkpt lat="37.79888897202909" lon="-2.071565994992852">
        <ele>807.89999999999998</ele>
        <time>2018-04-18T11:01:56Z</time>
      </trkpt>
      <trkpt lat="37.798874974250793" lon="-2.071585021913052">
        <ele>807.89999999999998</ele>
        <time>2018-04-18T11:01:55Z</time>
      </trkpt>
      <trkpt lat="37.79886701144278" lon="-2.071607988327742">
        <ele>807.39999999999998</ele>
        <time>2018-04-18T11:01:54Z</time>
      </trkpt>
      <trkpt lat="37.798859970644116" lon="-2.071629026904702">
        <ele>806.79999999999995</ele>
        <time>2018-04-18T11:01:53Z</time>
      </trkpt>
      <trkpt lat="37.798767015337944" lon="-2.071685018017888">
        <ele>805.79999999999995</ele>
        <time>2018-04-18T11:01:48Z</time>
      </trkpt>
      <trkpt lat="37.798745976760983" lon="-2.071684012189508">
        <ele>805.39999999999998</ele>
        <time>2018-04-18T11:01:47Z</time>
      </trkpt>
      <trkpt lat="37.798723010346293" lon="-2.071679988875985">
        <ele>805.39999999999998</ele>
        <time>2018-04-18T11:01:46Z</time>
      </trkpt>
      <trkpt lat="37.798698032274842" lon="-2.071666996926069">
        <ele>805.29999999999995</ele>
        <time>2018-04-18T11:01:45Z</time>
      </trkpt>
      <trkpt lat="37.798675987869501" lon="-2.071648975834251">
        <ele>805.39999999999998</ele>
        <time>2018-04-18T11:01:44Z</time>
      </trkpt>
      <trkpt lat="37.798653021454811" lon="-2.071578986942768">
        <ele>804.79999999999995</ele>
        <time>2018-04-18T11:01:41Z</time>
      </trkpt>
      <trkpt lat="37.798729967325926" lon="-2.071278998628259">
        <ele>804.29999999999995</ele>
        <time>2018-04-18T11:01:29Z</time>
      </trkpt>
      <trkpt lat="37.798702977597713" lon="-2.071028966456652">
        <ele>801.39999999999998</ele>
        <time>2018-04-18T11:01:18Z</time>
      </trkpt>
      <trkpt lat="37.798313973471522" lon="-2.070713974535465">
        <ele>801.39999999999998</ele>
        <time>2018-04-18T11:01:05Z</time>
      </trkpt>
      <trkpt lat="37.797827990725636" lon="-2.070379033684731">
        <ele>798.5</ele>
        <time>2018-04-18T11:00:51Z</time>
      </trkpt>
      <trkpt lat="37.797496989369392" lon="-2.070035962387919">
        <ele>799.5</ele>
        <time>2018-04-18T11:00:39Z</time>
      </trkpt>
      <trkpt lat="37.797292973846197" lon="-2.069523995742202">
        <ele>802.5</ele>
        <time>2018-04-18T11:00:23Z</time>
      </trkpt>
      <trkpt lat="37.797185014933348" lon="-2.069059973582625">
        <ele>799.60000000000002</ele>
        <time>2018-04-18T11:00:08Z</time>
      </trkpt>
      <trkpt lat="37.797171017155051" lon="-2.068597041070461">
        <ele>797.70000000000005</ele>
        <time>2018-04-18T10:59:51Z</time>
      </trkpt>
      <trkpt lat="37.797141009941697" lon="-2.068214993923903">
        <ele>800.60000000000002</ele>
        <time>2018-04-18T10:59:35Z</time>
      </trkpt>
      <trkpt lat="37.797141009941697" lon="-2.06818800419569">
        <ele>800.60000000000002</ele>
        <time>2018-04-18T10:59:34Z</time>
      </trkpt>
      <trkpt lat="37.797142015770078" lon="-2.06816403195262">
        <ele>801</ele>
        <time>2018-04-18T10:59:33Z</time>
      </trkpt>
      <trkpt lat="37.797138998284936" lon="-2.068141987547278">
        <ele>801</ele>
        <time>2018-04-18T10:59:32Z</time>
      </trkpt>
      <trkpt lat="37.797136986628175" lon="-2.068119021132588">
        <ele>801</ele>
        <time>2018-04-18T10:59:31Z</time>
      </trkpt>
      <trkpt lat="37.797135980799794" lon="-2.068097982555628">
        <ele>801</ele>
        <time>2018-04-18T10:59:30Z</time>
      </trkpt>
      <trkpt lat="37.797137992456555" lon="-2.06807803362608">
        <ele>801</ele>
        <time>2018-04-18T10:59:29Z</time>
      </trkpt>
      <trkpt lat="37.797145033255219" lon="-2.068060012534261">
        <ele>801</ele>
        <time>2018-04-18T10:59:28Z</time>
      </trkpt>
      <trkpt lat="37.797143021598458" lon="-2.068047020584345">
        <ele>801.10000000000002</ele>
        <time>2018-04-18T10:59:27Z</time>
      </trkpt>
      <trkpt lat="37.797137992456555" lon="-2.068036962300539">
        <ele>801</ele>
        <time>2018-04-18T10:59:26Z</time>
      </trkpt>
      <trkpt lat="37.797132041305304" lon="-2.068026987835765">
        <ele>800.60000000000002</ele>
        <time>2018-04-18T10:59:25Z</time>
      </trkpt>
      <trkpt lat="37.797122988849878" lon="-2.068019025027752">
        <ele>800.60000000000002</ele>
        <time>2018-04-18T10:59:24Z</time>
      </trkpt>
      <trkpt lat="37.797112008556724" lon="-2.068007038906217">
        <ele>800.60000000000002</ele>
        <time>2018-04-18T10:59:23Z</time>
      </trkpt>
      <trkpt lat="37.797063980251551" lon="-2.067960016429424">
        <ele>800.60000000000002</ele>
        <time>2018-04-18T10:59:14Z</time>
      </trkpt>
      <trkpt lat="37.79693297110498" lon="-2.068027993664146">
        <ele>800</ele>
        <time>2018-04-18T10:59:06Z</time>
      </trkpt>
      <trkpt lat="37.796673970296979" lon="-2.068234020844102">
        <ele>798.70000000000005</ele>
        <time>2018-04-18T10:58:53Z</time>
      </trkpt>
      <trkpt lat="37.796573974192142" lon="-2.068235026672483">
        <ele>798.10000000000002</ele>
        <time>2018-04-18T10:58:48Z</time>
      </trkpt>
      <trkpt lat="37.796517983078957" lon="-2.068217005580664">
        <ele>798.10000000000002</ele>
        <time>2018-04-18T10:58:38Z</time>
      </trkpt>
      <trkpt lat="37.796507002785802" lon="-2.068218011409044">
        <ele>798.20000000000005</ele>
        <time>2018-04-18T10:58:37Z</time>
      </trkpt>
      <trkpt lat="37.796471966430545" lon="-2.068213988095522">
        <ele>797.60000000000002</ele>
        <time>2018-04-18T10:58:22Z</time>
      </trkpt>
      <trkpt lat="37.796464003622532" lon="-2.06820803694427">
        <ele>796.60000000000002</ele>
        <time>2018-04-18T10:57:56Z</time>
      </trkpt>
      <trkpt lat="37.796445982530713" lon="-2.068209964782">
        <ele>794.70000000000005</ele>
        <time>2018-04-18T10:57:26Z</time>
      </trkpt>
      <trkpt lat="37.796454029157758" lon="-2.068208958953619">
        <ele>795.79999999999995</ele>
        <time>2018-04-18T10:56:55Z</time>
      </trkpt>
      <trkpt lat="37.796450005844235" lon="-2.068204013630748">
        <ele>797.10000000000002</ele>
        <time>2018-04-18T10:56:45Z</time>
      </trkpt>
      <trkpt lat="37.796255964785814" lon="-2.06816403195262">
        <ele>798.60000000000002</ele>
        <time>2018-04-18T10:56:37Z</time>
      </trkpt>
      <trkpt lat="37.796221012249589" lon="-2.068151962012053">
        <ele>798.5</ele>
        <time>2018-04-18T10:56:36Z</time>
      </trkpt>
      <trkpt lat="37.79618002474308" lon="-2.068142993375659">
        <ele>799.10000000000002</ele>
        <time>2018-04-18T10:56:35Z</time>
      </trkpt>
      <trkpt lat="37.796135013923049" lon="-2.068137964233756">
        <ele>799.5</ele>
        <time>2018-04-18T10:56:34Z</time>
      </trkpt>
      <trkpt lat="37.796082962304354" lon="-2.068137964233756">
        <ele>800</ele>
        <time>2018-04-18T10:56:33Z</time>
      </trkpt>
      <trkpt lat="37.796028982847929" lon="-2.068150034174323">
        <ele>801</ele>
        <time>2018-04-18T10:56:32Z</time>
      </trkpt>
      <trkpt lat="37.795765036717057" lon="-2.068304009735584">
        <ele>803.39999999999998</ele>
        <time>2018-04-18T10:56:27Z</time>
      </trkpt>
      <trkpt lat="37.79570703394711" lon="-2.068335022777319">
        <ele>803.89999999999998</ele>
        <time>2018-04-18T10:56:26Z</time>
      </trkpt>
      <trkpt lat="37.79564400203526" lon="-2.068357989192009">
        <ele>804.39999999999998</ele>
        <time>2018-04-18T10:56:25Z</time>
      </trkpt>
      <trkpt lat="37.79557703062892" lon="-2.068367963656783">
        <ele>805</ele>
        <time>2018-04-18T10:56:24Z</time>
      </trkpt>
      <trkpt lat="37.79521401040256" lon="-2.06837902776897">
        <ele>814.60000000000002</ele>
        <time>2018-04-18T10:56:15Z</time>
      </trkpt>
      <trkpt lat="37.795195989310741" lon="-2.068377016112208">
        <ele>815.5</ele>
        <time>2018-04-18T10:56:14Z</time>
      </trkpt>
      <trkpt lat="37.795165982097387" lon="-2.068367963656783">
        <ele>818</ele>
        <time>2018-04-18T10:56:05Z</time>
      </trkpt>
      <trkpt lat="37.795143015682697" lon="-2.068370981141925">
        <ele>817.5</ele>
        <time>2018-04-18T10:55:44Z</time>
      </trkpt>
      <trkpt lat="37.795091969892383" lon="-2.068362012505531">
        <ele>821.70000000000005</ele>
        <time>2018-04-18T10:55:26Z</time>
      </trkpt>
      <trkpt lat="37.79502097517252" lon="-2.068391013890505">
        <ele>828.5</ele>
        <time>2018-04-18T10:55:09Z</time>
      </trkpt>
      <trkpt lat="37.795055005699396" lon="-2.068351032212377">
        <ele>817.29999999999995</ele>
        <time>2018-04-18T10:54:44Z</time>
      </trkpt>
      <trkpt lat="37.795101022347808" lon="-2.0683170016855">
        <ele>808.70000000000005</ele>
        <time>2018-04-18T10:54:23Z</time>
      </trkpt>
      <trkpt lat="37.795093981549144" lon="-2.068290011957288">
        <ele>807.29999999999995</ele>
        <time>2018-04-18T10:54:13Z</time>
      </trkpt>
      <trkpt lat="37.795083001255989" lon="-2.06827400252223">
        <ele>807.29999999999995</ele>
        <time>2018-04-18T10:54:12Z</time>
      </trkpt>
      <trkpt lat="37.795094987377524" lon="-2.068090019747615">
        <ele>806.79999999999995</ele>
        <time>2018-04-18T10:54:08Z</time>
      </trkpt>
      <trkpt lat="37.795114014297724" lon="-2.068018019199371">
        <ele>806.29999999999995</ele>
        <time>2018-04-18T10:54:07Z</time>
      </trkpt>
      <trkpt lat="37.795139998197556" lon="-2.067943001165986">
        <ele>805.89999999999998</ele>
        <time>2018-04-18T10:54:06Z</time>
      </trkpt>
      <trkpt lat="37.795177968218923" lon="-2.067873012274504">
        <ele>805.79999999999995</ele>
        <time>2018-04-18T10:54:05Z</time>
      </trkpt>
      <trkpt lat="37.795229014009237" lon="-2.067807968705893">
        <ele>805.89999999999998</ele>
        <time>2018-04-18T10:54:04Z</time>
      </trkpt>
      <trkpt lat="37.795295985415578" lon="-2.067750971764326">
        <ele>805.79999999999995</ele>
        <time>2018-04-18T10:54:03Z</time>
      </trkpt>
      <trkpt lat="37.795683983713388" lon="-2.067512003704906">
        <ele>806.39999999999998</ele>
        <time>2018-04-18T10:53:58Z</time>
      </trkpt>
      <trkpt lat="37.795756990090013" lon="-2.067465987056494">
        <ele>806.79999999999995</ele>
        <time>2018-04-18T10:53:57Z</time>
      </trkpt>
      <trkpt lat="37.795823961496353" lon="-2.06741301342845">
        <ele>807.29999999999995</ele>
        <time>2018-04-18T10:53:56Z</time>
      </trkpt>
      <trkpt lat="37.7958819642663" lon="-2.067347969859839">
        <ele>807.29999999999995</ele>
        <time>2018-04-18T10:53:55Z</time>
      </trkpt>
      <trkpt lat="37.795929992571473" lon="-2.067273035645485">
        <ele>807.89999999999998</ele>
        <time>2018-04-18T10:53:54Z</time>
      </trkpt>
      <trkpt lat="37.795971985906363" lon="-2.067190976813436">
        <ele>807.89999999999998</ele>
        <time>2018-04-18T10:53:53Z</time>
      </trkpt>
      <trkpt lat="37.796040968969464" lon="-2.067010011523962">
        <ele>808.29999999999995</ele>
        <time>2018-04-18T10:53:51Z</time>
      </trkpt>
      <trkpt lat="37.796069970354438" lon="-2.066914038732648">
        <ele>808.79999999999995</ele>
        <time>2018-04-18T10:53:50Z</time>
      </trkpt>
      <trkpt lat="37.796091008931398" lon="-2.06681395880878">
        <ele>809.29999999999995</ele>
        <time>2018-04-18T10:53:49Z</time>
      </trkpt>
      <trkpt lat="37.796113975346088" lon="-2.06661899574101">
        <ele>810.70000000000005</ele>
        <time>2018-04-18T10:53:47Z</time>
      </trkpt>
      <trkpt lat="37.796113975346088" lon="-2.066344991326332">
        <ele>812.29999999999995</ele>
        <time>2018-04-18T10:53:44Z</time>
      </trkpt>
      <trkpt lat="37.796117998659611" lon="-2.066258992999792">
        <ele>812.70000000000005</ele>
        <time>2018-04-18T10:53:43Z</time>
      </trkpt>
      <trkpt lat="37.796130990609527" lon="-2.066170983016491">
        <ele>812.79999999999995</ele>
        <time>2018-04-18T10:53:42Z</time>
      </trkpt>
      <trkpt lat="37.796150017529726" lon="-2.066089008003473">
        <ele>813.29999999999995</ele>
        <time>2018-04-18T10:53:41Z</time>
      </trkpt>
      <trkpt lat="37.796173989772797" lon="-2.06601801328361">
        <ele>813.20000000000005</ele>
        <time>2018-04-18T10:53:40Z</time>
      </trkpt>
      <trkpt lat="37.796207014471292" lon="-2.065951963886619">
        <ele>813.70000000000005</ele>
        <time>2018-04-18T10:53:39Z</time>
      </trkpt>
      <trkpt lat="37.79624599032104" lon="-2.065891027450562">
        <ele>813.79999999999995</ele>
        <time>2018-04-18T10:53:38Z</time>
      </trkpt>
      <trkpt lat="37.796289995312691" lon="-2.065838975831866">
        <ele>814.20000000000005</ele>
        <time>2018-04-18T10:53:37Z</time>
      </trkpt>
      <trkpt lat="37.796389991417527" lon="-2.065749038010836">
        <ele>815.70000000000005</ele>
        <time>2018-04-18T10:53:35Z</time>
      </trkpt>
      <trkpt lat="37.796614961698651" lon="-2.065603025257587">
        <ele>817.10000000000002</ele>
        <time>2018-04-18T10:53:30Z</time>
      </trkpt>
      <trkpt lat="37.796945963054895" lon="-2.06550101749599">
        <ele>818.89999999999998</ele>
        <time>2018-04-18T10:53:15Z</time>
      </trkpt>
      <trkpt lat="37.797330021858215" lon="-2.065367996692658">
        <ele>816.5</ele>
        <time>2018-04-18T10:52:57Z</time>
      </trkpt>
      <trkpt lat="37.797586005181074" lon="-2.065111007541418">
        <ele>812.79999999999995</ele>
        <time>2018-04-18T10:52:42Z</time>
      </trkpt>
      <trkpt lat="37.797737969085574" lon="-2.064736001193523">
        <ele>810.89999999999998</ele>
        <time>2018-04-18T10:52:28Z</time>
      </trkpt>
      <trkpt lat="37.797884987667203" lon="-2.064317995682359">
        <ele>809.89999999999998</ele>
        <time>2018-04-18T10:52:13Z</time>
      </trkpt>
      <trkpt lat="37.797909965738654" lon="-2.063787002116442">
        <ele>808.79999999999995</ele>
        <time>2018-04-18T10:52:00Z</time>
      </trkpt>
      <trkpt lat="37.797904014587402" lon="-2.063724976032972">
        <ele>808.79999999999995</ele>
        <time>2018-04-18T10:51:59Z</time>
      </trkpt>
      <trkpt lat="37.79789999127388" lon="-2.063660016283393">
        <ele>808.79999999999995</ele>
        <time>2018-04-18T10:51:58Z</time>
      </trkpt>
      <trkpt lat="37.797908037900925" lon="-2.063591033220291">
        <ele>808.89999999999998</ele>
        <time>2018-04-18T10:51:57Z</time>
      </trkpt>
      <trkpt lat="37.797933015972376" lon="-2.063530012965202">
        <ele>808.89999999999998</ele>
        <time>2018-04-18T10:51:56Z</time>
      </trkpt>
      <trkpt lat="37.797968974336982" lon="-2.063485002145171">
        <ele>809.29999999999995</ele>
        <time>2018-04-18T10:51:55Z</time>
      </trkpt>
      <trkpt lat="37.798010967671871" lon="-2.063453989103437">
        <ele>809.39999999999998</ele>
        <time>2018-04-18T10:51:54Z</time>
      </trkpt>
      <trkpt lat="37.798055978491902" lon="-2.063429011031985">
        <ele>809.89999999999998</ele>
        <time>2018-04-18T10:51:53Z</time>
      </trkpt>
      <trkpt lat="37.798435008153319" lon="-2.063193982467055">
        <ele>811.70000000000005</ele>
        <time>2018-04-18T10:51:43Z</time>
      </trkpt>
      <trkpt lat="37.798499967902899" lon="-2.062588976696134">
        <ele>810.29999999999995</ele>
        <time>2018-04-18T10:51:29Z</time>
      </trkpt>
      <trkpt lat="37.798445988446474" lon="-2.061768975108862">
        <ele>809.20000000000005</ele>
        <time>2018-04-18T10:51:10Z</time>
      </trkpt>
      <trkpt lat="37.798386979848146" lon="-2.061118958517909">
        <ele>806.89999999999998</ele>
        <time>2018-04-18T10:50:55Z</time>
      </trkpt>
      <trkpt lat="37.798456968739629" lon="-2.060513030737639">
        <ele>803.89999999999998</ele>
        <time>2018-04-18T10:50:41Z</time>
      </trkpt>
      <trkpt lat="37.798633994534612" lon="-2.059994023293257">
        <ele>802.5</ele>
        <time>2018-04-18T10:50:28Z</time>
      </trkpt>
      <trkpt lat="37.798736002296209" lon="-2.059306958690286">
        <ele>797.70000000000005</ele>
        <time>2018-04-18T10:50:11Z</time>
      </trkpt>
      <trkpt lat="37.798840021714568" lon="-2.058859029784799">
        <ele>796.29999999999995</ele>
        <time>2018-04-18T10:49:59Z</time>
      </trkpt>
      <trkpt lat="37.799218967556953" lon="-2.058661971241236">
        <ele>795.39999999999998</ele>
        <time>2018-04-18T10:49:47Z</time>
      </trkpt>
      <trkpt lat="37.799420971423388" lon="-2.058267015963793">
        <ele>795.29999999999995</ele>
        <time>2018-04-18T10:49:36Z</time>
      </trkpt>
      <trkpt lat="37.799581987783313" lon="-2.057704003527761">
        <ele>791.60000000000002</ele>
        <time>2018-04-18T10:49:23Z</time>
      </trkpt>
      <trkpt lat="37.799858003854752" lon="-2.057003024965525">
        <ele>790.10000000000002</ele>
        <time>2018-04-18T10:49:08Z</time>
      </trkpt>
      <trkpt lat="37.800083979964256" lon="-2.05637002363801">
        <ele>789.60000000000002</ele>
        <time>2018-04-18T10:48:55Z</time>
      </trkpt>
      <trkpt lat="37.800099989399314" lon="-2.056320989504457">
        <ele>789.60000000000002</ele>
        <time>2018-04-18T10:48:54Z</time>
      </trkpt>
      <trkpt lat="37.800142988562584" lon="-2.056163996458054">
        <ele>789.20000000000005</ele>
        <time>2018-04-18T10:48:51Z</time>
      </trkpt>
      <trkpt lat="37.800157992169261" lon="-2.056109011173248">
        <ele>789.10000000000002</ele>
        <time>2018-04-18T10:48:50Z</time>
      </trkpt>
      <trkpt lat="37.8004149813205" lon="-2.055300995707512">
        <ele>788.10000000000002</ele>
        <time>2018-04-18T10:48:36Z</time>
      </trkpt>
      <trkpt lat="37.800430990755558" lon="-2.055240981280804">
        <ele>788.10000000000002</ele>
        <time>2018-04-18T10:48:35Z</time>
      </trkpt>
      <trkpt lat="37.800529981032014" lon="-2.054891036823392">
        <ele>787.60000000000002</ele>
        <time>2018-04-18T10:48:29Z</time>
      </trkpt>
      <trkpt lat="37.800548002123833" lon="-2.054834961891174">
        <ele>787.60000000000002</ele>
        <time>2018-04-18T10:48:28Z</time>
      </trkpt>
      <trkpt lat="37.800588989630342" lon="-2.054711999371648">
        <ele>787.70000000000005</ele>
        <time>2018-04-18T10:48:26Z</time>
      </trkpt>
      <trkpt lat="37.800613967701793" lon="-2.054645027965307">
        <ele>787.70000000000005</ele>
        <time>2018-04-18T10:48:25Z</time>
      </trkpt>
      <trkpt lat="37.800766015425324" lon="-2.054196009412408">
        <ele>787.20000000000005</ele>
        <time>2018-04-18T10:48:18Z</time>
      </trkpt>
      <trkpt lat="37.800784036517143" lon="-2.053800970315933">
        <ele>790</ele>
        <time>2018-04-18T10:48:09Z</time>
      </trkpt>
      <trkpt lat="37.800694014877081" lon="-2.053091023117304">
        <ele>789.5</ele>
        <time>2018-04-18T10:47:55Z</time>
      </trkpt>
      <trkpt lat="37.800624025985599" lon="-2.052284013479948">
        <ele>789</ele>
        <time>2018-04-18T10:47:38Z</time>
      </trkpt>
      <trkpt lat="37.800558982416987" lon="-2.051627961918712">
        <ele>790</ele>
        <time>2018-04-18T10:47:25Z</time>
      </trkpt>
      <trkpt lat="37.800555964931846" lon="-2.051500976085663">
        <ele>790</ele>
        <time>2018-04-18T10:47:23Z</time>
      </trkpt>
      <trkpt lat="37.800561999902129" lon="-2.051369966939092">
        <ele>790.10000000000002</ele>
        <time>2018-04-18T10:47:21Z</time>
      </trkpt>
      <trkpt lat="37.800645986571908" lon="-2.050822963938117">
        <ele>790</ele>
        <time>2018-04-18T10:47:12Z</time>
      </trkpt>
      <trkpt lat="37.800651015713811" lon="-2.050761021673679">
        <ele>790</ele>
        <time>2018-04-18T10:47:11Z</time>
      </trkpt>
      <trkpt lat="37.800625031813979" lon="-2.050303034484386">
        <ele>791.39999999999998</ele>
        <time>2018-04-18T10:47:03Z</time>
      </trkpt>
      <trkpt lat="37.800620002672076" lon="-2.050247965380549">
        <ele>791.89999999999998</ele>
        <time>2018-04-18T10:47:02Z</time>
      </trkpt>
      <trkpt lat="37.800612039864063" lon="-2.050198009237647">
        <ele>792</ele>
        <time>2018-04-18T10:47:01Z</time>
      </trkpt>
      <trkpt lat="37.800602987408638" lon="-2.050147969275713">
        <ele>791.89999999999998</ele>
        <time>2018-04-18T10:47:00Z</time>
      </trkpt>
      <trkpt lat="37.800598964095116" lon="-2.050087032839656">
        <ele>792</ele>
        <time>2018-04-18T10:46:59Z</time>
      </trkpt>
      <trkpt lat="37.800604999065399" lon="-2.049726024270058">
        <ele>791.89999999999998</ele>
        <time>2018-04-18T10:46:54Z</time>
      </trkpt>
      <trkpt lat="37.800600975751877" lon="-2.049650000408292">
        <ele>792.39999999999998</ele>
        <time>2018-04-18T10:46:53Z</time>
      </trkpt>
      <trkpt lat="37.800589995458722" lon="-2.049570037052035">
        <ele>792.89999999999998</ele>
        <time>2018-04-18T10:46:52Z</time>
      </trkpt>
      <trkpt lat="37.800439037382603" lon="-2.049192013218999">
        <ele>794</ele>
        <time>2018-04-18T10:46:47Z</time>
      </trkpt>
      <trkpt lat="37.800415987148881" lon="-2.049125963822007">
        <ele>794</ele>
        <time>2018-04-18T10:46:46Z</time>
      </trkpt>
      <trkpt lat="37.800390003249049" lon="-2.049059998244047">
        <ele>794.39999999999998</ele>
        <time>2018-04-18T10:46:45Z</time>
      </trkpt>
      <trkpt lat="37.800362007692456" lon="-2.048996966332197">
        <ele>794.39999999999998</ele>
        <time>2018-04-18T10:46:44Z</time>
      </trkpt>
      <trkpt lat="37.800339963287115" lon="-2.04893896356225">
        <ele>794.39999999999998</ele>
        <time>2018-04-18T10:46:43Z</time>
      </trkpt>
      <trkpt lat="37.800322026014328" lon="-2.04887299798429">
        <ele>793.89999999999998</ele>
        <time>2018-04-18T10:46:42Z</time>
      </trkpt>
      <trkpt lat="37.800320014357567" lon="-2.048800997436047">
        <ele>794</ele>
        <time>2018-04-18T10:46:41Z</time>
      </trkpt>
      <trkpt lat="37.800338035449386" lon="-2.048731008544564">
        <ele>793.89999999999998</ele>
        <time>2018-04-18T10:46:40Z</time>
      </trkpt>
      <trkpt lat="37.800443982705474" lon="-2.048520036041737">
        <ele>792.89999999999998</ele>
        <time>2018-04-18T10:46:36Z</time>
      </trkpt>
      <trkpt lat="37.80047700740397" lon="-2.048172019422054">
        <ele>792.39999999999998</ele>
        <time>2018-04-18T10:46:27Z</time>
      </trkpt>
      <trkpt lat="37.80043501406908" lon="-2.047705985605717">
        <ele>793.39999999999998</ele>
        <time>2018-04-18T10:46:14Z</time>
      </trkpt>
      <trkpt lat="37.80030501075089" lon="-2.047135010361671">
        <ele>797.29999999999995</ele>
        <time>2018-04-18T10:45:58Z</time>
      </trkpt>
      <trkpt lat="37.800310039892793" lon="-2.046778025105596">
        <ele>796.70000000000005</ele>
        <time>2018-04-18T10:45:49Z</time>
      </trkpt>
      <trkpt lat="37.800767021253705" lon="-2.046368988230825">
        <ele>796.79999999999995</ele>
        <time>2018-04-18T10:45:36Z</time>
      </trkpt>
      <trkpt lat="37.80099400319159" lon="-2.046193974092603">
        <ele>796.70000000000005</ele>
        <time>2018-04-18T10:45:31Z</time>
      </trkpt>
      <trkpt lat="37.801043037325144" lon="-2.046153992414475">
        <ele>796.70000000000005</ele>
        <time>2018-04-18T10:45:30Z</time>
      </trkpt>
      <trkpt lat="37.801086958497763" lon="-2.046106969937682">
        <ele>796.29999999999995</ele>
        <time>2018-04-18T10:45:29Z</time>
      </trkpt>
      <trkpt lat="37.801167005673051" lon="-2.045989036560059">
        <ele>796.29999999999995</ele>
        <time>2018-04-18T10:45:27Z</time>
      </trkpt>
      <trkpt lat="37.801201958209276" lon="-2.045922987163067">
        <ele>796.29999999999995</ele>
        <time>2018-04-18T10:45:26Z</time>
      </trkpt>
      <trkpt lat="37.80123196542263" lon="-2.045850986614823">
        <ele>796.29999999999995</ele>
        <time>2018-04-18T10:45:25Z</time>
      </trkpt>
      <trkpt lat="37.801258033141494" lon="-2.045773034915328">
        <ele>795.79999999999995</ele>
        <time>2018-04-18T10:45:24Z</time>
      </trkpt>
      <trkpt lat="37.801276976242661" lon="-2.04569298774004">
        <ele>795.79999999999995</ele>
        <time>2018-04-18T10:45:23Z</time>
      </trkpt>
      <trkpt lat="37.801298014819622" lon="-2.045537000522018">
        <ele>795.79999999999995</ele>
        <time>2018-04-18T10:45:21Z</time>
      </trkpt>
      <trkpt lat="37.801302038133144" lon="-2.045463994145393">
        <ele>795.70000000000005</ele>
        <time>2018-04-18T10:45:20Z</time>
      </trkpt>
      <trkpt lat="37.801407985389233" lon="-2.044682968407869">
        <ele>794.70000000000005</ele>
        <time>2018-04-18T10:45:06Z</time>
      </trkpt>
      <trkpt lat="37.801420977339149" lon="-2.044622031971812">
        <ele>794.70000000000005</ele>
        <time>2018-04-18T10:45:05Z</time>
      </trkpt>
      <trkpt lat="37.801440004259348" lon="-2.044552965089679">
        <ele>794.20000000000005</ele>
        <time>2018-04-18T10:45:04Z</time>
      </trkpt>
      <trkpt lat="37.80146598815918" lon="-2.044484987854958">
        <ele>794.20000000000005</ele>
        <time>2018-04-18T10:45:03Z</time>
      </trkpt>
      <trkpt lat="37.801498007029295" lon="-2.044417010620236">
        <ele>794.29999999999995</ele>
        <time>2018-04-18T10:45:02Z</time>
      </trkpt>
      <trkpt lat="37.801540000364184" lon="-2.044352972880006">
        <ele>794.20000000000005</ele>
        <time>2018-04-18T10:45:01Z</time>
      </trkpt>
      <trkpt lat="37.801591968163848" lon="-2.044304022565484">
        <ele>794.29999999999995</ele>
        <time>2018-04-18T10:45:00Z</time>
      </trkpt>
      <trkpt lat="37.801656005904078" lon="-2.044279966503382">
        <ele>794.29999999999995</ele>
        <time>2018-04-18T10:44:59Z</time>
      </trkpt>
      <trkpt lat="37.801725994795561" lon="-2.044292036443949">
        <ele>794.29999999999995</ele>
        <time>2018-04-18T10:44:58Z</time>
      </trkpt>
      <trkpt lat="37.801791960373521" lon="-2.044331012293696">
        <ele>794.20000000000005</ele>
        <time>2018-04-18T10:44:57Z</time>
      </trkpt>
      <trkpt lat="37.801851974800229" lon="-2.044390020892024">
        <ele>793.79999999999995</ele>
        <time>2018-04-18T10:44:56Z</time>
      </trkpt>
      <trkpt lat="37.80191701836884" lon="-2.044444000348449">
        <ele>793.70000000000005</ele>
        <time>2018-04-18T10:44:55Z</time>
      </trkpt>
      <trkpt lat="37.801989018917084" lon="-2.044479036703706">
        <ele>793.79999999999995</ele>
        <time>2018-04-18T10:44:54Z</time>
      </trkpt>
      <trkpt lat="37.802064036950469" lon="-2.044504014775157">
        <ele>793.79999999999995</ele>
        <time>2018-04-18T10:44:53Z</time>
      </trkpt>
      <trkpt lat="37.802140982821584" lon="-2.044521030038595">
        <ele>793.70000000000005</ele>
        <time>2018-04-18T10:44:52Z</time>
      </trkpt>
      <trkpt lat="37.802216000854969" lon="-2.044524969533086">
        <ele>793.70000000000005</ele>
        <time>2018-04-18T10:44:51Z</time>
      </trkpt>
      <trkpt lat="37.802286995574832" lon="-2.044512983411551">
        <ele>793.79999999999995</ele>
        <time>2018-04-18T10:44:50Z</time>
      </trkpt>
      <trkpt lat="37.802355978637934" lon="-2.044484987854958">
        <ele>793.79999999999995</ele>
        <time>2018-04-18T10:44:49Z</time>
      </trkpt>
      <trkpt lat="37.802419010549784" lon="-2.044441988691688">
        <ele>793.79999999999995</ele>
        <time>2018-04-18T10:44:48Z</time>
      </trkpt>
      <trkpt lat="37.802683962509036" lon="-2.044158009812236">
        <ele>794.29999999999995</ele>
        <time>2018-04-18T10:44:43Z</time>
      </trkpt>
      <trkpt lat="37.802730984985828" lon="-2.044106964021921">
        <ele>794.20000000000005</ele>
        <time>2018-04-18T10:44:42Z</time>
      </trkpt>
      <trkpt lat="37.802774989977479" lon="-2.044057007879019">
        <ele>794.79999999999995</ele>
        <time>2018-04-18T10:44:41Z</time>
      </trkpt>
      <trkpt lat="37.802812037989497" lon="-2.043999005109072">
        <ele>795.29999999999995</ele>
        <time>2018-04-18T10:44:40Z</time>
      </trkpt>
      <trkpt lat="37.8028429672122" lon="-2.043936979025602">
        <ele>795.79999999999995</ele>
        <time>2018-04-18T10:44:39Z</time>
      </trkpt>
      <trkpt lat="37.802858976647258" lon="-2.043870007619262">
        <ele>796.79999999999995</ele>
        <time>2018-04-18T10:44:38Z</time>
      </trkpt>
      <trkpt lat="37.802857970818877" lon="-2.043806975707412">
        <ele>797.20000000000005</ele>
        <time>2018-04-18T10:44:37Z</time>
      </trkpt>
      <trkpt lat="37.802836010232568" lon="-2.043755007907748">
        <ele>797.70000000000005</ele>
        <time>2018-04-18T10:44:36Z</time>
      </trkpt>
      <trkpt lat="37.802488999441266" lon="-2.043386958539486">
        <ele>802.5</ele>
        <time>2018-04-18T10:44:30Z</time>
      </trkpt>
      <trkpt lat="37.802426973357797" lon="-2.043312024325132">
        <ele>803</ele>
        <time>2018-04-18T10:44:29Z</time>
      </trkpt>
      <trkpt lat="37.802370982244611" lon="-2.043232982978225">
        <ele>803.5</ele>
        <time>2018-04-18T10:44:28Z</time>
      </trkpt>
      <trkpt lat="37.802227986976504" lon="-2.042969958856702">
        <ele>805.39999999999998</ele>
        <time>2018-04-18T10:44:25Z</time>
      </trkpt>
      <trkpt lat="37.802179958671331" lon="-2.042882032692432">
        <ele>805.89999999999998</ele>
        <time>2018-04-18T10:44:24Z</time>
      </trkpt>
      <trkpt lat="37.802124973386526" lon="-2.042799973860383">
        <ele>806.39999999999998</ele>
        <time>2018-04-18T10:44:23Z</time>
      </trkpt>
      <trkpt lat="37.801940990611911" lon="-2.042613979429007">
        <ele>808.79999999999995</ele>
        <time>2018-04-18T10:44:20Z</time>
      </trkpt>
      <trkpt lat="37.801882987841964" lon="-2.042552959173918">
        <ele>809.39999999999998</ele>
        <time>2018-04-18T10:44:19Z</time>
      </trkpt>
      <trkpt lat="37.8018310200423" lon="-2.042480958625674">
        <ele>809.79999999999995</ele>
        <time>2018-04-18T10:44:18Z</time>
      </trkpt>
      <trkpt lat="37.801672015339136" lon="-2.042163033038378">
        <ele>812.20000000000005</ele>
        <time>2018-04-18T10:44:14Z</time>
      </trkpt>
      <trkpt lat="37.801629016175866" lon="-2.042089020833373">
        <ele>813.29999999999995</ele>
        <time>2018-04-18T10:44:13Z</time>
      </trkpt>
      <trkpt lat="37.801580987870693" lon="-2.042020037770271">
        <ele>814.20000000000005</ele>
        <time>2018-04-18T10:44:12Z</time>
      </trkpt>
      <trkpt lat="37.801415026187897" lon="-2.041872013360262">
        <ele>816.10000000000002</ele>
        <time>2018-04-18T10:44:09Z</time>
      </trkpt>
      <trkpt lat="37.80136096291244" lon="-2.041828008368611">
        <ele>816.70000000000005</ele>
        <time>2018-04-18T10:44:08Z</time>
      </trkpt>
      <trkpt lat="37.801307989284396" lon="-2.041777968406677">
        <ele>816.60000000000002</ele>
        <time>2018-04-18T10:44:07Z</time>
      </trkpt>
      <trkpt lat="37.801261972635984" lon="-2.041721977293491">
        <ele>817.20000000000005</ele>
        <time>2018-04-18T10:44:06Z</time>
      </trkpt>
      <trkpt lat="37.801225008442998" lon="-2.041659029200673">
        <ele>817.10000000000002</ele>
        <time>2018-04-18T10:44:05Z</time>
      </trkpt>
      <trkpt lat="37.801116965711117" lon="-2.04137597233057">
        <ele>818.5</ele>
        <time>2018-04-18T10:44:01Z</time>
      </trkpt>
      <trkpt lat="37.801072038710117" lon="-2.041221996769309">
        <ele>819.5</ele>
        <time>2018-04-18T10:43:59Z</time>
      </trkpt>
      <trkpt lat="37.80105996876955" lon="-2.041142033413053">
        <ele>820.10000000000002</ele>
        <time>2018-04-18T10:43:58Z</time>
      </trkpt>
      <trkpt lat="37.80105602927506" lon="-2.041058968752623">
        <ele>820.60000000000002</ele>
        <time>2018-04-18T10:43:57Z</time>
      </trkpt>
      <trkpt lat="37.801061980426311" lon="-2.040982022881508">
        <ele>821.10000000000002</ele>
        <time>2018-04-18T10:43:56Z</time>
      </trkpt>
      <trkpt lat="37.801072960719466" lon="-2.040907004848123">
        <ele>821.60000000000002</ele>
        <time>2018-04-18T10:43:55Z</time>
      </trkpt>
      <trkpt lat="37.801077989861369" lon="-2.040828969329596">
        <ele>822</ele>
        <time>2018-04-18T10:43:54Z</time>
      </trkpt>
      <trkpt lat="37.801062986254692" lon="-2.040749005973339">
        <ele>822.5</ele>
        <time>2018-04-18T10:43:53Z</time>
      </trkpt>
      <trkpt lat="37.801033984869719" lon="-2.040678011253476">
        <ele>823.10000000000002</ele>
        <time>2018-04-18T10:43:52Z</time>
      </trkpt>
      <trkpt lat="37.800995009019971" lon="-2.04062101431191">
        <ele>823.5</ele>
        <time>2018-04-18T10:43:51Z</time>
      </trkpt>
      <trkpt lat="37.800952009856701" lon="-2.040568962693214">
        <ele>824.10000000000002</ele>
        <time>2018-04-18T10:43:50Z</time>
      </trkpt>
      <trkpt lat="37.800911022350192" lon="-2.040510959923267">
        <ele>824.60000000000002</ele>
        <time>2018-04-18T10:43:49Z</time>
      </trkpt>
      <trkpt lat="37.800873974338174" lon="-2.04045002348721">
        <ele>824.60000000000002</ele>
        <time>2018-04-18T10:43:48Z</time>
      </trkpt>
      <trkpt lat="37.80084203928709" lon="-2.04038699157536">
        <ele>825</ele>
        <time>2018-04-18T10:43:47Z</time>
      </trkpt>
      <trkpt lat="37.800819994881749" lon="-2.040322031825781">
        <ele>825.60000000000002</ele>
        <time>2018-04-18T10:43:46Z</time>
      </trkpt>
      <trkpt lat="37.800802979618311" lon="-2.040255982428789">
        <ele>825.5</ele>
        <time>2018-04-18T10:43:45Z</time>
      </trkpt>
      <trkpt lat="37.800789987668395" lon="-2.04019102267921">
        <ele>826.10000000000002</ele>
        <time>2018-04-18T10:43:44Z</time>
      </trkpt>
      <trkpt lat="37.800786970183253" lon="-2.040124973282218">
        <ele>826</ele>
        <time>2018-04-18T10:43:43Z</time>
      </trkpt>
      <trkpt lat="37.800795016810298" lon="-2.04006303101778">
        <ele>826</ele>
        <time>2018-04-18T10:43:42Z</time>
      </trkpt>
      <trkpt lat="37.800813037902117" lon="-2.040006034076214">
        <ele>826.5</ele>
        <time>2018-04-18T10:43:41Z</time>
      </trkpt>
      <trkpt lat="37.800839021801949" lon="-2.039954988285899">
        <ele>826.60000000000002</ele>
        <time>2018-04-18T10:43:40Z</time>
      </trkpt>
      <trkpt lat="37.800894007086754" lon="-2.039868989959359">
        <ele>827</ele>
        <time>2018-04-18T10:43:38Z</time>
      </trkpt>
      <trkpt lat="37.800919990986586" lon="-2.03982699662447">
        <ele>827.60000000000002</ele>
        <time>2018-04-18T10:43:37Z</time>
      </trkpt>
      <trkpt lat="37.800946980714798" lon="-2.039782991632819">
        <ele>827.5</ele>
        <time>2018-04-18T10:43:36Z</time>
      </trkpt>
      <trkpt lat="37.80097003094852" lon="-2.039736974984407">
        <ele>827.5</ele>
        <time>2018-04-18T10:43:35Z</time>
      </trkpt>
      <trkpt lat="37.800988974049687" lon="-2.039688024669886">
        <ele>828</ele>
        <time>2018-04-18T10:43:34Z</time>
      </trkpt>
      <trkpt lat="37.801018981263041" lon="-2.039500018581748">
        <ele>827.10000000000002</ele>
        <time>2018-04-18T10:43:30Z</time>
      </trkpt>
      <trkpt lat="37.801006995141506" lon="-2.038789987564087">
        <ele>827.5</ele>
        <time>2018-04-18T10:43:16Z</time>
      </trkpt>
      <trkpt lat="37.800747994333506" lon="-2.038240972906351">
        <ele>828</ele>
        <time>2018-04-18T10:43:03Z</time>
      </trkpt>
      <trkpt lat="37.800368964672089" lon="-2.037590034306049">
        <ele>828.60000000000002</ele>
        <time>2018-04-18T10:42:49Z</time>
      </trkpt>
      <trkpt lat="37.800335017964244" lon="-2.037532031536102">
        <ele>828.5</ele>
        <time>2018-04-18T10:42:48Z</time>
      </trkpt>
      <trkpt lat="37.7998330257833" lon="-2.03669099137187">
        <ele>829.89999999999998</ele>
        <time>2018-04-18T10:42:37Z</time>
      </trkpt>
      <trkpt lat="37.799763958901167" lon="-2.036506002768874">
        <ele>830.5</ele>
        <time>2018-04-18T10:42:35Z</time>
      </trkpt>
      <trkpt lat="37.799739986658096" lon="-2.03641002997756">
        <ele>830.89999999999998</ele>
        <time>2018-04-18T10:42:34Z</time>
      </trkpt>
      <trkpt lat="37.799723977223039" lon="-2.03610803000629">
        <ele>831.39999999999998</ele>
        <time>2018-04-18T10:42:31Z</time>
      </trkpt>
      <trkpt lat="37.799723977223039" lon="-2.036004010587931">
        <ele>831.89999999999998</ele>
        <time>2018-04-18T10:42:30Z</time>
      </trkpt>
      <trkpt lat="37.799719031900167" lon="-2.035899991169572">
        <ele>832.5</ele>
        <time>2018-04-18T10:42:29Z</time>
      </trkpt>
      <trkpt lat="37.799705034121871" lon="-2.035797983407974">
        <ele>833</ele>
        <time>2018-04-18T10:42:28Z</time>
      </trkpt>
      <trkpt lat="37.799680978059769" lon="-2.03570201061666">
        <ele>833.39999999999998</ele>
        <time>2018-04-18T10:42:27Z</time>
      </trkpt>
      <trkpt lat="37.799603026360273" lon="-2.035534037277103">
        <ele>834</ele>
        <time>2018-04-18T10:42:25Z</time>
      </trkpt>
      <trkpt lat="37.799557009711862" lon="-2.035457007586956">
        <ele>834.5</ele>
        <time>2018-04-18T10:42:24Z</time>
      </trkpt>
      <trkpt lat="37.79951199889183" lon="-2.035378972068429">
        <ele>834.5</ele>
        <time>2018-04-18T10:42:23Z</time>
      </trkpt>
      <trkpt lat="37.799476962536573" lon="-2.035291967913508">
        <ele>834.89999999999998</ele>
        <time>2018-04-18T10:42:22Z</time>
      </trkpt>
      <trkpt lat="37.799456007778645" lon="-2.035201024264097">
        <ele>834.89999999999998</ele>
        <time>2018-04-18T10:42:21Z</time>
      </trkpt>
      <trkpt lat="37.799449972808361" lon="-2.035109996795654">
        <ele>835</ele>
        <time>2018-04-18T10:42:20Z</time>
      </trkpt>
      <trkpt lat="37.799463970586658" lon="-2.035017963498831">
        <ele>835.5</ele>
        <time>2018-04-18T10:42:19Z</time>
      </trkpt>
      <trkpt lat="37.799508981406689" lon="-2.034852001816034">
        <ele>835.5</ele>
        <time>2018-04-18T10:42:17Z</time>
      </trkpt>
      <trkpt lat="37.79953395947814" lon="-2.034774972125888">
        <ele>836</ele>
        <time>2018-04-18T10:42:16Z</time>
      </trkpt>
      <trkpt lat="37.7995549980551" lon="-2.034699032083154">
        <ele>835.89999999999998</ele>
        <time>2018-04-18T10:42:15Z</time>
      </trkpt>
      <trkpt lat="37.799566984176636" lon="-2.034622002393007">
        <ele>836.5</ele>
        <time>2018-04-18T10:42:14Z</time>
      </trkpt>
      <trkpt lat="37.799572013318539" lon="-2.03454396687448">
        <ele>837</ele>
        <time>2018-04-18T10:42:13Z</time>
      </trkpt>
      <trkpt lat="37.799573019146919" lon="-2.034468026831746">
        <ele>837.39999999999998</ele>
        <time>2018-04-18T10:42:12Z</time>
      </trkpt>
      <trkpt lat="37.799462964758277" lon="-2.033669985830784">
        <ele>838.89999999999998</ele>
        <time>2018-04-18T10:42:02Z</time>
      </trkpt>
      <trkpt lat="37.799212010577321" lon="-2.03305902890861">
        <ele>839.39999999999998</ele>
        <time>2018-04-18T10:41:54Z</time>
      </trkpt>
      <trkpt lat="37.799172028899193" lon="-2.032984010875225">
        <ele>839.29999999999995</ele>
        <time>2018-04-18T10:41:53Z</time>
      </trkpt>
      <trkpt lat="37.799131963402033" lon="-2.032903963699937">
        <ele>839.29999999999995</ele>
        <time>2018-04-18T10:41:52Z</time>
      </trkpt>
      <trkpt lat="37.799098016694188" lon="-2.032816959545016">
        <ele>839.89999999999998</ele>
        <time>2018-04-18T10:41:51Z</time>
      </trkpt>
      <trkpt lat="37.799071026965976" lon="-2.032725010067225">
        <ele>839.89999999999998</ele>
        <time>2018-04-18T10:41:50Z</time>
      </trkpt>
      <trkpt lat="37.798946974799037" lon="-2.031843988224864">
        <ele>839.89999999999998</ele>
        <time>2018-04-18T10:41:41Z</time>
      </trkpt>
      <trkpt lat="37.798927025869489" lon="-2.031740974634886">
        <ele>839.79999999999995</ele>
        <time>2018-04-18T10:41:40Z</time>
      </trkpt>
      <trkpt lat="37.798903975635767" lon="-2.031637039035559">
        <ele>839.89999999999998</ele>
        <time>2018-04-18T10:41:39Z</time>
      </trkpt>
      <trkpt lat="37.798872962594032" lon="-2.031536037102342">
        <ele>839.89999999999998</ele>
        <time>2018-04-18T10:41:38Z</time>
      </trkpt>
      <trkpt lat="37.798833986744285" lon="-2.031441992148757">
        <ele>839.89999999999998</ele>
        <time>2018-04-18T10:41:37Z</time>
      </trkpt>
      <trkpt lat="37.798680011183023" lon="-2.031200006604195">
        <ele>840.29999999999995</ele>
        <time>2018-04-18T10:41:34Z</time>
      </trkpt>
      <trkpt lat="37.798636006191373" lon="-2.031117025762796">
        <ele>840.89999999999998</ele>
        <time>2018-04-18T10:41:33Z</time>
      </trkpt>
      <trkpt lat="37.798578003421426" lon="-2.030922984704375">
        <ele>841.89999999999998</ele>
        <time>2018-04-18T10:41:31Z</time>
      </trkpt>
      <trkpt lat="37.798187993466854" lon="-2.030164003372192">
        <ele>845.60000000000002</ele>
        <time>2018-04-18T10:41:23Z</time>
      </trkpt>
      <trkpt lat="37.797719025984406" lon="-2.028962960466743">
        <ele>850.39999999999998</ele>
        <time>2018-04-18T10:41:10Z</time>
      </trkpt>
      <trkpt lat="37.797506963834167" lon="-2.02788001857698">
        <ele>852.89999999999998</ele>
        <time>2018-04-18T10:40:56Z</time>
      </trkpt>
      <trkpt lat="37.797465976327658" lon="-2.026904029771686">
        <ele>854.20000000000005</ele>
        <time>2018-04-18T10:40:42Z</time>
      </trkpt>
      <trkpt lat="37.797502018511295" lon="-2.025884035974741">
        <ele>855.29999999999995</ele>
        <time>2018-04-18T10:40:27Z</time>
      </trkpt>
      <trkpt lat="37.797531019896269" lon="-2.025125976651907">
        <ele>854.29999999999995</ele>
        <time>2018-04-18T10:40:13Z</time>
      </trkpt>
      <trkpt lat="37.797558009624481" lon="-2.024735966697335">
        <ele>854.79999999999995</ele>
        <time>2018-04-18T10:40:00Z</time>
      </trkpt>
      <trkpt lat="37.797493971884251" lon="-2.024372024461627">
        <ele>854.29999999999995</ele>
        <time>2018-04-18T10:39:47Z</time>
      </trkpt>
      <trkpt lat="37.797360029071569" lon="-2.023899033665657">
        <ele>851.79999999999995</ele>
        <time>2018-04-18T10:39:32Z</time>
      </trkpt>
      <trkpt lat="37.797296997159719" lon="-2.023427970707417">
        <ele>851.39999999999998</ele>
        <time>2018-04-18T10:39:18Z</time>
      </trkpt>
      <trkpt lat="37.797256009653211" lon="-2.022997979074717">
        <ele>852.39999999999998</ele>
        <time>2018-04-18T10:39:04Z</time>
      </trkpt>
      <trkpt lat="37.797218961641192" lon="-2.022576034069061">
        <ele>851</ele>
        <time>2018-04-18T10:38:50Z</time>
      </trkpt>
      <trkpt lat="37.79712600633502" lon="-2.022163979709148">
        <ele>848</ele>
        <time>2018-04-18T10:38:36Z</time>
      </trkpt>
      <trkpt lat="37.796947974711657" lon="-2.02175703831017">
        <ele>846.10000000000002</ele>
        <time>2018-04-18T10:38:21Z</time>
      </trkpt>
      <trkpt lat="37.796643041074276" lon="-2.021593004465103">
        <ele>844.29999999999995</ele>
        <time>2018-04-18T10:38:07Z</time>
      </trkpt>
      <trkpt lat="37.796342968940735" lon="-2.021467024460435">
        <ele>843.20000000000005</ele>
        <time>2018-04-18T10:37:54Z</time>
      </trkpt>
      <trkpt lat="37.795992018654943" lon="-2.021445985883474">
        <ele>840.79999999999995</ele>
        <time>2018-04-18T10:37:40Z</time>
      </trkpt>
      <trkpt lat="37.79572899453342" lon="-2.021732982248068">
        <ele>837.89999999999998</ele>
        <time>2018-04-18T10:37:26Z</time>
      </trkpt>
      <trkpt lat="37.795531013980508" lon="-2.022083010524511">
        <ele>837</ele>
        <time>2018-04-18T10:37:14Z</time>
      </trkpt>
      <trkpt lat="37.79521401040256" lon="-2.022002963349223">
        <ele>835.5</ele>
        <time>2018-04-18T10:37:02Z</time>
      </trkpt>
      <trkpt lat="37.794945035129786" lon="-2.021746980026364">
        <ele>836</ele>
        <time>2018-04-18T10:36:51Z</time>
      </trkpt>
      <trkpt lat="37.794535998255014" lon="-2.021791990846396">
        <ele>834.60000000000002</ele>
        <time>2018-04-18T10:36:37Z</time>
      </trkpt>
      <trkpt lat="37.794135008007288" lon="-2.021897016093135">
        <ele>832.29999999999995</ele>
        <time>2018-04-18T10:36:23Z</time>
      </trkpt>
      <trkpt lat="37.793770981952548" lon="-2.02197102829814">
        <ele>830.89999999999998</ele>
        <time>2018-04-18T10:36:09Z</time>
      </trkpt>
      <trkpt lat="37.793401004746556" lon="-2.021766006946564">
        <ele>829.39999999999998</ele>
        <time>2018-04-18T10:35:54Z</time>
      </trkpt>
      <trkpt lat="37.793088024482131" lon="-2.02158403582871">
        <ele>827.5</ele>
        <time>2018-04-18T10:35:41Z</time>
      </trkpt>
      <trkpt lat="37.792845033109188" lon="-2.021668022498488">
        <ele>827</ele>
        <time>2018-04-18T10:35:30Z</time>
      </trkpt>
      <trkpt lat="37.792496010661125" lon="-2.021503988653421">
        <ele>825.60000000000002</ele>
        <time>2018-04-18T10:35:14Z</time>
      </trkpt>
      <trkpt lat="37.792138019576669" lon="-2.021317994222045">
        <ele>823.20000000000005</ele>
        <time>2018-04-18T10:34:58Z</time>
      </trkpt>
      <trkpt lat="37.791917994618416" lon="-2.020971989259124">
        <ele>821.79999999999995</ele>
        <time>2018-04-18T10:34:43Z</time>
      </trkpt>
      <trkpt lat="37.791726971045136" lon="-2.020605029538274">
        <ele>821.29999999999995</ele>
        <time>2018-04-18T10:34:28Z</time>
      </trkpt>
      <trkpt lat="37.791706016287208" lon="-2.020588014274836">
        <ele>821.29999999999995</ele>
        <time>2018-04-18T10:34:27Z</time>
      </trkpt>
      <trkpt lat="37.791682966053486" lon="-2.020569993183017">
        <ele>820.70000000000005</ele>
        <time>2018-04-18T10:34:26Z</time>
      </trkpt>
      <trkpt lat="37.791589004918933" lon="-2.020530011504889">
        <ele>820.29999999999995</ele>
        <time>2018-04-18T10:34:22Z</time>
      </trkpt>
      <trkpt lat="37.791312988847494" lon="-2.020506039261818">
        <ele>818.39999999999998</ele>
        <time>2018-04-18T10:34:11Z</time>
      </trkpt>
      <trkpt lat="37.79106798581779" lon="-2.02107097953558">
        <ele>815.5</ele>
        <time>2018-04-18T10:33:52Z</time>
      </trkpt>
      <trkpt lat="37.790886014699936" lon="-2.02154103666544">
        <ele>813.5</ele>
        <time>2018-04-18T10:33:37Z</time>
      </trkpt>
      <trkpt lat="37.790822982788086" lon="-2.021946972236037">
        <ele>810.60000000000002</ele>
        <time>2018-04-18T10:33:25Z</time>
      </trkpt>
      <trkpt lat="37.790611004456878" lon="-2.022267999127507">
        <ele>810.10000000000002</ele>
        <time>2018-04-18T10:33:15Z</time>
      </trkpt>
      <trkpt lat="37.790267011150718" lon="-2.02214696444571">
        <ele>811.20000000000005</ele>
        <time>2018-04-18T10:33:04Z</time>
      </trkpt>
      <trkpt lat="37.790042962878942" lon="-2.021628962829709">
        <ele>810.10000000000002</ele>
        <time>2018-04-18T10:32:48Z</time>
      </trkpt>
      <trkpt lat="37.790028965100646" lon="-2.021596021950245">
        <ele>810.20000000000005</ele>
        <time>2018-04-18T10:32:47Z</time>
      </trkpt>
      <trkpt lat="37.79001496732235" lon="-2.021566014736891">
        <ele>810.10000000000002</ele>
        <time>2018-04-18T10:32:46Z</time>
      </trkpt>
      <trkpt lat="37.790000969544053" lon="-2.021539025008678">
        <ele>810.20000000000005</ele>
        <time>2018-04-18T10:32:45Z</time>
      </trkpt>
      <trkpt lat="37.789983032271266" lon="-2.021513963118196">
        <ele>810.20000000000005</ele>
        <time>2018-04-18T10:32:44Z</time>
      </trkpt>
      <trkpt lat="37.789961993694305" lon="-2.021496025845408">
        <ele>810.10000000000002</ele>
        <time>2018-04-18T10:32:43Z</time>
      </trkpt>
      <trkpt lat="37.789940033107996" lon="-2.02147901058197">
        <ele>810.60000000000002</ele>
        <time>2018-04-18T10:32:42Z</time>
      </trkpt>
      <trkpt lat="37.789917988702655" lon="-2.02145897783339">
        <ele>810.70000000000005</ele>
        <time>2018-04-18T10:32:41Z</time>
      </trkpt>
      <trkpt lat="37.789797959849238" lon="-2.021451015025377">
        <ele>809.60000000000002</ele>
        <time>2018-04-18T10:32:36Z</time>
      </trkpt>
      <trkpt lat="37.78943301178515" lon="-2.021814035251737">
        <ele>806.70000000000005</ele>
        <time>2018-04-18T10:32:20Z</time>
      </trkpt>
      <trkpt lat="37.78911299072206" lon="-2.022207984700799">
        <ele>803.89999999999998</ele>
        <time>2018-04-18T10:32:05Z</time>
      </trkpt>
      <trkpt lat="37.789095975458622" lon="-2.02223002910614">
        <ele>803.39999999999998</ele>
        <time>2018-04-18T10:32:04Z</time>
      </trkpt>
      <trkpt lat="37.789077032357454" lon="-2.022246960550547">
        <ele>803.29999999999995</ele>
        <time>2018-04-18T10:32:03Z</time>
      </trkpt>
      <trkpt lat="37.789056999608874" lon="-2.022260036319494">
        <ele>803.39999999999998</ele>
        <time>2018-04-18T10:32:02Z</time>
      </trkpt>
      <trkpt lat="37.789035961031914" lon="-2.022275039926171">
        <ele>803.39999999999998</ele>
        <time>2018-04-18T10:32:01Z</time>
      </trkpt>
      <trkpt lat="37.789011988788843" lon="-2.022287026047707">
        <ele>803.29999999999995</ele>
        <time>2018-04-18T10:32:00Z</time>
      </trkpt>
      <trkpt lat="37.788990028202534" lon="-2.022291971370578">
        <ele>802.89999999999998</ele>
        <time>2018-04-18T10:31:59Z</time>
      </trkpt>
      <trkpt lat="37.788827000185847" lon="-2.022314015775919">
        <ele>799</ele>
        <time>2018-04-18T10:31:52Z</time>
      </trkpt>
      <trkpt lat="37.788802022114396" lon="-2.0223150216043">
        <ele>799</ele>
        <time>2018-04-18T10:31:51Z</time>
      </trkpt>
      <trkpt lat="37.788776038214564" lon="-2.022317033261061">
        <ele>798.60000000000002</ele>
        <time>2018-04-18T10:31:50Z</time>
      </trkpt>
      <trkpt lat="37.78874795883894" lon="-2.022324996069074">
        <ele>798</ele>
        <time>2018-04-18T10:31:49Z</time>
      </trkpt>
      <trkpt lat="37.788717029616237" lon="-2.022329019382596">
        <ele>798.5</ele>
        <time>2018-04-18T10:31:48Z</time>
      </trkpt>
      <trkpt lat="37.788679981604218" lon="-2.022328013554215">
        <ele>798.60000000000002</ele>
        <time>2018-04-18T10:31:47Z</time>
      </trkpt>
      <trkpt lat="37.788636982440948" lon="-2.022314015775919">
        <ele>798.60000000000002</ele>
        <time>2018-04-18T10:31:46Z</time>
      </trkpt>
      <trkpt lat="37.788589037954807" lon="-2.022290965542197">
        <ele>799.10000000000002</ele>
        <time>2018-04-18T10:31:45Z</time>
      </trkpt>
      <trkpt lat="37.788544027134776" lon="-2.022263975813985">
        <ele>800.39999999999998</ele>
        <time>2018-04-18T10:31:44Z</time>
      </trkpt>
      <trkpt lat="37.788508990779519" lon="-2.022220976650715">
        <ele>800.89999999999998</ele>
        <time>2018-04-18T10:31:43Z</time>
      </trkpt>
      <trkpt lat="37.788485018536448" lon="-2.022173032164574">
        <ele>801.5</ele>
        <time>2018-04-18T10:31:42Z</time>
      </trkpt>
      <trkpt lat="37.788457022979856" lon="-2.021724013611674">
        <ele>802.79999999999995</ele>
        <time>2018-04-18T10:31:35Z</time>
      </trkpt>
      <trkpt lat="37.788458028808236" lon="-2.021656036376953">
        <ele>802.89999999999998</ele>
        <time>2018-04-18T10:31:34Z</time>
      </trkpt>
      <trkpt lat="37.78844696469605" lon="-2.021224033087492">
        <ele>801.79999999999995</ele>
        <time>2018-04-18T10:31:27Z</time>
      </trkpt>
      <trkpt lat="37.78844696469605" lon="-2.021164018660784">
        <ele>801.29999999999995</ele>
        <time>2018-04-18T10:31:26Z</time>
      </trkpt>
      <trkpt lat="37.788445958867669" lon="-2.021102998405695">
        <ele>801.29999999999995</ele>
        <time>2018-04-18T10:31:25Z</time>
      </trkpt>
      <trkpt lat="37.7885099966079" lon="-2.020580973476172">
        <ele>801.29999999999995</ele>
        <time>2018-04-18T10:31:17Z</time>
      </trkpt>
      <trkpt lat="37.78863899409771" lon="-2.019733982160687">
        <ele>801.79999999999995</ele>
        <time>2018-04-18T10:31:03Z</time>
      </trkpt>
      <trkpt lat="37.788747036829591" lon="-2.019141968339682">
        <ele>802.89999999999998</ele>
        <time>2018-04-18T10:30:53Z</time>
      </trkpt>
      <trkpt lat="37.788887014612556" lon="-2.018782971426845">
        <ele>803.89999999999998</ele>
        <time>2018-04-18T10:30:46Z</time>
      </trkpt>
      <trkpt lat="37.789160013198853" lon="-2.018144018948078">
        <ele>803.39999999999998</ele>
        <time>2018-04-18T10:30:33Z</time>
      </trkpt>
      <trkpt lat="37.789060017094016" lon="-2.017702041193843">
        <ele>802.89999999999998</ele>
        <time>2018-04-18T10:30:23Z</time>
      </trkpt>
      <trkpt lat="37.788592977449298" lon="-2.017386965453625">
        <ele>801.39999999999998</ele>
        <time>2018-04-18T10:30:10Z</time>
      </trkpt>
      <trkpt lat="37.788545032963157" lon="-2.017359975725412">
        <ele>802</ele>
        <time>2018-04-18T10:30:09Z</time>
      </trkpt>
      <trkpt lat="37.788493987172842" lon="-2.0173329859972">
        <ele>803</ele>
        <time>2018-04-18T10:30:08Z</time>
      </trkpt>
      <trkpt lat="37.78844503685832" lon="-2.017299961298704">
        <ele>803.39999999999998</ele>
        <time>2018-04-18T10:30:07Z</time>
      </trkpt>
      <trkpt lat="37.78840103186667" lon="-2.017248999327421">
        <ele>803.89999999999998</ele>
        <time>2018-04-18T10:30:06Z</time>
      </trkpt>
      <trkpt lat="37.788364989683032" lon="-2.0171810220927">
        <ele>804.39999999999998</ele>
        <time>2018-04-18T10:30:05Z</time>
      </trkpt>
      <trkpt lat="37.788344034925103" lon="-2.017106004059315">
        <ele>804.89999999999998</ele>
        <time>2018-04-18T10:30:04Z</time>
      </trkpt>
      <trkpt lat="37.788340011611581" lon="-2.017028974369168">
        <ele>805.39999999999998</ele>
        <time>2018-04-18T10:30:03Z</time>
      </trkpt>
      <trkpt lat="37.788499016314745" lon="-2.016187012195587">
        <ele>808.89999999999998</ele>
        <time>2018-04-18T10:29:51Z</time>
      </trkpt>
      <trkpt lat="37.7885099966079" lon="-2.016124986112118">
        <ele>808.89999999999998</ele>
        <time>2018-04-18T10:29:50Z</time>
      </trkpt>
      <trkpt lat="37.788517959415913" lon="-2.016063965857029">
        <ele>808.89999999999998</ele>
        <time>2018-04-18T10:29:49Z</time>
      </trkpt>
      <trkpt lat="37.788520976901054" lon="-2.016005963087082">
        <ele>809.29999999999995</ele>
        <time>2018-04-18T10:29:48Z</time>
      </trkpt>
      <trkpt lat="37.78851100243628" lon="-2.015947960317135">
        <ele>809.89999999999998</ele>
        <time>2018-04-18T10:29:47Z</time>
      </trkpt>
      <trkpt lat="37.788486024364829" lon="-2.015894986689091">
        <ele>809.79999999999995</ele>
        <time>2018-04-18T10:29:46Z</time>
      </trkpt>
      <trkpt lat="37.788458028808236" lon="-2.015846036374569">
        <ele>809.89999999999998</ele>
        <time>2018-04-18T10:29:45Z</time>
      </trkpt>
      <trkpt lat="37.788428021594882" lon="-2.015799013897777">
        <ele>809.89999999999998</ele>
        <time>2018-04-18T10:29:44Z</time>
      </trkpt>
      <trkpt lat="37.788400026038289" lon="-2.015749979764223">
        <ele>809.89999999999998</ele>
        <time>2018-04-18T10:29:43Z</time>
      </trkpt>
      <trkpt lat="37.78838099911809" lon="-2.015693988651037">
        <ele>809.79999999999995</ele>
        <time>2018-04-18T10:29:42Z</time>
      </trkpt>
      <trkpt lat="37.788369012996554" lon="-2.015631962567568">
        <ele>809.79999999999995</ele>
        <time>2018-04-18T10:29:41Z</time>
      </trkpt>
      <trkpt lat="37.788364989683032" lon="-2.015572031959891">
        <ele>810.39999999999998</ele>
        <time>2018-04-18T10:29:40Z</time>
      </trkpt>
      <trkpt lat="37.788373036310077" lon="-2.015512017533183">
        <ele>810.39999999999998</ele>
        <time>2018-04-18T10:29:39Z</time>
      </trkpt>
      <trkpt lat="37.788390973582864" lon="-2.015450997278094">
        <ele>810.29999999999995</ele>
        <time>2018-04-18T10:29:38Z</time>
      </trkpt>
      <trkpt lat="37.788417963311076" lon="-2.015394000336528">
        <ele>810.39999999999998</ele>
        <time>2018-04-18T10:29:37Z</time>
      </trkpt>
      <trkpt lat="37.78844797052443" lon="-2.015343038365245">
        <ele>810.39999999999998</ele>
        <time>2018-04-18T10:29:36Z</time>
      </trkpt>
      <trkpt lat="37.788483006879687" lon="-2.015294004231691">
        <ele>810.29999999999995</ele>
        <time>2018-04-18T10:29:35Z</time>
      </trkpt>
      <trkpt lat="37.789030009880662" lon="-2.014523958787322">
        <ele>810.39999999999998</ele>
        <time>2018-04-18T10:29:19Z</time>
      </trkpt>
      <trkpt lat="37.789054987952113" lon="-2.014472996816039">
        <ele>810.79999999999995</ele>
        <time>2018-04-18T10:29:18Z</time>
      </trkpt>
      <trkpt lat="37.789076026529074" lon="-2.014418011531234">
        <ele>810.39999999999998</ele>
        <time>2018-04-18T10:29:17Z</time>
      </trkpt>
      <trkpt lat="37.789158001542091" lon="-2.013882994651794">
        <ele>810.29999999999995</ele>
        <time>2018-04-18T10:29:08Z</time>
      </trkpt>
      <trkpt lat="37.78926202096045" lon="-2.012654040008783">
        <ele>810.79999999999995</ele>
        <time>2018-04-18T10:28:50Z</time>
      </trkpt>
      <trkpt lat="37.789352964609861" lon="-2.011690037325025">
        <ele>810.29999999999995</ele>
        <time>2018-04-18T10:28:37Z</time>
      </trkpt>
      <trkpt lat="37.789352964609861" lon="-2.011624993756414">
        <ele>809.89999999999998</ele>
        <time>2018-04-18T10:28:36Z</time>
      </trkpt>
      <trkpt lat="37.789339972659945" lon="-2.011495996266604">
        <ele>809.39999999999998</ele>
        <time>2018-04-18T10:28:34Z</time>
      </trkpt>
      <trkpt lat="37.789257997646928" lon="-2.010602988302708">
        <ele>809.39999999999998</ele>
        <time>2018-04-18T10:28:20Z</time>
      </trkpt>
      <trkpt lat="37.789309965446591" lon="-2.009581988677383">
        <ele>809.39999999999998</ele>
        <time>2018-04-18T10:28:05Z</time>
      </trkpt>
      <trkpt lat="37.789292028173804" lon="-2.008387986570597">
        <ele>808.79999999999995</ele>
        <time>2018-04-18T10:27:48Z</time>
      </trkpt>
      <trkpt lat="37.789267972111702" lon="-2.00753403827548">
        <ele>809.39999999999998</ele>
        <time>2018-04-18T10:27:33Z</time>
      </trkpt>
      <trkpt lat="37.789187002927065" lon="-2.006846973672509">
        <ele>805.10000000000002</ele>
        <time>2018-04-18T10:27:18Z</time>
      </trkpt>
      <trkpt lat="37.789150960743427" lon="-2.00622595846653">
        <ele>804.60000000000002</ele>
        <time>2018-04-18T10:27:04Z</time>
      </trkpt>
      <trkpt lat="37.789158001542091" lon="-2.005603015422821">
        <ele>805</ele>
        <time>2018-04-18T10:26:51Z</time>
      </trkpt>
      <trkpt lat="37.789121959358454" lon="-2.005044026300311">
        <ele>802.10000000000002</ele>
        <time>2018-04-18T10:26:37Z</time>
      </trkpt>
      <trkpt lat="37.7889399882406" lon="-2.004666002467275">
        <ele>802.10000000000002</ele>
        <time>2018-04-18T10:26:23Z</time>
      </trkpt>
      <trkpt lat="37.788641005754471" lon="-2.004362996667624">
        <ele>804.5</ele>
        <time>2018-04-18T10:26:11Z</time>
      </trkpt>
      <trkpt lat="37.788202967494726" lon="-2.004080023616552">
        <ele>802.20000000000005</ele>
        <time>2018-04-18T10:25:58Z</time>
      </trkpt>
      <trkpt lat="37.788169020786881" lon="-2.004048004746437">
        <ele>802.20000000000005</ele>
        <time>2018-04-18T10:25:57Z</time>
      </trkpt>
      <trkpt lat="37.788133984431624" lon="-2.004016991704702">
        <ele>801.60000000000002</ele>
        <time>2018-04-18T10:25:56Z</time>
      </trkpt>
      <trkpt lat="37.787882024422288" lon="-2.003755979239941">
        <ele>802.20000000000005</ele>
        <time>2018-04-18T10:25:50Z</time>
      </trkpt>
      <trkpt lat="37.787709021940827" lon="-2.003451967611909">
        <ele>803.20000000000005</ele>
        <time>2018-04-18T10:25:45Z</time>
      </trkpt>
      <trkpt lat="37.787635009735823" lon="-2.003276031464338">
        <ele>804.20000000000005</ele>
        <time>2018-04-18T10:25:42Z</time>
      </trkpt>
      <trkpt lat="37.787542976438999" lon="-2.003104034811258">
        <ele>805.10000000000002</ele>
        <time>2018-04-18T10:25:39Z</time>
      </trkpt>
      <trkpt lat="37.787494026124477" lon="-2.002999009564519">
        <ele>805.60000000000002</ele>
        <time>2018-04-18T10:25:37Z</time>
      </trkpt>
      <trkpt lat="37.787476005032659" lon="-2.002950981259346">
        <ele>806.20000000000005</ele>
        <time>2018-04-18T10:25:36Z</time>
      </trkpt>
      <trkpt lat="37.787454966455698" lon="-2.002902030944824">
        <ele>806.10000000000002</ele>
        <time>2018-04-18T10:25:35Z</time>
      </trkpt>
      <trkpt lat="37.787428982555866" lon="-2.002852996811271">
        <ele>806.10000000000002</ele>
        <time>2018-04-18T10:25:34Z</time>
      </trkpt>
      <trkpt lat="37.787401992827654" lon="-2.00280899181962">
        <ele>806.10000000000002</ele>
        <time>2018-04-18T10:25:33Z</time>
      </trkpt>
      <trkpt lat="37.787240976467729" lon="-2.002617968246341">
        <ele>806.70000000000005</ele>
        <time>2018-04-18T10:25:28Z</time>
      </trkpt>
      <trkpt lat="37.787083983421326" lon="-2.002416970208287">
        <ele>806.20000000000005</ele>
        <time>2018-04-18T10:25:23Z</time>
      </trkpt>
      <trkpt lat="37.787036960944533" lon="-2.002327032387257">
        <ele>806.70000000000005</ele>
        <time>2018-04-18T10:25:21Z</time>
      </trkpt>
      <trkpt lat="37.786978036165237" lon="-2.002165010198951">
        <ele>807.10000000000002</ele>
        <time>2018-04-18T10:25:18Z</time>
      </trkpt>
      <trkpt lat="37.786961020901799" lon="-2.002111030742526">
        <ele>807.20000000000005</ele>
        <time>2018-04-18T10:25:17Z</time>
      </trkpt>
      <trkpt lat="37.786908969283104" lon="-2.001790003851056">
        <ele>807.70000000000005</ele>
        <time>2018-04-18T10:25:11Z</time>
      </trkpt>
      <trkpt lat="37.786864964291453" lon="-2.001284994184971">
        <ele>809</ele>
        <time>2018-04-18T10:25:01Z</time>
      </trkpt>
      <trkpt lat="37.786863036453724" lon="-2.001231014728546">
        <ele>809.10000000000002</ele>
        <time>2018-04-18T10:25:00Z</time>
      </trkpt>
      <trkpt lat="37.78687896206975" lon="-2.001047031953931">
        <ele>809.60000000000002</ele>
        <time>2018-04-18T10:24:57Z</time>
      </trkpt>
      <trkpt lat="37.786897988989949" lon="-2.000973019748926">
        <ele>809.5</ele>
        <time>2018-04-18T10:24:56Z</time>
      </trkpt>
      <trkpt lat="37.786908969283104" lon="-2.000899007543922">
        <ele>809.5</ele>
        <time>2018-04-18T10:24:55Z</time>
      </trkpt>
      <trkpt lat="37.786905029788613" lon="-2.000822983682156">
        <ele>810</ele>
        <time>2018-04-18T10:24:54Z</time>
      </trkpt>
      <trkpt lat="37.786878040060401" lon="-2.000746037811041">
        <ele>810.10000000000002</ele>
        <time>2018-04-18T10:24:53Z</time>
      </trkpt>
      <trkpt lat="37.78683696873486" lon="-2.000669008120894">
        <ele>810</ele>
        <time>2018-04-18T10:24:52Z</time>
      </trkpt>
      <trkpt lat="37.786786006763577" lon="-2.000593990087509">
        <ele>810</ele>
        <time>2018-04-18T10:24:51Z</time>
      </trkpt>
      <trkpt lat="37.78618804179132" lon="-1.999910026788712">
        <ele>810.60000000000002</ele>
        <time>2018-04-18T10:24:41Z</time>
      </trkpt>
      <trkpt lat="37.78517902828753" lon="-1.99917702935636">
        <ele>814.39999999999998</ele>
        <time>2018-04-18T10:24:27Z</time>
      </trkpt>
      <trkpt lat="37.784473020583391" lon="-1.998905958607793">
        <ele>819.20000000000005</ele>
        <time>2018-04-18T10:24:15Z</time>
      </trkpt>
      <trkpt lat="37.783840019255877" lon="-1.998571017757058">
        <ele>824.60000000000002</ele>
        <time>2018-04-18T10:24:02Z</time>
      </trkpt>
      <trkpt lat="37.783788973465562" lon="-1.998542016372085">
        <ele>825.60000000000002</ele>
        <time>2018-04-18T10:24:01Z</time>
      </trkpt>
      <trkpt lat="37.783743040636182" lon="-1.998493988066912">
        <ele>825.5</ele>
        <time>2018-04-18T10:24:00Z</time>
      </trkpt>
      <trkpt lat="37.783671962097287" lon="-1.998273963108659">
        <ele>825.60000000000002</ele>
        <time>2018-04-18T10:23:57Z</time>
      </trkpt>
      <trkpt lat="37.783459983766079" lon="-1.997154979035258">
        <ele>826</ele>
        <time>2018-04-18T10:23:45Z</time>
      </trkpt>
      <trkpt lat="37.783437017351389" lon="-1.997069986537099">
        <ele>827</ele>
        <time>2018-04-18T10:23:44Z</time>
      </trkpt>
      <trkpt lat="37.783108027651906" lon="-1.996404966339469">
        <ele>829.89999999999998</ele>
        <time>2018-04-18T10:23:33Z</time>
      </trkpt>
      <trkpt lat="37.783081959933043" lon="-1.996357021853328">
        <ele>829.89999999999998</ele>
        <time>2018-04-18T10:23:32Z</time>
      </trkpt>
      <trkpt lat="37.78305497020483" lon="-1.996308993548155">
        <ele>830</ele>
        <time>2018-04-18T10:23:31Z</time>
      </trkpt>
      <trkpt lat="37.78294499963522" lon="-1.996130961924791">
        <ele>829.89999999999998</ele>
        <time>2018-04-18T10:23:27Z</time>
      </trkpt>
      <trkpt lat="37.782574016600847" lon="-1.995489997789264">
        <ele>829.89999999999998</ele>
        <time>2018-04-18T10:23:12Z</time>
      </trkpt>
      <trkpt lat="37.782520959153771" lon="-1.995408022776246">
        <ele>830</ele>
        <time>2018-04-18T10:23:10Z</time>
      </trkpt>
      <trkpt lat="37.78249497525394" lon="-1.995364017784596">
        <ele>830.39999999999998</ele>
        <time>2018-04-18T10:23:09Z</time>
      </trkpt>
      <trkpt lat="37.782439989969134" lon="-1.995281958952546">
        <ele>829.89999999999998</ele>
        <time>2018-04-18T10:23:07Z</time>
      </trkpt>
      <trkpt lat="37.782411994412541" lon="-1.995241977274418">
        <ele>829.89999999999998</ele>
        <time>2018-04-18T10:23:06Z</time>
      </trkpt>
      <trkpt lat="37.782309986650944" lon="-1.995075009763241">
        <ele>830</ele>
        <time>2018-04-18T10:23:02Z</time>
      </trkpt>
      <trkpt lat="37.782234968617558" lon="-1.994927991181612">
        <ele>829.39999999999998</ele>
        <time>2018-04-18T10:22:59Z</time>
      </trkpt>
      <trkpt lat="37.782216025516391" lon="-1.994872000068426">
        <ele>829.89999999999998</ele>
        <time>2018-04-18T10:22:58Z</time>
      </trkpt>
      <trkpt lat="37.782200016081333" lon="-1.994808968156576">
        <ele>830.39999999999998</ele>
        <time>2018-04-18T10:22:57Z</time>
      </trkpt>
      <trkpt lat="37.782185012474656" lon="-1.994741996750236">
        <ele>830.5</ele>
        <time>2018-04-18T10:22:56Z</time>
      </trkpt>
      <trkpt lat="37.782178977504373" lon="-1.994675025343895">
        <ele>830.5</ele>
        <time>2018-04-18T10:22:55Z</time>
      </trkpt>
      <trkpt lat="37.782190041616559" lon="-1.994611993432045">
        <ele>831</ele>
        <time>2018-04-18T10:22:54Z</time>
      </trkpt>
      <trkpt lat="37.782218037173152" lon="-1.994561031460762">
        <ele>830.89999999999998</ele>
        <time>2018-04-18T10:22:53Z</time>
      </trkpt>
      <trkpt lat="37.782260030508041" lon="-1.994521971791983">
        <ele>831.5</ele>
        <time>2018-04-18T10:22:52Z</time>
      </trkpt>
      <trkpt lat="37.782314009964466" lon="-1.994500011205673">
        <ele>831.5</ele>
        <time>2018-04-18T10:22:51Z</time>
      </trkpt>
      <trkpt lat="37.782504027709365" lon="-1.994487019255757">
        <ele>832.5</ele>
        <time>2018-04-18T10:22:48Z</time>
      </trkpt>
      <trkpt lat="37.782569993287325" lon="-1.994485007598996">
        <ele>832.89999999999998</ele>
        <time>2018-04-18T10:22:47Z</time>
      </trkpt>
      <trkpt lat="37.782638976350427" lon="-1.9944710098207">
        <ele>832.89999999999998</ele>
        <time>2018-04-18T10:22:46Z</time>
      </trkpt>
      <trkpt lat="37.782705025747418" lon="-1.994443014264107">
        <ele>832.89999999999998</ele>
        <time>2018-04-18T10:22:45Z</time>
      </trkpt>
      <trkpt lat="37.782765962183475" lon="-1.994404960423708">
        <ele>832.89999999999998</ele>
        <time>2018-04-18T10:22:44Z</time>
      </trkpt>
      <trkpt lat="37.782818013802171" lon="-1.994351986795664">
        <ele>833</ele>
        <time>2018-04-18T10:22:43Z</time>
      </trkpt>
      <trkpt lat="37.782861012965441" lon="-1.994283003732562">
        <ele>833</ele>
        <time>2018-04-18T10:22:42Z</time>
      </trkpt>
      <trkpt lat="37.782894959673285" lon="-1.994200022891164">
        <ele>833</ele>
        <time>2018-04-18T10:22:41Z</time>
      </trkpt>
      <trkpt lat="37.78292203322053" lon="-1.994103966280818">
        <ele>832.89999999999998</ele>
        <time>2018-04-18T10:22:40Z</time>
      </trkpt>
      <trkpt lat="37.782937958836555" lon="-1.994000030681491">
        <ele>833.5</ele>
        <time>2018-04-18T10:22:39Z</time>
      </trkpt>
      <trkpt lat="37.782890014350414" lon="-1.993084978312254">
        <ele>835.39999999999998</ele>
        <time>2018-04-18T10:22:31Z</time>
      </trkpt>
      <trkpt lat="37.78290200047195" lon="-1.991913020610809">
        <ele>839.70000000000005</ele>
        <time>2018-04-18T10:22:20Z</time>
      </trkpt>
      <trkpt lat="37.78288196772337" lon="-1.991745969280601">
        <ele>840.60000000000002</ele>
        <time>2018-04-18T10:22:18Z</time>
      </trkpt>
      <trkpt lat="37.782863024622202" lon="-1.991662988439202">
        <ele>840.60000000000002</ele>
        <time>2018-04-18T10:22:17Z</time>
      </trkpt>
      <trkpt lat="37.782760011032224" lon="-1.991366017609835">
        <ele>841.60000000000002</ele>
        <time>2018-04-18T10:22:13Z</time>
      </trkpt>
      <trkpt lat="37.782739978283644" lon="-1.991302985697985">
        <ele>842.10000000000002</ele>
        <time>2018-04-18T10:22:12Z</time>
      </trkpt>
      <trkpt lat="37.782721035182476" lon="-1.991242971271277">
        <ele>842.10000000000002</ele>
        <time>2018-04-18T10:22:11Z</time>
      </trkpt>
      <trkpt lat="37.78271097689867" lon="-1.9911830406636">
        <ele>842.20000000000005</ele>
        <time>2018-04-18T10:22:10Z</time>
      </trkpt>
      <trkpt lat="37.78270703740418" lon="-1.991123026236892">
        <ele>842.60000000000002</ele>
        <time>2018-04-18T10:22:09Z</time>
      </trkpt>
      <trkpt lat="37.78270997107029" lon="-1.991065023466945">
        <ele>842.60000000000002</ele>
        <time>2018-04-18T10:22:08Z</time>
      </trkpt>
      <trkpt lat="37.78273000381887" lon="-1.991016995161772">
        <ele>842.70000000000005</ele>
        <time>2018-04-18T10:22:07Z</time>
      </trkpt>
      <trkpt lat="37.782765962183475" lon="-1.990981036797166">
        <ele>843.20000000000005</ele>
        <time>2018-04-18T10:22:06Z</time>
      </trkpt>
      <trkpt lat="37.782818013802171" lon="-1.990956980735064">
        <ele>843.20000000000005</ele>
        <time>2018-04-18T10:22:05Z</time>
      </trkpt>
      <trkpt lat="37.783614965155721" lon="-1.990835024043918">
        <ele>846.10000000000002</ele>
        <time>2018-04-18T10:21:53Z</time>
      </trkpt>
      <trkpt lat="37.78367699123919" lon="-1.990814991295338">
        <ele>846.10000000000002</ele>
        <time>2018-04-18T10:21:52Z</time>
      </trkpt>
      <trkpt lat="37.783732982352376" lon="-1.990783978253603">
        <ele>845.60000000000002</ele>
        <time>2018-04-18T10:21:51Z</time>
      </trkpt>
      <trkpt lat="37.783973040059209" lon="-1.990449959412217">
        <ele>845.60000000000002</ele>
        <time>2018-04-18T10:21:45Z</time>
      </trkpt>
      <trkpt lat="37.784005980938673" lon="-1.99038902297616">
        <ele>845.5</ele>
        <time>2018-04-18T10:21:44Z</time>
      </trkpt>
      <trkpt lat="37.784035988152027" lon="-1.990328002721071">
        <ele>845</ele>
        <time>2018-04-18T10:21:43Z</time>
      </trkpt>
      <trkpt lat="37.784059038385749" lon="-1.990265976637602">
        <ele>844.60000000000002</ele>
        <time>2018-04-18T10:21:42Z</time>
      </trkpt>
      <trkpt lat="37.784073958173394" lon="-1.990204034373164">
        <ele>844.5</ele>
        <time>2018-04-18T10:21:41Z</time>
      </trkpt>
      <trkpt lat="37.784078987315297" lon="-1.990143014118075">
        <ele>844</ele>
        <time>2018-04-18T10:21:40Z</time>
      </trkpt>
      <trkpt lat="37.78393498621881" lon="-1.989204995334148">
        <ele>839.70000000000005</ele>
        <time>2018-04-18T10:21:27Z</time>
      </trkpt>
      <trkpt lat="37.783930962905288" lon="-1.989126037806273">
        <ele>839.20000000000005</ele>
        <time>2018-04-18T10:21:26Z</time>
      </trkpt>
      <trkpt lat="37.783930040895939" lon="-1.989046996459365">
        <ele>839.20000000000005</ele>
        <time>2018-04-18T10:21:25Z</time>
      </trkpt>
      <trkpt lat="37.783935992047191" lon="-1.988966027274728">
        <ele>839.20000000000005</ele>
        <time>2018-04-18T10:21:24Z</time>
      </trkpt>
      <trkpt lat="37.783954013139009" lon="-1.988884974271059">
        <ele>839.29999999999995</ele>
        <time>2018-04-18T10:21:23Z</time>
      </trkpt>
      <trkpt lat="37.783985026180744" lon="-1.988806016743183">
        <ele>839.29999999999995</ele>
        <time>2018-04-18T10:21:22Z</time>
      </trkpt>
      <trkpt lat="37.784075969830155" lon="-1.988668972626329">
        <ele>839.20000000000005</ele>
        <time>2018-04-18T10:21:20Z</time>
      </trkpt>
      <trkpt lat="37.784580979496241" lon="-1.987800020724535">
        <ele>840.60000000000002</ele>
        <time>2018-04-18T10:21:08Z</time>
      </trkpt>
      <trkpt lat="37.784606963396072" lon="-1.987729026004672">
        <ele>840.60000000000002</ele>
        <time>2018-04-18T10:21:07Z</time>
      </trkpt>
      <trkpt lat="37.784638982266188" lon="-1.987582007423043">
        <ele>840.60000000000002</ele>
        <time>2018-04-18T10:21:05Z</time>
      </trkpt>
      <trkpt lat="37.784649040549994" lon="-1.98751101270318">
        <ele>840.60000000000002</ele>
        <time>2018-04-18T10:21:04Z</time>
      </trkpt>
      <trkpt lat="37.784655997529626" lon="-1.987442029640079">
        <ele>840.70000000000005</ele>
        <time>2018-04-18T10:21:03Z</time>
      </trkpt>
      <trkpt lat="37.784661026671529" lon="-1.987374974414706">
        <ele>841.10000000000002</ele>
        <time>2018-04-18T10:21:02Z</time>
      </trkpt>
      <trkpt lat="37.784671001136303" lon="-1.987305991351605">
        <ele>841.20000000000005</ele>
        <time>2018-04-18T10:21:01Z</time>
      </trkpt>
      <trkpt lat="37.78468600474298" lon="-1.987239019945264">
        <ele>841.20000000000005</ele>
        <time>2018-04-18T10:21:00Z</time>
      </trkpt>
      <trkpt lat="37.78470603749156" lon="-1.987176993861795">
        <ele>841.60000000000002</ele>
        <time>2018-04-18T10:20:59Z</time>
      </trkpt>
      <trkpt lat="37.784736966714263" lon="-1.987122008576989">
        <ele>842.10000000000002</ele>
        <time>2018-04-18T10:20:58Z</time>
      </trkpt>
      <trkpt lat="37.784778038039804" lon="-1.9870800152421">
        <ele>842.10000000000002</ele>
        <time>2018-04-18T10:20:57Z</time>
      </trkpt>
      <trkpt lat="37.784829000011086" lon="-1.987055037170649">
        <ele>842.60000000000002</ele>
        <time>2018-04-18T10:20:56Z</time>
      </trkpt>
      <trkpt lat="37.784947017207742" lon="-1.987033998593688">
        <ele>843.10000000000002</ele>
        <time>2018-04-18T10:20:54Z</time>
      </trkpt>
      <trkpt lat="37.78500996530056" lon="-1.987027041614056">
        <ele>843.60000000000002</ele>
        <time>2018-04-18T10:20:53Z</time>
      </trkpt>
      <trkpt lat="37.78507299721241" lon="-1.98701698333025">
        <ele>843.60000000000002</ele>
        <time>2018-04-18T10:20:52Z</time>
      </trkpt>
      <trkpt lat="37.785132005810738" lon="-1.987000973895192">
        <ele>844.20000000000005</ele>
        <time>2018-04-18T10:20:51Z</time>
      </trkpt>
      <trkpt lat="37.785190008580685" lon="-1.986978007480502">
        <ele>844.60000000000002</ele>
        <time>2018-04-18T10:20:50Z</time>
      </trkpt>
      <trkpt lat="37.785245999693871" lon="-1.986945988610387">
        <ele>845.10000000000002</ele>
        <time>2018-04-18T10:20:49Z</time>
      </trkpt>
      <trkpt lat="37.785298973321915" lon="-1.986906006932259">
        <ele>845.10000000000002</ele>
        <time>2018-04-18T10:20:48Z</time>
      </trkpt>
      <trkpt lat="37.785486979410052" lon="-1.986711965873838">
        <ele>846.10000000000002</ele>
        <time>2018-04-18T10:20:44Z</time>
      </trkpt>
      <trkpt lat="37.785538025200367" lon="-1.986664021387696">
        <ele>846.70000000000005</ele>
        <time>2018-04-18T10:20:43Z</time>
      </trkpt>
      <trkpt lat="37.785593010485172" lon="-1.986620016396046">
        <ele>846.70000000000005</ele>
        <time>2018-04-18T10:20:42Z</time>
      </trkpt>
      <trkpt lat="37.78565302491188" lon="-1.986585985869169">
        <ele>847.20000000000005</ele>
        <time>2018-04-18T10:20:41Z</time>
      </trkpt>
      <trkpt lat="37.785716978833079" lon="-1.986571988090873">
        <ele>847.60000000000002</ele>
        <time>2018-04-18T10:20:40Z</time>
      </trkpt>
      <trkpt lat="37.785784034058452" lon="-1.986573999747634">
        <ele>847.60000000000002</ele>
        <time>2018-04-18T10:20:39Z</time>
      </trkpt>
      <trkpt lat="37.785984026268125" lon="-1.986620016396046">
        <ele>848.60000000000002</ele>
        <time>2018-04-18T10:20:36Z</time>
      </trkpt>
      <trkpt lat="37.786044040694833" lon="-1.986635020002723">
        <ele>848.60000000000002</ele>
        <time>2018-04-18T10:20:35Z</time>
      </trkpt>
      <trkpt lat="37.786101037636399" lon="-1.986642982810736">
        <ele>849.10000000000002</ele>
        <time>2018-04-18T10:20:34Z</time>
      </trkpt>
      <trkpt lat="37.786154011264443" lon="-1.986638959497213">
        <ele>849.10000000000002</ele>
        <time>2018-04-18T10:20:33Z</time>
      </trkpt>
      <trkpt lat="37.786203967407346" lon="-1.986622028052807">
        <ele>849.60000000000002</ele>
        <time>2018-04-18T10:20:32Z</time>
      </trkpt>
      <trkpt lat="37.786253001540899" lon="-1.986594032496214">
        <ele>849.60000000000002</ele>
        <time>2018-04-18T10:20:31Z</time>
      </trkpt>
      <trkpt lat="37.786826994270086" lon="-1.986116012558341">
        <ele>852.60000000000002</ele>
        <time>2018-04-18T10:20:18Z</time>
      </trkpt>
      <trkpt lat="37.786873010918498" lon="-1.98609103448689">
        <ele>852.5</ele>
        <time>2018-04-18T10:20:17Z</time>
      </trkpt>
      <trkpt lat="37.78691902756691" lon="-1.986069995909929">
        <ele>852.5</ele>
        <time>2018-04-18T10:20:16Z</time>
      </trkpt>
      <trkpt lat="37.78696596622467" lon="-1.986053986474872">
        <ele>853.10000000000002</ele>
        <time>2018-04-18T10:20:15Z</time>
      </trkpt>
      <trkpt lat="37.787015000358224" lon="-1.986045017838478">
        <ele>853.10000000000002</ele>
        <time>2018-04-18T10:20:14Z</time>
      </trkpt>
      <trkpt lat="37.787424037232995" lon="-1.98600503616035">
        <ele>854.89999999999998</ele>
        <time>2018-04-18T10:20:03Z</time>
      </trkpt>
      <trkpt lat="37.787831984460354" lon="-1.985544031485915">
        <ele>854.39999999999998</ele>
        <time>2018-04-18T10:19:47Z</time>
      </trkpt>
      <trkpt lat="37.78793097473681" lon="-1.985367005690932">
        <ele>853.39999999999998</ele>
        <time>2018-04-18T10:19:43Z</time>
      </trkpt>
      <trkpt lat="37.788005992770195" lon="-1.985162990167737">
        <ele>852.89999999999998</ele>
        <time>2018-04-18T10:19:39Z</time>
      </trkpt>
      <trkpt lat="37.788026025518775" lon="-1.985109010711312">
        <ele>852.89999999999998</ele>
        <time>2018-04-18T10:19:38Z</time>
      </trkpt>
      <trkpt lat="37.788257030770183" lon="-1.984381964430213">
        <ele>850.60000000000002</ele>
        <time>2018-04-18T10:19:26Z</time>
      </trkpt>
      <trkpt lat="37.788267005234957" lon="-1.984319016337395">
        <ele>850.10000000000002</ele>
        <time>2018-04-18T10:19:25Z</time>
      </trkpt>
      <trkpt lat="37.788324002176523" lon="-1.984040988609195">
        <ele>850.10000000000002</ele>
        <time>2018-04-18T10:19:21Z</time>
      </trkpt>
      <trkpt lat="37.788489041849971" lon="-1.983592975884676">
        <ele>850</ele>
        <time>2018-04-18T10:19:14Z</time>
      </trkpt>
      <trkpt lat="37.788752987980843" lon="-1.982664009556174">
        <ele>849.5</ele>
        <time>2018-04-18T10:18:59Z</time>
      </trkpt>
      <trkpt lat="37.78876799158752" lon="-1.982602989301086">
        <ele>849</ele>
        <time>2018-04-18T10:18:58Z</time>
      </trkpt>
      <trkpt lat="37.788786012679338" lon="-1.982542974874377">
        <ele>849.10000000000002</ele>
        <time>2018-04-18T10:18:57Z</time>
      </trkpt>
      <trkpt lat="37.788807973265648" lon="-1.982487989589572">
        <ele>849</ele>
        <time>2018-04-18T10:18:56Z</time>
      </trkpt>
      <trkpt lat="37.78883496299386" lon="-1.982437027618289">
        <ele>849.5</ele>
        <time>2018-04-18T10:18:55Z</time>
      </trkpt>
      <trkpt lat="37.788866981863976" lon="-1.982392016798258">
        <ele>850</ele>
        <time>2018-04-18T10:18:54Z</time>
      </trkpt>
      <trkpt lat="37.788908975198865" lon="-1.98235496878624">
        <ele>850.10000000000002</ele>
        <time>2018-04-18T10:18:53Z</time>
      </trkpt>
      <trkpt lat="37.788953986018896" lon="-1.982323033735156">
        <ele>850.5</ele>
        <time>2018-04-18T10:18:52Z</time>
      </trkpt>
      <trkpt lat="37.78900302015245" lon="-1.982296966016293">
        <ele>850.60000000000002</ele>
        <time>2018-04-18T10:18:51Z</time>
      </trkpt>
      <trkpt lat="37.789099998772144" lon="-1.982263019308448">
        <ele>851.10000000000002</ele>
        <time>2018-04-18T10:18:49Z</time>
      </trkpt>
      <trkpt lat="37.78941297903657" lon="-1.982252039015293">
        <ele>853.5</ele>
        <time>2018-04-18T10:18:43Z</time>
      </trkpt>
      <trkpt lat="37.789466958492994" lon="-1.982257990166545">
        <ele>853.39999999999998</ele>
        <time>2018-04-18T10:18:42Z</time>
      </trkpt>
      <trkpt lat="37.789522027596831" lon="-1.982264025136828">
        <ele>854</ele>
        <time>2018-04-18T10:18:41Z</time>
      </trkpt>
      <trkpt lat="37.789577012881637" lon="-1.982262013480067">
        <ele>854.39999999999998</ele>
        <time>2018-04-18T10:18:40Z</time>
      </trkpt>
      <trkpt lat="37.789631998166442" lon="-1.982251033186913">
        <ele>854.39999999999998</ele>
        <time>2018-04-18T10:18:39Z</time>
      </trkpt>
      <trkpt lat="37.789684971794486" lon="-1.982227982953191">
        <ele>854.89999999999998</ele>
        <time>2018-04-18T10:18:38Z</time>
      </trkpt>
      <trkpt lat="37.789731994271278" lon="-1.982191018760204">
        <ele>855.39999999999998</ele>
        <time>2018-04-18T10:18:37Z</time>
      </trkpt>
      <trkpt lat="37.789770970121026" lon="-1.982142990455031">
        <ele>855.89999999999998</ele>
        <time>2018-04-18T10:18:36Z</time>
      </trkpt>
      <trkpt lat="37.789799971506" lon="-1.98209404014051">
        <ele>856.5</ele>
        <time>2018-04-18T10:18:35Z</time>
      </trkpt>
      <trkpt lat="37.789870966225863" lon="-1.981910979375243">
        <ele>856.89999999999998</ele>
        <time>2018-04-18T10:18:32Z</time>
      </trkpt>
      <trkpt lat="37.789893010631204" lon="-1.981847025454044">
        <ele>856.89999999999998</ele>
        <time>2018-04-18T10:18:31Z</time>
      </trkpt>
      <trkpt lat="37.789917988702655" lon="-1.981781981885433">
        <ele>856.89999999999998</ele>
        <time>2018-04-18T10:18:30Z</time>
      </trkpt>
      <trkpt lat="37.789947995916009" lon="-1.981719033792615">
        <ele>857</ele>
        <time>2018-04-18T10:18:29Z</time>
      </trkpt>
      <trkpt lat="37.789981020614505" lon="-1.981661031022668">
        <ele>857</ele>
        <time>2018-04-18T10:18:28Z</time>
      </trkpt>
      <trkpt lat="37.79001597315073" lon="-1.981607973575592">
        <ele>856.89999999999998</ele>
        <time>2018-04-18T10:18:27Z</time>
      </trkpt>
      <trkpt lat="37.790103983134031" lon="-1.981434971094132">
        <ele>856.89999999999998</ele>
        <time>2018-04-18T10:18:24Z</time>
      </trkpt>
      <trkpt lat="37.790127033367753" lon="-1.981373028829694">
        <ele>856.89999999999998</ele>
        <time>2018-04-18T10:18:23Z</time>
      </trkpt>
      <trkpt lat="37.790162991732359" lon="-1.981249982491136">
        <ele>856.89999999999998</ele>
        <time>2018-04-18T10:18:21Z</time>
      </trkpt>
      <trkpt lat="37.790181012824178" lon="-1.981180999428034">
        <ele>856.89999999999998</ele>
        <time>2018-04-18T10:18:20Z</time>
      </trkpt>
      <trkpt lat="37.790200039744377" lon="-1.981113022193313">
        <ele>857.39999999999998</ele>
        <time>2018-04-18T10:18:19Z</time>
      </trkpt>
      <trkpt lat="37.790224011987448" lon="-1.981048984453082">
        <ele>857.89999999999998</ele>
        <time>2018-04-18T10:18:18Z</time>
      </trkpt>
      <trkpt lat="37.790252007544041" lon="-1.980987964197993">
        <ele>858</ele>
        <time>2018-04-18T10:18:17Z</time>
      </trkpt>
      <trkpt lat="37.790387962013483" lon="-1.980773974210024">
        <ele>858.89999999999998</ele>
        <time>2018-04-18T10:18:13Z</time>
      </trkpt>
      <trkpt lat="37.790425010025501" lon="-1.980725023895502">
        <ele>859.5</ele>
        <time>2018-04-18T10:18:12Z</time>
      </trkpt>
      <trkpt lat="37.790547972545028" lon="-1.980525031685829">
        <ele>858.89999999999998</ele>
        <time>2018-04-18T10:18:08Z</time>
      </trkpt>
      <trkpt lat="37.790616033598781" lon="-1.980362003669143">
        <ele>859.5</ele>
        <time>2018-04-18T10:18:05Z</time>
      </trkpt>
      <trkpt lat="37.790661966428161" lon="-1.980197969824076">
        <ele>859</ele>
        <time>2018-04-18T10:18:02Z</time>
      </trkpt>
      <trkpt lat="37.790675964206457" lon="-1.980148013681173">
        <ele>859</ele>
        <time>2018-04-18T10:18:01Z</time>
      </trkpt>
      <trkpt lat="37.790721980854869" lon="-1.979997977614403">
        <ele>859</ele>
        <time>2018-04-18T10:17:58Z</time>
      </trkpt>
      <trkpt lat="37.790737990289927" lon="-1.979949027299881">
        <ele>858.89999999999998</ele>
        <time>2018-04-18T10:17:57Z</time>
      </trkpt>
      <trkpt lat="37.790757017210126" lon="-1.979900998994708">
        <ele>858.89999999999998</ele>
        <time>2018-04-18T10:17:56Z</time>
      </trkpt>
      <trkpt lat="37.790783001109958" lon="-1.979859005659819">
        <ele>859.39999999999998</ele>
        <time>2018-04-18T10:17:55Z</time>
      </trkpt>
      <trkpt lat="37.790816025808454" lon="-1.979824975132942">
        <ele>859.5</ele>
        <time>2018-04-18T10:17:54Z</time>
      </trkpt>
      <trkpt lat="37.790931025519967" lon="-1.979762027040124">
        <ele>860.39999999999998</ele>
        <time>2018-04-18T10:17:51Z</time>
      </trkpt>
      <trkpt lat="37.791256997734308" lon="-1.97969002649188">
        <ele>861.39999999999998</ele>
        <time>2018-04-18T10:17:43Z</time>
      </trkpt>
      <trkpt lat="37.791811041533947" lon="-1.97964602150023">
        <ele>865.29999999999995</ele>
        <time>2018-04-18T10:17:30Z</time>
      </trkpt>
      <trkpt lat="37.791843982413411" lon="-1.979634035378695">
        <ele>865.79999999999995</ele>
        <time>2018-04-18T10:17:29Z</time>
      </trkpt>
      <trkpt lat="37.791876001283526" lon="-1.97962699458003">
        <ele>865.89999999999998</ele>
        <time>2018-04-18T10:17:28Z</time>
      </trkpt>
      <trkpt lat="37.791906008496881" lon="-1.979631017893553">
        <ele>866.29999999999995</ele>
        <time>2018-04-18T10:17:27Z</time>
      </trkpt>
      <trkpt lat="37.791926041245461" lon="-1.97964702732861">
        <ele>866.39999999999998</ele>
        <time>2018-04-18T10:17:26Z</time>
      </trkpt>
      <trkpt lat="37.791935009881854" lon="-1.979672005400062">
        <ele>866.39999999999998</ele>
        <time>2018-04-18T10:17:25Z</time>
      </trkpt>
      <trkpt lat="37.791926963254809" lon="-1.979694971814752">
        <ele>866.29999999999995</ele>
        <time>2018-04-18T10:17:24Z</time>
      </trkpt>
      <trkpt lat="37.791912965476513" lon="-1.979707963764668">
        <ele>866.29999999999995</ele>
        <time>2018-04-18T10:17:23Z</time>
      </trkpt>
      <trkpt lat="37.791897039860487" lon="-1.979703018441796">
        <ele>866.89999999999998</ele>
        <time>2018-04-18T10:17:22Z</time>
      </trkpt>
      <trkpt lat="37.791887987405062" lon="-1.979678962379694">
        <ele>866.89999999999998</ele>
        <time>2018-04-18T10:17:21Z</time>
      </trkpt>
      <trkpt lat="37.791882958263159" lon="-1.979648033156991">
        <ele>867.39999999999998</ele>
        <time>2018-04-18T10:17:20Z</time>
      </trkpt>
      <trkpt lat="37.791876001283526" lon="-1.979619031772018">
        <ele>867.29999999999995</ele>
        <time>2018-04-18T10:17:19Z</time>
      </trkpt>
      <trkpt lat="37.791824033483863" lon="-1.979566980153322">
        <ele>868.79999999999995</ele>
        <time>2018-04-18T10:17:17Z</time>
      </trkpt>
      <trkpt lat="37.79095902107656" lon="-1.978861978277564">
        <ele>877</ele>
        <time>2018-04-18T10:17:05Z</time>
      </trkpt>
      <trkpt lat="37.790871011093259" lon="-1.978801963850856">
        <ele>878</ele>
        <time>2018-04-18T10:17:04Z</time>
      </trkpt>
      <trkpt lat="37.790000969544053" lon="-1.978524019941688">
        <ele>885.20000000000005</ele>
        <time>2018-04-18T10:16:55Z</time>
      </trkpt>
      <trkpt lat="37.788710994645953" lon="-1.978579005226493">
        <ele>894.79999999999995</ele>
        <time>2018-04-18T10:16:43Z</time>
      </trkpt>
      <trkpt lat="37.788605969399214" lon="-1.978583028540015">
        <ele>895.79999999999995</ele>
        <time>2018-04-18T10:16:42Z</time>
      </trkpt>
      <trkpt lat="37.788501027971506" lon="-1.978585962206125">
        <ele>896.20000000000005</ele>
        <time>2018-04-18T10:16:41Z</time>
      </trkpt>
      <trkpt lat="37.788398014381528" lon="-1.978599959984422">
        <ele>897.20000000000005</ele>
        <time>2018-04-18T10:16:40Z</time>
      </trkpt>
      <trkpt lat="37.788307992741466" lon="-1.978645976632834">
        <ele>897.79999999999995</ele>
        <time>2018-04-18T10:16:39Z</time>
      </trkpt>
      <trkpt lat="37.788227023556828" lon="-1.978711020201445">
        <ele>898.70000000000005</ele>
        <time>2018-04-18T10:16:38Z</time>
      </trkpt>
      <trkpt lat="37.788154017180204" lon="-1.97878897190094">
        <ele>899.20000000000005</ele>
        <time>2018-04-18T10:16:37Z</time>
      </trkpt>
      <trkpt lat="37.788090985268354" lon="-1.978873964399099">
        <ele>899.70000000000005</ele>
        <time>2018-04-18T10:16:36Z</time>
      </trkpt>
      <trkpt lat="37.787853023037314" lon="-1.979460027068853">
        <ele>904.10000000000002</ele>
        <time>2018-04-18T10:16:30Z</time>
      </trkpt>
      <trkpt lat="37.787816980853677" lon="-1.979548037052155">
        <ele>904.5</ele>
        <time>2018-04-18T10:16:29Z</time>
      </trkpt>
      <trkpt lat="37.787778005003929" lon="-1.979630012065172">
        <ele>905</ele>
        <time>2018-04-18T10:16:28Z</time>
      </trkpt>
      <trkpt lat="37.787729976698756" lon="-1.979705030098558">
        <ele>905.60000000000002</ele>
        <time>2018-04-18T10:16:27Z</time>
      </trkpt>
      <trkpt lat="37.787674991413951" lon="-1.979770995676518">
        <ele>906</ele>
        <time>2018-04-18T10:16:26Z</time>
      </trkpt>
      <trkpt lat="37.787485979497433" lon="-1.979911979287863">
        <ele>907.5</ele>
        <time>2018-04-18T10:16:23Z</time>
      </trkpt>
      <trkpt lat="37.787122959271073" lon="-1.980041982606053">
        <ele>909.79999999999995</ele>
        <time>2018-04-18T10:16:17Z</time>
      </trkpt>
      <trkpt lat="37.786847027018666" lon="-1.98005598038435">
        <ele>910.79999999999995</ele>
        <time>2018-04-18T10:16:12Z</time>
      </trkpt>
      <trkpt lat="37.786299018189311" lon="-1.97999102063477">
        <ele>911.29999999999995</ele>
        <time>2018-04-18T10:16:00Z</time>
      </trkpt>
      <trkpt lat="37.785923006013036" lon="-1.980062015354633">
        <ele>912.29999999999995</ele>
        <time>2018-04-18T10:15:51Z</time>
      </trkpt>
      <trkpt lat="37.785564009100199" lon="-1.980068972334266">
        <ele>913.79999999999995</ele>
        <time>2018-04-18T10:15:44Z</time>
      </trkpt>
      <trkpt lat="37.785264020785689" lon="-1.979887001216412">
        <ele>914.29999999999995</ele>
        <time>2018-04-18T10:15:37Z</time>
      </trkpt>
      <trkpt lat="37.785235019400716" lon="-1.979853976517916">
        <ele>914.70000000000005</ele>
        <time>2018-04-18T10:15:36Z</time>
      </trkpt>
      <trkpt lat="37.785200988873839" lon="-1.979822963476181">
        <ele>914.79999999999995</ele>
        <time>2018-04-18T10:15:35Z</time>
      </trkpt>
      <trkpt lat="37.785166036337614" lon="-1.979795973747969">
        <ele>914.79999999999995</ele>
        <time>2018-04-18T10:15:34Z</time>
      </trkpt>
      <trkpt lat="37.785129994153976" lon="-1.97977895848453">
        <ele>914.79999999999995</ele>
        <time>2018-04-18T10:15:33Z</time>
      </trkpt>
      <trkpt lat="37.785084983333945" lon="-1.979765966534615">
        <ele>914.79999999999995</ele>
        <time>2018-04-18T10:15:32Z</time>
      </trkpt>
      <trkpt lat="37.785040978342295" lon="-1.979760015383363">
        <ele>914.70000000000005</ele>
        <time>2018-04-18T10:15:31Z</time>
      </trkpt>
      <trkpt lat="37.784994961693883" lon="-1.979758003726602">
        <ele>914.70000000000005</ele>
        <time>2018-04-18T10:15:30Z</time>
      </trkpt>
      <trkpt lat="37.784950034692883" lon="-1.979762027040124">
        <ele>914.70000000000005</ele>
        <time>2018-04-18T10:15:29Z</time>
      </trkpt>
      <trkpt lat="37.784840986132622" lon="-1.979802008718252">
        <ele>914.70000000000005</ele>
        <time>2018-04-18T10:15:26Z</time>
      </trkpt>
      <trkpt lat="37.784618027508259" lon="-1.979965958744288">
        <ele>915.29999999999995</ele>
        <time>2018-04-18T10:15:19Z</time>
      </trkpt>
      <trkpt lat="37.784238997846842" lon="-1.980223031714559">
        <ele>914.70000000000005</ele>
        <time>2018-04-18T10:15:06Z</time>
      </trkpt>
      <trkpt lat="37.783878995105624" lon="-1.980544980615377">
        <ele>911.79999999999995</ele>
        <time>2018-04-18T10:14:53Z</time>
      </trkpt>
      <trkpt lat="37.783608008176088" lon="-1.980943037196994">
        <ele>909.5</ele>
        <time>2018-04-18T10:14:41Z</time>
      </trkpt>
      <trkpt lat="37.783361999318004" lon="-1.981320977210999">
        <ele>907</ele>
        <time>2018-04-18T10:14:30Z</time>
      </trkpt>
      <trkpt lat="37.783000990748405" lon="-1.981878960505128">
        <ele>906.60000000000002</ele>
        <time>2018-04-18T10:14:17Z</time>
      </trkpt>
      <trkpt lat="37.782740984112024" lon="-1.982277017086744">
        <ele>906.10000000000002</ele>
        <time>2018-04-18T10:14:08Z</time>
      </trkpt>
      <trkpt lat="37.78271097689867" lon="-1.982323033735156">
        <ele>905.60000000000002</ele>
        <time>2018-04-18T10:14:07Z</time>
      </trkpt>
      <trkpt lat="37.782681975513697" lon="-1.982369972392917">
        <ele>905.5</ele>
        <time>2018-04-18T10:14:06Z</time>
      </trkpt>
      <trkpt lat="37.782420963048935" lon="-1.982776997610927">
        <ele>904.5</ele>
        <time>2018-04-18T10:13:56Z</time>
      </trkpt>
      <trkpt lat="37.782205967232585" lon="-1.983121996745467">
        <ele>904</ele>
        <time>2018-04-18T10:13:46Z</time>
      </trkpt>
      <trkpt lat="37.78184998780489" lon="-1.983704958111048">
        <ele>901.10000000000002</ele>
        <time>2018-04-18T10:13:34Z</time>
      </trkpt>
      <trkpt lat="37.781668016687036" lon="-1.984108965843916">
        <ele>902.20000000000005</ele>
        <time>2018-04-18T10:13:29Z</time>
      </trkpt>
      <trkpt lat="37.781631974503398" lon="-1.984196975827217">
        <ele>902.20000000000005</ele>
        <time>2018-04-18T10:13:28Z</time>
      </trkpt>
      <trkpt lat="37.781585035845637" lon="-1.984279034659267">
        <ele>902.70000000000005</ele>
        <time>2018-04-18T10:13:27Z</time>
      </trkpt>
      <trkpt lat="37.781528038904071" lon="-1.984357992187142">
        <ele>903.20000000000005</ele>
        <time>2018-04-18T10:13:26Z</time>
      </trkpt>
      <trkpt lat="37.781458972021937" lon="-1.984426975250244">
        <ele>904.20000000000005</ele>
        <time>2018-04-18T10:13:25Z</time>
      </trkpt>
      <trkpt lat="37.781381020322442" lon="-1.984481960535049">
        <ele>904.70000000000005</ele>
        <time>2018-04-18T10:13:24Z</time>
      </trkpt>
      <trkpt lat="37.780433027073741" lon="-1.984841963276267">
        <ele>912.39999999999998</ele>
        <time>2018-04-18T10:13:13Z</time>
      </trkpt>
      <trkpt lat="37.779435999691486" lon="-1.985217975452542">
        <ele>919</ele>
        <time>2018-04-18T10:13:01Z</time>
      </trkpt>
      <trkpt lat="37.779356958344579" lon="-1.985257035121322">
        <ele>919.60000000000002</ele>
        <time>2018-04-18T10:13:00Z</time>
      </trkpt>
      <trkpt lat="37.779281018301845" lon="-1.985303973779082">
        <ele>920</ele>
        <time>2018-04-18T10:12:59Z</time>
      </trkpt>
      <trkpt lat="37.779010031372309" lon="-1.985537996515632">
        <ele>922.89999999999998</ele>
        <time>2018-04-18T10:12:55Z</time>
      </trkpt>
      <trkpt lat="37.778935013338923" lon="-1.985601028427482">
        <ele>923.89999999999998</ele>
        <time>2018-04-18T10:12:54Z</time>
      </trkpt>
      <trkpt lat="37.778796041384339" lon="-1.985732037574053">
        <ele>925.39999999999998</ele>
        <time>2018-04-18T10:12:52Z</time>
      </trkpt>
      <trkpt lat="37.778728986158967" lon="-1.985794985666871">
        <ele>925.89999999999998</ele>
        <time>2018-04-18T10:12:51Z</time>
      </trkpt>
      <trkpt lat="37.778656985610723" lon="-1.985855000093579">
        <ele>926.89999999999998</ele>
        <time>2018-04-18T10:12:50Z</time>
      </trkpt>
      <trkpt lat="37.778577022254467" lon="-1.985904034227133">
        <ele>927.29999999999995</ele>
        <time>2018-04-18T10:12:49Z</time>
      </trkpt>
      <trkpt lat="37.778492029756308" lon="-1.985938986763358">
        <ele>928.39999999999998</ele>
        <time>2018-04-18T10:12:48Z</time>
      </trkpt>
      <trkpt lat="37.778082992881536" lon="-1.98598500341177">
        <ele>931.20000000000005</ele>
        <time>2018-04-18T10:12:43Z</time>
      </trkpt>
      <trkpt lat="37.777279000729322" lon="-1.986063038930297">
        <ele>936.10000000000002</ele>
        <time>2018-04-18T10:12:31Z</time>
      </trkpt>
      <trkpt lat="37.777216974645853" lon="-1.986076030880213">
        <ele>936.10000000000002</ele>
        <time>2018-04-18T10:12:30Z</time>
      </trkpt>
      <trkpt lat="37.777050007134676" lon="-1.986165968701243">
        <ele>936</ele>
        <time>2018-04-18T10:12:27Z</time>
      </trkpt>
      <trkpt lat="37.776953028514981" lon="-1.986245010048151">
        <ele>936.5</ele>
        <time>2018-04-18T10:12:25Z</time>
      </trkpt>
      <trkpt lat="37.776816990226507" lon="-1.986411977559328">
        <ele>937.5</ele>
        <time>2018-04-18T10:12:21Z</time>
      </trkpt>
      <trkpt lat="37.776792012155056" lon="-1.986445002257824">
        <ele>937.60000000000002</ele>
        <time>2018-04-18T10:12:20Z</time>
      </trkpt>
      <trkpt lat="37.776768961921334" lon="-1.986471991986036">
        <ele>937.60000000000002</ele>
        <time>2018-04-18T10:12:19Z</time>
      </trkpt>
      <trkpt lat="37.776747001335025" lon="-1.986493030562997">
        <ele>938</ele>
        <time>2018-04-18T10:12:18Z</time>
      </trkpt>
      <trkpt lat="37.776727974414825" lon="-1.986508034169674">
        <ele>938.10000000000002</ele>
        <time>2018-04-18T10:12:17Z</time>
      </trkpt>
      <trkpt lat="37.776709031313658" lon="-1.986529994755983">
        <ele>938.5</ele>
        <time>2018-04-18T10:12:15Z</time>
      </trkpt>
      <trkpt lat="37.776709031313658" lon="-1.98654399253428">
        <ele>939.10000000000002</ele>
        <time>2018-04-18T10:12:14Z</time>
      </trkpt>
      <trkpt lat="37.776667037978768" lon="-1.986621022224426">
        <ele>938.60000000000002</ele>
        <time>2018-04-18T10:12:06Z</time>
      </trkpt>
      <trkpt lat="37.776655973866582" lon="-1.986638037487865">
        <ele>938</ele>
        <time>2018-04-18T10:12:05Z</time>
      </trkpt>
      <trkpt lat="37.776367971673608" lon="-1.986830988898873">
        <ele>938.5</ele>
        <time>2018-04-18T10:11:57Z</time>
      </trkpt>
      <trkpt lat="37.776309968903661" lon="-1.986854961141944">
        <ele>938</ele>
        <time>2018-04-18T10:11:56Z</time>
      </trkpt>
      <trkpt lat="37.776051973924041" lon="-1.986898966133595">
        <ele>937.5</ele>
        <time>2018-04-18T10:11:52Z</time>
      </trkpt>
      <trkpt lat="37.775986008346081" lon="-1.98690801858902">
        <ele>937.5</ele>
        <time>2018-04-18T10:11:51Z</time>
      </trkpt>
      <trkpt lat="37.77591903693974" lon="-1.986913969740272">
        <ele>937.60000000000002</ele>
        <time>2018-04-18T10:11:50Z</time>
      </trkpt>
      <trkpt lat="37.775852987542748" lon="-1.986913969740272">
        <ele>938.10000000000002</ele>
        <time>2018-04-18T10:11:49Z</time>
      </trkpt>
      <trkpt lat="37.77578903362155" lon="-1.986902989447117">
        <ele>938</ele>
        <time>2018-04-18T10:11:48Z</time>
      </trkpt>
      <trkpt lat="37.77572700753808" lon="-1.986875999718905">
        <ele>938.10000000000002</ele>
        <time>2018-04-18T10:11:47Z</time>
      </trkpt>
      <trkpt lat="37.775552999228239" lon="-1.986753959208727">
        <ele>938</ele>
        <time>2018-04-18T10:11:44Z</time>
      </trkpt>
      <trkpt lat="37.775494996458292" lon="-1.986711965873838">
        <ele>938</ele>
        <time>2018-04-18T10:11:43Z</time>
      </trkpt>
      <trkpt lat="37.775435987859964" lon="-1.98667299002409">
        <ele>938.5</ele>
        <time>2018-04-18T10:11:42Z</time>
      </trkpt>
      <trkpt lat="37.775373961776495" lon="-1.986642982810736">
        <ele>938.5</ele>
        <time>2018-04-18T10:11:41Z</time>
      </trkpt>
      <trkpt lat="37.775307996198535" lon="-1.986623033881187">
        <ele>938.5</ele>
        <time>2018-04-18T10:11:40Z</time>
      </trkpt>
      <trkpt lat="37.77465102262795" lon="-1.98661096394062">
        <ele>941.89999999999998</ele>
        <time>2018-04-18T10:11:31Z</time>
      </trkpt>
      <trkpt lat="37.774579022079706" lon="-1.986605012789369">
        <ele>941.89999999999998</ele>
        <time>2018-04-18T10:11:30Z</time>
      </trkpt>
      <trkpt lat="37.774505009874701" lon="-1.986585985869169">
        <ele>941.89999999999998</ele>
        <time>2018-04-18T10:11:29Z</time>
      </trkpt>
      <trkpt lat="37.774434015154839" lon="-1.986554972827435">
        <ele>942.39999999999998</ele>
        <time>2018-04-18T10:11:28Z</time>
      </trkpt>
      <trkpt lat="37.774367965757847" lon="-1.986504010856152">
        <ele>942.39999999999998</ele>
        <time>2018-04-18T10:11:27Z</time>
      </trkpt>
      <trkpt lat="37.774314992129803" lon="-1.986433016136289">
        <ele>943</ele>
        <time>2018-04-18T10:11:26Z</time>
      </trkpt>
      <trkpt lat="37.774274004623294" lon="-1.98634902946651">
        <ele>943.5</ele>
        <time>2018-04-18T10:11:25Z</time>
      </trkpt>
      <trkpt lat="37.774235028773546" lon="-1.98626697063446">
        <ele>943.5</ele>
        <time>2018-04-18T10:11:24Z</time>
      </trkpt>
      <trkpt lat="37.774188006296754" lon="-1.986191030591726">
        <ele>943.89999999999998</ele>
        <time>2018-04-18T10:11:23Z</time>
      </trkpt>
      <trkpt lat="37.773811994120479" lon="-1.985865980386734">
        <ele>945.29999999999995</ele>
        <time>2018-04-18T10:11:17Z</time>
      </trkpt>
      <trkpt lat="37.773241018876433" lon="-1.985176987946034">
        <ele>948.29999999999995</ele>
        <time>2018-04-18T10:11:07Z</time>
      </trkpt>
      <trkpt lat="37.773184021934867" lon="-1.985102975741029">
        <ele>948.70000000000005</ele>
        <time>2018-04-18T10:11:06Z</time>
      </trkpt>
      <trkpt lat="37.773123001679778" lon="-1.985030975192785">
        <ele>948.79999999999995</ele>
        <time>2018-04-18T10:11:05Z</time>
      </trkpt>
      <trkpt lat="37.773046977818012" lon="-1.984970038756728">
        <ele>948.70000000000005</ele>
        <time>2018-04-18T10:11:04Z</time>
      </trkpt>
      <trkpt lat="37.772968020290136" lon="-1.984916981309652">
        <ele>949.70000000000005</ele>
        <time>2018-04-18T10:11:03Z</time>
      </trkpt>
      <trkpt lat="37.772814966738224" lon="-1.98484699241817">
        <ele>950.79999999999995</ele>
        <time>2018-04-18T10:11:01Z</time>
      </trkpt>
      <trkpt lat="37.771951965987682" lon="-1.984185995534062">
        <ele>954.70000000000005</ele>
        <time>2018-04-18T10:10:48Z</time>
      </trkpt>
      <trkpt lat="37.7718819770962" lon="-1.984135033562779">
        <ele>955.10000000000002</ele>
        <time>2018-04-18T10:10:47Z</time>
      </trkpt>
      <trkpt lat="37.771807964891195" lon="-1.984089016914368">
        <ele>955.70000000000005</ele>
        <time>2018-04-18T10:10:46Z</time>
      </trkpt>
      <trkpt lat="37.771728001534939" lon="-1.984061021357775">
        <ele>956.70000000000005</ele>
        <time>2018-04-18T10:10:45Z</time>
      </trkpt>
      <trkpt lat="37.771647032350302" lon="-1.984060015529394">
        <ele>956.70000000000005</ele>
        <time>2018-04-18T10:10:44Z</time>
      </trkpt>
      <trkpt lat="37.771572014316916" lon="-1.98409496806562">
        <ele>957.10000000000002</ele>
        <time>2018-04-18T10:10:43Z</time>
      </trkpt>
      <trkpt lat="37.771509988233447" lon="-1.984161017462611">
        <ele>957.60000000000002</ele>
        <time>2018-04-18T10:10:42Z</time>
      </trkpt>
      <trkpt lat="37.771307984367013" lon="-1.984621016308665">
        <ele>959</ele>
        <time>2018-04-18T10:10:37Z</time>
      </trkpt>
      <trkpt lat="37.771272026002407" lon="-1.984713971614838">
        <ele>959.60000000000002</ele>
        <time>2018-04-18T10:10:36Z</time>
      </trkpt>
      <trkpt lat="37.771231960505247" lon="-1.984801981598139">
        <ele>960</ele>
        <time>2018-04-18T10:10:35Z</time>
      </trkpt>
      <trkpt lat="37.771184016019106" lon="-1.984886974096298">
        <ele>960.5</ele>
        <time>2018-04-18T10:10:34Z</time>
      </trkpt>
      <trkpt lat="37.771129030734301" lon="-1.984967021271586">
        <ele>961.10000000000002</ele>
        <time>2018-04-18T10:10:33Z</time>
      </trkpt>
      <trkpt lat="37.771065998822451" lon="-1.985043967142701">
        <ele>961.60000000000002</ele>
        <time>2018-04-18T10:10:32Z</time>
      </trkpt>
      <trkpt lat="37.770703984424472" lon="-1.985330963507295">
        <ele>964.5</ele>
        <time>2018-04-18T10:10:27Z</time>
      </trkpt>
      <trkpt lat="37.77063500136137" lon="-1.985382009297609">
        <ele>964.5</ele>
        <time>2018-04-18T10:10:26Z</time>
      </trkpt>
      <trkpt lat="37.770570041611791" lon="-1.985433977097273">
        <ele>965</ele>
        <time>2018-04-18T10:10:25Z</time>
      </trkpt>
      <trkpt lat="37.770512038841844" lon="-1.98549197986722">
        <ele>965.39999999999998</ele>
        <time>2018-04-18T10:10:24Z</time>
      </trkpt>
      <trkpt lat="37.770470967516303" lon="-1.985562974587083">
        <ele>965.5</ele>
        <time>2018-04-18T10:10:23Z</time>
      </trkpt>
      <trkpt lat="37.77044196613133" lon="-1.985647967085242">
        <ele>965.89999999999998</ele>
        <time>2018-04-18T10:10:22Z</time>
      </trkpt>
      <trkpt lat="37.770424028858542" lon="-1.985740000382066">
        <ele>966.5</ele>
        <time>2018-04-18T10:10:21Z</time>
      </trkpt>
      <trkpt lat="37.770394021645188" lon="-1.985831027850509">
        <ele>966.89999999999998</ele>
        <time>2018-04-18T10:10:20Z</time>
      </trkpt>
      <trkpt lat="37.77035697363317" lon="-1.985913002863526">
        <ele>967.39999999999998</ele>
        <time>2018-04-18T10:10:19Z</time>
      </trkpt>
      <trkpt lat="37.770311962813139" lon="-1.985981985926628">
        <ele>967.89999999999998</ele>
        <time>2018-04-18T10:10:18Z</time>
      </trkpt>
      <trkpt lat="37.770255971699953" lon="-1.986030014231801">
        <ele>968.39999999999998</ele>
        <time>2018-04-18T10:10:17Z</time>
      </trkpt>
      <trkpt lat="37.76984098367393" lon="-1.986146019771695">
        <ele>970.29999999999995</ele>
        <time>2018-04-18T10:10:11Z</time>
      </trkpt>
      <trkpt lat="37.769769988954067" lon="-1.98615800589323">
        <ele>970.79999999999995</ele>
        <time>2018-04-18T10:10:10Z</time>
      </trkpt>
      <trkpt lat="37.769700000062585" lon="-1.986163035035133">
        <ele>971.29999999999995</ele>
        <time>2018-04-18T10:10:09Z</time>
      </trkpt>
      <trkpt lat="37.769632022827864" lon="-1.986162029206753">
        <ele>971.89999999999998</ele>
        <time>2018-04-18T10:10:08Z</time>
      </trkpt>
      <trkpt lat="37.769564967602491" lon="-1.986149959266186">
        <ele>971.89999999999998</ele>
        <time>2018-04-18T10:10:07Z</time>
      </trkpt>
      <trkpt lat="37.769500007852912" lon="-1.986122969537973">
        <ele>972.29999999999995</ele>
        <time>2018-04-18T10:10:06Z</time>
      </trkpt>
      <trkpt lat="37.769442005082965" lon="-1.986088017001748">
        <ele>972.39999999999998</ele>
        <time>2018-04-18T10:10:05Z</time>
      </trkpt>
      <trkpt lat="37.76938802562654" lon="-1.986045017838478">
        <ele>972.79999999999995</ele>
        <time>2018-04-18T10:10:04Z</time>
      </trkpt>
      <trkpt lat="37.769339997321367" lon="-1.985991038382053">
        <ele>973.29999999999995</ele>
        <time>2018-04-18T10:10:03Z</time>
      </trkpt>
      <trkpt lat="37.76930102147162" lon="-1.985923983156681">
        <ele>973.29999999999995</ele>
        <time>2018-04-18T10:10:02Z</time>
      </trkpt>
      <trkpt lat="37.769273025915027" lon="-1.985846031457186">
        <ele>973.79999999999995</ele>
        <time>2018-04-18T10:10:01Z</time>
      </trkpt>
      <trkpt lat="37.76926196180284" lon="-1.985761960968375">
        <ele>973.79999999999995</ele>
        <time>2018-04-18T10:10:00Z</time>
      </trkpt>
      <trkpt lat="37.769267996773124" lon="-1.985677974298596">
        <ele>973.89999999999998</ele>
        <time>2018-04-18T10:09:59Z</time>
      </trkpt>
      <trkpt lat="37.769287023693323" lon="-1.98559801094234">
        <ele>974.39999999999998</ele>
        <time>2018-04-18T10:09:58Z</time>
      </trkpt>
      <trkpt lat="37.769307978451252" lon="-1.985517041757703">
        <ele>974.79999999999995</ele>
        <time>2018-04-18T10:09:57Z</time>
      </trkpt>
      <trkpt lat="37.769321976229548" lon="-1.985430037602782">
        <ele>975.29999999999995</ele>
        <time>2018-04-18T10:09:56Z</time>
      </trkpt>
      <trkpt lat="37.76932398788631" lon="-1.985341021791101">
        <ele>975.89999999999998</ele>
        <time>2018-04-18T10:09:55Z</time>
      </trkpt>
      <trkpt lat="37.769303033128381" lon="-1.985256029292941">
        <ele>976.29999999999995</ele>
        <time>2018-04-18T10:09:54Z</time>
      </trkpt>
      <trkpt lat="37.76926196180284" lon="-1.985185034573078">
        <ele>976.79999999999995</ele>
        <time>2018-04-18T10:09:53Z</time>
      </trkpt>
      <trkpt lat="37.769198007881641" lon="-1.985131977126002">
        <ele>977.29999999999995</ele>
        <time>2018-04-18T10:09:52Z</time>
      </trkpt>
      <trkpt lat="37.768277004361153" lon="-1.984692011028528">
        <ele>982.20000000000005</ele>
        <time>2018-04-18T10:09:40Z</time>
      </trkpt>
      <trkpt lat="37.768200980499387" lon="-1.984659992158413">
        <ele>982.60000000000002</ele>
        <time>2018-04-18T10:09:39Z</time>
      </trkpt>
      <trkpt lat="37.768128979951143" lon="-1.984620010480285">
        <ele>983.60000000000002</ele>
        <time>2018-04-18T10:09:38Z</time>
      </trkpt>
      <trkpt lat="37.768059996888041" lon="-1.984570976346731">
        <ele>983.70000000000005</ele>
        <time>2018-04-18T10:09:37Z</time>
      </trkpt>
      <trkpt lat="37.767995037138462" lon="-1.984516996890307">
        <ele>984.60000000000002</ele>
        <time>2018-04-18T10:09:36Z</time>
      </trkpt>
      <trkpt lat="37.767932005226612" lon="-1.984467040747404">
        <ele>985.20000000000005</ele>
        <time>2018-04-18T10:09:35Z</time>
      </trkpt>
      <trkpt lat="37.767857993021607" lon="-1.984433010220528">
        <ele>985.20000000000005</ele>
        <time>2018-04-18T10:09:34Z</time>
      </trkpt>
      <trkpt lat="37.767781969159842" lon="-1.984413983300328">
        <ele>985.70000000000005</ele>
        <time>2018-04-18T10:09:33Z</time>
      </trkpt>
      <trkpt lat="37.767707034945488" lon="-1.984407026320696">
        <ele>986.10000000000002</ele>
        <time>2018-04-18T10:09:32Z</time>
      </trkpt>
      <trkpt lat="37.76726296171546" lon="-1.984463017433882">
        <ele>987.5</ele>
        <time>2018-04-18T10:09:26Z</time>
      </trkpt>
      <trkpt lat="37.767190039157867" lon="-1.984467962756753">
        <ele>987.5</ele>
        <time>2018-04-18T10:09:25Z</time>
      </trkpt>
      <trkpt lat="37.767119966447353" lon="-1.984463017433882">
        <ele>988.10000000000002</ele>
        <time>2018-04-18T10:09:24Z</time>
      </trkpt>
      <trkpt lat="37.767056012526155" lon="-1.984435021877289">
        <ele>988</ele>
        <time>2018-04-18T10:09:23Z</time>
      </trkpt>
      <trkpt lat="37.766995998099446" lon="-1.984389005228877">
        <ele>988</ele>
        <time>2018-04-18T10:09:22Z</time>
      </trkpt>
      <trkpt lat="37.766390992328525" lon="-1.983287958428264">
        <ele>992.79999999999995</ele>
        <time>2018-04-18T10:09:10Z</time>
      </trkpt>
      <trkpt lat="37.766328966245055" lon="-1.983204977586865">
        <ele>992.89999999999998</ele>
        <time>2018-04-18T10:09:09Z</time>
      </trkpt>
      <trkpt lat="37.766264006495476" lon="-1.983129037544131">
        <ele>993.29999999999995</ele>
        <time>2018-04-18T10:09:08Z</time>
      </trkpt>
      <trkpt lat="37.766191000118852" lon="-1.98306298814714">
        <ele>993.39999999999998</ele>
        <time>2018-04-18T10:09:07Z</time>
      </trkpt>
      <trkpt lat="37.766111958771944" lon="-1.983013032004237">
        <ele>993.89999999999998</ele>
        <time>2018-04-18T10:09:06Z</time>
      </trkpt>
      <trkpt lat="37.765769977122545" lon="-1.982907000929117">
        <ele>995.20000000000005</ele>
        <time>2018-04-18T10:09:02Z</time>
      </trkpt>
      <trkpt lat="37.764965984970331" lon="-1.982631990686059">
        <ele>999.60000000000002</ele>
        <time>2018-04-18T10:08:51Z</time>
      </trkpt>
      <trkpt lat="37.764360979199409" lon="-1.982208034023643">
        <ele>1003.9</ele>
        <time>2018-04-18T10:08:40Z</time>
      </trkpt>
      <trkpt lat="37.764188982546329" lon="-1.982124969363213">
        <ele>1005.4</ele>
        <time>2018-04-18T10:08:36Z</time>
      </trkpt>
      <trkpt lat="37.76414598338306" lon="-1.982111977413297">
        <ele>1005.4</ele>
        <time>2018-04-18T10:08:35Z</time>
      </trkpt>
      <trkpt lat="37.763949008658528" lon="-1.982086999341846">
        <ele>1005.9</ele>
        <time>2018-04-18T10:08:30Z</time>
      </trkpt>
      <trkpt lat="37.763609038665891" lon="-1.982068978250027">
        <ele>1006.8</ele>
        <time>2018-04-18T10:08:18Z</time>
      </trkpt>
      <trkpt lat="37.763593029230833" lon="-1.982071995735169">
        <ele>1006.8</ele>
        <time>2018-04-18T10:08:17Z</time>
      </trkpt>
      <trkpt lat="37.763485992327332" lon="-1.982047017663717">
        <ele>1006.4</ele>
        <time>2018-04-18T10:08:07Z</time>
      </trkpt>
      <trkpt lat="37.763312989845872" lon="-1.982026984915137">
        <ele>1007.7</ele>
        <time>2018-04-18T10:07:56Z</time>
      </trkpt>
      <trkpt lat="37.763030016794801" lon="-1.981909973546863">
        <ele>1008.8</ele>
        <time>2018-04-18T10:07:44Z</time>
      </trkpt>
      <trkpt lat="37.762790964916348" lon="-1.981621971353889">
        <ele>1009.2</ele>
        <time>2018-04-18T10:07:29Z</time>
      </trkpt>
      <trkpt lat="37.762545039877295" lon="-1.981360036879778">
        <ele>1008.7</ele>
        <time>2018-04-18T10:07:13Z</time>
      </trkpt>
      <trkpt lat="37.762414030730724" lon="-1.980952005833387">
        <ele>1005.4</ele>
        <time>2018-04-18T10:06:55Z</time>
      </trkpt>
      <trkpt lat="37.762361979112029" lon="-1.980497958138585">
        <ele>1000</ele>
        <time>2018-04-18T10:06:37Z</time>
      </trkpt>
      <trkpt lat="37.762251002714038" lon="-1.980064027011395">
        <ele>997.60000000000002</ele>
        <time>2018-04-18T10:06:18Z</time>
      </trkpt>
      <trkpt lat="37.762013040482998" lon="-1.979744005948305">
        <ele>994.70000000000005</ele>
        <time>2018-04-18T10:05:59Z</time>
      </trkpt>
      <trkpt lat="37.761768959462643" lon="-1.979456003755331">
        <ele>992.79999999999995</ele>
        <time>2018-04-18T10:05:41Z</time>
      </trkpt>
      <trkpt lat="37.761495960876346" lon="-1.979117961600423">
        <ele>988.5</ele>
        <time>2018-04-18T10:05:20Z</time>
      </trkpt>
      <trkpt lat="37.761275013908744" lon="-1.978927021846175">
        <ele>986.60000000000002</ele>
        <time>2018-04-18T10:05:06Z</time>
      </trkpt>
      <trkpt lat="37.761002015322447" lon="-1.978901037946343">
        <ele>984.79999999999995</ele>
        <time>2018-04-18T10:04:52Z</time>
      </trkpt>
      <trkpt lat="37.760744020342827" lon="-1.978910006582737">
        <ele>981.89999999999998</ele>
        <time>2018-04-18T10:04:38Z</time>
      </trkpt>
      <trkpt lat="37.760503962635994" lon="-1.979055013507605">
        <ele>980</ele>
        <time>2018-04-18T10:04:24Z</time>
      </trkpt>
      <trkpt lat="37.760344035923481" lon="-1.979176970198751">
        <ele>979</ele>
        <time>2018-04-18T10:04:12Z</time>
      </trkpt>
      <trkpt lat="37.760330960154533" lon="-1.979190967977047">
        <ele>978.39999999999998</ele>
        <time>2018-04-18T10:04:11Z</time>
      </trkpt>
      <trkpt lat="37.760234987363219" lon="-1.979287024587393">
        <ele>977</ele>
        <time>2018-04-18T10:04:03Z</time>
      </trkpt>
      <trkpt lat="37.760024014860392" lon="-1.979464972391725">
        <ele>973.20000000000005</ele>
        <time>2018-04-18T10:03:50Z</time>
      </trkpt>
      <trkpt lat="37.759801978245378" lon="-1.979415016248822">
        <ele>971.20000000000005</ele>
        <time>2018-04-18T10:03:38Z</time>
      </trkpt>
      <trkpt lat="37.759582959115505" lon="-1.97928199544549">
        <ele>968.79999999999995</ele>
        <time>2018-04-18T10:03:24Z</time>
      </trkpt>
      <trkpt lat="37.759344996884465" lon="-1.979232039302588">
        <ele>967</ele>
        <time>2018-04-18T10:03:10Z</time>
      </trkpt>
      <trkpt lat="37.759055988863111" lon="-1.979246037080884">
        <ele>965</ele>
        <time>2018-04-18T10:02:55Z</time>
      </trkpt>
      <trkpt lat="37.758778966963291" lon="-1.979276966303587">
        <ele>962.10000000000002</ele>
        <time>2018-04-18T10:02:40Z</time>
      </trkpt>
      <trkpt lat="37.758504962548614" lon="-1.979228015989065">
        <ele>961.70000000000005</ele>
        <time>2018-04-18T10:02:26Z</time>
      </trkpt>
      <trkpt lat="37.758327014744282" lon="-1.979033974930644">
        <ele>963.60000000000002</ele>
        <time>2018-04-18T10:02:13Z</time>
      </trkpt>
      <trkpt lat="37.758311005309224" lon="-1.978570036590099">
        <ele>960.60000000000002</ele>
        <time>2018-04-18T10:01:54Z</time>
      </trkpt>
      <trkpt lat="37.758319973945618" lon="-1.978136021643877">
        <ele>956.39999999999998</ele>
        <time>2018-04-18T10:01:37Z</time>
      </trkpt>
      <trkpt lat="37.758284015581012" lon="-1.977693038061261">
        <ele>951.60000000000002</ele>
        <time>2018-04-18T10:01:19Z</time>
      </trkpt>
      <trkpt lat="37.758132973685861" lon="-1.977253993973136">
        <ele>944.79999999999995</ele>
        <time>2018-04-18T10:01:00Z</time>
      </trkpt>
      <trkpt lat="37.758006993681192" lon="-1.976929027587175">
        <ele>943</ele>
        <time>2018-04-18T10:00:45Z</time>
      </trkpt>
      <trkpt lat="37.757812030613422" lon="-1.976601965725422">
        <ele>941.10000000000002</ele>
        <time>2018-04-18T10:00:27Z</time>
      </trkpt>
      <trkpt lat="37.757612960413098" lon="-1.976356040686369">
        <ele>938.20000000000005</ele>
        <time>2018-04-18T10:00:11Z</time>
      </trkpt>
      <trkpt lat="37.757361000403762" lon="-1.976159987971187">
        <ele>934.39999999999998</ele>
        <time>2018-04-18T09:59:55Z</time>
      </trkpt>
      <trkpt lat="37.757179029285908" lon="-1.975823035463691">
        <ele>930.5</ele>
        <time>2018-04-18T09:59:39Z</time>
      </trkpt>
      <trkpt lat="37.757124966010451" lon="-1.97543696500361">
        <ele>927.10000000000002</ele>
        <time>2018-04-18T09:59:23Z</time>
      </trkpt>
      <trkpt lat="37.757124966010451" lon="-1.97541399858892">
        <ele>927.10000000000002</ele>
        <time>2018-04-18T09:59:22Z</time>
      </trkpt>
      <trkpt lat="37.757124966010451" lon="-1.975390026345849">
        <ele>927.70000000000005</ele>
        <time>2018-04-18T09:59:21Z</time>
      </trkpt>
      <trkpt lat="37.757128989323974" lon="-1.975365970283747">
        <ele>927.70000000000005</ele>
        <time>2018-04-18T09:59:20Z</time>
      </trkpt>
      <trkpt lat="37.757135024294257" lon="-1.975343003869057">
        <ele>928.20000000000005</ele>
        <time>2018-04-18T09:59:19Z</time>
      </trkpt>
      <trkpt lat="37.757171988487244" lon="-1.97515700943768">
        <ele>928.20000000000005</ele>
        <time>2018-04-18T09:59:11Z</time>
      </trkpt>
      <trkpt lat="37.757238959893584" lon="-1.97481301613152">
        <ele>929.20000000000005</ele>
        <time>2018-04-18T09:58:55Z</time>
      </trkpt>
      <trkpt lat="37.757235020399094" lon="-1.974796000868082">
        <ele>929.10000000000002</ele>
        <time>2018-04-18T09:58:54Z</time>
      </trkpt>
      <trkpt lat="37.757229991257191" lon="-1.974778985604644">
        <ele>928.60000000000002</ele>
        <time>2018-04-18T09:58:53Z</time>
      </trkpt>
      <trkpt lat="37.757221022620797" lon="-1.974764987826347">
        <ele>928.60000000000002</ele>
        <time>2018-04-18T09:58:52Z</time>
      </trkpt>
      <trkpt lat="37.757207024842501" lon="-1.974753001704812">
        <ele>928.20000000000005</ele>
        <time>2018-04-18T09:58:51Z</time>
      </trkpt>
      <trkpt lat="37.757189003750682" lon="-1.974744033068419">
        <ele>927.60000000000002</ele>
        <time>2018-04-18T09:58:50Z</time>
      </trkpt>
      <trkpt lat="37.757172994315624" lon="-1.974735986441374">
        <ele>927.60000000000002</ele>
        <time>2018-04-18T09:58:49Z</time>
      </trkpt>
      <trkpt lat="37.757157990708947" lon="-1.974731963127852">
        <ele>927.60000000000002</ele>
        <time>2018-04-18T09:58:48Z</time>
      </trkpt>
      <trkpt lat="37.757128989323974" lon="-1.974743027240038">
        <ele>928.10000000000002</ele>
        <time>2018-04-18T09:58:46Z</time>
      </trkpt>
      <trkpt lat="37.757113985717297" lon="-1.97474998421967">
        <ele>928.20000000000005</ele>
        <time>2018-04-18T09:58:45Z</time>
      </trkpt>
      <trkpt lat="37.757019018754363" lon="-1.974992975592613">
        <ele>925.79999999999995</ele>
        <time>2018-04-18T09:58:32Z</time>
      </trkpt>
      <trkpt lat="37.75692799128592" lon="-1.975320037454367">
        <ele>922.29999999999995</ele>
        <time>2018-04-18T09:58:17Z</time>
      </trkpt>
      <trkpt lat="37.756836041808128" lon="-1.975675011053681">
        <ele>919</ele>
        <time>2018-04-18T09:58:01Z</time>
      </trkpt>
      <trkpt lat="37.756780972704291" lon="-1.975982040166855">
        <ele>917.5</ele>
        <time>2018-04-18T09:57:47Z</time>
      </trkpt>
      <trkpt lat="37.756672007963061" lon="-1.976247997954488">
        <ele>915.60000000000002</ele>
        <time>2018-04-18T09:57:34Z</time>
      </trkpt>
      <trkpt lat="37.756513003259897" lon="-1.976543962955475">
        <ele>912.70000000000005</ele>
        <time>2018-04-18T09:57:20Z</time>
      </trkpt>
      <trkpt lat="37.756457012146711" lon="-1.976958028972149">
        <ele>910.79999999999995</ele>
        <time>2018-04-18T09:57:04Z</time>
      </trkpt>
      <trkpt lat="37.756374031305313" lon="-1.977314008399844">
        <ele>907.89999999999998</ele>
        <time>2018-04-18T09:56:50Z</time>
      </trkpt>
      <trkpt lat="37.756122993305326" lon="-1.977488016709685">
        <ele>905.5</ele>
        <time>2018-04-18T09:56:38Z</time>
      </trkpt>
      <trkpt lat="37.756107989698648" lon="-1.977495979517698">
        <ele>905.60000000000002</ele>
        <time>2018-04-18T09:56:37Z</time>
      </trkpt>
      <trkpt lat="37.756096003577113" lon="-1.977506037801504">
        <ele>905.60000000000002</ele>
        <time>2018-04-18T09:56:36Z</time>
      </trkpt>
      <trkpt lat="37.755956025794148" lon="-1.977618020027876">
        <ele>906</ele>
        <time>2018-04-18T09:56:28Z</time>
      </trkpt>
      <trkpt lat="37.755911014974117" lon="-1.977962013334036">
        <ele>902.70000000000005</ele>
        <time>2018-04-18T09:56:14Z</time>
      </trkpt>
      <trkpt lat="37.755898023024201" lon="-1.978382030501962">
        <ele>901.29999999999995</ele>
        <time>2018-04-18T09:56:02Z</time>
      </trkpt>
      <trkpt lat="37.755687972530723" lon="-1.978671038523316">
        <ele>900.79999999999995</ele>
        <time>2018-04-18T09:55:52Z</time>
      </trkpt>
      <trkpt lat="37.755325958132744" lon="-1.978443972766399">
        <ele>898.89999999999998</ele>
        <time>2018-04-18T09:55:37Z</time>
      </trkpt>
      <trkpt lat="37.755112973973155" lon="-1.977896969765425">
        <ele>894.60000000000002</ele>
        <time>2018-04-18T09:55:19Z</time>
      </trkpt>
      <trkpt lat="37.754888003692031" lon="-1.977324988692999">
        <ele>891.20000000000005</ele>
        <time>2018-04-18T09:55:03Z</time>
      </trkpt>
      <trkpt lat="37.75467099621892" lon="-1.976772034540772">
        <ele>889.29999999999995</ele>
        <time>2018-04-18T09:54:48Z</time>
      </trkpt>
      <trkpt lat="37.754381988197565" lon="-1.9761230237782">
        <ele>890.20000000000005</ele>
        <time>2018-04-18T09:54:32Z</time>
      </trkpt>
      <trkpt lat="37.754022991284728" lon="-1.975613990798593">
        <ele>890.70000000000005</ele>
        <time>2018-04-18T09:54:17Z</time>
      </trkpt>
      <trkpt lat="37.753690984100103" lon="-1.97507000528276">
        <ele>893.60000000000002</ele>
        <time>2018-04-18T09:54:02Z</time>
      </trkpt>
      <trkpt lat="37.753438018262386" lon="-1.974763981997967">
        <ele>894.10000000000002</ele>
        <time>2018-04-18T09:53:51Z</time>
      </trkpt>
      <trkpt lat="37.752941977232695" lon="-1.974866995587945">
        <ele>892.29999999999995</ele>
        <time>2018-04-18T09:53:36Z</time>
      </trkpt>
      <trkpt lat="37.752583986148238" lon="-1.975079979747534">
        <ele>892.70000000000005</ele>
        <time>2018-04-18T09:53:25Z</time>
      </trkpt>
      <trkpt lat="37.752133961766958" lon="-1.975254993885756">
        <ele>891.29999999999995</ele>
        <time>2018-04-18T09:53:11Z</time>
      </trkpt>
      <trkpt lat="37.751858029514551" lon="-1.97530503384769">
        <ele>889.5</ele>
        <time>2018-04-18T09:52:59Z</time>
      </trkpt>
      <trkpt lat="37.751623000949621" lon="-1.975231021642685">
        <ele>887.89999999999998</ele>
        <time>2018-04-18T09:52:45Z</time>
      </trkpt>
      <trkpt lat="37.751609003171325" lon="-1.975228004157543">
        <ele>887.89999999999998</ele>
        <time>2018-04-18T09:52:44Z</time>
      </trkpt>
      <trkpt lat="37.751434994861484" lon="-1.975074028596282">
        <ele>886</ele>
        <time>2018-04-18T09:52:32Z</time>
      </trkpt>
      <trkpt lat="37.751417979598045" lon="-1.975058019161224">
        <ele>886.10000000000002</ele>
        <time>2018-04-18T09:52:31Z</time>
      </trkpt>
      <trkpt lat="37.751377997919917" lon="-1.975009990856051">
        <ele>885</ele>
        <time>2018-04-18T09:52:28Z</time>
      </trkpt>
      <trkpt lat="37.751144981011748" lon="-1.974803041666746">
        <ele>883.10000000000002</ele>
        <time>2018-04-18T09:52:13Z</time>
      </trkpt>
      <trkpt lat="37.750862007960677" lon="-1.974762976169586">
        <ele>880.70000000000005</ele>
        <time>2018-04-18T09:51:59Z</time>
      </trkpt>
      <trkpt lat="37.750843986868858" lon="-1.974760964512825">
        <ele>880.79999999999995</ele>
        <time>2018-04-18T09:51:58Z</time>
      </trkpt>
      <trkpt lat="37.75082403793931" lon="-1.974758030846715">
        <ele>881.20000000000005</ele>
        <time>2018-04-18T09:51:57Z</time>
      </trkpt>
      <trkpt lat="37.75080299936235" lon="-1.974756019189954">
        <ele>881.29999999999995</ele>
        <time>2018-04-18T09:51:56Z</time>
      </trkpt>
      <trkpt lat="37.75078296661377" lon="-1.974753001704812">
        <ele>881.29999999999995</ele>
        <time>2018-04-18T09:51:55Z</time>
      </trkpt>
      <trkpt lat="37.750763017684221" lon="-1.974745038896799">
        <ele>880.79999999999995</ele>
        <time>2018-04-18T09:51:54Z</time>
      </trkpt>
      <trkpt lat="37.750744996592402" lon="-1.974733974784613">
        <ele>880.79999999999995</ele>
        <time>2018-04-18T09:51:53Z</time>
      </trkpt>
      <trkpt lat="37.750728987157345" lon="-1.974725006148219">
        <ele>880.79999999999995</ele>
        <time>2018-04-18T09:51:52Z</time>
      </trkpt>
      <trkpt lat="37.750698979943991" lon="-1.97468301281333">
        <ele>881.29999999999995</ele>
        <time>2018-04-18T09:51:49Z</time>
      </trkpt>
      <trkpt lat="37.750689005479217" lon="-1.974659962579608">
        <ele>880.70000000000005</ele>
        <time>2018-04-18T09:51:48Z</time>
      </trkpt>
      <trkpt lat="37.750684982165694" lon="-1.974630961194634">
        <ele>880.70000000000005</ele>
        <time>2018-04-18T09:51:47Z</time>
      </trkpt>
      <trkpt lat="37.750682970508933" lon="-1.974603971466422">
        <ele>880.70000000000005</ele>
        <time>2018-04-18T09:51:46Z</time>
      </trkpt>
      <trkpt lat="37.750680036842823" lon="-1.974572958424687">
        <ele>880.20000000000005</ele>
        <time>2018-04-18T09:51:45Z</time>
      </trkpt>
      <trkpt lat="37.750680958852172" lon="-1.974543035030365">
        <ele>880.29999999999995</ele>
        <time>2018-04-18T09:51:44Z</time>
      </trkpt>
      <trkpt lat="37.750685987994075" lon="-1.974519984796643">
        <ele>880.20000000000005</ele>
        <time>2018-04-18T09:51:43Z</time>
      </trkpt>
      <trkpt lat="37.7506950404495" lon="-1.9744479842484">
        <ele>879.79999999999995</ele>
        <time>2018-04-18T09:51:40Z</time>
      </trkpt>
      <trkpt lat="37.750852033495903" lon="-1.974227037280798">
        <ele>877.29999999999995</ele>
        <time>2018-04-18T09:51:27Z</time>
      </trkpt>
      <trkpt lat="37.750954041257501" lon="-1.973884971812367">
        <ele>872.5</ele>
        <time>2018-04-18T09:51:10Z</time>
      </trkpt>
      <trkpt lat="37.750958986580372" lon="-1.973531004041433">
        <ele>871.20000000000005</ele>
        <time>2018-04-18T09:50:55Z</time>
      </trkpt>
      <trkpt lat="37.751016989350319" lon="-1.97318097576499">
        <ele>869.79999999999995</ele>
        <time>2018-04-18T09:50:41Z</time>
      </trkpt>
      <trkpt lat="37.750928979367018" lon="-1.972843017429113">
        <ele>866.29999999999995</ele>
        <time>2018-04-18T09:50:25Z</time>
      </trkpt>
      <trkpt lat="37.750701997429132" lon="-1.972748972475529">
        <ele>865.79999999999995</ele>
        <time>2018-04-18T09:50:13Z</time>
      </trkpt>
      <trkpt lat="37.75048197247088" lon="-1.972544034942985">
        <ele>864.39999999999998</ele>
        <time>2018-04-18T09:49:59Z</time>
      </trkpt>
      <trkpt lat="37.750401003286242" lon="-1.97208303026855">
        <ele>863</ele>
        <time>2018-04-18T09:49:41Z</time>
      </trkpt>
      <trkpt lat="37.750369990244508" lon="-1.971688997000456">
        <ele>860.10000000000002</ele>
        <time>2018-04-18T09:49:25Z</time>
      </trkpt>
      <trkpt lat="37.750318022444844" lon="-1.971414992585778">
        <ele>855.79999999999995</ele>
        <time>2018-04-18T09:49:14Z</time>
      </trkpt>
      <trkpt lat="37.750153988599777" lon="-1.971025988459587">
        <ele>853.39999999999998</ele>
        <time>2018-04-18T09:48:56Z</time>
      </trkpt>
      <trkpt lat="37.750039994716644" lon="-1.970614017918706">
        <ele>851</ele>
        <time>2018-04-18T09:48:39Z</time>
      </trkpt>
      <trkpt lat="37.749961037188768" lon="-1.970203975215554">
        <ele>847.29999999999995</ele>
        <time>2018-04-18T09:48:23Z</time>
      </trkpt>
      <trkpt lat="37.749678986147046" lon="-1.969930976629257">
        <ele>842.89999999999998</ele>
        <time>2018-04-18T09:48:05Z</time>
      </trkpt>
      <trkpt lat="37.749447980895638" lon="-1.96969703771174">
        <ele>842</ele>
        <time>2018-04-18T09:47:50Z</time>
      </trkpt>
      <trkpt lat="37.749285958707333" lon="-1.969324965029955">
        <ele>838.5</ele>
        <time>2018-04-18T09:47:33Z</time>
      </trkpt>
      <trkpt lat="37.749186968430877" lon="-1.968961022794247">
        <ele>835.20000000000005</ele>
        <time>2018-04-18T09:47:18Z</time>
      </trkpt>
      <trkpt lat="37.749228039756417" lon="-1.968579981476069">
        <ele>833.20000000000005</ele>
        <time>2018-04-18T09:47:03Z</time>
      </trkpt>
      <trkpt lat="37.749327030032873" lon="-1.968224002048373">
        <ele>831.29999999999995</ele>
        <time>2018-04-18T09:46:49Z</time>
      </trkpt>
      <trkpt lat="37.749507995322347" lon="-1.967912027612329">
        <ele>829.79999999999995</ele>
        <time>2018-04-18T09:46:33Z</time>
      </trkpt>
      <trkpt lat="37.749682003632188" lon="-1.967626037076116">
        <ele>828</ele>
        <time>2018-04-18T09:46:19Z</time>
      </trkpt>
      <trkpt lat="37.749889036640525" lon="-1.967372987419367">
        <ele>826.89999999999998</ele>
        <time>2018-04-18T09:46:05Z</time>
      </trkpt>
      <trkpt lat="37.750089028850198" lon="-1.967079034075141">
        <ele>825.10000000000002</ele>
        <time>2018-04-18T09:45:50Z</time>
      </trkpt>
      <trkpt lat="37.749930024147034" lon="-1.966749960556626">
        <ele>821.20000000000005</ele>
        <time>2018-04-18T09:45:33Z</time>
      </trkpt>
      <trkpt lat="37.749656019732356" lon="-1.96656103245914">
        <ele>819.20000000000005</ele>
        <time>2018-04-18T09:45:17Z</time>
      </trkpt>
      <trkpt lat="37.749383021146059" lon="-1.966361040249467">
        <ele>816.79999999999995</ele>
        <time>2018-04-18T09:45:01Z</time>
      </trkpt>
      <trkpt lat="37.749170958995819" lon="-1.966244028881192">
        <ele>813.89999999999998</ele>
        <time>2018-04-18T09:44:47Z</time>
      </trkpt>
      <trkpt lat="37.748922016471624" lon="-1.966208992525935">
        <ele>812.60000000000002</ele>
        <time>2018-04-18T09:44:33Z</time>
      </trkpt>
      <trkpt lat="37.748610964044929" lon="-1.966269006952643">
        <ele>809.60000000000002</ele>
        <time>2018-04-18T09:44:19Z</time>
      </trkpt>
      <trkpt lat="37.748271999880672" lon="-1.966352993622422">
        <ele>807.29999999999995</ele>
        <time>2018-04-18T09:44:04Z</time>
      </trkpt>
      <trkpt lat="37.747977040708065" lon="-1.966274958103895">
        <ele>805.79999999999995</ele>
        <time>2018-04-18T09:43:51Z</time>
      </trkpt>
      <trkpt lat="37.747802026569843" lon="-1.965997014194727">
        <ele>805.29999999999995</ele>
        <time>2018-04-18T09:43:38Z</time>
      </trkpt>
      <trkpt lat="37.747798003256321" lon="-1.965973963961005">
        <ele>804.79999999999995</ele>
        <time>2018-04-18T09:43:37Z</time>
      </trkpt>
      <trkpt lat="37.74779699742794" lon="-1.965947980061173">
        <ele>804.89999999999998</ele>
        <time>2018-04-18T09:43:36Z</time>
      </trkpt>
      <trkpt lat="37.74779599159956" lon="-1.965924007818103">
        <ele>804.79999999999995</ele>
        <time>2018-04-18T09:43:35Z</time>
      </trkpt>
      <trkpt lat="37.74779699742794" lon="-1.965897018089891">
        <ele>804.89999999999998</ele>
        <time>2018-04-18T09:43:34Z</time>
      </trkpt>
      <trkpt lat="37.747801020741463" lon="-1.965870028361678">
        <ele>804.39999999999998</ele>
        <time>2018-04-18T09:43:33Z</time>
      </trkpt>
      <trkpt lat="37.747804038226604" lon="-1.965846978127956">
        <ele>804.29999999999995</ele>
        <time>2018-04-18T09:43:32Z</time>
      </trkpt>
      <trkpt lat="37.747807977721095" lon="-1.965826023370028">
        <ele>804.39999999999998</ele>
        <time>2018-04-18T09:43:31Z</time>
      </trkpt>
      <trkpt lat="37.747814012691379" lon="-1.965808002278209">
        <ele>803.89999999999998</ele>
        <time>2018-04-18T09:43:30Z</time>
      </trkpt>
      <trkpt lat="37.747819041833282" lon="-1.965784030035138">
        <ele>803.89999999999998</ele>
        <time>2018-04-18T09:43:29Z</time>
      </trkpt>
      <trkpt lat="37.747930018231273" lon="-1.965479012578726">
        <ele>802.39999999999998</ele>
        <time>2018-04-18T09:43:12Z</time>
      </trkpt>
      <trkpt lat="37.748066978529096" lon="-1.965188998728991">
        <ele>800</ele>
        <time>2018-04-18T09:42:57Z</time>
      </trkpt>
      <trkpt lat="37.748202010989189" lon="-1.96488699875772">
        <ele>799</ele>
        <time>2018-04-18T09:42:42Z</time>
      </trkpt>
      <trkpt lat="37.748348023742437" lon="-1.96460603736341">
        <ele>798</ele>
        <time>2018-04-18T09:42:28Z</time>
      </trkpt>
      <trkpt lat="37.748478027060628" lon="-1.964354999363422">
        <ele>797.10000000000002</ele>
        <time>2018-04-18T09:42:16Z</time>
      </trkpt>
      <trkpt lat="37.748641977086663" lon="-1.96400597691536">
        <ele>793.60000000000002</ele>
        <time>2018-04-18T09:42:01Z</time>
      </trkpt>
      <trkpt lat="37.748779021203518" lon="-1.963672963902354">
        <ele>791.20000000000005</ele>
        <time>2018-04-18T09:41:47Z</time>
      </trkpt>
      <trkpt lat="37.748921010643244" lon="-1.963283037766814">
        <ele>788.39999999999998</ele>
        <time>2018-04-18T09:41:31Z</time>
      </trkpt>
      <trkpt lat="37.749069035053253" lon="-1.962906019762158">
        <ele>787.89999999999998</ele>
        <time>2018-04-18T09:41:15Z</time>
      </trkpt>
      <trkpt lat="37.749213958159089" lon="-1.962635032832623">
        <ele>784.5</ele>
        <time>2018-04-18T09:41:03Z</time>
      </trkpt>
      <trkpt lat="37.74938402697444" lon="-1.962360022589564">
        <ele>780.70000000000005</ele>
        <time>2018-04-18T09:40:50Z</time>
      </trkpt>
      <trkpt lat="37.749517969787121" lon="-1.961989961564541">
        <ele>777.70000000000005</ele>
        <time>2018-04-18T09:40:35Z</time>
      </trkpt>
      <trkpt lat="37.749484023079276" lon="-1.961557036265731">
        <ele>775.29999999999995</ele>
        <time>2018-04-18T09:40:19Z</time>
      </trkpt>
      <trkpt lat="37.749333987012506" lon="-1.961140958592296">
        <ele>771.89999999999998</ele>
        <time>2018-04-18T09:40:02Z</time>
      </trkpt>
      <trkpt lat="37.749205995351076" lon="-1.960768969729543">
        <ele>770.39999999999998</ele>
        <time>2018-04-18T09:39:47Z</time>
      </trkpt>
      <trkpt lat="37.74910599924624" lon="-1.960355993360281">
        <ele>768</ele>
        <time>2018-04-18T09:39:31Z</time>
      </trkpt>
      <trkpt lat="37.748988987877965" lon="-1.959964977577329">
        <ele>763.79999999999995</ele>
        <time>2018-04-18T09:39:16Z</time>
      </trkpt>
      <trkpt lat="37.749030981212854" lon="-1.959530962631106">
        <ele>762.79999999999995</ele>
        <time>2018-04-18T09:39:01Z</time>
      </trkpt>
      <trkpt lat="37.749168025329709" lon="-1.959141036495566">
        <ele>764.70000000000005</ele>
        <time>2018-04-18T09:38:48Z</time>
      </trkpt>
      <trkpt lat="37.749177999794483" lon="-1.959113962948322">
        <ele>764.60000000000002</ele>
        <time>2018-04-18T09:38:47Z</time>
      </trkpt>
      <trkpt lat="37.749186968430877" lon="-1.959088984876871">
        <ele>765.10000000000002</ele>
        <time>2018-04-18T09:38:46Z</time>
      </trkpt>
      <trkpt lat="37.749195015057921" lon="-1.95906400680542">
        <ele>765.20000000000005</ele>
        <time>2018-04-18T09:38:45Z</time>
      </trkpt>
      <trkpt lat="37.749205995351076" lon="-1.959044979885221">
        <ele>765.20000000000005</ele>
        <time>2018-04-18T09:38:44Z</time>
      </trkpt>
      <trkpt lat="37.749222004786134" lon="-1.959028970450163">
        <ele>765.20000000000005</ele>
        <time>2018-04-18T09:38:43Z</time>
      </trkpt>
      <trkpt lat="37.749239020049572" lon="-1.959023019298911">
        <ele>764.70000000000005</ele>
        <time>2018-04-18T09:38:42Z</time>
      </trkpt>
      <trkpt lat="37.749291993677616" lon="-1.95899804122746">
        <ele>764.10000000000002</ele>
        <time>2018-04-18T09:38:33Z</time>
      </trkpt>
      <trkpt lat="37.749285958707333" lon="-1.958982031792402">
        <ele>763.60000000000002</ele>
        <time>2018-04-18T09:38:32Z</time>
      </trkpt>
      <trkpt lat="37.749274978414178" lon="-1.958963004872203">
        <ele>763.60000000000002</ele>
        <time>2018-04-18T09:38:31Z</time>
      </trkpt>
      <trkpt lat="37.749261986464262" lon="-1.958941966295242">
        <ele>764.10000000000002</ele>
        <time>2018-04-18T09:38:30Z</time>
      </trkpt>
      <trkpt lat="37.749265003949404" lon="-1.958872983232141">
        <ele>763.10000000000002</ele>
        <time>2018-04-18T09:38:27Z</time>
      </trkpt>
      <trkpt lat="37.749226028099656" lon="-1.95861398242414">
        <ele>760.20000000000005</ele>
        <time>2018-04-18T09:38:15Z</time>
      </trkpt>
      <trkpt lat="37.749018995091319" lon="-1.958338972181082">
        <ele>756.5</ele>
        <time>2018-04-18T09:38:00Z</time>
      </trkpt>
      <trkpt lat="37.748840963467956" lon="-1.957877967506647">
        <ele>753.10000000000002</ele>
        <time>2018-04-18T09:37:43Z</time>
      </trkpt>
      <trkpt lat="37.748700985684991" lon="-1.957488963380456">
        <ele>750.10000000000002</ele>
        <time>2018-04-18T09:37:27Z</time>
      </trkpt>
      <trkpt lat="37.748459000140429" lon="-1.957156034186482">
        <ele>745.39999999999998</ele>
        <time>2018-04-18T09:37:12Z</time>
      </trkpt>
      <trkpt lat="37.748470986261964" lon="-1.956723025068641">
        <ele>742.5</ele>
        <time>2018-04-18T09:36:58Z</time>
      </trkpt>
      <trkpt lat="37.748695034533739" lon="-1.956310970708728">
        <ele>741</ele>
        <time>2018-04-18T09:36:41Z</time>
      </trkpt>
      <trkpt lat="37.748883040621877" lon="-1.955945016816258">
        <ele>740.5</ele>
        <time>2018-04-18T09:36:26Z</time>
      </trkpt>
      <trkpt lat="37.749016983434558" lon="-1.95554100908339">
        <ele>739.5</ele>
        <time>2018-04-18T09:36:10Z</time>
      </trkpt>
      <trkpt lat="37.749032992869616" lon="-1.955057960003614">
        <ele>735.79999999999995</ele>
        <time>2018-04-18T09:35:53Z</time>
      </trkpt>
      <trkpt lat="37.749032992869616" lon="-1.954600978642702">
        <ele>730.89999999999998</ele>
        <time>2018-04-18T09:35:38Z</time>
      </trkpt>
      <trkpt lat="37.748860996216536" lon="-1.954140979796648">
        <ele>727.60000000000002</ele>
        <time>2018-04-18T09:35:22Z</time>
      </trkpt>
      <trkpt lat="37.748609036207199" lon="-1.953623984009028">
        <ele>724.60000000000002</ele>
        <time>2018-04-18T09:35:05Z</time>
      </trkpt>
      <trkpt lat="37.748399991542101" lon="-1.953226011246443">
        <ele>723.70000000000005</ele>
        <time>2018-04-18T09:34:51Z</time>
      </trkpt>
      <trkpt lat="37.748197987675667" lon="-1.952840024605393">
        <ele>724.60000000000002</ele>
        <time>2018-04-18T09:34:38Z</time>
      </trkpt>
      <trkpt lat="37.747987015172839" lon="-1.952363010495901">
        <ele>721.79999999999995</ele>
        <time>2018-04-18T09:34:24Z</time>
      </trkpt>
      <trkpt lat="37.747824992984533" lon="-1.951692039147019">
        <ele>720.29999999999995</ele>
        <time>2018-04-18T09:34:07Z</time>
      </trkpt>
      <trkpt lat="37.747681997716427" lon="-1.951165990903974">
        <ele>718.39999999999998</ele>
        <time>2018-04-18T09:33:54Z</time>
      </trkpt>
      <trkpt lat="37.747565992176533" lon="-1.950631979852915">
        <ele>717</ele>
        <time>2018-04-18T09:33:40Z</time>
      </trkpt>
      <trkpt lat="37.747249994426966" lon="-1.950133005157113">
        <ele>715.89999999999998</ele>
        <time>2018-04-18T09:33:22Z</time>
      </trkpt>
      <trkpt lat="37.746906001120806" lon="-1.949828993529081">
        <ele>713.5</ele>
        <time>2018-04-18T09:33:06Z</time>
      </trkpt>
      <trkpt lat="37.746580028906465" lon="-1.949548032134771">
        <ele>712.5</ele>
        <time>2018-04-18T09:32:51Z</time>
      </trkpt>
      <trkpt lat="37.746299989521503" lon="-1.949119968339801">
        <ele>709.20000000000005</ele>
        <time>2018-04-18T09:32:35Z</time>
      </trkpt>
      <trkpt lat="37.746127992868423" lon="-1.948571959510446">
        <ele>706.70000000000005</ele>
        <time>2018-04-18T09:32:17Z</time>
      </trkpt>
      <trkpt lat="37.745978962630033" lon="-1.948113972321153">
        <ele>703.89999999999998</ele>
        <time>2018-04-18T09:32:01Z</time>
      </trkpt>
      <trkpt lat="37.745783999562263" lon="-1.947540985420346">
        <ele>701</ele>
        <time>2018-04-18T09:31:42Z</time>
      </trkpt>
      <trkpt lat="37.745618037879467" lon="-1.946979984641075">
        <ele>698.5</ele>
        <time>2018-04-18T09:31:25Z</time>
      </trkpt>
      <trkpt lat="37.745421985164285" lon="-1.946356035768986">
        <ele>697.10000000000002</ele>
        <time>2018-04-18T09:31:06Z</time>
      </trkpt>
      <trkpt lat="37.745300028473139" lon="-1.945880027487874">
        <ele>695.20000000000005</ele>
        <time>2018-04-18T09:30:53Z</time>
      </trkpt>
      <trkpt lat="37.745129037648439" lon="-1.94537996314466">
        <ele>692.79999999999995</ele>
        <time>2018-04-18T09:30:37Z</time>
      </trkpt>
      <trkpt lat="37.744953017681837" lon="-1.944894986227155">
        <ele>690.5</ele>
        <time>2018-04-18T09:30:22Z</time>
      </trkpt>
      <trkpt lat="37.744744978845119" lon="-1.944249998778105">
        <ele>688</ele>
        <time>2018-04-18T09:30:05Z</time>
      </trkpt>
      <trkpt lat="37.744520008563995" lon="-1.943563017994165">
        <ele>686.60000000000002</ele>
        <time>2018-04-18T09:29:47Z</time>
      </trkpt>
      <trkpt lat="37.74431498721242" lon="-1.94290797226131">
        <ele>685.60000000000002</ele>
        <time>2018-04-18T09:29:29Z</time>
      </trkpt>
      <trkpt lat="37.744096973910928" lon="-1.942293997853994">
        <ele>683.20000000000005</ele>
        <time>2018-04-18T09:29:10Z</time>
      </trkpt>
      <trkpt lat="37.743954984471202" lon="-1.941829975694418">
        <ele>681.39999999999998</ele>
        <time>2018-04-18T09:28:56Z</time>
      </trkpt>
      <trkpt lat="37.743768990039825" lon="-1.941261012107134">
        <ele>679.39999999999998</ele>
        <time>2018-04-18T09:28:38Z</time>
      </trkpt>
      <trkpt lat="37.743623983114958" lon="-1.94080101326108">
        <ele>677</ele>
        <time>2018-04-18T09:28:23Z</time>
      </trkpt>
      <trkpt lat="37.743458021432161" lon="-1.940255016088486">
        <ele>675.70000000000005</ele>
        <time>2018-04-18T09:28:05Z</time>
      </trkpt>
      <trkpt lat="37.743274038657546" lon="-1.939694015309215">
        <ele>673.79999999999995</ele>
        <time>2018-04-18T09:27:47Z</time>
      </trkpt>
      <trkpt lat="37.743089972063899" lon="-1.939114993438125">
        <ele>671.29999999999995</ele>
        <time>2018-04-18T09:27:29Z</time>
      </trkpt>
      <trkpt lat="37.742894003167748" lon="-1.938496995717287">
        <ele>668.89999999999998</ele>
        <time>2018-04-18T09:27:09Z</time>
      </trkpt>
      <trkpt lat="37.742698034271598" lon="-1.93787899799645">
        <ele>666.60000000000002</ele>
        <time>2018-04-18T09:26:50Z</time>
      </trkpt>
      <trkpt lat="37.742508016526699" lon="-1.937295030802488">
        <ele>664.60000000000002</ele>
        <time>2018-04-18T09:26:33Z</time>
      </trkpt>
      <trkpt lat="37.742320010438561" lon="-1.936739981174469">
        <ele>664.10000000000002</ele>
        <time>2018-04-18T09:26:16Z</time>
      </trkpt>
      <trkpt lat="37.742138039320707" lon="-1.936103962361813">
        <ele>661.79999999999995</ele>
        <time>2018-04-18T09:25:58Z</time>
      </trkpt>
      <trkpt lat="37.741951961070299" lon="-1.935510020703077">
        <ele>660.39999999999998</ele>
        <time>2018-04-18T09:25:41Z</time>
      </trkpt>
      <trkpt lat="37.741756998002529" lon="-1.934924041852355">
        <ele>659</ele>
        <time>2018-04-18T09:25:24Z</time>
      </trkpt>
      <trkpt lat="37.741536973044276" lon="-1.934279976412654">
        <ele>657.60000000000002</ele>
        <time>2018-04-18T09:25:05Z</time>
      </trkpt>
      <trkpt lat="37.741337986662984" lon="-1.933644041419029">
        <ele>655.10000000000002</ele>
        <time>2018-04-18T09:24:47Z</time>
      </trkpt>
      <trkpt lat="37.741148974746466" lon="-1.933059990406036">
        <ele>653.29999999999995</ele>
        <time>2018-04-18T09:24:30Z</time>
      </trkpt>
      <trkpt lat="37.740939008072019" lon="-1.932502007111907">
        <ele>650.89999999999998</ele>
        <time>2018-04-18T09:24:12Z</time>
      </trkpt>
      <trkpt lat="37.740718983113766" lon="-1.931943017989397">
        <ele>649.5</ele>
        <time>2018-04-18T09:23:54Z</time>
      </trkpt>
      <trkpt lat="37.740527037531137" lon="-1.931472960859537">
        <ele>647.60000000000002</ele>
        <time>2018-04-18T09:23:39Z</time>
      </trkpt>
      <trkpt lat="37.740280022844672" lon="-1.930877007544041">
        <ele>645.70000000000005</ele>
        <time>2018-04-18T09:23:20Z</time>
      </trkpt>
      <trkpt lat="37.740053040906787" lon="-1.930324975401163">
        <ele>644.20000000000005</ele>
        <time>2018-04-18T09:23:03Z</time>
      </trkpt>
      <trkpt lat="37.739785993471742" lon="-1.929718963801861">
        <ele>642.29999999999995</ele>
        <time>2018-04-18T09:22:44Z</time>
      </trkpt>
      <trkpt lat="37.739521963521838" lon="-1.929087974131107">
        <ele>639.5</ele>
        <time>2018-04-18T09:22:24Z</time>
      </trkpt>
      <trkpt lat="37.739285007119179" lon="-1.928500989452004">
        <ele>638.39999999999998</ele>
        <time>2018-04-18T09:22:05Z</time>
      </trkpt>
      <trkpt lat="37.739118039608002" lon="-1.928110979497433">
        <ele>637.89999999999998</ele>
        <time>2018-04-18T09:21:52Z</time>
      </trkpt>
      <trkpt lat="37.738856021314859" lon="-1.927492981776595">
        <ele>637.39999999999998</ele>
        <time>2018-04-18T09:21:32Z</time>
      </trkpt>
      <trkpt lat="37.738624010235071" lon="-1.926927035674453">
        <ele>634.5</ele>
        <time>2018-04-18T09:21:14Z</time>
      </trkpt>
      <trkpt lat="37.738411026075482" lon="-1.926427977159619">
        <ele>632.70000000000005</ele>
        <time>2018-04-18T09:20:56Z</time>
      </trkpt>
      <trkpt lat="37.738196030259132" lon="-1.925910981371999">
        <ele>631.70000000000005</ele>
        <time>2018-04-18T09:20:40Z</time>
      </trkpt>
      <trkpt lat="37.737990003079176" lon="-1.925418041646481">
        <ele>630.70000000000005</ele>
        <time>2018-04-18T09:20:24Z</time>
      </trkpt>
      <trkpt lat="37.737806020304561" lon="-1.924969023093581">
        <ele>628.79999999999995</ele>
        <time>2018-04-18T09:20:10Z</time>
      </trkpt>
      <trkpt lat="37.73767501115799" lon="-1.924646990373731">
        <ele>627.29999999999995</ele>
        <time>2018-04-18T09:19:59Z</time>
      </trkpt>
      <trkpt lat="37.737466972321272" lon="-1.924157990142703">
        <ele>625.39999999999998</ele>
        <time>2018-04-18T09:19:43Z</time>
      </trkpt>
      <trkpt lat="37.737236972898245" lon="-1.923620039597154">
        <ele>623</ele>
        <time>2018-04-18T09:19:26Z</time>
      </trkpt>
      <trkpt lat="37.737014014273882" lon="-1.923073036596179">
        <ele>621.70000000000005</ele>
        <time>2018-04-18T09:19:09Z</time>
      </trkpt>
      <trkpt lat="37.736806981265545" lon="-1.9226039852947">
        <ele>619.79999999999995</ele>
        <time>2018-04-18T09:18:54Z</time>
      </trkpt>
      <trkpt lat="37.736649988219142" lon="-1.922167958691716">
        <ele>618.20000000000005</ele>
        <time>2018-04-18T09:18:40Z</time>
      </trkpt>
      <trkpt lat="37.736441027373075" lon="-1.921655992045999">
        <ele>617.79999999999995</ele>
        <time>2018-04-18T09:18:24Z</time>
      </trkpt>
      <trkpt lat="37.736200969666243" lon="-1.921104965731502">
        <ele>616.29999999999995</ele>
        <time>2018-04-18T09:18:07Z</time>
      </trkpt>
      <trkpt lat="37.736026039347053" lon="-1.920571960508823">
        <ele>615.39999999999998</ele>
        <time>2018-04-18T09:17:51Z</time>
      </trkpt>
      <trkpt lat="37.735858988016844" lon="-1.919900989159942">
        <ele>614.89999999999998</ele>
        <time>2018-04-18T09:17:31Z</time>
      </trkpt>
      <trkpt lat="37.735710041597486" lon="-1.919272011145949">
        <ele>612</ele>
        <time>2018-04-18T09:17:13Z</time>
      </trkpt>
      <trkpt lat="37.735540978610516" lon="-1.918573966249824">
        <ele>609.5</ele>
        <time>2018-04-18T09:16:54Z</time>
      </trkpt>
      <trkpt lat="37.73518399335444" lon="-1.918007014319301">
        <ele>607.70000000000005</ele>
        <time>2018-04-18T09:16:35Z</time>
      </trkpt>
      <trkpt lat="37.734748972579837" lon="-1.917536035180092">
        <ele>607.60000000000002</ele>
        <time>2018-04-18T09:16:18Z</time>
      </trkpt>
      <trkpt lat="37.734431969001889" lon="-1.917077964171767">
        <ele>607.10000000000002</ele>
        <time>2018-04-18T09:16:03Z</time>
      </trkpt>
      <trkpt lat="37.73426097817719" lon="-1.916542025282979">
        <ele>605.70000000000005</ele>
        <time>2018-04-18T09:15:48Z</time>
      </trkpt>
      <trkpt lat="37.734062997624278" lon="-1.915985969826579">
        <ele>604.79999999999995</ele>
        <time>2018-04-18T09:15:31Z</time>
      </trkpt>
      <trkpt lat="37.733849007636309" lon="-1.915347017347813">
        <ele>602.89999999999998</ele>
        <time>2018-04-18T09:15:12Z</time>
      </trkpt>
      <trkpt lat="37.733645997941494" lon="-1.914759026840329">
        <ele>601</ele>
        <time>2018-04-18T09:14:55Z</time>
      </trkpt>
      <trkpt lat="37.733408035710454" lon="-1.914024017751217">
        <ele>599</ele>
        <time>2018-04-18T09:14:34Z</time>
      </trkpt>
      <trkpt lat="37.733112992718816" lon="-1.913160011172295">
        <ele>596.60000000000002</ele>
        <time>2018-04-18T09:14:10Z</time>
      </trkpt>
      <trkpt lat="37.732895985245705" lon="-1.912500020116568">
        <ele>595.20000000000005</ele>
        <time>2018-04-18T09:13:52Z</time>
      </trkpt>
      <trkpt lat="37.732704039663076" lon="-1.911932984367013">
        <ele>594.20000000000005</ele>
        <time>2018-04-18T09:13:36Z</time>
      </trkpt>
      <trkpt lat="37.732440009713173" lon="-1.911123963072896">
        <ele>593.29999999999995</ele>
        <time>2018-04-18T09:13:13Z</time>
      </trkpt>
      <trkpt lat="37.732244962826371" lon="-1.9105280097574">
        <ele>591.39999999999998</ele>
        <time>2018-04-18T09:12:56Z</time>
      </trkpt>
      <trkpt lat="37.732037007808685" lon="-1.9100789912045">
        <ele>587.89999999999998</ele>
        <time>2018-04-18T09:12:40Z</time>
      </trkpt>
      <trkpt lat="37.73170399479568" lon="-1.909532994031906">
        <ele>586.89999999999998</ele>
        <time>2018-04-18T09:12:21Z</time>
      </trkpt>
      <trkpt lat="37.731627970933914" lon="-1.908822041004896">
        <ele>585.5</ele>
        <time>2018-04-18T09:12:02Z</time>
      </trkpt>
      <trkpt lat="37.731583965942264" lon="-1.908141011372209">
        <ele>583.60000000000002</ele>
        <time>2018-04-18T09:11:44Z</time>
      </trkpt>
      <trkpt lat="37.731475001201034" lon="-1.907676989212632">
        <ele>583.70000000000005</ele>
        <time>2018-04-18T09:11:32Z</time>
      </trkpt>
      <trkpt lat="37.731322031468153" lon="-1.907045999541879">
        <ele>583.70000000000005</ele>
        <time>2018-04-18T09:11:15Z</time>
      </trkpt>
      <trkpt lat="37.731163026764989" lon="-1.906438982114196">
        <ele>582.70000000000005</ele>
        <time>2018-04-18T09:10:57Z</time>
      </trkpt>
      <trkpt lat="37.731027994304895" lon="-1.905841017141938">
        <ele>581.60000000000002</ele>
        <time>2018-04-18T09:10:41Z</time>
      </trkpt>
      <trkpt lat="37.73088600486517" lon="-1.905301976948977">
        <ele>580.70000000000005</ele>
        <time>2018-04-18T09:10:25Z</time>
      </trkpt>
      <trkpt lat="37.730756001546979" lon="-1.904823035001755">
        <ele>579.70000000000005</ele>
        <time>2018-04-18T09:10:10Z</time>
      </trkpt>
      <trkpt lat="37.730592973530293" lon="-1.90417000092566">
        <ele>578.20000000000005</ele>
        <time>2018-04-18T09:09:50Z</time>
      </trkpt>
      <trkpt lat="37.730422988533974" lon="-1.903444966301322">
        <ele>575.89999999999998</ele>
        <time>2018-04-18T09:09:29Z</time>
      </trkpt>
      <trkpt lat="37.730269012972713" lon="-1.902821017429233">
        <ele>574.79999999999995</ele>
        <time>2018-04-18T09:09:11Z</time>
      </trkpt>
      <trkpt lat="37.730097016319633" lon="-1.902167983353138">
        <ele>573.39999999999998</ele>
        <time>2018-04-18T09:08:52Z</time>
      </trkpt>
      <trkpt lat="37.729966007173061" lon="-1.901636989787221">
        <ele>571.5</ele>
        <time>2018-04-18T09:08:36Z</time>
      </trkpt>
      <trkpt lat="37.729844972491264" lon="-1.901132985949516">
        <ele>570.10000000000002</ele>
        <time>2018-04-18T09:08:20Z</time>
      </trkpt>
      <trkpt lat="37.729744976386428" lon="-1.900720009580255">
        <ele>569.10000000000002</ele>
        <time>2018-04-18T09:08:06Z</time>
      </trkpt>
      <trkpt lat="37.729633999988437" lon="-1.900265039876103">
        <ele>567.20000000000005</ele>
        <time>2018-04-18T09:07:49Z</time>
      </trkpt>
      <trkpt lat="37.729627965018153" lon="-1.900240983814001">
        <ele>566.70000000000005</ele>
        <time>2018-04-18T09:07:48Z</time>
      </trkpt>
      <trkpt lat="37.729622013866901" lon="-1.900218017399311">
        <ele>566.79999999999995</ele>
        <time>2018-04-18T09:07:47Z</time>
      </trkpt>
      <trkpt lat="37.729617990553379" lon="-1.900193961337209">
        <ele>566.79999999999995</ele>
        <time>2018-04-18T09:07:46Z</time>
      </trkpt>
      <trkpt lat="37.729617990553379" lon="-1.900168983265758">
        <ele>566.20000000000005</ele>
        <time>2018-04-18T09:07:45Z</time>
      </trkpt>
      <trkpt lat="37.729616984724998" lon="-1.900144005194306">
        <ele>566.20000000000005</ele>
        <time>2018-04-18T09:07:44Z</time>
      </trkpt>
      <trkpt lat="37.729616984724998" lon="-1.900120032951236">
        <ele>566.29999999999995</ele>
        <time>2018-04-18T09:07:43Z</time>
      </trkpt>
      <trkpt lat="37.729614973068237" lon="-1.900097988545895">
        <ele>565.70000000000005</ele>
        <time>2018-04-18T09:07:42Z</time>
      </trkpt>
      <trkpt lat="37.729610027745366" lon="-1.900078961625695">
        <ele>565.70000000000005</ele>
        <time>2018-04-18T09:07:41Z</time>
      </trkpt>
      <trkpt lat="37.729606004431844" lon="-1.900060018524528">
        <ele>565.70000000000005</ele>
        <time>2018-04-18T09:07:40Z</time>
      </trkpt>
      <trkpt lat="37.729595024138689" lon="-1.899942001327872">
        <ele>564.70000000000005</ele>
        <time>2018-04-18T09:07:35Z</time>
      </trkpt>
      <trkpt lat="37.729520006105304" lon="-1.899646958336234">
        <ele>562.89999999999998</ele>
        <time>2018-04-18T09:07:24Z</time>
      </trkpt>
      <trkpt lat="37.729516988620162" lon="-1.899621980264783">
        <ele>562.89999999999998</ele>
        <time>2018-04-18T09:07:23Z</time>
      </trkpt>
      <trkpt lat="37.729511959478259" lon="-1.899597002193332">
        <ele>562.29999999999995</ele>
        <time>2018-04-18T09:07:22Z</time>
      </trkpt>
      <trkpt lat="37.729508019983768" lon="-1.899573029950261">
        <ele>561.79999999999995</ele>
        <time>2018-04-18T09:07:21Z</time>
      </trkpt>
      <trkpt lat="37.729502990841866" lon="-1.89955098554492">
        <ele>561.89999999999998</ele>
        <time>2018-04-18T09:07:20Z</time>
      </trkpt>
      <trkpt lat="37.72942403331399" lon="-1.899338001385331">
        <ele>560.89999999999998</ele>
        <time>2018-04-18T09:07:10Z</time>
      </trkpt>
      <trkpt lat="37.729302998632193" lon="-1.898970035836101">
        <ele>559</ele>
        <time>2018-04-18T09:06:53Z</time>
      </trkpt>
      <trkpt lat="37.729251030832529" lon="-1.898721009492874">
        <ele>557</ele>
        <time>2018-04-18T09:06:42Z</time>
      </trkpt>
      <trkpt lat="37.729224963113666" lon="-1.898367963731289">
        <ele>553.20000000000005</ele>
        <time>2018-04-18T09:06:28Z</time>
      </trkpt>
      <trkpt lat="37.729226974770427" lon="-1.898341979831457">
        <ele>553.20000000000005</ele>
        <time>2018-04-18T09:06:27Z</time>
      </trkpt>
      <trkpt lat="37.729225968942046" lon="-1.898315995931625">
        <ele>552.70000000000005</ele>
        <time>2018-04-18T09:06:26Z</time>
      </trkpt>
      <trkpt lat="37.729224041104317" lon="-1.898291017860174">
        <ele>552.79999999999995</ele>
        <time>2018-04-18T09:06:25Z</time>
      </trkpt>
      <trkpt lat="37.729224041104317" lon="-1.898264028131962">
        <ele>552.29999999999995</ele>
        <time>2018-04-18T09:06:24Z</time>
      </trkpt>
      <trkpt lat="37.729224041104317" lon="-1.89823703840375">
        <ele>552.20000000000005</ele>
        <time>2018-04-18T09:06:23Z</time>
      </trkpt>
      <trkpt lat="37.729222029447556" lon="-1.898210970684886">
        <ele>552.29999999999995</ele>
        <time>2018-04-18T09:06:22Z</time>
      </trkpt>
      <trkpt lat="37.729222029447556" lon="-1.898184986785054">
        <ele>552.29999999999995</ele>
        <time>2018-04-18T09:06:21Z</time>
      </trkpt>
      <trkpt lat="37.729220017790794" lon="-1.898163026198745">
        <ele>552.29999999999995</ele>
        <time>2018-04-18T09:06:20Z</time>
      </trkpt>
      <trkpt lat="37.729217000305653" lon="-1.897998992353678">
        <ele>550.29999999999995</ele>
        <time>2018-04-18T09:06:13Z</time>
      </trkpt>
      <trkpt lat="37.729204008355737" lon="-1.897627003490925">
        <ele>547</ele>
        <time>2018-04-18T09:05:58Z</time>
      </trkpt>
      <trkpt lat="37.729272991418839" lon="-1.897217966616154">
        <ele>543.10000000000002</ele>
        <time>2018-04-18T09:05:42Z</time>
      </trkpt>
      <trkpt lat="37.729368964210153" lon="-1.896769031882286">
        <ele>540.60000000000002</ele>
        <time>2018-04-18T09:05:25Z</time>
      </trkpt>
      <trkpt lat="37.729400983080268" lon="-1.896451022475958">
        <ele>539.60000000000002</ele>
        <time>2018-04-18T09:05:11Z</time>
      </trkpt>
      <trkpt lat="37.72940400056541" lon="-1.896055983379483">
        <ele>539.20000000000005</ele>
        <time>2018-04-18T09:04:54Z</time>
      </trkpt>
      <trkpt lat="37.729396959766746" lon="-1.895634038373828">
        <ele>536.29999999999995</ele>
        <time>2018-04-18T09:04:37Z</time>
      </trkpt>
      <trkpt lat="37.729367036372423" lon="-1.895533036440611">
        <ele>535.70000000000005</ele>
        <time>2018-04-18T09:04:32Z</time>
      </trkpt>
      <trkpt lat="37.729195961728692" lon="-1.895237993448973">
        <ele>533.39999999999998</ele>
        <time>2018-04-18T09:04:16Z</time>
      </trkpt>
      <trkpt lat="37.72903704084456" lon="-1.894978992640972">
        <ele>529.89999999999998</ele>
        <time>2018-04-18T09:04:03Z</time>
      </trkpt>
      <trkpt lat="37.728897985070944" lon="-1.894719991832972">
        <ele>527.60000000000002</ele>
        <time>2018-04-18T09:03:49Z</time>
      </trkpt>
      <trkpt lat="37.728737974539399" lon="-1.894421009346843">
        <ele>526.60000000000002</ele>
        <time>2018-04-18T09:03:34Z</time>
      </trkpt>
      <trkpt lat="37.728725988417864" lon="-1.894401982426643">
        <ele>526.60000000000002</ele>
        <time>2018-04-18T09:03:33Z</time>
      </trkpt>
      <trkpt lat="37.72871701978147" lon="-1.894383039325476">
        <ele>526.5</ele>
        <time>2018-04-18T09:03:32Z</time>
      </trkpt>
      <trkpt lat="37.728688018396497" lon="-1.894334005191922">
        <ele>526.5</ele>
        <time>2018-04-18T09:03:29Z</time>
      </trkpt>
      <trkpt lat="37.728678965941072" lon="-1.894314978271723">
        <ele>526.5</ele>
        <time>2018-04-18T09:03:28Z</time>
      </trkpt>
      <trkpt lat="37.72867301478982" lon="-1.894295029342175">
        <ele>526.5</ele>
        <time>2018-04-18T09:03:27Z</time>
      </trkpt>
      <trkpt lat="37.728666979819536" lon="-1.894274996593595">
        <ele>527.10000000000002</ele>
        <time>2018-04-18T09:03:26Z</time>
      </trkpt>
      <trkpt lat="37.728659017011523" lon="-1.894258987158537">
        <ele>527</ele>
        <time>2018-04-18T09:03:25Z</time>
      </trkpt>
      <trkpt lat="37.728650970384479" lon="-1.89424498938024">
        <ele>527.10000000000002</ele>
        <time>2018-04-18T09:03:24Z</time>
      </trkpt>
      <trkpt lat="37.728608977049589" lon="-1.894204001873732">
        <ele>526.60000000000002</ele>
        <time>2018-04-18T09:03:19Z</time>
      </trkpt>
      <trkpt lat="37.728597996756434" lon="-1.894195033237338">
        <ele>526</ele>
        <time>2018-04-18T09:03:18Z</time>
      </trkpt>
      <trkpt lat="37.728499006479979" lon="-1.894052037969232">
        <ele>527.89999999999998</ele>
        <time>2018-04-18T09:03:09Z</time>
      </trkpt>
      <trkpt lat="37.728350982069969" lon="-1.893758000805974">
        <ele>534.29999999999995</ele>
        <time>2018-04-18T09:02:54Z</time>
      </trkpt>
      <trkpt lat="37.728343019261956" lon="-1.893745008856058">
        <ele>533.70000000000005</ele>
        <time>2018-04-18T09:02:53Z</time>
      </trkpt>
      <trkpt lat="37.728336984291673" lon="-1.893730005249381">
        <ele>532.70000000000005</ele>
        <time>2018-04-18T09:02:52Z</time>
      </trkpt>
      <trkpt lat="37.728263977915049" lon="-1.893520960584283">
        <ele>538.5</ele>
        <time>2018-04-18T09:02:42Z</time>
      </trkpt>
      <trkpt lat="37.728247968479991" lon="-1.893524983897805">
        <ele>537</ele>
        <time>2018-04-18T09:02:41Z</time>
      </trkpt>
      <trkpt lat="37.728291973471642" lon="-1.893017962574959">
        <ele>523.60000000000002</ele>
        <time>2018-04-18T08:42:11Z</time>
      </trkpt>
      <trkpt lat="37.728283004835248" lon="-1.892994996160269">
        <ele>523.20000000000005</ele>
        <time>2018-04-18T08:42:09Z</time>
      </trkpt>
      <trkpt lat="37.728289039805532" lon="-1.892953002825379">
        <ele>523.10000000000002</ele>
        <time>2018-04-18T08:41:57Z</time>
      </trkpt>
    </trkseg>
  </trk>
</gpx>
